<?xml version='1.0' encoding='UTF-8'?><gpx version="1.1" creator="JPX - https://github.com/jenetics/jpx" xmlns="http://www.topografix.com/GPX/1/1"><trk><trkseg><trkpt lat="44.476735" lon="11.6306081"><ele>28.000000000000004</ele><time>2026-05-01T07:37:35.232Z</time></trkpt><trkpt lat="44.4766825" lon="11.6307204"><ele>28.0</ele><time>2026-05-01T07:37:36.232Z</time></trkpt><trkpt lat="44.4766363" lon="11.630813"><ele>28.0</ele><time>2026-05-01T07:37:37.232Z</time></trkpt><trkpt lat="44.4765969" lon="11.6308986"><ele>28.0</ele><time>2026-05-01T07:37:38.232Z</time></trkpt><trkpt lat="44.4765622" lon="11.6309836"><ele>28.000000000000004</ele><time>2026-05-01T07:37:39.232Z</time></trkpt><trkpt lat="44.4765239" lon="11.6310577"><ele>28.0</ele><time>2026-05-01T07:37:40.232Z</time></trkpt><trkpt lat="44.476415" lon="11.6310382"><ele>28.000000000000004</ele><time>2026-05-01T07:37:42.232Z</time></trkpt><trkpt lat="44.4763502" lon="11.6309817"><ele>28.0</ele><time>2026-05-01T07:37:43.232Z</time></trkpt><trkpt lat="44.4762981" lon="11.6309219"><ele>28.0</ele><time>2026-05-01T07:37:44.233Z</time></trkpt><trkpt lat="44.4762402" lon="11.6308663"><ele>28.0</ele><time>2026-05-01T07:37:45.233Z</time></trkpt><trkpt lat="44.4761697" lon="11.6308095"><ele>28.000000000000004</ele><time>2026-05-01T07:37:46.232Z</time></trkpt><trkpt lat="44.4760895" lon="11.630744"><ele>28.0</ele><time>2026-05-01T07:37:47.232Z</time></trkpt><trkpt lat="44.4760061" lon="11.6306697"><ele>27.799999999999997</ele><time>2026-05-01T07:37:48.233Z</time></trkpt><trkpt lat="44.4759245" lon="11.6305926"><ele>27.599999999999998</ele><time>2026-05-01T07:37:49.233Z</time></trkpt><trkpt lat="44.4758418" lon="11.6305183"><ele>27.400000000000002</ele><time>2026-05-01T07:37:50.233Z</time></trkpt><trkpt lat="44.4757581" lon="11.630446"><ele>27.200000000000003</ele><time>2026-05-01T07:37:51.233Z</time></trkpt><trkpt lat="44.4756775" lon="11.6303807"><ele>27.0</ele><time>2026-05-01T07:37:52.233Z</time></trkpt><trkpt lat="44.4756072" lon="11.6303184"><ele>27.0</ele><time>2026-05-01T07:37:53.233Z</time></trkpt><trkpt lat="44.475545" lon="11.6302636"><ele>27.0</ele><time>2026-05-01T07:37:54.233Z</time></trkpt><trkpt lat="44.4754908" lon="11.6302116"><ele>27.0</ele><time>2026-05-01T07:37:55.233Z</time></trkpt><trkpt lat="44.4754251" lon="11.630145"><ele>27.0</ele><time>2026-05-01T07:37:57.233Z</time></trkpt><trkpt lat="44.4753987" lon="11.630045"><ele>27.0</ele><time>2026-05-01T07:38:05.149Z</time></trkpt><trkpt lat="44.475451" lon="11.6298789"><ele>27.0</ele><time>2026-05-01T07:38:06.233Z</time></trkpt><trkpt lat="44.4754878" lon="11.6297584"><ele>26.833333333333332</ele><time>2026-05-01T07:38:07.233Z</time></trkpt><trkpt lat="44.4755245" lon="11.6296376"><ele>26.666666666666664</ele><time>2026-05-01T07:38:08.232Z</time></trkpt><trkpt lat="44.4755609" lon="11.6295133"><ele>26.5</ele><time>2026-05-01T07:38:09.234Z</time></trkpt><trkpt lat="44.4755977" lon="11.629394"><ele>26.333333333333332</ele><time>2026-05-01T07:38:10.233Z</time></trkpt><trkpt lat="44.4756297" lon="11.6292881"><ele>26.166666666666664</ele><time>2026-05-01T07:38:11.233Z</time></trkpt><trkpt lat="44.4756596" lon="11.6291952"><ele>26.0</ele><time>2026-05-01T07:38:12.233Z</time></trkpt><trkpt lat="44.4756984" lon="11.629063"><ele>26.0</ele><time>2026-05-01T07:38:14.233Z</time></trkpt><trkpt lat="44.4757177" lon="11.6289527"><ele>26.0</ele><time>2026-05-01T07:38:22.233Z</time></trkpt><trkpt lat="44.4756509" lon="11.6288145"><ele>26.0</ele><time>2026-05-01T07:38:24.233Z</time></trkpt><trkpt lat="44.4755691" lon="11.6287609"><ele>26.0</ele><time>2026-05-01T07:38:25.233Z</time></trkpt><trkpt lat="44.4754744" lon="11.6287033"><ele>26.0</ele><time>2026-05-01T07:38:26.233Z</time></trkpt><trkpt lat="44.4753693" lon="11.6286342"><ele>26.25</ele><time>2026-05-01T07:38:27.233Z</time></trkpt><trkpt lat="44.4752627" lon="11.6285537"><ele>26.5</ele><time>2026-05-01T07:38:28.233Z</time></trkpt><trkpt lat="44.4751433" lon="11.6284696"><ele>26.75</ele><time>2026-05-01T07:38:29.233Z</time></trkpt><trkpt lat="44.4750262" lon="11.6283861"><ele>27.0</ele><time>2026-05-01T07:38:30.233Z</time></trkpt><trkpt lat="44.4748959" lon="11.628301"><ele>27.0</ele><time>2026-05-01T07:38:31.233Z</time></trkpt><trkpt lat="44.4747677" lon="11.6282212"><ele>27.000000000000004</ele><time>2026-05-01T07:38:32.233Z</time></trkpt><trkpt lat="44.4746488" lon="11.6281503"><ele>27.000000000000004</ele><time>2026-05-01T07:38:33.233Z</time></trkpt><trkpt lat="44.4745542" lon="11.6280999"><ele>27.0</ele><time>2026-05-01T07:38:34.233Z</time></trkpt><trkpt lat="44.4744859" lon="11.6280625"><ele>27.0</ele><time>2026-05-01T07:38:35.233Z</time></trkpt><trkpt lat="44.4744101" lon="11.6279482"><ele>26.400000000000002</ele><time>2026-05-01T07:38:37.233Z</time></trkpt><trkpt lat="44.4744118" lon="11.6278538"><ele>25.800000000000004</ele><time>2026-05-01T07:38:38.233Z</time></trkpt><trkpt lat="44.4744446" lon="11.6277324"><ele>25.2</ele><time>2026-05-01T07:38:39.233Z</time></trkpt><trkpt lat="44.4745072" lon="11.6276097"><ele>24.6</ele><time>2026-05-01T07:38:40.233Z</time></trkpt><trkpt lat="44.4745824" lon="11.6274603"><ele>24.0</ele><time>2026-05-01T07:38:41.233Z</time></trkpt><trkpt lat="44.4746522" lon="11.6272871"><ele>24.0</ele><time>2026-05-01T07:38:42.233Z</time></trkpt><trkpt lat="44.4747161" lon="11.6271172"><ele>24.0</ele><time>2026-05-01T07:38:43.233Z</time></trkpt><trkpt lat="44.4747782" lon="11.6269461"><ele>24.0</ele><time>2026-05-01T07:38:44.233Z</time></trkpt><trkpt lat="44.4748409" lon="11.6267721"><ele>24.0</ele><time>2026-05-01T07:38:45.233Z</time></trkpt><trkpt lat="44.4749022" lon="11.6265958"><ele>23.75</ele><time>2026-05-01T07:38:46.233Z</time></trkpt><trkpt lat="44.4749623" lon="11.6264184"><ele>23.5</ele><time>2026-05-01T07:38:47.233Z</time></trkpt><trkpt lat="44.4750217" lon="11.6262395"><ele>23.25</ele><time>2026-05-01T07:38:48.234Z</time></trkpt><trkpt lat="44.4750785" lon="11.6260668"><ele>23.0</ele><time>2026-05-01T07:38:49.234Z</time></trkpt><trkpt lat="44.4751353" lon="11.625897"><ele>23.5</ele><time>2026-05-01T07:38:50.234Z</time></trkpt><trkpt lat="44.4751917" lon="11.6257352"><ele>24.0</ele><time>2026-05-01T07:38:51.234Z</time></trkpt><trkpt lat="44.4752483" lon="11.6255771"><ele>24.5</ele><time>2026-05-01T07:38:52.234Z</time></trkpt><trkpt lat="44.4753029" lon="11.6254134"><ele>25.0</ele><time>2026-05-01T07:38:53.234Z</time></trkpt><trkpt lat="44.4753569" lon="11.6252473"><ele>25.25</ele><time>2026-05-01T07:38:54.234Z</time></trkpt><trkpt lat="44.4754121" lon="11.6250824"><ele>25.5</ele><time>2026-05-01T07:38:55.234Z</time></trkpt><trkpt lat="44.4754682" lon="11.6249157"><ele>25.75</ele><time>2026-05-01T07:38:56.234Z</time></trkpt><trkpt lat="44.4755224" lon="11.6247547"><ele>26.0</ele><time>2026-05-01T07:38:57.234Z</time></trkpt><trkpt lat="44.4755722" lon="11.6246093"><ele>25.833333333333332</ele><time>2026-05-01T07:38:58.234Z</time></trkpt><trkpt lat="44.4756164" lon="11.6244828"><ele>25.666666666666664</ele><time>2026-05-01T07:38:59.234Z</time></trkpt><trkpt lat="44.4756558" lon="11.6243717"><ele>25.5</ele><time>2026-05-01T07:39:00.234Z</time></trkpt><trkpt lat="44.4756917" lon="11.6242739"><ele>25.333333333333336</ele><time>2026-05-01T07:39:01.234Z</time></trkpt><trkpt lat="44.4757242" lon="11.6241927"><ele>25.166666666666668</ele><time>2026-05-01T07:39:02.234Z</time></trkpt><trkpt lat="44.4757761" lon="11.624084"><ele>25.0</ele><time>2026-05-01T07:39:04.234Z</time></trkpt><trkpt lat="44.4758174" lon="11.6240107"><ele>25.0</ele><time>2026-05-01T07:39:06.235Z</time></trkpt><trkpt lat="44.4758504" lon="11.6238827"><ele>25.0</ele><time>2026-05-01T07:39:40.234Z</time></trkpt><trkpt lat="44.4758156" lon="11.6237266"><ele>25.0</ele><time>2026-05-01T07:39:42.234Z</time></trkpt><trkpt lat="44.4757427" lon="11.6236391"><ele>25.0</ele><time>2026-05-01T07:39:43.234Z</time></trkpt><trkpt lat="44.4756502" lon="11.6235652"><ele>25.0</ele><time>2026-05-01T07:39:44.234Z</time></trkpt><trkpt lat="44.4755582" lon="11.6234999"><ele>24.75</ele><time>2026-05-01T07:39:45.234Z</time></trkpt><trkpt lat="44.4754536" lon="11.6234288"><ele>24.5</ele><time>2026-05-01T07:39:46.234Z</time></trkpt><trkpt lat="44.4753451" lon="11.6233478"><ele>24.25</ele><time>2026-05-01T07:39:47.234Z</time></trkpt><trkpt lat="44.4752379" lon="11.6232568"><ele>24.0</ele><time>2026-05-01T07:39:48.235Z</time></trkpt><trkpt lat="44.4751279" lon="11.6231642"><ele>24.25</ele><time>2026-05-01T07:39:49.235Z</time></trkpt><trkpt lat="44.4750145" lon="11.6230714"><ele>24.5</ele><time>2026-05-01T07:39:50.235Z</time></trkpt><trkpt lat="44.4749088" lon="11.6229799"><ele>24.75</ele><time>2026-05-01T07:39:51.235Z</time></trkpt><trkpt lat="44.4748085" lon="11.6228784"><ele>25.0</ele><time>2026-05-01T07:39:52.235Z</time></trkpt><trkpt lat="44.4747128" lon="11.622769"><ele>25.0</ele><time>2026-05-01T07:39:53.235Z</time></trkpt><trkpt lat="44.4746222" lon="11.6226541"><ele>25.0</ele><time>2026-05-01T07:39:54.235Z</time></trkpt><trkpt lat="44.474536" lon="11.622538"><ele>25.0</ele><time>2026-05-01T07:39:55.235Z</time></trkpt><trkpt lat="44.4744496" lon="11.6224248"><ele>25.0</ele><time>2026-05-01T07:39:56.235Z</time></trkpt><trkpt lat="44.4743647" lon="11.6223077"><ele>25.5</ele><time>2026-05-01T07:39:57.235Z</time></trkpt><trkpt lat="44.4742786" lon="11.6221866"><ele>26.0</ele><time>2026-05-01T07:39:58.235Z</time></trkpt><trkpt lat="44.4741902" lon="11.6220649"><ele>26.5</ele><time>2026-05-01T07:39:59.235Z</time></trkpt><trkpt lat="44.474102" lon="11.6219449"><ele>27.0</ele><time>2026-05-01T07:40:00.235Z</time></trkpt><trkpt lat="44.4740128" lon="11.6218234"><ele>27.0</ele><time>2026-05-01T07:40:01.235Z</time></trkpt><trkpt lat="44.4739225" lon="11.621704"><ele>27.0</ele><time>2026-05-01T07:40:02.235Z</time></trkpt><trkpt lat="44.4738351" lon="11.621581"><ele>27.0</ele><time>2026-05-01T07:40:03.235Z</time></trkpt><trkpt lat="44.4737493" lon="11.6214488"><ele>27.0</ele><time>2026-05-01T07:40:04.235Z</time></trkpt><trkpt lat="44.4736678" lon="11.6212991"><ele>27.0</ele><time>2026-05-01T07:40:05.235Z</time></trkpt><trkpt lat="44.4735935" lon="11.6211351"><ele>27.0</ele><time>2026-05-01T07:40:06.235Z</time></trkpt><trkpt lat="44.4735229" lon="11.620955"><ele>27.0</ele><time>2026-05-01T07:40:07.235Z</time></trkpt><trkpt lat="44.4734524" lon="11.6207672"><ele>27.0</ele><time>2026-05-01T07:40:08.235Z</time></trkpt><trkpt lat="44.4733805" lon="11.6205706"><ele>27.0</ele><time>2026-05-01T07:40:09.235Z</time></trkpt><trkpt lat="44.4733025" lon="11.6203902"><ele>27.0</ele><time>2026-05-01T07:40:10.235Z</time></trkpt><trkpt lat="44.4732062" lon="11.6202184"><ele>27.0</ele><time>2026-05-01T07:40:11.235Z</time></trkpt><trkpt lat="44.4730574" lon="11.6200924"><ele>27.666666666666664</ele><time>2026-05-01T07:40:12.236Z</time></trkpt><trkpt lat="44.4729203" lon="11.619967"><ele>28.333333333333332</ele><time>2026-05-01T07:40:13.235Z</time></trkpt><trkpt lat="44.4727781" lon="11.6198522"><ele>29.0</ele><time>2026-05-01T07:40:14.235Z</time></trkpt><trkpt lat="44.4726359" lon="11.6197387"><ele>29.0</ele><time>2026-05-01T07:40:15.235Z</time></trkpt><trkpt lat="44.4724985" lon="11.6196251"><ele>29.0</ele><time>2026-05-01T07:40:16.236Z</time></trkpt><trkpt lat="44.4723596" lon="11.6195073"><ele>29.0</ele><time>2026-05-01T07:40:17.235Z</time></trkpt><trkpt lat="44.4722213" lon="11.6193914"><ele>28.666666666666664</ele><time>2026-05-01T07:40:18.235Z</time></trkpt><trkpt lat="44.4720831" lon="11.6192753"><ele>28.333333333333336</ele><time>2026-05-01T07:40:19.235Z</time></trkpt><trkpt lat="44.4719466" lon="11.6191593"><ele>28.0</ele><time>2026-05-01T07:40:20.235Z</time></trkpt><trkpt lat="44.4718126" lon="11.6190443"><ele>28.0</ele><time>2026-05-01T07:40:21.235Z</time></trkpt><trkpt lat="44.4716795" lon="11.6189315"><ele>28.0</ele><time>2026-05-01T07:40:22.235Z</time></trkpt><trkpt lat="44.4715504" lon="11.6188234"><ele>28.0</ele><time>2026-05-01T07:40:23.235Z</time></trkpt><trkpt lat="44.4714296" lon="11.6187242"><ele>28.0</ele><time>2026-05-01T07:40:24.235Z</time></trkpt><trkpt lat="44.4713206" lon="11.6186378"><ele>28.2</ele><time>2026-05-01T07:40:25.235Z</time></trkpt><trkpt lat="44.4712236" lon="11.6185617"><ele>28.4</ele><time>2026-05-01T07:40:26.235Z</time></trkpt><trkpt lat="44.4711407" lon="11.6184939"><ele>28.599999999999998</ele><time>2026-05-01T07:40:27.235Z</time></trkpt><trkpt lat="44.4710721" lon="11.618439"><ele>28.799999999999997</ele><time>2026-05-01T07:40:28.235Z</time></trkpt><trkpt lat="44.4710191" lon="11.618388"><ele>29.0</ele><time>2026-05-01T07:40:29.235Z</time></trkpt><trkpt lat="44.4709622" lon="11.6182606"><ele>29.0</ele><time>2026-05-01T07:40:31.235Z</time></trkpt><trkpt lat="44.4709649" lon="11.6180909"><ele>29.0</ele><time>2026-05-01T07:40:33.235Z</time></trkpt><trkpt lat="44.4709966" lon="11.6179907"><ele>29.0</ele><time>2026-05-01T07:40:34.235Z</time></trkpt><trkpt lat="44.4710388" lon="11.6178789"><ele>29.0</ele><time>2026-05-01T07:40:35.235Z</time></trkpt><trkpt lat="44.4710848" lon="11.6177548"><ele>29.0</ele><time>2026-05-01T07:40:36.235Z</time></trkpt><trkpt lat="44.4711307" lon="11.6176204"><ele>29.0</ele><time>2026-05-01T07:40:37.236Z</time></trkpt><trkpt lat="44.4711777" lon="11.6174764"><ele>29.0</ele><time>2026-05-01T07:40:38.235Z</time></trkpt><trkpt lat="44.4712271" lon="11.6173272"><ele>29.0</ele><time>2026-05-01T07:40:39.235Z</time></trkpt><trkpt lat="44.4712737" lon="11.6171828"><ele>29.0</ele><time>2026-05-01T07:40:40.235Z</time></trkpt><trkpt lat="44.4713212" lon="11.6170388"><ele>28.25</ele><time>2026-05-01T07:40:41.235Z</time></trkpt><trkpt lat="44.4713703" lon="11.6168942"><ele>27.5</ele><time>2026-05-01T07:40:42.235Z</time></trkpt><trkpt lat="44.4714185" lon="11.6167453"><ele>26.75</ele><time>2026-05-01T07:40:43.235Z</time></trkpt><trkpt lat="44.4714716" lon="11.6166061"><ele>26.0</ele><time>2026-05-01T07:40:44.235Z</time></trkpt><trkpt lat="44.4715268" lon="11.616455"><ele>26.0</ele><time>2026-05-01T07:40:45.235Z</time></trkpt><trkpt lat="44.4715834" lon="11.6163017"><ele>26.0</ele><time>2026-05-01T07:40:46.235Z</time></trkpt><trkpt lat="44.4716388" lon="11.6161618"><ele>26.0</ele><time>2026-05-01T07:40:47.236Z</time></trkpt><trkpt lat="44.4716925" lon="11.6160323"><ele>26.0</ele><time>2026-05-01T07:40:48.236Z</time></trkpt><trkpt lat="44.4717389" lon="11.6159012"><ele>26.0</ele><time>2026-05-01T07:40:49.236Z</time></trkpt><trkpt lat="44.4717621" lon="11.6157612"><ele>26.0</ele><time>2026-05-01T07:40:50.236Z</time></trkpt><trkpt lat="44.4717618" lon="11.6156212"><ele>26.0</ele><time>2026-05-01T07:40:51.236Z</time></trkpt><trkpt lat="44.4717461" lon="11.6154908"><ele>26.0</ele><time>2026-05-01T07:40:52.236Z</time></trkpt><trkpt lat="44.4717306" lon="11.6153828"><ele>26.0</ele><time>2026-05-01T07:40:53.236Z</time></trkpt><trkpt lat="44.4717198" lon="11.6152952"><ele>26.0</ele><time>2026-05-01T07:40:54.236Z</time></trkpt><trkpt lat="44.4716462" lon="11.6151685"><ele>26.0</ele><time>2026-05-01T07:40:56.236Z</time></trkpt><trkpt lat="44.471581" lon="11.6151493"><ele>26.0</ele><time>2026-05-01T07:40:57.236Z</time></trkpt><trkpt lat="44.4714934" lon="11.6151695"><ele>26.0</ele><time>2026-05-01T07:40:58.236Z</time></trkpt><trkpt lat="44.4714041" lon="11.6152093"><ele>26.0</ele><time>2026-05-01T07:40:59.236Z</time></trkpt><trkpt lat="44.4713076" lon="11.6152598"><ele>26.0</ele><time>2026-05-01T07:41:00.236Z</time></trkpt><trkpt lat="44.4712127" lon="11.6152977"><ele>25.999999999999996</ele><time>2026-05-01T07:41:01.236Z</time></trkpt><trkpt lat="44.4711347" lon="11.6153062"><ele>26.0</ele><time>2026-05-01T07:41:02.236Z</time></trkpt><trkpt lat="44.4710614" lon="11.6152869"><ele>26.0</ele><time>2026-05-01T07:41:03.236Z</time></trkpt><trkpt lat="44.4709826" lon="11.6152498"><ele>26.0</ele><time>2026-05-01T07:41:04.236Z</time></trkpt><trkpt lat="44.4708984" lon="11.6151868"><ele>25.999999999999996</ele><time>2026-05-01T07:41:05.236Z</time></trkpt><trkpt lat="44.470807" lon="11.6151117"><ele>26.0</ele><time>2026-05-01T07:41:06.236Z</time></trkpt><trkpt lat="44.4707115" lon="11.6150336"><ele>26.0</ele><time>2026-05-01T07:41:07.236Z</time></trkpt><trkpt lat="44.4706079" lon="11.6149513"><ele>26.0</ele><time>2026-05-01T07:41:08.236Z</time></trkpt><trkpt lat="44.4705008" lon="11.614869"><ele>26.0</ele><time>2026-05-01T07:41:09.236Z</time></trkpt><trkpt lat="44.4703906" lon="11.6147836"><ele>26.0</ele><time>2026-05-01T07:41:10.236Z</time></trkpt><trkpt lat="44.4702818" lon="11.6147029"><ele>26.0</ele><time>2026-05-01T07:41:11.236Z</time></trkpt><trkpt lat="44.4701681" lon="11.6146178"><ele>26.0</ele><time>2026-05-01T07:41:12.236Z</time></trkpt><trkpt lat="44.4700501" lon="11.6145246"><ele>26.0</ele><time>2026-05-01T07:41:13.236Z</time></trkpt><trkpt lat="44.4699317" lon="11.6144349"><ele>26.0</ele><time>2026-05-01T07:41:14.236Z</time></trkpt><trkpt lat="44.4698151" lon="11.6143423"><ele>26.25</ele><time>2026-05-01T07:41:15.236Z</time></trkpt><trkpt lat="44.469699" lon="11.614251"><ele>26.5</ele><time>2026-05-01T07:41:16.234Z</time></trkpt><trkpt lat="44.4695848" lon="11.6141618"><ele>26.75</ele><time>2026-05-01T07:41:17.236Z</time></trkpt><trkpt lat="44.4694731" lon="11.6140748"><ele>27.0</ele><time>2026-05-01T07:41:18.236Z</time></trkpt><trkpt lat="44.469365" lon="11.6139928"><ele>27.25</ele><time>2026-05-01T07:41:19.236Z</time></trkpt><trkpt lat="44.469258" lon="11.6139136"><ele>27.5</ele><time>2026-05-01T07:41:20.236Z</time></trkpt><trkpt lat="44.469151" lon="11.6138334"><ele>27.75</ele><time>2026-05-01T07:41:21.236Z</time></trkpt><trkpt lat="44.4690425" lon="11.6137501"><ele>28.0</ele><time>2026-05-01T07:41:22.236Z</time></trkpt><trkpt lat="44.468929" lon="11.6136628"><ele>28.25</ele><time>2026-05-01T07:41:23.236Z</time></trkpt><trkpt lat="44.4688096" lon="11.6135758"><ele>28.5</ele><time>2026-05-01T07:41:24.236Z</time></trkpt><trkpt lat="44.46869" lon="11.6134882"><ele>28.75</ele><time>2026-05-01T07:41:25.236Z</time></trkpt><trkpt lat="44.468573" lon="11.6134041"><ele>29.0</ele><time>2026-05-01T07:41:26.236Z</time></trkpt><trkpt lat="44.4684626" lon="11.613324"><ele>29.0</ele><time>2026-05-01T07:41:27.236Z</time></trkpt><trkpt lat="44.4683612" lon="11.6132499"><ele>29.0</ele><time>2026-05-01T07:41:28.237Z</time></trkpt><trkpt lat="44.4682636" lon="11.613176"><ele>29.0</ele><time>2026-05-01T07:41:29.236Z</time></trkpt><trkpt lat="44.468167" lon="11.6131043"><ele>29.0</ele><time>2026-05-01T07:41:30.236Z</time></trkpt><trkpt lat="44.4680739" lon="11.6130358"><ele>29.0</ele><time>2026-05-01T07:41:31.236Z</time></trkpt><trkpt lat="44.4679819" lon="11.6129683"><ele>28.75</ele><time>2026-05-01T07:41:32.236Z</time></trkpt><trkpt lat="44.4678891" lon="11.6128991"><ele>28.5</ele><time>2026-05-01T07:41:33.236Z</time></trkpt><trkpt lat="44.4677927" lon="11.6128188"><ele>28.25</ele><time>2026-05-01T07:41:34.236Z</time></trkpt><trkpt lat="44.4676852" lon="11.6127268"><ele>28.0</ele><time>2026-05-01T07:41:35.236Z</time></trkpt><trkpt lat="44.4675656" lon="11.6126301"><ele>28.0</ele><time>2026-05-01T07:41:36.236Z</time></trkpt><trkpt lat="44.4674356" lon="11.6125331"><ele>28.0</ele><time>2026-05-01T07:41:37.236Z</time></trkpt><trkpt lat="44.4672983" lon="11.6124356"><ele>28.0</ele><time>2026-05-01T07:41:38.236Z</time></trkpt><trkpt lat="44.4671557" lon="11.6123372"><ele>28.666666666666668</ele><time>2026-05-01T07:41:39.236Z</time></trkpt><trkpt lat="44.4670099" lon="11.6122392"><ele>29.333333333333336</ele><time>2026-05-01T07:41:40.236Z</time></trkpt><trkpt lat="44.4668622" lon="11.6121394"><ele>30.0</ele><time>2026-05-01T07:41:41.236Z</time></trkpt><trkpt lat="44.4667175" lon="11.612041"><ele>30.0</ele><time>2026-05-01T07:41:42.236Z</time></trkpt><trkpt lat="44.4665832" lon="11.611948"><ele>30.0</ele><time>2026-05-01T07:41:43.236Z</time></trkpt><trkpt lat="44.4664662" lon="11.6118625"><ele>30.0</ele><time>2026-05-01T07:41:44.236Z</time></trkpt><trkpt lat="44.466368" lon="11.6117874"><ele>30.0</ele><time>2026-05-01T07:41:45.237Z</time></trkpt><trkpt lat="44.4662876" lon="11.6117204"><ele>30.0</ele><time>2026-05-01T07:41:46.236Z</time></trkpt><trkpt lat="44.4662282" lon="11.611664"><ele>30.0</ele><time>2026-05-01T07:41:47.237Z</time></trkpt><trkpt lat="44.4661413" lon="11.6116284"><ele>30.0</ele><time>2026-05-01T07:41:49.237Z</time></trkpt><trkpt lat="44.4660639" lon="11.6117634"><ele>30.0</ele><time>2026-05-01T07:41:51.237Z</time></trkpt><trkpt lat="44.4660276" lon="11.611892"><ele>30.0</ele><time>2026-05-01T07:41:52.237Z</time></trkpt><trkpt lat="44.46598" lon="11.6120417"><ele>30.0</ele><time>2026-05-01T07:41:53.237Z</time></trkpt><trkpt lat="44.465922" lon="11.6122084"><ele>30.0</ele><time>2026-05-01T07:41:54.237Z</time></trkpt><trkpt lat="44.4658569" lon="11.6123986"><ele>30.0</ele><time>2026-05-01T07:41:55.237Z</time></trkpt><trkpt lat="44.4657855" lon="11.6125998"><ele>30.0</ele><time>2026-05-01T07:41:56.237Z</time></trkpt><trkpt lat="44.4657129" lon="11.6127998"><ele>30.333333333333336</ele><time>2026-05-01T07:41:57.237Z</time></trkpt><trkpt lat="44.4656381" lon="11.6130101"><ele>30.666666666666668</ele><time>2026-05-01T07:41:58.237Z</time></trkpt><trkpt lat="44.4655566" lon="11.6132341"><ele>31.0</ele><time>2026-05-01T07:41:59.237Z</time></trkpt><trkpt lat="44.4654757" lon="11.613455"><ele>31.333333333333336</ele><time>2026-05-01T07:42:00.237Z</time></trkpt><trkpt lat="44.4653947" lon="11.6136828"><ele>31.666666666666664</ele><time>2026-05-01T07:42:01.237Z</time></trkpt><trkpt lat="44.4653108" lon="11.6139088"><ele>32.0</ele><time>2026-05-01T07:42:02.237Z</time></trkpt><trkpt lat="44.4652259" lon="11.6141343"><ele>32.0</ele><time>2026-05-01T07:42:03.237Z</time></trkpt><trkpt lat="44.4651424" lon="11.6143627"><ele>32.0</ele><time>2026-05-01T07:42:04.237Z</time></trkpt><trkpt lat="44.465055" lon="11.6145881"><ele>32.0</ele><time>2026-05-01T07:42:05.237Z</time></trkpt><trkpt lat="44.4649589" lon="11.6148117"><ele>31.333333333333332</ele><time>2026-05-01T07:42:06.237Z</time></trkpt><trkpt lat="44.4648635" lon="11.6150264"><ele>30.666666666666664</ele><time>2026-05-01T07:42:07.237Z</time></trkpt><trkpt lat="44.4647681" lon="11.6152322"><ele>30.0</ele><time>2026-05-01T07:42:08.237Z</time></trkpt><trkpt lat="44.4646681" lon="11.6154423"><ele>30.333333333333336</ele><time>2026-05-01T07:42:09.237Z</time></trkpt><trkpt lat="44.4645634" lon="11.6156617"><ele>30.666666666666668</ele><time>2026-05-01T07:42:10.237Z</time></trkpt><trkpt lat="44.4644565" lon="11.6158813"><ele>31.0</ele><time>2026-05-01T07:42:11.237Z</time></trkpt><trkpt lat="44.4643542" lon="11.6160976"><ele>31.333333333333336</ele><time>2026-05-01T07:42:12.237Z</time></trkpt><trkpt lat="44.4642494" lon="11.616325"><ele>31.666666666666664</ele><time>2026-05-01T07:42:13.237Z</time></trkpt><trkpt lat="44.464153" lon="11.6165648"><ele>32.0</ele><time>2026-05-01T07:42:14.237Z</time></trkpt><trkpt lat="44.4640619" lon="11.6168069"><ele>31.333333333333332</ele><time>2026-05-01T07:42:15.237Z</time></trkpt><trkpt lat="44.4639683" lon="11.6170563"><ele>30.666666666666664</ele><time>2026-05-01T07:42:16.237Z</time></trkpt><trkpt lat="44.4638714" lon="11.6172997"><ele>30.0</ele><time>2026-05-01T07:42:17.237Z</time></trkpt><trkpt lat="44.463771" lon="11.6175461"><ele>30.0</ele><time>2026-05-01T07:42:18.237Z</time></trkpt><trkpt lat="44.46367" lon="11.6177932"><ele>30.0</ele><time>2026-05-01T07:42:19.237Z</time></trkpt><trkpt lat="44.463572" lon="11.6180439"><ele>30.0</ele><time>2026-05-01T07:42:20.237Z</time></trkpt><trkpt lat="44.4634802" lon="11.6183027"><ele>30.333333333333336</ele><time>2026-05-01T07:42:21.237Z</time></trkpt><trkpt lat="44.4633878" lon="11.6185509"><ele>30.666666666666668</ele><time>2026-05-01T07:42:22.237Z</time></trkpt><trkpt lat="44.4632865" lon="11.6188019"><ele>31.0</ele><time>2026-05-01T07:42:23.237Z</time></trkpt><trkpt lat="44.4631897" lon="11.6190428"><ele>31.0</ele><time>2026-05-01T07:42:24.237Z</time></trkpt><trkpt lat="44.4630921" lon="11.6192818"><ele>31.0</ele><time>2026-05-01T07:42:25.237Z</time></trkpt><trkpt lat="44.4629948" lon="11.6195193"><ele>31.0</ele><time>2026-05-01T07:42:26.237Z</time></trkpt><trkpt lat="44.462899" lon="11.61975"><ele>31.0</ele><time>2026-05-01T07:42:27.237Z</time></trkpt><trkpt lat="44.4628095" lon="11.6199736"><ele>31.0</ele><time>2026-05-01T07:42:28.237Z</time></trkpt><trkpt lat="44.462723" lon="11.6201846"><ele>31.0</ele><time>2026-05-01T07:42:29.237Z</time></trkpt><trkpt lat="44.4626375" lon="11.6203891"><ele>31.0</ele><time>2026-05-01T07:42:30.237Z</time></trkpt><trkpt lat="44.4625503" lon="11.6205967"><ele>31.0</ele><time>2026-05-01T07:42:31.237Z</time></trkpt><trkpt lat="44.4624631" lon="11.6208062"><ele>31.0</ele><time>2026-05-01T07:42:32.237Z</time></trkpt><trkpt lat="44.4623846" lon="11.6209996"><ele>31.25</ele><time>2026-05-01T07:42:33.237Z</time></trkpt><trkpt lat="44.4623097" lon="11.6211766"><ele>31.5</ele><time>2026-05-01T07:42:34.237Z</time></trkpt><trkpt lat="44.4622447" lon="11.6213379"><ele>31.75</ele><time>2026-05-01T07:42:35.237Z</time></trkpt><trkpt lat="44.4621858" lon="11.6214827"><ele>32.0</ele><time>2026-05-01T07:42:36.237Z</time></trkpt><trkpt lat="44.4621345" lon="11.6216096"><ele>32.33333333333333</ele><time>2026-05-01T07:42:37.237Z</time></trkpt><trkpt lat="44.4620925" lon="11.6217152"><ele>32.666666666666664</ele><time>2026-05-01T07:42:38.237Z</time></trkpt><trkpt lat="44.4620603" lon="11.6218055"><ele>33.0</ele><time>2026-05-01T07:42:39.237Z</time></trkpt><trkpt lat="44.4620178" lon="11.6219071"><ele>33.333333333333336</ele><time>2026-05-01T07:42:41.237Z</time></trkpt><trkpt lat="44.4619087" lon="11.6219043"><ele>33.66666666666667</ele><time>2026-05-01T07:42:48.238Z</time></trkpt><trkpt lat="44.4618258" lon="11.6218552"><ele>34.0</ele><time>2026-05-01T07:42:49.238Z</time></trkpt><trkpt lat="44.4617291" lon="11.6217762"><ele>34.0</ele><time>2026-05-01T07:42:50.238Z</time></trkpt><trkpt lat="44.4616005" lon="11.6216944"><ele>34.0</ele><time>2026-05-01T07:42:51.238Z</time></trkpt><trkpt lat="44.4614559" lon="11.6215979"><ele>34.0</ele><time>2026-05-01T07:42:52.238Z</time></trkpt><trkpt lat="44.4612904" lon="11.6214976"><ele>33.0</ele><time>2026-05-01T07:42:53.238Z</time></trkpt><trkpt lat="44.461121" lon="11.6213725"><ele>32.0</ele><time>2026-05-01T07:42:54.238Z</time></trkpt><trkpt lat="44.460942" lon="11.6212364"><ele>31.0</ele><time>2026-05-01T07:42:55.238Z</time></trkpt><trkpt lat="44.4607518" lon="11.6210911"><ele>30.666666666666668</ele><time>2026-05-01T07:42:56.238Z</time></trkpt><trkpt lat="44.4605574" lon="11.6209434"><ele>30.333333333333336</ele><time>2026-05-01T07:42:57.238Z</time></trkpt><trkpt lat="44.4603611" lon="11.6207952"><ele>30.0</ele><time>2026-05-01T07:42:58.238Z</time></trkpt><trkpt lat="44.4601586" lon="11.6206403"><ele>31.0</ele><time>2026-05-01T07:42:59.238Z</time></trkpt><trkpt lat="44.4599524" lon="11.6204883"><ele>32.0</ele><time>2026-05-01T07:43:00.238Z</time></trkpt><trkpt lat="44.4597488" lon="11.6203342"><ele>33.0</ele><time>2026-05-01T07:43:01.238Z</time></trkpt><trkpt lat="44.4595451" lon="11.6201832"><ele>34.0</ele><time>2026-05-01T07:43:02.238Z</time></trkpt><trkpt lat="44.4593461" lon="11.6200332"><ele>34.0</ele><time>2026-05-01T07:43:03.238Z</time></trkpt><trkpt lat="44.4591497" lon="11.6198891"><ele>34.0</ele><time>2026-05-01T07:43:04.238Z</time></trkpt><trkpt lat="44.458955" lon="11.6197414"><ele>34.0</ele><time>2026-05-01T07:43:05.238Z</time></trkpt><trkpt lat="44.4587646" lon="11.6195944"><ele>33.66666666666667</ele><time>2026-05-01T07:43:06.238Z</time></trkpt><trkpt lat="44.4585761" lon="11.6194546"><ele>33.333333333333336</ele><time>2026-05-01T07:43:07.238Z</time></trkpt><trkpt lat="44.4583882" lon="11.6193136"><ele>33.0</ele><time>2026-05-01T07:43:08.238Z</time></trkpt><trkpt lat="44.4582018" lon="11.6191712"><ele>33.0</ele><time>2026-05-01T07:43:09.239Z</time></trkpt><trkpt lat="44.4580149" lon="11.6190283"><ele>33.0</ele><time>2026-05-01T07:43:10.238Z</time></trkpt><trkpt lat="44.457829" lon="11.6188848"><ele>33.0</ele><time>2026-05-01T07:43:11.238Z</time></trkpt><trkpt lat="44.4576419" lon="11.6187444"><ele>33.0</ele><time>2026-05-01T07:43:12.238Z</time></trkpt><trkpt lat="44.4574521" lon="11.6186098"><ele>33.0</ele><time>2026-05-01T07:43:13.238Z</time></trkpt><trkpt lat="44.4572572" lon="11.618489"><ele>33.0</ele><time>2026-05-01T07:43:14.238Z</time></trkpt><trkpt lat="44.4570525" lon="11.6183997"><ele>33.0</ele><time>2026-05-01T07:43:15.238Z</time></trkpt><trkpt lat="44.456838" lon="11.6183322"><ele>33.0</ele><time>2026-05-01T07:43:16.238Z</time></trkpt><trkpt lat="44.4566199" lon="11.6182793"><ele>33.0</ele><time>2026-05-01T07:43:17.238Z</time></trkpt><trkpt lat="44.4564025" lon="11.6182304"><ele>33.666666666666664</ele><time>2026-05-01T07:43:18.238Z</time></trkpt><trkpt lat="44.4561839" lon="11.6181826"><ele>34.33333333333333</ele><time>2026-05-01T07:43:19.238Z</time></trkpt><trkpt lat="44.4559678" lon="11.618128"><ele>35.0</ele><time>2026-05-01T07:43:20.238Z</time></trkpt><trkpt lat="44.45575" lon="11.6180684"><ele>35.0</ele><time>2026-05-01T07:43:21.238Z</time></trkpt><trkpt lat="44.455528" lon="11.6180106"><ele>35.0</ele><time>2026-05-01T07:43:22.238Z</time></trkpt><trkpt lat="44.4553046" lon="11.6179508"><ele>35.5</ele><time>2026-05-01T07:43:23.238Z</time></trkpt><trkpt lat="44.4550797" lon="11.6178902"><ele>36.0</ele><time>2026-05-01T07:43:24.238Z</time></trkpt><trkpt lat="44.4548538" lon="11.6178307"><ele>35.5</ele><time>2026-05-01T07:43:25.238Z</time></trkpt><trkpt lat="44.4546295" lon="11.617773"><ele>35.0</ele><time>2026-05-01T07:43:26.238Z</time></trkpt><trkpt lat="44.454405" lon="11.6177141"><ele>34.5</ele><time>2026-05-01T07:43:27.238Z</time></trkpt><trkpt lat="44.4541812" lon="11.6176547"><ele>34.0</ele><time>2026-05-01T07:43:28.238Z</time></trkpt><trkpt lat="44.4539596" lon="11.6175942"><ele>34.0</ele><time>2026-05-01T07:43:29.238Z</time></trkpt><trkpt lat="44.4537408" lon="11.617534"><ele>34.0</ele><time>2026-05-01T07:43:30.238Z</time></trkpt><trkpt lat="44.4535247" lon="11.6174763"><ele>34.0</ele><time>2026-05-01T07:43:31.238Z</time></trkpt><trkpt lat="44.4533098" lon="11.6174198"><ele>34.0</ele><time>2026-05-01T07:43:32.238Z</time></trkpt><trkpt lat="44.4530965" lon="11.6173621"><ele>34.0</ele><time>2026-05-01T07:43:33.238Z</time></trkpt><trkpt lat="44.4528893" lon="11.6173011"><ele>34.0</ele><time>2026-05-01T07:43:34.238Z</time></trkpt><trkpt lat="44.4526927" lon="11.6172273"><ele>34.333333333333336</ele><time>2026-05-01T07:43:35.238Z</time></trkpt><trkpt lat="44.4525105" lon="11.6171174"><ele>34.666666666666664</ele><time>2026-05-01T07:43:36.238Z</time></trkpt><trkpt lat="44.4523498" lon="11.6169534"><ele>35.0</ele><time>2026-05-01T07:43:37.238Z</time></trkpt><trkpt lat="44.4521988" lon="11.616755"><ele>35.0</ele><time>2026-05-01T07:43:38.238Z</time></trkpt><trkpt lat="44.4520575" lon="11.6165418"><ele>35.0</ele><time>2026-05-01T07:43:39.238Z</time></trkpt><trkpt lat="44.4519227" lon="11.6163255"><ele>35.0</ele><time>2026-05-01T07:43:40.238Z</time></trkpt><trkpt lat="44.4517858" lon="11.6161206"><ele>35.0</ele><time>2026-05-01T07:43:41.238Z</time></trkpt><trkpt lat="44.4516443" lon="11.6159152"><ele>35.0</ele><time>2026-05-01T07:43:42.238Z</time></trkpt><trkpt lat="44.4515069" lon="11.615707"><ele>35.0</ele><time>2026-05-01T07:43:43.238Z</time></trkpt><trkpt lat="44.4513706" lon="11.6155007"><ele>35.33333333333333</ele><time>2026-05-01T07:43:44.239Z</time></trkpt><trkpt lat="44.4512381" lon="11.6152974"><ele>35.666666666666664</ele><time>2026-05-01T07:43:45.239Z</time></trkpt><trkpt lat="44.4511069" lon="11.6150939"><ele>36.0</ele><time>2026-05-01T07:43:46.239Z</time></trkpt><trkpt lat="44.4509837" lon="11.6149068"><ele>36.0</ele><time>2026-05-01T07:43:47.239Z</time></trkpt><trkpt lat="44.4508524" lon="11.6147338"><ele>36.0</ele><time>2026-05-01T07:43:48.239Z</time></trkpt><trkpt lat="44.4506929" lon="11.6146042"><ele>36.0</ele><time>2026-05-01T07:43:49.239Z</time></trkpt><trkpt lat="44.4505225" lon="11.6145235"><ele>36.333333333333336</ele><time>2026-05-01T07:43:50.24Z</time></trkpt><trkpt lat="44.4503383" lon="11.6145143"><ele>36.66666666666667</ele><time>2026-05-01T07:43:51.239Z</time></trkpt><trkpt lat="44.4501495" lon="11.6145251"><ele>37.0</ele><time>2026-05-01T07:43:52.239Z</time></trkpt><trkpt lat="44.4499584" lon="11.6145602"><ele>37.0</ele><time>2026-05-01T07:43:53.239Z</time></trkpt><trkpt lat="44.449771" lon="11.6145936"><ele>37.0</ele><time>2026-05-01T07:43:54.239Z</time></trkpt><trkpt lat="44.4495858" lon="11.6146233"><ele>37.0</ele><time>2026-05-01T07:43:55.239Z</time></trkpt><trkpt lat="44.4494079" lon="11.6146508"><ele>36.333333333333336</ele><time>2026-05-01T07:43:56.239Z</time></trkpt><trkpt lat="44.4492348" lon="11.6146766"><ele>35.666666666666664</ele><time>2026-05-01T07:43:57.239Z</time></trkpt><trkpt lat="44.4490682" lon="11.6147016"><ele>35.0</ele><time>2026-05-01T07:43:58.239Z</time></trkpt><trkpt lat="44.4489125" lon="11.6147252"><ele>35.75</ele><time>2026-05-01T07:43:59.239Z</time></trkpt><trkpt lat="44.4487661" lon="11.614743"><ele>36.5</ele><time>2026-05-01T07:44:00.239Z</time></trkpt><trkpt lat="44.4486201" lon="11.6147428"><ele>37.25</ele><time>2026-05-01T07:44:01.239Z</time></trkpt><trkpt lat="44.4484745" lon="11.614704"><ele>38.0</ele><time>2026-05-01T07:44:02.239Z</time></trkpt><trkpt lat="44.4483373" lon="11.6146221"><ele>38.0</ele><time>2026-05-01T07:44:03.239Z</time></trkpt><trkpt lat="44.4482085" lon="11.614518"><ele>38.0</ele><time>2026-05-01T07:44:04.239Z</time></trkpt><trkpt lat="44.448088" lon="11.6144029"><ele>38.0</ele><time>2026-05-01T07:44:05.24Z</time></trkpt><trkpt lat="44.4479746" lon="11.6142797"><ele>38.0</ele><time>2026-05-01T07:44:06.239Z</time></trkpt><trkpt lat="44.4478572" lon="11.6141589"><ele>38.25</ele><time>2026-05-01T07:44:07.239Z</time></trkpt><trkpt lat="44.44774" lon="11.6140373"><ele>38.5</ele><time>2026-05-01T07:44:08.239Z</time></trkpt><trkpt lat="44.4476198" lon="11.6139149"><ele>38.75</ele><time>2026-05-01T07:44:09.239Z</time></trkpt><trkpt lat="44.4474989" lon="11.6137926"><ele>39.0</ele><time>2026-05-01T07:44:10.239Z</time></trkpt><trkpt lat="44.4473776" lon="11.6136712"><ele>38.666666666666664</ele><time>2026-05-01T07:44:11.239Z</time></trkpt><trkpt lat="44.4472554" lon="11.6135531"><ele>38.33333333333333</ele><time>2026-05-01T07:44:12.239Z</time></trkpt><trkpt lat="44.4471334" lon="11.6134315"><ele>38.0</ele><time>2026-05-01T07:44:13.239Z</time></trkpt><trkpt lat="44.4470065" lon="11.6133026"><ele>38.0</ele><time>2026-05-01T07:44:14.239Z</time></trkpt><trkpt lat="44.4468752" lon="11.6131711"><ele>38.0</ele><time>2026-05-01T07:44:15.239Z</time></trkpt><trkpt lat="44.4467391" lon="11.6130381"><ele>38.0</ele><time>2026-05-01T07:44:16.239Z</time></trkpt><trkpt lat="44.4465986" lon="11.6129031"><ele>37.666666666666664</ele><time>2026-05-01T07:44:17.239Z</time></trkpt><trkpt lat="44.4464531" lon="11.6127666"><ele>37.333333333333336</ele><time>2026-05-01T07:44:18.239Z</time></trkpt><trkpt lat="44.446304" lon="11.6126244"><ele>37.0</ele><time>2026-05-01T07:44:19.239Z</time></trkpt><trkpt lat="44.4461555" lon="11.61248"><ele>37.0</ele><time>2026-05-01T07:44:20.239Z</time></trkpt><trkpt lat="44.4460068" lon="11.6123371"><ele>37.0</ele><time>2026-05-01T07:44:21.239Z</time></trkpt><trkpt lat="44.4458581" lon="11.6121951"><ele>37.0</ele><time>2026-05-01T07:44:22.239Z</time></trkpt><trkpt lat="44.4457091" lon="11.6120526"><ele>37.0</ele><time>2026-05-01T07:44:23.239Z</time></trkpt><trkpt lat="44.4455681" lon="11.6119189"><ele>37.0</ele><time>2026-05-01T07:44:24.239Z</time></trkpt><trkpt lat="44.4454284" lon="11.6117877"><ele>37.0</ele><time>2026-05-01T07:44:25.239Z</time></trkpt><trkpt lat="44.4452878" lon="11.6116567"><ele>37.66666666666667</ele><time>2026-05-01T07:44:26.239Z</time></trkpt><trkpt lat="44.4451446" lon="11.6115237"><ele>38.333333333333336</ele><time>2026-05-01T07:44:27.239Z</time></trkpt><trkpt lat="44.445003" lon="11.6113891"><ele>39.0</ele><time>2026-05-01T07:44:28.239Z</time></trkpt><trkpt lat="44.4448607" lon="11.6112546"><ele>39.0</ele><time>2026-05-01T07:44:29.239Z</time></trkpt><trkpt lat="44.4447166" lon="11.6111249"><ele>39.0</ele><time>2026-05-01T07:44:30.239Z</time></trkpt><trkpt lat="44.4445723" lon="11.6109983"><ele>39.0</ele><time>2026-05-01T07:44:31.239Z</time></trkpt><trkpt lat="44.4444273" lon="11.610869"><ele>38.666666666666664</ele><time>2026-05-01T07:44:32.239Z</time></trkpt><trkpt lat="44.4442823" lon="11.6107372"><ele>38.33333333333333</ele><time>2026-05-01T07:44:33.239Z</time></trkpt><trkpt lat="44.4441326" lon="11.610603"><ele>38.0</ele><time>2026-05-01T07:44:34.239Z</time></trkpt><trkpt lat="44.4439725" lon="11.6104797"><ele>38.0</ele><time>2026-05-01T07:44:35.239Z</time></trkpt><trkpt lat="44.4437987" lon="11.610367"><ele>38.0</ele><time>2026-05-01T07:44:36.239Z</time></trkpt><trkpt lat="44.4436262" lon="11.6102682"><ele>38.0</ele><time>2026-05-01T07:44:37.239Z</time></trkpt><trkpt lat="44.4434605" lon="11.6101771"><ele>38.33333333333333</ele><time>2026-05-01T07:44:38.24Z</time></trkpt><trkpt lat="44.4432969" lon="11.6100879"><ele>38.666666666666664</ele><time>2026-05-01T07:44:39.239Z</time></trkpt><trkpt lat="44.4431341" lon="11.6099949"><ele>39.0</ele><time>2026-05-01T07:44:40.24Z</time></trkpt><trkpt lat="44.4429747" lon="11.6099038"><ele>39.666666666666664</ele><time>2026-05-01T07:44:41.24Z</time></trkpt><trkpt lat="44.4428197" lon="11.6098138"><ele>40.33333333333333</ele><time>2026-05-01T07:44:42.24Z</time></trkpt><trkpt lat="44.4426702" lon="11.6097286"><ele>41.0</ele><time>2026-05-01T07:44:43.24Z</time></trkpt><trkpt lat="44.4425208" lon="11.6096448"><ele>41.0</ele><time>2026-05-01T07:44:44.24Z</time></trkpt><trkpt lat="44.4423827" lon="11.6095581"><ele>41.0</ele><time>2026-05-01T07:44:45.24Z</time></trkpt><trkpt lat="44.4422523" lon="11.609471"><ele>41.0</ele><time>2026-05-01T07:44:46.24Z</time></trkpt><trkpt lat="44.4421301" lon="11.6093753"><ele>41.0</ele><time>2026-05-01T07:44:47.24Z</time></trkpt><trkpt lat="44.4420344" lon="11.609262"><ele>41.0</ele><time>2026-05-01T07:44:48.24Z</time></trkpt><trkpt lat="44.4419646" lon="11.6091284"><ele>41.0</ele><time>2026-05-01T07:44:49.24Z</time></trkpt><trkpt lat="44.4419092" lon="11.6089822"><ele>41.0</ele><time>2026-05-01T07:44:50.24Z</time></trkpt><trkpt lat="44.4418735" lon="11.6088264"><ele>41.0</ele><time>2026-05-01T07:44:51.24Z</time></trkpt><trkpt lat="44.4418321" lon="11.6086767"><ele>40.5</ele><time>2026-05-01T07:44:52.24Z</time></trkpt><trkpt lat="44.4417673" lon="11.6085363"><ele>40.0</ele><time>2026-05-01T07:44:53.24Z</time></trkpt><trkpt lat="44.4416838" lon="11.6084111"><ele>39.5</ele><time>2026-05-01T07:44:54.24Z</time></trkpt><trkpt lat="44.4415806" lon="11.6083017"><ele>39.0</ele><time>2026-05-01T07:44:55.24Z</time></trkpt><trkpt lat="44.4414853" lon="11.608185"><ele>39.0</ele><time>2026-05-01T07:44:56.24Z</time></trkpt><trkpt lat="44.4414092" lon="11.6080495"><ele>39.0</ele><time>2026-05-01T07:44:57.24Z</time></trkpt><trkpt lat="44.4413553" lon="11.6078812"><ele>39.0</ele><time>2026-05-01T07:44:58.24Z</time></trkpt><trkpt lat="44.4413104" lon="11.6077069"><ele>39.0</ele><time>2026-05-01T07:44:59.24Z</time></trkpt><trkpt lat="44.441269" lon="11.6075376"><ele>39.5</ele><time>2026-05-01T07:45:00.24Z</time></trkpt><trkpt lat="44.4412266" lon="11.6073688"><ele>40.0</ele><time>2026-05-01T07:45:01.24Z</time></trkpt><trkpt lat="44.4411817" lon="11.6072067"><ele>40.5</ele><time>2026-05-01T07:45:02.24Z</time></trkpt><trkpt lat="44.441139" lon="11.6070416"><ele>41.0</ele><time>2026-05-01T07:45:03.24Z</time></trkpt><trkpt lat="44.4410916" lon="11.6068623"><ele>41.0</ele><time>2026-05-01T07:45:04.24Z</time></trkpt><trkpt lat="44.4410476" lon="11.6066772"><ele>41.0</ele><time>2026-05-01T07:45:05.24Z</time></trkpt><trkpt lat="44.4410018" lon="11.6064713"><ele>41.0</ele><time>2026-05-01T07:45:06.24Z</time></trkpt><trkpt lat="44.4409671" lon="11.6062844"><ele>41.0</ele><time>2026-05-01T07:45:07.24Z</time></trkpt><trkpt lat="44.4409355" lon="11.6060821"><ele>41.0</ele><time>2026-05-01T07:45:08.24Z</time></trkpt><trkpt lat="44.4409056" lon="11.6058998"><ele>41.0</ele><time>2026-05-01T07:45:09.24Z</time></trkpt><trkpt lat="44.4408826" lon="11.605745"><ele>41.0</ele><time>2026-05-01T07:45:10.24Z</time></trkpt><trkpt lat="44.440883" lon="11.605599"><ele>41.0</ele><time>2026-05-01T07:45:11.24Z</time></trkpt><trkpt lat="44.4409042" lon="11.6054802"><ele>41.0</ele><time>2026-05-01T07:45:12.24Z</time></trkpt><trkpt lat="44.4409395" lon="11.6053801"><ele>40.8</ele><time>2026-05-01T07:45:13.24Z</time></trkpt><trkpt lat="44.4409826" lon="11.6052653"><ele>40.599999999999994</ele><time>2026-05-01T07:45:14.24Z</time></trkpt><trkpt lat="44.4410254" lon="11.6051426"><ele>40.4</ele><time>2026-05-01T07:45:15.24Z</time></trkpt><trkpt lat="44.4410589" lon="11.6050056"><ele>40.2</ele><time>2026-05-01T07:45:16.24Z</time></trkpt><trkpt lat="44.4410586" lon="11.6048641"><ele>40.0</ele><time>2026-05-01T07:45:17.24Z</time></trkpt><trkpt lat="44.4410252" lon="11.6047297"><ele>40.0</ele><time>2026-05-01T07:45:18.24Z</time></trkpt><trkpt lat="44.4409559" lon="11.6046084"><ele>40.0</ele><time>2026-05-01T07:45:19.24Z</time></trkpt><trkpt lat="44.4408398" lon="11.6045537"><ele>40.0</ele><time>2026-05-01T07:45:20.241Z</time></trkpt><trkpt lat="44.4407313" lon="11.6045501"><ele>40.0</ele><time>2026-05-01T07:45:21.24Z</time></trkpt><trkpt lat="44.4406247" lon="11.604611"><ele>40.0</ele><time>2026-05-01T07:45:22.24Z</time></trkpt><trkpt lat="44.4405441" lon="11.604747"><ele>40.0</ele><time>2026-05-01T07:45:23.24Z</time></trkpt><trkpt lat="44.4404757" lon="11.6049064"><ele>40.0</ele><time>2026-05-01T07:45:24.24Z</time></trkpt><trkpt lat="44.4404051" lon="11.6051101"><ele>40.0</ele><time>2026-05-01T07:45:25.24Z</time></trkpt><trkpt lat="44.4403123" lon="11.6052998"><ele>40.25</ele><time>2026-05-01T07:45:26.24Z</time></trkpt><trkpt lat="44.4401855" lon="11.6054585"><ele>40.5</ele><time>2026-05-01T07:45:27.24Z</time></trkpt><trkpt lat="44.4400711" lon="11.6055339"><ele>40.75</ele><time>2026-05-01T07:45:28.24Z</time></trkpt><trkpt lat="44.4399951" lon="11.6055848"><ele>41.0</ele><time>2026-05-01T07:45:29.24Z</time></trkpt><trkpt lat="44.4399347" lon="11.6056412"><ele>41.0</ele><time>2026-05-01T07:45:30.24Z</time></trkpt><trkpt lat="44.4398575" lon="11.6057557"><ele>41.0</ele><time>2026-05-01T07:45:32.241Z</time></trkpt><trkpt lat="44.4397996" lon="11.605837"><ele>41.0</ele><time>2026-05-01T07:45:34.241Z</time></trkpt><trkpt lat="44.4397523" lon="11.6059121"><ele>41.0</ele><time>2026-05-01T07:45:36.241Z</time></trkpt><trkpt lat="44.4396949" lon="11.606001"><ele>41.0</ele><time>2026-05-01T07:45:38.241Z</time></trkpt><trkpt lat="44.4396264" lon="11.6060946"><ele>41.0</ele><time>2026-05-01T07:45:40.241Z</time></trkpt><trkpt lat="44.4395653" lon="11.6061636"><ele>41.166666666666664</ele><time>2026-05-01T07:45:42.241Z</time></trkpt><trkpt lat="44.4395036" lon="11.6062166"><ele>41.33333333333333</ele><time>2026-05-01T07:45:44.241Z</time></trkpt><trkpt lat="44.4394461" lon="11.6062576"><ele>41.5</ele><time>2026-05-01T07:45:46.241Z</time></trkpt><trkpt lat="44.4393809" lon="11.6062903"><ele>41.666666666666664</ele><time>2026-05-01T07:45:48.241Z</time></trkpt><trkpt lat="44.4393009" lon="11.6063164"><ele>41.833333333333336</ele><time>2026-05-01T07:45:50.241Z</time></trkpt><trkpt lat="44.4391815" lon="11.6063611"><ele>42.0</ele><time>2026-05-01T07:45:52.241Z</time></trkpt><trkpt lat="44.4390991" lon="11.6063774"><ele>42.0</ele><time>2026-05-01T07:45:53.241Z</time></trkpt><trkpt lat="44.4390061" lon="11.6063848"><ele>42.0</ele><time>2026-05-01T07:45:54.241Z</time></trkpt><trkpt lat="44.4389121" lon="11.6063925"><ele>42.0</ele><time>2026-05-01T07:45:55.241Z</time></trkpt><trkpt lat="44.4388271" lon="11.6064002"><ele>42.0</ele><time>2026-05-01T07:45:56.241Z</time></trkpt><trkpt lat="44.4387441" lon="11.6064084"><ele>42.0</ele><time>2026-05-01T07:45:57.241Z</time></trkpt><trkpt lat="44.4386582" lon="11.6064159"><ele>42.0</ele><time>2026-05-01T07:45:58.241Z</time></trkpt><trkpt lat="44.4385699" lon="11.6064237"><ele>42.333333333333336</ele><time>2026-05-01T07:45:59.241Z</time></trkpt><trkpt lat="44.4384823" lon="11.6064358"><ele>42.666666666666664</ele><time>2026-05-01T07:46:00.241Z</time></trkpt><trkpt lat="44.4383958" lon="11.6064458"><ele>43.0</ele><time>2026-05-01T07:46:01.241Z</time></trkpt><trkpt lat="44.4383137" lon="11.6064517"><ele>43.33333333333333</ele><time>2026-05-01T07:46:02.241Z</time></trkpt><trkpt lat="44.4382487" lon="11.6064531"><ele>43.666666666666664</ele><time>2026-05-01T07:46:03.242Z</time></trkpt><trkpt lat="44.4381663" lon="11.6064559"><ele>44.0</ele><time>2026-05-01T07:46:05.241Z</time></trkpt><trkpt lat="44.4380954" lon="11.6064634"><ele>44.0</ele><time>2026-05-01T07:46:07.241Z</time></trkpt><trkpt lat="44.4380245" lon="11.6064681"><ele>44.0</ele><time>2026-05-01T07:46:09.241Z</time></trkpt><trkpt lat="44.4379316" lon="11.6064758"><ele>44.0</ele><time>2026-05-01T07:46:12.241Z</time></trkpt><trkpt lat="44.4378592" lon="11.6064838"><ele>44.0</ele><time>2026-05-01T07:46:14.241Z</time></trkpt><trkpt lat="44.4377677" lon="11.6064904"><ele>44.0</ele><time>2026-05-01T07:46:16.241Z</time></trkpt><trkpt lat="44.4376728" lon="11.6064971"><ele>44.0</ele><time>2026-05-01T07:46:18.241Z</time></trkpt><trkpt lat="44.4375531" lon="11.6065056"><ele>44.0</ele><time>2026-05-01T07:46:20.241Z</time></trkpt><trkpt lat="44.4374811" lon="11.6065132"><ele>44.0</ele><time>2026-05-01T07:46:21.241Z</time></trkpt><trkpt lat="44.4373986" lon="11.6065271"><ele>44.0</ele><time>2026-05-01T07:46:22.241Z</time></trkpt><trkpt lat="44.4373103" lon="11.6065385"><ele>44.0</ele><time>2026-05-01T07:46:23.242Z</time></trkpt><trkpt lat="44.4372241" lon="11.6065467"><ele>44.0</ele><time>2026-05-01T07:46:24.241Z</time></trkpt><trkpt lat="44.4371465" lon="11.6065544"><ele>44.0</ele><time>2026-05-01T07:46:25.241Z</time></trkpt><trkpt lat="44.4370781" lon="11.6065624"><ele>44.2</ele><time>2026-05-01T07:46:26.241Z</time></trkpt><trkpt lat="44.4370057" lon="11.6065705"><ele>44.400000000000006</ele><time>2026-05-01T07:46:27.241Z</time></trkpt><trkpt lat="44.4369247" lon="11.606581"><ele>44.6</ele><time>2026-05-01T07:46:28.241Z</time></trkpt><trkpt lat="44.4368296" lon="11.6065961"><ele>44.8</ele><time>2026-05-01T07:46:29.242Z</time></trkpt><trkpt lat="44.436725" lon="11.6066094"><ele>45.0</ele><time>2026-05-01T07:46:30.241Z</time></trkpt><trkpt lat="44.4366148" lon="11.6066175"><ele>45.0</ele><time>2026-05-01T07:46:31.242Z</time></trkpt><trkpt lat="44.4365041" lon="11.6066147"><ele>45.0</ele><time>2026-05-01T07:46:32.242Z</time></trkpt><trkpt lat="44.4363909" lon="11.6066075"><ele>45.0</ele><time>2026-05-01T07:46:33.242Z</time></trkpt><trkpt lat="44.4362774" lon="11.6065903"><ele>45.0</ele><time>2026-05-01T07:46:34.242Z</time></trkpt><trkpt lat="44.4361726" lon="11.6065647"><ele>45.0</ele><time>2026-05-01T07:46:35.242Z</time></trkpt><trkpt lat="44.4360711" lon="11.6065377"><ele>45.0</ele><time>2026-05-01T07:46:36.242Z</time></trkpt><trkpt lat="44.4359697" lon="11.6065088"><ele>45.0</ele><time>2026-05-01T07:46:37.242Z</time></trkpt><trkpt lat="44.4358685" lon="11.6064754"><ele>45.0</ele><time>2026-05-01T07:46:38.242Z</time></trkpt><trkpt lat="44.4357633" lon="11.6064377"><ele>45.0</ele><time>2026-05-01T07:46:39.242Z</time></trkpt><trkpt lat="44.4356592" lon="11.606392"><ele>45.0</ele><time>2026-05-01T07:46:40.243Z</time></trkpt><trkpt lat="44.4355551" lon="11.6063402"><ele>44.8</ele><time>2026-05-01T07:46:41.242Z</time></trkpt><trkpt lat="44.4354518" lon="11.6062852"><ele>44.6</ele><time>2026-05-01T07:46:42.242Z</time></trkpt><trkpt lat="44.4353507" lon="11.6062257"><ele>44.400000000000006</ele><time>2026-05-01T07:46:43.243Z</time></trkpt><trkpt lat="44.4352511" lon="11.6061614"><ele>44.2</ele><time>2026-05-01T07:46:44.242Z</time></trkpt><trkpt lat="44.4351517" lon="11.6060961"><ele>44.0</ele><time>2026-05-01T07:46:45.243Z</time></trkpt><trkpt lat="44.4350517" lon="11.6060346"><ele>43.800000000000004</ele><time>2026-05-01T07:46:46.242Z</time></trkpt><trkpt lat="44.4349538" lon="11.6059743"><ele>43.6</ele><time>2026-05-01T07:46:47.242Z</time></trkpt><trkpt lat="44.4348571" lon="11.6059169"><ele>43.4</ele><time>2026-05-01T07:46:48.242Z</time></trkpt><trkpt lat="44.4347578" lon="11.6058603"><ele>43.2</ele><time>2026-05-01T07:46:49.242Z</time></trkpt><trkpt lat="44.4346627" lon="11.6058019"><ele>43.0</ele><time>2026-05-01T07:46:50.242Z</time></trkpt><trkpt lat="44.4345694" lon="11.6057462"><ele>43.599999999999994</ele><time>2026-05-01T07:46:51.242Z</time></trkpt><trkpt lat="44.4344802" lon="11.6056969"><ele>44.199999999999996</ele><time>2026-05-01T07:46:52.242Z</time></trkpt><trkpt lat="44.4343879" lon="11.605643"><ele>44.8</ele><time>2026-05-01T07:46:53.242Z</time></trkpt><trkpt lat="44.434298" lon="11.605589"><ele>45.4</ele><time>2026-05-01T07:46:54.242Z</time></trkpt><trkpt lat="44.4342099" lon="11.6055371"><ele>46.0</ele><time>2026-05-01T07:46:55.242Z</time></trkpt><trkpt lat="44.4341205" lon="11.6054882"><ele>46.0</ele><time>2026-05-01T07:46:56.242Z</time></trkpt><trkpt lat="44.4340267" lon="11.6054447"><ele>46.0</ele><time>2026-05-01T07:46:57.242Z</time></trkpt><trkpt lat="44.4339279" lon="11.605404"><ele>46.0</ele><time>2026-05-01T07:46:58.242Z</time></trkpt><trkpt lat="44.4338258" lon="11.605363"><ele>46.0</ele><time>2026-05-01T07:46:59.242Z</time></trkpt><trkpt lat="44.4337241" lon="11.6053254"><ele>46.0</ele><time>2026-05-01T07:47:00.242Z</time></trkpt><trkpt lat="44.4336156" lon="11.6052953"><ele>46.5</ele><time>2026-05-01T07:47:01.242Z</time></trkpt><trkpt lat="44.4335038" lon="11.6052746"><ele>47.0</ele><time>2026-05-01T07:47:02.242Z</time></trkpt><trkpt lat="44.4333819" lon="11.6052583"><ele>47.5</ele><time>2026-05-01T07:47:03.242Z</time></trkpt><trkpt lat="44.4332595" lon="11.6052393"><ele>48.0</ele><time>2026-05-01T07:47:04.242Z</time></trkpt><trkpt lat="44.433139" lon="11.6052169"><ele>48.0</ele><time>2026-05-01T07:47:05.242Z</time></trkpt><trkpt lat="44.4330179" lon="11.6051956"><ele>48.0</ele><time>2026-05-01T07:47:06.242Z</time></trkpt><trkpt lat="44.4328983" lon="11.6051767"><ele>48.0</ele><time>2026-05-01T07:47:07.242Z</time></trkpt><trkpt lat="44.4327802" lon="11.6051578"><ele>48.0</ele><time>2026-05-01T07:47:08.242Z</time></trkpt><trkpt lat="44.4326676" lon="11.6051384"><ele>47.5</ele><time>2026-05-01T07:47:09.242Z</time></trkpt><trkpt lat="44.4325668" lon="11.6051189"><ele>47.0</ele><time>2026-05-01T07:47:10.242Z</time></trkpt><trkpt lat="44.4324807" lon="11.6051007"><ele>46.5</ele><time>2026-05-01T07:47:11.242Z</time></trkpt><trkpt lat="44.4324174" lon="11.6050868"><ele>46.0</ele><time>2026-05-01T07:47:12.242Z</time></trkpt><trkpt lat="44.4323009" lon="11.605073"><ele>45.5</ele><time>2026-05-01T07:47:14.242Z</time></trkpt><trkpt lat="44.4322358" lon="11.6050634"><ele>45.0</ele><time>2026-05-01T07:47:15.243Z</time></trkpt><trkpt lat="44.4321702" lon="11.6050533"><ele>44.857142857142854</ele><time>2026-05-01T07:47:16.242Z</time></trkpt><trkpt lat="44.4321039" lon="11.6050423"><ele>44.714285714285715</ele><time>2026-05-01T07:47:17.242Z</time></trkpt><trkpt lat="44.4320344" lon="11.6050292"><ele>44.57142857142857</ele><time>2026-05-01T07:47:18.242Z</time></trkpt><trkpt lat="44.4319611" lon="11.6050156"><ele>44.42857142857143</ele><time>2026-05-01T07:47:19.243Z</time></trkpt><trkpt lat="44.4318825" lon="11.605003"><ele>44.285714285714285</ele><time>2026-05-01T07:47:20.242Z</time></trkpt><trkpt lat="44.4318034" lon="11.6049883"><ele>44.142857142857146</ele><time>2026-05-01T07:47:21.242Z</time></trkpt><trkpt lat="44.4317256" lon="11.6049724"><ele>44.0</ele><time>2026-05-01T07:47:22.242Z</time></trkpt><trkpt lat="44.4316477" lon="11.6049563"><ele>44.0</ele><time>2026-05-01T07:47:23.242Z</time></trkpt><trkpt lat="44.4315707" lon="11.6049394"><ele>44.0</ele><time>2026-05-01T07:47:24.242Z</time></trkpt><trkpt lat="44.4314932" lon="11.6049237"><ele>44.0</ele><time>2026-05-01T07:47:25.243Z</time></trkpt><trkpt lat="44.431414" lon="11.6049095"><ele>44.0</ele><time>2026-05-01T07:47:26.242Z</time></trkpt><trkpt lat="44.4313334" lon="11.6048956"><ele>44.0</ele><time>2026-05-01T07:47:27.243Z</time></trkpt><trkpt lat="44.4312518" lon="11.6048811"><ele>44.0</ele><time>2026-05-01T07:47:28.243Z</time></trkpt><trkpt lat="44.4311692" lon="11.604867"><ele>44.33333333333333</ele><time>2026-05-01T07:47:29.243Z</time></trkpt><trkpt lat="44.4310863" lon="11.6048516"><ele>44.666666666666664</ele><time>2026-05-01T07:47:30.243Z</time></trkpt><trkpt lat="44.4310028" lon="11.6048352"><ele>45.0</ele><time>2026-05-01T07:47:31.243Z</time></trkpt><trkpt lat="44.4309166" lon="11.6048192"><ele>45.333333333333336</ele><time>2026-05-01T07:47:32.243Z</time></trkpt><trkpt lat="44.4308257" lon="11.6048044"><ele>45.66666666666667</ele><time>2026-05-01T07:47:33.243Z</time></trkpt><trkpt lat="44.4307354" lon="11.6047907"><ele>46.0</ele><time>2026-05-01T07:47:34.243Z</time></trkpt><trkpt lat="44.4306427" lon="11.6047755"><ele>46.0</ele><time>2026-05-01T07:47:35.243Z</time></trkpt><trkpt lat="44.4305523" lon="11.604761"><ele>46.0</ele><time>2026-05-01T07:47:36.243Z</time></trkpt><trkpt lat="44.4304629" lon="11.6047466"><ele>46.0</ele><time>2026-05-01T07:47:37.243Z</time></trkpt><trkpt lat="44.4303754" lon="11.6047278"><ele>46.0</ele><time>2026-05-01T07:47:38.243Z</time></trkpt><trkpt lat="44.4302964" lon="11.6047106"><ele>46.0</ele><time>2026-05-01T07:47:39.243Z</time></trkpt><trkpt lat="44.4302273" lon="11.604696"><ele>46.0</ele><time>2026-05-01T07:47:40.243Z</time></trkpt><trkpt lat="44.4301327" lon="11.6046766"><ele>46.5</ele><time>2026-05-01T07:47:42.243Z</time></trkpt><trkpt lat="44.4300551" lon="11.6046646"><ele>47.0</ele><time>2026-05-01T07:47:45.243Z</time></trkpt><trkpt lat="44.4299731" lon="11.6046473"><ele>47.5</ele><time>2026-05-01T07:48:16.243Z</time></trkpt><trkpt lat="44.4298796" lon="11.6046375"><ele>48.0</ele><time>2026-05-01T07:48:19.243Z</time></trkpt><trkpt lat="44.4298084" lon="11.6046235"><ele>48.49999999999999</ele><time>2026-05-01T07:48:22.244Z</time></trkpt><trkpt lat="44.4297337" lon="11.604617"><ele>49.0</ele><time>2026-05-01T07:48:27.244Z</time></trkpt><trkpt lat="44.4296615" lon="11.6046145"><ele>48.666666666666664</ele><time>2026-05-01T07:48:29.244Z</time></trkpt><trkpt lat="44.4295555" lon="11.6045906"><ele>48.33333333333333</ele><time>2026-05-01T07:48:31.244Z</time></trkpt><trkpt lat="44.4294869" lon="11.6045771"><ele>48.0</ele><time>2026-05-01T07:48:32.244Z</time></trkpt><trkpt lat="44.4294088" lon="11.6045663"><ele>47.666666666666664</ele><time>2026-05-01T07:48:33.244Z</time></trkpt><trkpt lat="44.4293264" lon="11.6045526"><ele>47.33333333333333</ele><time>2026-05-01T07:48:34.244Z</time></trkpt><trkpt lat="44.4292432" lon="11.6045375"><ele>47.0</ele><time>2026-05-01T07:48:35.244Z</time></trkpt><trkpt lat="44.429163" lon="11.6045243"><ele>47.0</ele><time>2026-05-01T07:48:36.244Z</time></trkpt><trkpt lat="44.4290817" lon="11.6045124"><ele>47.0</ele><time>2026-05-01T07:48:37.244Z</time></trkpt><trkpt lat="44.428995" lon="11.6044984"><ele>47.0</ele><time>2026-05-01T07:48:38.244Z</time></trkpt><trkpt lat="44.4289009" lon="11.604479"><ele>47.0</ele><time>2026-05-01T07:48:39.244Z</time></trkpt><trkpt lat="44.4287991" lon="11.6044564"><ele>47.0</ele><time>2026-05-01T07:48:40.244Z</time></trkpt><trkpt lat="44.4286917" lon="11.6044345"><ele>47.400000000000006</ele><time>2026-05-01T07:48:41.244Z</time></trkpt><trkpt lat="44.4285842" lon="11.6044161"><ele>47.800000000000004</ele><time>2026-05-01T07:48:42.244Z</time></trkpt><trkpt lat="44.4284742" lon="11.6043995"><ele>48.2</ele><time>2026-05-01T07:48:43.244Z</time></trkpt><trkpt lat="44.4283679" lon="11.6043794"><ele>48.6</ele><time>2026-05-01T07:48:44.244Z</time></trkpt><trkpt lat="44.428272" lon="11.6043551"><ele>49.0</ele><time>2026-05-01T07:48:45.244Z</time></trkpt><trkpt lat="44.4281919" lon="11.6043319"><ele>49.0</ele><time>2026-05-01T07:48:46.244Z</time></trkpt><trkpt lat="44.4280877" lon="11.6043033"><ele>49.0</ele><time>2026-05-01T07:48:48.244Z</time></trkpt><trkpt lat="44.4279913" lon="11.60428"><ele>49.0</ele><time>2026-05-01T07:48:50.244Z</time></trkpt><trkpt lat="44.4278834" lon="11.6042455"><ele>49.0</ele><time>2026-05-01T07:48:52.244Z</time></trkpt><trkpt lat="44.4277943" lon="11.6042046"><ele>49.0</ele><time>2026-05-01T07:48:54.244Z</time></trkpt><trkpt lat="44.4276969" lon="11.6041484"><ele>49.666666666666664</ele><time>2026-05-01T07:48:56.244Z</time></trkpt><trkpt lat="44.4276066" lon="11.6041046"><ele>50.33333333333333</ele><time>2026-05-01T07:48:58.244Z</time></trkpt><trkpt lat="44.4275253" lon="11.6040609"><ele>51.0</ele><time>2026-05-01T07:49:00.244Z</time></trkpt><trkpt lat="44.4274534" lon="11.6040192"><ele>51.66666666666667</ele><time>2026-05-01T07:49:02.244Z</time></trkpt><trkpt lat="44.4273857" lon="11.6039782"><ele>52.333333333333336</ele><time>2026-05-01T07:49:04.244Z</time></trkpt><trkpt lat="44.427295" lon="11.603915"><ele>53.0</ele><time>2026-05-01T07:49:06.244Z</time></trkpt><trkpt lat="44.4271744" lon="11.6038457"><ele>53.00000000000001</ele><time>2026-05-01T07:49:08.244Z</time></trkpt><trkpt lat="44.4271108" lon="11.6038109"><ele>53.0</ele><time>2026-05-01T07:49:09.244Z</time></trkpt><trkpt lat="44.4270432" lon="11.6037748"><ele>53.0</ele><time>2026-05-01T07:49:10.244Z</time></trkpt><trkpt lat="44.4269738" lon="11.6037347"><ele>53.0</ele><time>2026-05-01T07:49:11.244Z</time></trkpt><trkpt lat="44.4268948" lon="11.6036911"><ele>53.00000000000001</ele><time>2026-05-01T07:49:12.245Z</time></trkpt><trkpt lat="44.4268043" lon="11.6036389"><ele>53.0</ele><time>2026-05-01T07:49:13.244Z</time></trkpt><trkpt lat="44.4267047" lon="11.6035834"><ele>53.0</ele><time>2026-05-01T07:49:14.244Z</time></trkpt><trkpt lat="44.4265957" lon="11.6035257"><ele>53.0</ele><time>2026-05-01T07:49:15.244Z</time></trkpt><trkpt lat="44.426482" lon="11.6034656"><ele>53.0</ele><time>2026-05-01T07:49:16.244Z</time></trkpt><trkpt lat="44.4263722" lon="11.6034024"><ele>53.0</ele><time>2026-05-01T07:49:17.244Z</time></trkpt><trkpt lat="44.4262543" lon="11.6033357"><ele>52.5</ele><time>2026-05-01T07:49:18.244Z</time></trkpt><trkpt lat="44.4261296" lon="11.6032664"><ele>52.0</ele><time>2026-05-01T07:49:19.245Z</time></trkpt><trkpt lat="44.4259999" lon="11.6031958"><ele>51.5</ele><time>2026-05-01T07:49:20.244Z</time></trkpt><trkpt lat="44.4258647" lon="11.6031254"><ele>51.0</ele><time>2026-05-01T07:49:21.244Z</time></trkpt><trkpt lat="44.4257248" lon="11.6030511"><ele>51.0</ele><time>2026-05-01T07:49:22.245Z</time></trkpt><trkpt lat="44.4255812" lon="11.6029719"><ele>51.0</ele><time>2026-05-01T07:49:23.245Z</time></trkpt><trkpt lat="44.4254354" lon="11.6028865"><ele>51.0</ele><time>2026-05-01T07:49:24.245Z</time></trkpt><trkpt lat="44.4252821" lon="11.6027996"><ele>51.66666666666667</ele><time>2026-05-01T07:49:25.245Z</time></trkpt><trkpt lat="44.4251248" lon="11.6027133"><ele>52.333333333333336</ele><time>2026-05-01T07:49:26.245Z</time></trkpt><trkpt lat="44.424964" lon="11.6026243"><ele>53.0</ele><time>2026-05-01T07:49:27.245Z</time></trkpt><trkpt lat="44.4248023" lon="11.602534"><ele>53.333333333333336</ele><time>2026-05-01T07:49:28.245Z</time></trkpt><trkpt lat="44.4246377" lon="11.6024414"><ele>53.66666666666667</ele><time>2026-05-01T07:49:29.245Z</time></trkpt><trkpt lat="44.4244709" lon="11.6023444"><ele>54.0</ele><time>2026-05-01T07:49:30.245Z</time></trkpt><trkpt lat="44.4242977" lon="11.6022467"><ele>54.0</ele><time>2026-05-01T07:49:31.245Z</time></trkpt><trkpt lat="44.424121" lon="11.6021458"><ele>54.0</ele><time>2026-05-01T07:49:32.245Z</time></trkpt><trkpt lat="44.4239408" lon="11.6020417"><ele>54.0</ele><time>2026-05-01T07:49:33.245Z</time></trkpt><trkpt lat="44.4237568" lon="11.6019372"><ele>53.0</ele><time>2026-05-01T07:49:34.245Z</time></trkpt><trkpt lat="44.4235662" lon="11.6018367"><ele>52.0</ele><time>2026-05-01T07:49:35.245Z</time></trkpt><trkpt lat="44.4233718" lon="11.6017392"><ele>51.0</ele><time>2026-05-01T07:49:36.245Z</time></trkpt><trkpt lat="44.4231758" lon="11.6016407"><ele>51.33333333333333</ele><time>2026-05-01T07:49:37.245Z</time></trkpt><trkpt lat="44.4229746" lon="11.6015399"><ele>51.666666666666664</ele><time>2026-05-01T07:49:38.245Z</time></trkpt><trkpt lat="44.422768" lon="11.6014418"><ele>52.0</ele><time>2026-05-01T07:49:39.245Z</time></trkpt><trkpt lat="44.4225617" lon="11.6013469"><ele>52.0</ele><time>2026-05-01T07:49:40.245Z</time></trkpt><trkpt lat="44.4223525" lon="11.6012534"><ele>52.0</ele><time>2026-05-01T07:49:41.245Z</time></trkpt><trkpt lat="44.4221407" lon="11.601159"><ele>52.0</ele><time>2026-05-01T07:49:42.245Z</time></trkpt><trkpt lat="44.4219252" lon="11.6010679"><ele>52.0</ele><time>2026-05-01T07:49:43.245Z</time></trkpt><trkpt lat="44.4217091" lon="11.6009813"><ele>52.0</ele><time>2026-05-01T07:49:44.245Z</time></trkpt><trkpt lat="44.4214908" lon="11.6008935"><ele>53.5</ele><time>2026-05-01T07:49:45.245Z</time></trkpt><trkpt lat="44.4212715" lon="11.6007978"><ele>55.0</ele><time>2026-05-01T07:49:46.245Z</time></trkpt><trkpt lat="44.4210571" lon="11.6006888"><ele>55.0</ele><time>2026-05-01T07:49:47.245Z</time></trkpt><trkpt lat="44.420846" lon="11.6005718"><ele>55.0</ele><time>2026-05-01T07:49:48.245Z</time></trkpt><trkpt lat="44.4206385" lon="11.6004413"><ele>54.0</ele><time>2026-05-01T07:49:49.245Z</time></trkpt><trkpt lat="44.4204295" lon="11.6002981"><ele>53.0</ele><time>2026-05-01T07:49:50.245Z</time></trkpt><trkpt lat="44.4202243" lon="11.6001399"><ele>53.0</ele><time>2026-05-01T07:49:51.245Z</time></trkpt><trkpt lat="44.4200221" lon="11.5999734"><ele>53.0</ele><time>2026-05-01T07:49:52.245Z</time></trkpt><trkpt lat="44.4198196" lon="11.5998095"><ele>53.0</ele><time>2026-05-01T07:49:53.245Z</time></trkpt><trkpt lat="44.4196167" lon="11.5996558"><ele>53.0</ele><time>2026-05-01T07:49:54.245Z</time></trkpt><trkpt lat="44.4194089" lon="11.5995122"><ele>53.0</ele><time>2026-05-01T07:49:55.245Z</time></trkpt><trkpt lat="44.4191948" lon="11.5993855"><ele>53.0</ele><time>2026-05-01T07:49:56.245Z</time></trkpt><trkpt lat="44.4189696" lon="11.5992768"><ele>54.0</ele><time>2026-05-01T07:49:57.245Z</time></trkpt><trkpt lat="44.4187467" lon="11.5991798"><ele>55.0</ele><time>2026-05-01T07:49:58.245Z</time></trkpt><trkpt lat="44.4185224" lon="11.5990962"><ele>55.0</ele><time>2026-05-01T07:49:59.245Z</time></trkpt><trkpt lat="44.4182974" lon="11.5990217"><ele>55.0</ele><time>2026-05-01T07:50:00.245Z</time></trkpt><trkpt lat="44.418075" lon="11.5989557"><ele>55.666666666666664</ele><time>2026-05-01T07:50:01.245Z</time></trkpt><trkpt lat="44.4178594" lon="11.5988886"><ele>56.33333333333333</ele><time>2026-05-01T07:50:02.245Z</time></trkpt><trkpt lat="44.4176445" lon="11.5988187"><ele>57.0</ele><time>2026-05-01T07:50:03.245Z</time></trkpt><trkpt lat="44.4174291" lon="11.5987444"><ele>57.0</ele><time>2026-05-01T07:50:04.245Z</time></trkpt><trkpt lat="44.4172169" lon="11.5986586"><ele>57.0</ele><time>2026-05-01T07:50:05.245Z</time></trkpt><trkpt lat="44.4170113" lon="11.5985546"><ele>57.0</ele><time>2026-05-01T07:50:06.245Z</time></trkpt><trkpt lat="44.4168119" lon="11.598425"><ele>57.0</ele><time>2026-05-01T07:50:07.245Z</time></trkpt><trkpt lat="44.4166275" lon="11.598272"><ele>57.0</ele><time>2026-05-01T07:50:08.245Z</time></trkpt><trkpt lat="44.4164624" lon="11.5980963"><ele>57.0</ele><time>2026-05-01T07:50:09.245Z</time></trkpt><trkpt lat="44.4163084" lon="11.5979017"><ele>56.0</ele><time>2026-05-01T07:50:10.245Z</time></trkpt><trkpt lat="44.4161714" lon="11.5976915"><ele>55.0</ele><time>2026-05-01T07:50:11.245Z</time></trkpt><trkpt lat="44.4160487" lon="11.5974698"><ele>54.0</ele><time>2026-05-01T07:50:12.245Z</time></trkpt><trkpt lat="44.4159355" lon="11.5972447"><ele>54.0</ele><time>2026-05-01T07:50:13.245Z</time></trkpt><trkpt lat="44.415836" lon="11.597019"><ele>54.0</ele><time>2026-05-01T07:50:14.245Z</time></trkpt><trkpt lat="44.4157456" lon="11.5968079"><ele>54.0</ele><time>2026-05-01T07:50:15.245Z</time></trkpt><trkpt lat="44.415655" lon="11.596605"><ele>54.33333333333333</ele><time>2026-05-01T07:50:16.245Z</time></trkpt><trkpt lat="44.4155605" lon="11.5964046"><ele>54.666666666666664</ele><time>2026-05-01T07:50:17.246Z</time></trkpt><trkpt lat="44.4154642" lon="11.5961988"><ele>55.0</ele><time>2026-05-01T07:50:18.245Z</time></trkpt><trkpt lat="44.4153677" lon="11.5959993"><ele>55.0</ele><time>2026-05-01T07:50:19.245Z</time></trkpt><trkpt lat="44.4152733" lon="11.5958092"><ele>55.0</ele><time>2026-05-01T07:50:20.245Z</time></trkpt><trkpt lat="44.4151741" lon="11.5956218"><ele>55.0</ele><time>2026-05-01T07:50:21.246Z</time></trkpt><trkpt lat="44.4150684" lon="11.5954326"><ele>55.0</ele><time>2026-05-01T07:50:22.246Z</time></trkpt><trkpt lat="44.4149607" lon="11.5952449"><ele>55.0</ele><time>2026-05-01T07:50:23.246Z</time></trkpt><trkpt lat="44.4148387" lon="11.5950608"><ele>55.0</ele><time>2026-05-01T07:50:24.246Z</time></trkpt><trkpt lat="44.414711" lon="11.5948757"><ele>56.0</ele><time>2026-05-01T07:50:25.246Z</time></trkpt><trkpt lat="44.4145824" lon="11.5946854"><ele>57.0</ele><time>2026-05-01T07:50:26.246Z</time></trkpt><trkpt lat="44.4144491" lon="11.5944915"><ele>58.0</ele><time>2026-05-01T07:50:27.246Z</time></trkpt><trkpt lat="44.4143074" lon="11.5942995"><ele>58.0</ele><time>2026-05-01T07:50:28.246Z</time></trkpt><trkpt lat="44.4141673" lon="11.5941046"><ele>58.0</ele><time>2026-05-01T07:50:29.246Z</time></trkpt><trkpt lat="44.414027" lon="11.5939019"><ele>58.0</ele><time>2026-05-01T07:50:30.246Z</time></trkpt><trkpt lat="44.413879" lon="11.5936917"><ele>57.33333333333333</ele><time>2026-05-01T07:50:31.246Z</time></trkpt><trkpt lat="44.413726" lon="11.5934799"><ele>56.66666666666667</ele><time>2026-05-01T07:50:32.246Z</time></trkpt><trkpt lat="44.413567" lon="11.5932643"><ele>56.0</ele><time>2026-05-01T07:50:33.246Z</time></trkpt><trkpt lat="44.4134043" lon="11.5930379"><ele>57.0</ele><time>2026-05-01T07:50:34.246Z</time></trkpt><trkpt lat="44.4132427" lon="11.5928085"><ele>58.0</ele><time>2026-05-01T07:50:35.246Z</time></trkpt><trkpt lat="44.413084" lon="11.5925814"><ele>57.0</ele><time>2026-05-01T07:50:36.246Z</time></trkpt><trkpt lat="44.4129207" lon="11.5923521"><ele>56.0</ele><time>2026-05-01T07:50:37.246Z</time></trkpt><trkpt lat="44.4127614" lon="11.5921275"><ele>57.0</ele><time>2026-05-01T07:50:38.246Z</time></trkpt><trkpt lat="44.4125945" lon="11.591899"><ele>58.0</ele><time>2026-05-01T07:50:39.246Z</time></trkpt><trkpt lat="44.4124391" lon="11.5916791"><ele>58.0</ele><time>2026-05-01T07:50:40.246Z</time></trkpt><trkpt lat="44.4122904" lon="11.5914648"><ele>58.0</ele><time>2026-05-01T07:50:41.246Z</time></trkpt><trkpt lat="44.412151" lon="11.5912599"><ele>58.0</ele><time>2026-05-01T07:50:42.246Z</time></trkpt><trkpt lat="44.4120145" lon="11.5910732"><ele>58.33333333333333</ele><time>2026-05-01T07:50:43.246Z</time></trkpt><trkpt lat="44.4118858" lon="11.590903"><ele>58.66666666666667</ele><time>2026-05-01T07:50:44.246Z</time></trkpt><trkpt lat="44.4117536" lon="11.5907529"><ele>59.0</ele><time>2026-05-01T07:50:45.246Z</time></trkpt><trkpt lat="44.4116142" lon="11.5906171"><ele>59.0</ele><time>2026-05-01T07:50:46.246Z</time></trkpt><trkpt lat="44.4114675" lon="11.5904876"><ele>59.0</ele><time>2026-05-01T07:50:47.246Z</time></trkpt><trkpt lat="44.4113123" lon="11.590365"><ele>59.0</ele><time>2026-05-01T07:50:48.246Z</time></trkpt><trkpt lat="44.4111577" lon="11.5902484"><ele>58.66666666666667</ele><time>2026-05-01T07:50:49.246Z</time></trkpt><trkpt lat="44.4110053" lon="11.5901345"><ele>58.33333333333333</ele><time>2026-05-01T07:50:50.246Z</time></trkpt><trkpt lat="44.4108616" lon="11.5900157"><ele>58.0</ele><time>2026-05-01T07:50:51.246Z</time></trkpt><trkpt lat="44.4107204" lon="11.589897"><ele>58.0</ele><time>2026-05-01T07:50:52.246Z</time></trkpt><trkpt lat="44.4105655" lon="11.589793"><ele>58.0</ele><time>2026-05-01T07:50:53.246Z</time></trkpt><trkpt lat="44.4104223" lon="11.5896829"><ele>58.0</ele><time>2026-05-01T07:50:54.246Z</time></trkpt><trkpt lat="44.410275" lon="11.5895689"><ele>58.0</ele><time>2026-05-01T07:50:55.246Z</time></trkpt><trkpt lat="44.4101157" lon="11.5894565"><ele>58.0</ele><time>2026-05-01T07:50:56.246Z</time></trkpt><trkpt lat="44.4099558" lon="11.5893407"><ele>58.0</ele><time>2026-05-01T07:50:57.246Z</time></trkpt><trkpt lat="44.4097887" lon="11.5892277"><ele>57.666666666666664</ele><time>2026-05-01T07:50:58.246Z</time></trkpt><trkpt lat="44.4096231" lon="11.5891115"><ele>57.33333333333333</ele><time>2026-05-01T07:50:59.246Z</time></trkpt><trkpt lat="44.409451" lon="11.5890094"><ele>57.0</ele><time>2026-05-01T07:51:00.246Z</time></trkpt><trkpt lat="44.4092758" lon="11.5889227"><ele>57.0</ele><time>2026-05-01T07:51:01.246Z</time></trkpt><trkpt lat="44.4091014" lon="11.5888468"><ele>57.0</ele><time>2026-05-01T07:51:02.246Z</time></trkpt><trkpt lat="44.4089326" lon="11.5887778"><ele>57.0</ele><time>2026-05-01T07:51:03.246Z</time></trkpt><trkpt lat="44.4087713" lon="11.5887159"><ele>58.0</ele><time>2026-05-01T07:51:04.246Z</time></trkpt><trkpt lat="44.4086165" lon="11.5886566"><ele>59.0</ele><time>2026-05-01T07:51:05.246Z</time></trkpt><trkpt lat="44.4084688" lon="11.5886018"><ele>60.0</ele><time>2026-05-01T07:51:06.246Z</time></trkpt><trkpt lat="44.4083283" lon="11.5885526"><ele>60.0</ele><time>2026-05-01T07:51:07.246Z</time></trkpt><trkpt lat="44.4081908" lon="11.5885114"><ele>60.0</ele><time>2026-05-01T07:51:08.246Z</time></trkpt><trkpt lat="44.4080588" lon="11.5884683"><ele>60.0</ele><time>2026-05-01T07:51:09.246Z</time></trkpt><trkpt lat="44.4079312" lon="11.5884263"><ele>60.0</ele><time>2026-05-01T07:51:10.246Z</time></trkpt><trkpt lat="44.4078039" lon="11.5883914"><ele>59.75</ele><time>2026-05-01T07:51:11.246Z</time></trkpt><trkpt lat="44.407673" lon="11.5883589"><ele>59.5</ele><time>2026-05-01T07:51:12.246Z</time></trkpt><trkpt lat="44.4075335" lon="11.588323"><ele>59.25</ele><time>2026-05-01T07:51:13.246Z</time></trkpt><trkpt lat="44.4073846" lon="11.5882817"><ele>59.0</ele><time>2026-05-01T07:51:14.246Z</time></trkpt><trkpt lat="44.4072254" lon="11.5882356"><ele>59.0</ele><time>2026-05-01T07:51:15.246Z</time></trkpt><trkpt lat="44.4070589" lon="11.5881902"><ele>59.0</ele><time>2026-05-01T07:51:16.247Z</time></trkpt><trkpt lat="44.4068864" lon="11.5881486"><ele>59.0</ele><time>2026-05-01T07:51:17.247Z</time></trkpt><trkpt lat="44.4067068" lon="11.5881156"><ele>59.0</ele><time>2026-05-01T07:51:18.247Z</time></trkpt><trkpt lat="44.406531" lon="11.588082"><ele>59.0</ele><time>2026-05-01T07:51:19.247Z</time></trkpt><trkpt lat="44.4063764" lon="11.5880434"><ele>59.0</ele><time>2026-05-01T07:51:20.247Z</time></trkpt><trkpt lat="44.4062316" lon="11.5880071"><ele>59.25</ele><time>2026-05-01T07:51:21.247Z</time></trkpt><trkpt lat="44.4060989" lon="11.5879663"><ele>59.5</ele><time>2026-05-01T07:51:22.247Z</time></trkpt><trkpt lat="44.4059666" lon="11.5879318"><ele>59.75</ele><time>2026-05-01T07:51:23.247Z</time></trkpt><trkpt lat="44.4058332" lon="11.5878991"><ele>60.0</ele><time>2026-05-01T07:51:24.247Z</time></trkpt><trkpt lat="44.405696" lon="11.5878634"><ele>60.5</ele><time>2026-05-01T07:51:25.247Z</time></trkpt><trkpt lat="44.4055588" lon="11.5878201"><ele>61.0</ele><time>2026-05-01T07:51:26.247Z</time></trkpt><trkpt lat="44.4054277" lon="11.5877704"><ele>61.5</ele><time>2026-05-01T07:51:27.247Z</time></trkpt><trkpt lat="44.4053039" lon="11.5877219"><ele>62.0</ele><time>2026-05-01T07:51:28.247Z</time></trkpt><trkpt lat="44.4051825" lon="11.5876734"><ele>62.0</ele><time>2026-05-01T07:51:29.247Z</time></trkpt><trkpt lat="44.4050592" lon="11.5876263"><ele>62.0</ele><time>2026-05-01T07:51:30.247Z</time></trkpt><trkpt lat="44.404938" lon="11.5875746"><ele>62.0</ele><time>2026-05-01T07:51:31.247Z</time></trkpt><trkpt lat="44.4048136" lon="11.587526"><ele>62.0</ele><time>2026-05-01T07:51:32.247Z</time></trkpt><trkpt lat="44.4046905" lon="11.5874769"><ele>62.25</ele><time>2026-05-01T07:51:33.247Z</time></trkpt><trkpt lat="44.4045689" lon="11.5874302"><ele>62.5</ele><time>2026-05-01T07:51:34.248Z</time></trkpt><trkpt lat="44.4044496" lon="11.5873865"><ele>62.75</ele><time>2026-05-01T07:51:35.247Z</time></trkpt><trkpt lat="44.4043338" lon="11.5873423"><ele>63.0</ele><time>2026-05-01T07:51:36.247Z</time></trkpt><trkpt lat="44.40422" lon="11.5872963"><ele>63.0</ele><time>2026-05-01T07:51:37.247Z</time></trkpt><trkpt lat="44.4041102" lon="11.5872538"><ele>63.0</ele><time>2026-05-01T07:51:38.247Z</time></trkpt><trkpt lat="44.4040055" lon="11.5872177"><ele>63.0</ele><time>2026-05-01T07:51:39.247Z</time></trkpt><trkpt lat="44.4039085" lon="11.5871816"><ele>63.0</ele><time>2026-05-01T07:51:40.247Z</time></trkpt><trkpt lat="44.4038159" lon="11.5871462"><ele>63.0</ele><time>2026-05-01T07:51:41.247Z</time></trkpt><trkpt lat="44.4037228" lon="11.5871086"><ele>63.5</ele><time>2026-05-01T07:51:42.247Z</time></trkpt><trkpt lat="44.4036319" lon="11.5870661"><ele>64.0</ele><time>2026-05-01T07:51:43.247Z</time></trkpt><trkpt lat="44.4035477" lon="11.5870183"><ele>64.5</ele><time>2026-05-01T07:51:44.247Z</time></trkpt><trkpt lat="44.4034743" lon="11.5869563"><ele>65.0</ele><time>2026-05-01T07:51:45.247Z</time></trkpt><trkpt lat="44.4034075" lon="11.5868836"><ele>65.5</ele><time>2026-05-01T07:51:46.247Z</time></trkpt><trkpt lat="44.4033412" lon="11.5867968"><ele>66.0</ele><time>2026-05-01T07:51:47.248Z</time></trkpt><trkpt lat="44.4032819" lon="11.5867015"><ele>66.2</ele><time>2026-05-01T07:51:48.247Z</time></trkpt><trkpt lat="44.4032319" lon="11.5865907"><ele>66.39999999999999</ele><time>2026-05-01T07:51:49.247Z</time></trkpt><trkpt lat="44.4032117" lon="11.5864572"><ele>66.6</ele><time>2026-05-01T07:51:50.247Z</time></trkpt><trkpt lat="44.403212" lon="11.5863199"><ele>66.8</ele><time>2026-05-01T07:51:51.247Z</time></trkpt><trkpt lat="44.4032251" lon="11.5861871"><ele>67.0</ele><time>2026-05-01T07:51:52.247Z</time></trkpt><trkpt lat="44.4032411" lon="11.5860665"><ele>67.16666666666666</ele><time>2026-05-01T07:51:53.247Z</time></trkpt><trkpt lat="44.4032562" lon="11.5859474"><ele>67.33333333333333</ele><time>2026-05-01T07:51:54.247Z</time></trkpt><trkpt lat="44.4032734" lon="11.5858292"><ele>67.5</ele><time>2026-05-01T07:51:55.247Z</time></trkpt><trkpt lat="44.4032941" lon="11.58571"><ele>67.66666666666667</ele><time>2026-05-01T07:51:56.248Z</time></trkpt><trkpt lat="44.4033168" lon="11.5855895"><ele>67.83333333333334</ele><time>2026-05-01T07:51:57.248Z</time></trkpt><trkpt lat="44.4033412" lon="11.5854612"><ele>68.0</ele><time>2026-05-01T07:51:58.247Z</time></trkpt><trkpt lat="44.4033703" lon="11.5853381"><ele>68.0</ele><time>2026-05-01T07:51:59.247Z</time></trkpt><trkpt lat="44.4034038" lon="11.5852167"><ele>68.0</ele><time>2026-05-01T07:52:00.247Z</time></trkpt><trkpt lat="44.4034451" lon="11.5850902"><ele>68.0</ele><time>2026-05-01T07:52:01.247Z</time></trkpt><trkpt lat="44.4034917" lon="11.5849502"><ele>68.0</ele><time>2026-05-01T07:52:02.247Z</time></trkpt><trkpt lat="44.4035457" lon="11.5848003"><ele>68.0</ele><time>2026-05-01T07:52:03.247Z</time></trkpt><trkpt lat="44.4035982" lon="11.5846405"><ele>67.75</ele><time>2026-05-01T07:52:04.247Z</time></trkpt><trkpt lat="44.4036581" lon="11.5844781"><ele>67.5</ele><time>2026-05-01T07:52:05.247Z</time></trkpt><trkpt lat="44.4037232" lon="11.5843096"><ele>67.25</ele><time>2026-05-01T07:52:06.247Z</time></trkpt><trkpt lat="44.4037911" lon="11.5841283"><ele>67.0</ele><time>2026-05-01T07:52:07.247Z</time></trkpt><trkpt lat="44.4038587" lon="11.5839461"><ele>67.0</ele><time>2026-05-01T07:52:08.247Z</time></trkpt><trkpt lat="44.403928" lon="11.5837578"><ele>67.0</ele><time>2026-05-01T07:52:09.248Z</time></trkpt><trkpt lat="44.4039959" lon="11.5835717"><ele>67.0</ele><time>2026-05-01T07:52:10.247Z</time></trkpt><trkpt lat="44.4040626" lon="11.5833926"><ele>67.0</ele><time>2026-05-01T07:52:11.248Z</time></trkpt><trkpt lat="44.4041221" lon="11.5832182"><ele>67.2</ele><time>2026-05-01T07:52:12.247Z</time></trkpt><trkpt lat="44.4041788" lon="11.5830587"><ele>67.4</ele><time>2026-05-01T07:52:13.247Z</time></trkpt><trkpt lat="44.4042321" lon="11.5829159"><ele>67.6</ele><time>2026-05-01T07:52:14.248Z</time></trkpt><trkpt lat="44.4042771" lon="11.5827844"><ele>67.8</ele><time>2026-05-01T07:52:15.248Z</time></trkpt><trkpt lat="44.4043155" lon="11.5826724"><ele>68.0</ele><time>2026-05-01T07:52:16.248Z</time></trkpt><trkpt lat="44.4043591" lon="11.5825822"><ele>68.16666666666667</ele><time>2026-05-01T07:52:17.248Z</time></trkpt><trkpt lat="44.4044178" lon="11.5825006"><ele>68.33333333333334</ele><time>2026-05-01T07:52:18.248Z</time></trkpt><trkpt lat="44.4044848" lon="11.5824314"><ele>68.5</ele><time>2026-05-01T07:52:19.248Z</time></trkpt><trkpt lat="44.4045521" lon="11.5823618"><ele>68.66666666666667</ele><time>2026-05-01T07:52:20.248Z</time></trkpt><trkpt lat="44.4045912" lon="11.5822823"><ele>68.83333333333333</ele><time>2026-05-01T07:52:21.248Z</time></trkpt><trkpt lat="44.4045838" lon="11.5821769"><ele>69.0</ele><time>2026-05-01T07:52:22.248Z</time></trkpt><trkpt lat="44.4045329" lon="11.582071"><ele>69.0</ele><time>2026-05-01T07:52:23.248Z</time></trkpt><trkpt lat="44.4044751" lon="11.5820213"><ele>69.0</ele><time>2026-05-01T07:52:24.248Z</time></trkpt><trkpt lat="44.4043946" lon="11.5820203"><ele>69.0</ele><time>2026-05-01T07:52:25.248Z</time></trkpt><trkpt lat="44.4043252" lon="11.5820539"><ele>69.0</ele><time>2026-05-01T07:52:26.248Z</time></trkpt><trkpt lat="44.4042518" lon="11.5821305"><ele>69.0</ele><time>2026-05-01T07:52:27.248Z</time></trkpt><trkpt lat="44.4041684" lon="11.5822233"><ele>69.0</ele><time>2026-05-01T07:52:28.248Z</time></trkpt><trkpt lat="44.4040722" lon="11.5822838"><ele>69.0</ele><time>2026-05-01T07:52:29.248Z</time></trkpt><trkpt lat="44.4039766" lon="11.5822754"><ele>69.0</ele><time>2026-05-01T07:52:30.248Z</time></trkpt><trkpt lat="44.4038821" lon="11.5822154"><ele>69.0</ele><time>2026-05-01T07:52:31.248Z</time></trkpt><trkpt lat="44.403787" lon="11.5821235"><ele>69.0</ele><time>2026-05-01T07:52:32.248Z</time></trkpt><trkpt lat="44.4036951" lon="11.5820281"><ele>69.0</ele><time>2026-05-01T07:52:33.249Z</time></trkpt><trkpt lat="44.4035897" lon="11.5819621"><ele>69.25</ele><time>2026-05-01T07:52:34.248Z</time></trkpt><trkpt lat="44.4034708" lon="11.5819378"><ele>69.5</ele><time>2026-05-01T07:52:35.248Z</time></trkpt><trkpt lat="44.4033424" lon="11.5819229"><ele>69.75</ele><time>2026-05-01T07:52:36.248Z</time></trkpt><trkpt lat="44.4032138" lon="11.5818787"><ele>70.0</ele><time>2026-05-01T07:52:37.248Z</time></trkpt><trkpt lat="44.4030916" lon="11.5818027"><ele>70.5</ele><time>2026-05-01T07:52:38.248Z</time></trkpt><trkpt lat="44.4029773" lon="11.5817133"><ele>71.0</ele><time>2026-05-01T07:52:39.248Z</time></trkpt><trkpt lat="44.402866" lon="11.5816223"><ele>71.5</ele><time>2026-05-01T07:52:40.248Z</time></trkpt><trkpt lat="44.4027566" lon="11.5815363"><ele>72.0</ele><time>2026-05-01T07:52:41.248Z</time></trkpt><trkpt lat="44.402649" lon="11.5814596"><ele>72.0</ele><time>2026-05-01T07:52:42.248Z</time></trkpt><trkpt lat="44.4025468" lon="11.5813824"><ele>72.0</ele><time>2026-05-01T07:52:43.248Z</time></trkpt><trkpt lat="44.4024436" lon="11.5813089"><ele>72.0</ele><time>2026-05-01T07:52:44.248Z</time></trkpt><trkpt lat="44.4023411" lon="11.5812373"><ele>72.0</ele><time>2026-05-01T07:52:45.248Z</time></trkpt><trkpt lat="44.4022309" lon="11.5811644"><ele>72.0</ele><time>2026-05-01T07:52:46.248Z</time></trkpt><trkpt lat="44.4021173" lon="11.5811"><ele>72.0</ele><time>2026-05-01T07:52:47.248Z</time></trkpt><trkpt lat="44.4019882" lon="11.5810494"><ele>72.0</ele><time>2026-05-01T07:52:48.248Z</time></trkpt><trkpt lat="44.4018545" lon="11.5810167"><ele>72.0</ele><time>2026-05-01T07:52:49.248Z</time></trkpt><trkpt lat="44.4017206" lon="11.5809958"><ele>72.0</ele><time>2026-05-01T07:52:50.248Z</time></trkpt><trkpt lat="44.4015892" lon="11.5809831"><ele>72.0</ele><time>2026-05-01T07:52:51.248Z</time></trkpt><trkpt lat="44.4014663" lon="11.5809651"><ele>72.0</ele><time>2026-05-01T07:52:52.248Z</time></trkpt><trkpt lat="44.4013498" lon="11.5809417"><ele>72.0</ele><time>2026-05-01T07:52:53.248Z</time></trkpt><trkpt lat="44.4012385" lon="11.5809112"><ele>72.4</ele><time>2026-05-01T07:52:54.248Z</time></trkpt><trkpt lat="44.4011356" lon="11.5808598"><ele>72.80000000000001</ele><time>2026-05-01T07:52:55.248Z</time></trkpt><trkpt lat="44.4010445" lon="11.5807762"><ele>73.2</ele><time>2026-05-01T07:52:56.248Z</time></trkpt><trkpt lat="44.4009715" lon="11.5806532"><ele>73.60000000000001</ele><time>2026-05-01T07:52:57.248Z</time></trkpt><trkpt lat="44.4009102" lon="11.5805173"><ele>74.0</ele><time>2026-05-01T07:52:58.248Z</time></trkpt><trkpt lat="44.4008565" lon="11.5803784"><ele>74.25</ele><time>2026-05-01T07:52:59.248Z</time></trkpt><trkpt lat="44.4008296" lon="11.5802261"><ele>74.5</ele><time>2026-05-01T07:53:00.248Z</time></trkpt><trkpt lat="44.4008368" lon="11.5800572"><ele>74.75</ele><time>2026-05-01T07:53:01.248Z</time></trkpt><trkpt lat="44.4008938" lon="11.5798846"><ele>75.0</ele><time>2026-05-01T07:53:02.248Z</time></trkpt><trkpt lat="44.4009842" lon="11.57972"><ele>75.0</ele><time>2026-05-01T07:53:03.248Z</time></trkpt><trkpt lat="44.4010719" lon="11.5795462"><ele>75.0</ele><time>2026-05-01T07:53:04.248Z</time></trkpt><trkpt lat="44.4011447" lon="11.5793723"><ele>75.0</ele><time>2026-05-01T07:53:05.248Z</time></trkpt><trkpt lat="44.4012051" lon="11.5792024"><ele>75.0</ele><time>2026-05-01T07:53:06.248Z</time></trkpt><trkpt lat="44.4012565" lon="11.5790386"><ele>74.8</ele><time>2026-05-01T07:53:07.248Z</time></trkpt><trkpt lat="44.4013046" lon="11.5788861"><ele>74.6</ele><time>2026-05-01T07:53:08.248Z</time></trkpt><trkpt lat="44.4013425" lon="11.5787435"><ele>74.4</ele><time>2026-05-01T07:53:09.249Z</time></trkpt><trkpt lat="44.4013722" lon="11.5786057"><ele>74.2</ele><time>2026-05-01T07:53:10.248Z</time></trkpt><trkpt lat="44.4014114" lon="11.5784815"><ele>74.0</ele><time>2026-05-01T07:53:11.249Z</time></trkpt><trkpt lat="44.4014631" lon="11.5783926"><ele>74.4</ele><time>2026-05-01T07:53:12.249Z</time></trkpt><trkpt lat="44.4014824" lon="11.5782293"><ele>74.80000000000001</ele><time>2026-05-01T07:53:14.249Z</time></trkpt><trkpt lat="44.4014262" lon="11.5781506"><ele>75.19999999999999</ele><time>2026-05-01T07:53:15.249Z</time></trkpt><trkpt lat="44.4013345" lon="11.5781293"><ele>75.6</ele><time>2026-05-01T07:53:16.249Z</time></trkpt><trkpt lat="44.4012425" lon="11.5781357"><ele>76.0</ele><time>2026-05-01T07:53:17.249Z</time></trkpt><trkpt lat="44.4011242" lon="11.578163"><ele>76.0</ele><time>2026-05-01T07:53:18.249Z</time></trkpt><trkpt lat="44.4009806" lon="11.5781859"><ele>76.0</ele><time>2026-05-01T07:53:19.249Z</time></trkpt><trkpt lat="44.4008295" lon="11.5782031"><ele>76.0</ele><time>2026-05-01T07:53:20.249Z</time></trkpt><trkpt lat="44.4006902" lon="11.5782177"><ele>76.0</ele><time>2026-05-01T07:53:21.249Z</time></trkpt><trkpt lat="44.4005555" lon="11.5782381"><ele>76.5</ele><time>2026-05-01T07:53:22.249Z</time></trkpt><trkpt lat="44.4004214" lon="11.5782524"><ele>77.0</ele><time>2026-05-01T07:53:23.249Z</time></trkpt><trkpt lat="44.4002825" lon="11.5782685"><ele>77.5</ele><time>2026-05-01T07:53:24.249Z</time></trkpt><trkpt lat="44.4001469" lon="11.5782815"><ele>78.0</ele><time>2026-05-01T07:53:25.249Z</time></trkpt><trkpt lat="44.4000063" lon="11.5782998"><ele>78.0</ele><time>2026-05-01T07:53:26.249Z</time></trkpt><trkpt lat="44.399866" lon="11.5783191"><ele>78.0</ele><time>2026-05-01T07:53:27.249Z</time></trkpt><trkpt lat="44.3997243" lon="11.5783324"><ele>78.0</ele><time>2026-05-01T07:53:28.249Z</time></trkpt><trkpt lat="44.3995849" lon="11.5783458"><ele>78.0</ele><time>2026-05-01T07:53:29.249Z</time></trkpt><trkpt lat="44.3994473" lon="11.578363"><ele>78.75</ele><time>2026-05-01T07:53:30.249Z</time></trkpt><trkpt lat="44.3993034" lon="11.5783807"><ele>79.5</ele><time>2026-05-01T07:53:31.249Z</time></trkpt><trkpt lat="44.3991579" lon="11.5783979"><ele>80.25</ele><time>2026-05-01T07:53:32.249Z</time></trkpt><trkpt lat="44.3990129" lon="11.5784131"><ele>81.0</ele><time>2026-05-01T07:53:33.249Z</time></trkpt><trkpt lat="44.3988637" lon="11.5784293"><ele>83.0</ele><time>2026-05-01T07:53:34.249Z</time></trkpt><trkpt lat="44.3987144" lon="11.5784442"><ele>85.0</ele><time>2026-05-01T07:53:35.249Z</time></trkpt><trkpt lat="44.3985601" lon="11.5784604"><ele>87.0</ele><time>2026-05-01T07:53:36.249Z</time></trkpt><trkpt lat="44.3984029" lon="11.5784767"><ele>87.0</ele><time>2026-05-01T07:53:37.249Z</time></trkpt><trkpt lat="44.3982451" lon="11.5784952"><ele>87.0</ele><time>2026-05-01T07:53:38.249Z</time></trkpt><trkpt lat="44.3980904" lon="11.5785179"><ele>87.0</ele><time>2026-05-01T07:53:39.249Z</time></trkpt><trkpt lat="44.3979339" lon="11.5785386"><ele>87.0</ele><time>2026-05-01T07:53:40.249Z</time></trkpt><trkpt lat="44.3977773" lon="11.5785551"><ele>87.0</ele><time>2026-05-01T07:53:41.249Z</time></trkpt><trkpt lat="44.3976223" lon="11.5785709"><ele>87.0</ele><time>2026-05-01T07:53:42.249Z</time></trkpt><trkpt lat="44.397469" lon="11.5785868"><ele>87.0</ele><time>2026-05-01T07:53:43.249Z</time></trkpt><trkpt lat="44.3973227" lon="11.5786049"><ele>87.0</ele><time>2026-05-01T07:53:44.249Z</time></trkpt><trkpt lat="44.3971873" lon="11.5786231"><ele>87.0</ele><time>2026-05-01T07:53:45.249Z</time></trkpt><trkpt lat="44.3970629" lon="11.5786429"><ele>87.0</ele><time>2026-05-01T07:53:46.249Z</time></trkpt><trkpt lat="44.3969551" lon="11.5786683"><ele>87.0</ele><time>2026-05-01T07:53:47.249Z</time></trkpt><trkpt lat="44.3968628" lon="11.5786981"><ele>87.0</ele><time>2026-05-01T07:53:48.249Z</time></trkpt><trkpt lat="44.3967848" lon="11.5787213"><ele>87.0</ele><time>2026-05-01T07:53:49.249Z</time></trkpt><trkpt lat="44.3967149" lon="11.5787355"><ele>87.0</ele><time>2026-05-01T07:53:50.249Z</time></trkpt><trkpt lat="44.3966414" lon="11.5787407"><ele>87.0</ele><time>2026-05-01T07:53:51.249Z</time></trkpt><trkpt lat="44.3965653" lon="11.5787289"><ele>87.0</ele><time>2026-05-01T07:53:52.249Z</time></trkpt><trkpt lat="44.3964842" lon="11.5787003"><ele>87.6</ele><time>2026-05-01T07:53:53.249Z</time></trkpt><trkpt lat="44.3964034" lon="11.5786435"><ele>88.19999999999999</ele><time>2026-05-01T07:53:54.249Z</time></trkpt><trkpt lat="44.3963305" lon="11.5785502"><ele>88.8</ele><time>2026-05-01T07:53:55.249Z</time></trkpt><trkpt lat="44.3962959" lon="11.5784034"><ele>89.4</ele><time>2026-05-01T07:53:56.249Z</time></trkpt><trkpt lat="44.3963079" lon="11.5782226"><ele>90.0</ele><time>2026-05-01T07:53:57.249Z</time></trkpt><trkpt lat="44.3963449" lon="11.5780225"><ele>91.0</ele><time>2026-05-01T07:53:58.249Z</time></trkpt><trkpt lat="44.3963855" lon="11.577813"><ele>92.0</ele><time>2026-05-01T07:53:59.249Z</time></trkpt><trkpt lat="44.3964159" lon="11.577606"><ele>93.0</ele><time>2026-05-01T07:54:00.249Z</time></trkpt><trkpt lat="44.3964404" lon="11.5773941"><ele>93.0</ele><time>2026-05-01T07:54:01.249Z</time></trkpt><trkpt lat="44.3964679" lon="11.5771707"><ele>93.0</ele><time>2026-05-01T07:54:02.25Z</time></trkpt><trkpt lat="44.396497" lon="11.57694"><ele>93.0</ele><time>2026-05-01T07:54:03.249Z</time></trkpt><trkpt lat="44.3965213" lon="11.5766907"><ele>95.33333333333334</ele><time>2026-05-01T07:54:04.249Z</time></trkpt><trkpt lat="44.3965277" lon="11.5764349"><ele>97.66666666666667</ele><time>2026-05-01T07:54:05.249Z</time></trkpt><trkpt lat="44.3965087" lon="11.5761767"><ele>100.0</ele><time>2026-05-01T07:54:06.249Z</time></trkpt><trkpt lat="44.3964711" lon="11.5759171"><ele>100.0</ele><time>2026-05-01T07:54:07.249Z</time></trkpt><trkpt lat="44.3964277" lon="11.5756702"><ele>100.0</ele><time>2026-05-01T07:54:08.25Z</time></trkpt><trkpt lat="44.396381" lon="11.5754318"><ele>100.0</ele><time>2026-05-01T07:54:09.25Z</time></trkpt><trkpt lat="44.3963407" lon="11.5751966"><ele>102.0</ele><time>2026-05-01T07:54:10.25Z</time></trkpt><trkpt lat="44.3963013" lon="11.5749792"><ele>104.0</ele><time>2026-05-01T07:54:11.25Z</time></trkpt><trkpt lat="44.3962672" lon="11.5747914"><ele>106.0</ele><time>2026-05-01T07:54:12.25Z</time></trkpt><trkpt lat="44.3962256" lon="11.5746197"><ele>108.0</ele><time>2026-05-01T07:54:13.25Z</time></trkpt><trkpt lat="44.3961619" lon="11.5744833"><ele>108.75</ele><time>2026-05-01T07:54:14.25Z</time></trkpt><trkpt lat="44.3960625" lon="11.5743722"><ele>109.5</ele><time>2026-05-01T07:54:15.25Z</time></trkpt><trkpt lat="44.3959392" lon="11.5742975"><ele>110.25</ele><time>2026-05-01T07:54:16.25Z</time></trkpt><trkpt lat="44.3958082" lon="11.574253"><ele>111.0</ele><time>2026-05-01T07:54:17.25Z</time></trkpt><trkpt lat="44.3956704" lon="11.5742512"><ele>111.0</ele><time>2026-05-01T07:54:18.25Z</time></trkpt><trkpt lat="44.3955076" lon="11.5742767"><ele>111.0</ele><time>2026-05-01T07:54:19.25Z</time></trkpt><trkpt lat="44.3953412" lon="11.5743401"><ele>111.0</ele><time>2026-05-01T07:54:20.25Z</time></trkpt><trkpt lat="44.3951808" lon="11.574427"><ele>111.33333333333334</ele><time>2026-05-01T07:54:21.25Z</time></trkpt><trkpt lat="44.3950351" lon="11.5745321"><ele>111.66666666666667</ele><time>2026-05-01T07:54:22.25Z</time></trkpt><trkpt lat="44.3948962" lon="11.5746687"><ele>112.0</ele><time>2026-05-01T07:54:23.25Z</time></trkpt><trkpt lat="44.3947545" lon="11.574841"><ele>113.0</ele><time>2026-05-01T07:54:24.25Z</time></trkpt><trkpt lat="44.3946074" lon="11.5750224"><ele>114.0</ele><time>2026-05-01T07:54:25.25Z</time></trkpt><trkpt lat="44.3944639" lon="11.5752097"><ele>115.0</ele><time>2026-05-01T07:54:26.25Z</time></trkpt><trkpt lat="44.3943163" lon="11.5754183"><ele>115.0</ele><time>2026-05-01T07:54:27.251Z</time></trkpt><trkpt lat="44.3941798" lon="11.5756231"><ele>115.0</ele><time>2026-05-01T07:54:28.25Z</time></trkpt><trkpt lat="44.3940477" lon="11.5758179"><ele>115.0</ele><time>2026-05-01T07:54:29.25Z</time></trkpt><trkpt lat="44.3939157" lon="11.5759737"><ele>115.33333333333334</ele><time>2026-05-01T07:54:30.25Z</time></trkpt><trkpt lat="44.3937689" lon="11.57607"><ele>115.66666666666666</ele><time>2026-05-01T07:54:31.25Z</time></trkpt><trkpt lat="44.3936038" lon="11.5761409"><ele>116.0</ele><time>2026-05-01T07:54:32.25Z</time></trkpt><trkpt lat="44.3934317" lon="11.5762183"><ele>116.0</ele><time>2026-05-01T07:54:33.25Z</time></trkpt><trkpt lat="44.393269" lon="11.5762947"><ele>116.0</ele><time>2026-05-01T07:54:34.25Z</time></trkpt><trkpt lat="44.3931103" lon="11.5763666"><ele>116.0</ele><time>2026-05-01T07:54:35.25Z</time></trkpt><trkpt lat="44.3929621" lon="11.5764433"><ele>117.0</ele><time>2026-05-01T07:54:36.25Z</time></trkpt><trkpt lat="44.3928112" lon="11.5765183"><ele>118.0</ele><time>2026-05-01T07:54:37.25Z</time></trkpt><trkpt lat="44.3926844" lon="11.5765802"><ele>119.0</ele><time>2026-05-01T07:54:38.25Z</time></trkpt><trkpt lat="44.3925472" lon="11.5766309"><ele>120.0</ele><time>2026-05-01T07:54:39.25Z</time></trkpt><trkpt lat="44.3924024" lon="11.5766537"><ele>122.5</ele><time>2026-05-01T07:54:40.25Z</time></trkpt><trkpt lat="44.39209" lon="11.5765751"><ele>125.0</ele><time>2026-05-01T07:54:42.25Z</time></trkpt><trkpt lat="44.391926" lon="11.5765365"><ele>125.0</ele><time>2026-05-01T07:54:43.25Z</time></trkpt><trkpt lat="44.3917635" lon="11.5764906"><ele>125.0</ele><time>2026-05-01T07:54:44.25Z</time></trkpt><trkpt lat="44.3915952" lon="11.5764515"><ele>125.0</ele><time>2026-05-01T07:54:45.251Z</time></trkpt><trkpt lat="44.3914178" lon="11.576407"><ele>127.0</ele><time>2026-05-01T07:54:46.25Z</time></trkpt><trkpt lat="44.391241" lon="11.576361"><ele>129.0</ele><time>2026-05-01T07:54:47.25Z</time></trkpt><trkpt lat="44.3910602" lon="11.5763099"><ele>131.0</ele><time>2026-05-01T07:54:48.25Z</time></trkpt><trkpt lat="44.3908852" lon="11.5762643"><ele>131.0</ele><time>2026-05-01T07:54:49.25Z</time></trkpt><trkpt lat="44.3907061" lon="11.5762142"><ele>131.0</ele><time>2026-05-01T07:54:50.25Z</time></trkpt><trkpt lat="44.3905322" lon="11.5761785"><ele>131.0</ele><time>2026-05-01T07:54:51.25Z</time></trkpt><trkpt lat="44.3903574" lon="11.5761441"><ele>132.0</ele><time>2026-05-01T07:54:52.25Z</time></trkpt><trkpt lat="44.3901763" lon="11.5761279"><ele>133.0</ele><time>2026-05-01T07:54:53.25Z</time></trkpt><trkpt lat="44.3899961" lon="11.5761168"><ele>134.0</ele><time>2026-05-01T07:54:54.251Z</time></trkpt><trkpt lat="44.3898139" lon="11.5761156"><ele>135.0</ele><time>2026-05-01T07:54:55.25Z</time></trkpt><trkpt lat="44.3896299" lon="11.5761239"><ele>136.0</ele><time>2026-05-01T07:54:56.25Z</time></trkpt><trkpt lat="44.389446" lon="11.5761398"><ele>137.0</ele><time>2026-05-01T07:54:57.25Z</time></trkpt><trkpt lat="44.3892603" lon="11.5761757"><ele>137.0</ele><time>2026-05-01T07:54:58.25Z</time></trkpt><trkpt lat="44.3890734" lon="11.5762234"><ele>137.0</ele><time>2026-05-01T07:54:59.25Z</time></trkpt><trkpt lat="44.3888866" lon="11.5762745"><ele>137.0</ele><time>2026-05-01T07:55:00.25Z</time></trkpt><trkpt lat="44.3886951" lon="11.5763124"><ele>138.66666666666666</ele><time>2026-05-01T07:55:01.25Z</time></trkpt><trkpt lat="44.3885073" lon="11.5763253"><ele>140.33333333333334</ele><time>2026-05-01T07:55:02.25Z</time></trkpt><trkpt lat="44.3883246" lon="11.5763291"><ele>142.0</ele><time>2026-05-01T07:55:03.25Z</time></trkpt><trkpt lat="44.3881476" lon="11.5763289"><ele>143.0</ele><time>2026-05-01T07:55:04.25Z</time></trkpt><trkpt lat="44.3879801" lon="11.5763236"><ele>144.0</ele><time>2026-05-01T07:55:05.251Z</time></trkpt><trkpt lat="44.3878157" lon="11.5763065"><ele>145.0</ele><time>2026-05-01T07:55:06.251Z</time></trkpt><trkpt lat="44.3876627" lon="11.5762885"><ele>145.0</ele><time>2026-05-01T07:55:07.251Z</time></trkpt><trkpt lat="44.3875118" lon="11.5762581"><ele>145.0</ele><time>2026-05-01T07:55:08.251Z</time></trkpt><trkpt lat="44.3873665" lon="11.5762299"><ele>145.0</ele><time>2026-05-01T07:55:09.251Z</time></trkpt><trkpt lat="44.3872241" lon="11.576185"><ele>145.0</ele><time>2026-05-01T07:55:10.251Z</time></trkpt><trkpt lat="44.3870773" lon="11.5761319"><ele>146.66666666666669</ele><time>2026-05-01T07:55:11.252Z</time></trkpt><trkpt lat="44.3869256" lon="11.5760811"><ele>148.33333333333334</ele><time>2026-05-01T07:55:12.251Z</time></trkpt><trkpt lat="44.3867723" lon="11.5760286"><ele>150.0</ele><time>2026-05-01T07:55:13.251Z</time></trkpt><trkpt lat="44.3866067" lon="11.5759739"><ele>150.0</ele><time>2026-05-01T07:55:14.251Z</time></trkpt><trkpt lat="44.3864372" lon="11.575919"><ele>150.0</ele><time>2026-05-01T07:55:15.251Z</time></trkpt><trkpt lat="44.3862582" lon="11.5758592"><ele>150.0</ele><time>2026-05-01T07:55:16.251Z</time></trkpt><trkpt lat="44.3860736" lon="11.5758017"><ele>151.0</ele><time>2026-05-01T07:55:17.251Z</time></trkpt><trkpt lat="44.3858856" lon="11.575742"><ele>152.0</ele><time>2026-05-01T07:55:18.251Z</time></trkpt><trkpt lat="44.3856972" lon="11.5756816"><ele>153.0</ele><time>2026-05-01T07:55:19.251Z</time></trkpt><trkpt lat="44.3855074" lon="11.5756198"><ele>154.66666666666666</ele><time>2026-05-01T07:55:20.251Z</time></trkpt><trkpt lat="44.3853176" lon="11.5755532"><ele>156.33333333333331</ele><time>2026-05-01T07:55:21.251Z</time></trkpt><trkpt lat="44.3851292" lon="11.5754815"><ele>158.0</ele><time>2026-05-01T07:55:22.251Z</time></trkpt><trkpt lat="44.3849407" lon="11.5753938"><ele>158.0</ele><time>2026-05-01T07:55:23.251Z</time></trkpt><trkpt lat="44.3847542" lon="11.5752973"><ele>158.0</ele><time>2026-05-01T07:55:24.251Z</time></trkpt><trkpt lat="44.3845682" lon="11.5751976"><ele>158.0</ele><time>2026-05-01T07:55:25.251Z</time></trkpt><trkpt lat="44.3843746" lon="11.5750982"><ele>160.33333333333331</ele><time>2026-05-01T07:55:26.251Z</time></trkpt><trkpt lat="44.3841732" lon="11.5750037"><ele>162.66666666666666</ele><time>2026-05-01T07:55:27.251Z</time></trkpt><trkpt lat="44.3839749" lon="11.5748986"><ele>165.0</ele><time>2026-05-01T07:55:28.251Z</time></trkpt><trkpt lat="44.3837776" lon="11.5747892"><ele>165.66666666666666</ele><time>2026-05-01T07:55:29.251Z</time></trkpt><trkpt lat="44.3835849" lon="11.5746748"><ele>166.33333333333331</ele><time>2026-05-01T07:55:30.251Z</time></trkpt><trkpt lat="44.3833906" lon="11.5745617"><ele>167.0</ele><time>2026-05-01T07:55:31.251Z</time></trkpt><trkpt lat="44.383195" lon="11.574447"><ele>169.0</ele><time>2026-05-01T07:55:32.251Z</time></trkpt><trkpt lat="44.3830025" lon="11.5743259"><ele>171.0</ele><time>2026-05-01T07:55:33.251Z</time></trkpt><trkpt lat="44.3828144" lon="11.574199"><ele>173.0</ele><time>2026-05-01T07:55:34.251Z</time></trkpt><trkpt lat="44.3826429" lon="11.5740595"><ele>173.0</ele><time>2026-05-01T07:55:35.251Z</time></trkpt><trkpt lat="44.3824822" lon="11.5739123"><ele>173.0</ele><time>2026-05-01T07:55:36.251Z</time></trkpt><trkpt lat="44.3823257" lon="11.5737688"><ele>173.0</ele><time>2026-05-01T07:55:37.251Z</time></trkpt><trkpt lat="44.3821719" lon="11.57364"><ele>174.33333333333331</ele><time>2026-05-01T07:55:38.251Z</time></trkpt><trkpt lat="44.3820173" lon="11.573535"><ele>175.66666666666666</ele><time>2026-05-01T07:55:39.251Z</time></trkpt><trkpt lat="44.3818516" lon="11.5734319"><ele>177.0</ele><time>2026-05-01T07:55:40.251Z</time></trkpt><trkpt lat="44.3816752" lon="11.5733346"><ele>177.0</ele><time>2026-05-01T07:55:41.251Z</time></trkpt><trkpt lat="44.3814993" lon="11.5732291"><ele>177.0</ele><time>2026-05-01T07:55:42.251Z</time></trkpt><trkpt lat="44.3813309" lon="11.5731078"><ele>177.0</ele><time>2026-05-01T07:55:43.251Z</time></trkpt><trkpt lat="44.3811622" lon="11.5729721"><ele>177.66666666666666</ele><time>2026-05-01T07:55:44.251Z</time></trkpt><trkpt lat="44.3809984" lon="11.5728187"><ele>178.33333333333331</ele><time>2026-05-01T07:55:45.251Z</time></trkpt><trkpt lat="44.3808362" lon="11.5726554"><ele>179.0</ele><time>2026-05-01T07:55:46.251Z</time></trkpt><trkpt lat="44.3806728" lon="11.5724889"><ele>179.33333333333331</ele><time>2026-05-01T07:55:47.251Z</time></trkpt><trkpt lat="44.3805091" lon="11.5723258"><ele>179.66666666666666</ele><time>2026-05-01T07:55:48.251Z</time></trkpt><trkpt lat="44.380346" lon="11.5721671"><ele>180.0</ele><time>2026-05-01T07:55:49.251Z</time></trkpt><trkpt lat="44.3801759" lon="11.5720145"><ele>182.33333333333334</ele><time>2026-05-01T07:55:50.251Z</time></trkpt><trkpt lat="44.3800143" lon="11.5718503"><ele>184.66666666666669</ele><time>2026-05-01T07:55:51.251Z</time></trkpt><trkpt lat="44.3798526" lon="11.5716817"><ele>187.0</ele><time>2026-05-01T07:55:52.251Z</time></trkpt><trkpt lat="44.3796981" lon="11.5715066"><ele>187.0</ele><time>2026-05-01T07:55:53.251Z</time></trkpt><trkpt lat="44.3795494" lon="11.5713125"><ele>187.0</ele><time>2026-05-01T07:55:54.251Z</time></trkpt><trkpt lat="44.379422" lon="11.5711115"><ele>187.0</ele><time>2026-05-01T07:55:55.251Z</time></trkpt><trkpt lat="44.3793006" lon="11.5709142"><ele>187.0</ele><time>2026-05-01T07:55:56.251Z</time></trkpt><trkpt lat="44.379191" lon="11.5707407"><ele>187.0</ele><time>2026-05-01T07:55:57.251Z</time></trkpt><trkpt lat="44.3790832" lon="11.5705678"><ele>187.0</ele><time>2026-05-01T07:55:58.251Z</time></trkpt><trkpt lat="44.3789875" lon="11.570385"><ele>187.0</ele><time>2026-05-01T07:55:59.251Z</time></trkpt><trkpt lat="44.3789261" lon="11.5701793"><ele>187.0</ele><time>2026-05-01T07:56:00.252Z</time></trkpt><trkpt lat="44.3788867" lon="11.5699513"><ele>187.0</ele><time>2026-05-01T07:56:01.252Z</time></trkpt><trkpt lat="44.3788584" lon="11.5697163"><ele>184.0</ele><time>2026-05-01T07:56:02.252Z</time></trkpt><trkpt lat="44.3788317" lon="11.5694712"><ele>181.0</ele><time>2026-05-01T07:56:03.252Z</time></trkpt><trkpt lat="44.3788004" lon="11.5692216"><ele>178.0</ele><time>2026-05-01T07:56:04.252Z</time></trkpt><trkpt lat="44.3787659" lon="11.568964"><ele>178.0</ele><time>2026-05-01T07:56:05.252Z</time></trkpt><trkpt lat="44.3787234" lon="11.5687008"><ele>178.0</ele><time>2026-05-01T07:56:06.252Z</time></trkpt><trkpt lat="44.3786726" lon="11.5684326"><ele>178.0</ele><time>2026-05-01T07:56:07.252Z</time></trkpt><trkpt lat="44.3786146" lon="11.568165"><ele>180.66666666666669</ele><time>2026-05-01T07:56:08.252Z</time></trkpt><trkpt lat="44.3785383" lon="11.5679019"><ele>183.33333333333334</ele><time>2026-05-01T07:56:09.252Z</time></trkpt><trkpt lat="44.3784568" lon="11.5676426"><ele>186.0</ele><time>2026-05-01T07:56:10.252Z</time></trkpt><trkpt lat="44.3783723" lon="11.5673904"><ele>187.33333333333334</ele><time>2026-05-01T07:56:11.252Z</time></trkpt><trkpt lat="44.3782958" lon="11.5671366"><ele>188.66666666666669</ele><time>2026-05-01T07:56:12.252Z</time></trkpt><trkpt lat="44.3782146" lon="11.5668882"><ele>190.0</ele><time>2026-05-01T07:56:13.252Z</time></trkpt><trkpt lat="44.3781334" lon="11.5666443"><ele>192.33333333333334</ele><time>2026-05-01T07:56:14.252Z</time></trkpt><trkpt lat="44.37805" lon="11.5664111"><ele>194.66666666666669</ele><time>2026-05-01T07:56:15.252Z</time></trkpt><trkpt lat="44.3779717" lon="11.5661869"><ele>197.0</ele><time>2026-05-01T07:56:16.252Z</time></trkpt><trkpt lat="44.3779129" lon="11.5659519"><ele>200.0</ele><time>2026-05-01T07:56:17.252Z</time></trkpt><trkpt lat="44.3778736" lon="11.5657218"><ele>203.0</ele><time>2026-05-01T07:56:18.252Z</time></trkpt><trkpt lat="44.3778387" lon="11.5654849"><ele>206.0</ele><time>2026-05-01T07:56:19.252Z</time></trkpt><trkpt lat="44.3778066" lon="11.5652463"><ele>207.0</ele><time>2026-05-01T07:56:20.252Z</time></trkpt><trkpt lat="44.3777852" lon="11.5650027"><ele>208.0</ele><time>2026-05-01T07:56:21.252Z</time></trkpt><trkpt lat="44.3777751" lon="11.5647511"><ele>209.0</ele><time>2026-05-01T07:56:22.252Z</time></trkpt><trkpt lat="44.377783" lon="11.5644926"><ele>210.0</ele><time>2026-05-01T07:56:23.252Z</time></trkpt><trkpt lat="44.3778015" lon="11.5642396"><ele>211.0</ele><time>2026-05-01T07:56:24.252Z</time></trkpt><trkpt lat="44.3778057" lon="11.56396"><ele>212.0</ele><time>2026-05-01T07:56:25.252Z</time></trkpt><trkpt lat="44.3778076" lon="11.5636854"><ele>212.33333333333334</ele><time>2026-05-01T07:56:26.252Z</time></trkpt><trkpt lat="44.3778122" lon="11.5634182"><ele>212.66666666666669</ele><time>2026-05-01T07:56:27.252Z</time></trkpt><trkpt lat="44.3778261" lon="11.5631621"><ele>213.0</ele><time>2026-05-01T07:56:28.252Z</time></trkpt><trkpt lat="44.3778411" lon="11.5629437"><ele>213.0</ele><time>2026-05-01T07:56:29.252Z</time></trkpt><trkpt lat="44.377837" lon="11.5627245"><ele>213.0</ele><time>2026-05-01T07:56:30.252Z</time></trkpt><trkpt lat="44.3777807" lon="11.562478"><ele>213.0</ele><time>2026-05-01T07:56:31.252Z</time></trkpt><trkpt lat="44.3777124" lon="11.5622549"><ele>213.0</ele><time>2026-05-01T07:56:32.252Z</time></trkpt><trkpt lat="44.3776282" lon="11.562045"><ele>213.0</ele><time>2026-05-01T07:56:33.252Z</time></trkpt><trkpt lat="44.3775285" lon="11.5618554"><ele>213.0</ele><time>2026-05-01T07:56:34.252Z</time></trkpt><trkpt lat="44.3774026" lon="11.5616803"><ele>212.33333333333331</ele><time>2026-05-01T07:56:35.252Z</time></trkpt><trkpt lat="44.3772581" lon="11.5615105"><ele>211.66666666666666</ele><time>2026-05-01T07:56:36.252Z</time></trkpt><trkpt lat="44.377108" lon="11.5613243"><ele>211.0</ele><time>2026-05-01T07:56:37.253Z</time></trkpt><trkpt lat="44.3769934" lon="11.5611156"><ele>210.66666666666666</ele><time>2026-05-01T07:56:38.252Z</time></trkpt><trkpt lat="44.3768881" lon="11.5609143"><ele>210.33333333333331</ele><time>2026-05-01T07:56:39.252Z</time></trkpt><trkpt lat="44.3767919" lon="11.5607157"><ele>210.0</ele><time>2026-05-01T07:56:40.252Z</time></trkpt><trkpt lat="44.3766933" lon="11.5605301"><ele>209.75</ele><time>2026-05-01T07:56:41.252Z</time></trkpt><trkpt lat="44.3766035" lon="11.5603589"><ele>209.5</ele><time>2026-05-01T07:56:42.252Z</time></trkpt><trkpt lat="44.376522" lon="11.5601975"><ele>209.25</ele><time>2026-05-01T07:56:43.252Z</time></trkpt><trkpt lat="44.3764421" lon="11.5600463"><ele>209.0</ele><time>2026-05-01T07:56:44.252Z</time></trkpt><trkpt lat="44.3763751" lon="11.5599089"><ele>204.75</ele><time>2026-05-01T07:56:45.252Z</time></trkpt><trkpt lat="44.3763238" lon="11.559755"><ele>200.5</ele><time>2026-05-01T07:56:46.252Z</time></trkpt><trkpt lat="44.3762857" lon="11.5595844"><ele>196.25</ele><time>2026-05-01T07:56:47.252Z</time></trkpt><trkpt lat="44.3762515" lon="11.5594041"><ele>192.0</ele><time>2026-05-01T07:56:48.253Z</time></trkpt><trkpt lat="44.3762372" lon="11.5591941"><ele>192.0</ele><time>2026-05-01T07:56:49.252Z</time></trkpt><trkpt lat="44.3762388" lon="11.5589551"><ele>192.0</ele><time>2026-05-01T07:56:50.253Z</time></trkpt><trkpt lat="44.3762298" lon="11.5587143"><ele>192.0</ele><time>2026-05-01T07:56:51.252Z</time></trkpt><trkpt lat="44.3762049" lon="11.5584745"><ele>192.0</ele><time>2026-05-01T07:56:52.253Z</time></trkpt><trkpt lat="44.3761642" lon="11.5582253"><ele>192.0</ele><time>2026-05-01T07:56:53.253Z</time></trkpt><trkpt lat="44.3761152" lon="11.5579816"><ele>192.0</ele><time>2026-05-01T07:56:54.253Z</time></trkpt><trkpt lat="44.3760605" lon="11.5577332"><ele>195.0</ele><time>2026-05-01T07:56:55.253Z</time></trkpt><trkpt lat="44.3760012" lon="11.5574786"><ele>198.0</ele><time>2026-05-01T07:56:56.253Z</time></trkpt><trkpt lat="44.3759482" lon="11.5572213"><ele>201.0</ele><time>2026-05-01T07:56:57.253Z</time></trkpt><trkpt lat="44.3759024" lon="11.556969"><ele>202.66666666666669</ele><time>2026-05-01T07:56:58.253Z</time></trkpt><trkpt lat="44.3758586" lon="11.556709"><ele>204.33333333333334</ele><time>2026-05-01T07:56:59.253Z</time></trkpt><trkpt lat="44.3758229" lon="11.556457"><ele>206.0</ele><time>2026-05-01T07:57:00.253Z</time></trkpt><trkpt lat="44.3757969" lon="11.5562162"><ele>207.66666666666669</ele><time>2026-05-01T07:57:01.253Z</time></trkpt><trkpt lat="44.3757784" lon="11.555991"><ele>209.33333333333331</ele><time>2026-05-01T07:57:02.253Z</time></trkpt><trkpt lat="44.3757638" lon="11.5557838"><ele>211.0</ele><time>2026-05-01T07:57:03.253Z</time></trkpt><trkpt lat="44.3757552" lon="11.555589"><ele>211.0</ele><time>2026-05-01T07:57:04.253Z</time></trkpt><trkpt lat="44.3758043" lon="11.5554224"><ele>211.0</ele><time>2026-05-01T07:57:05.253Z</time></trkpt><trkpt lat="44.3758671" lon="11.5552529"><ele>211.0</ele><time>2026-05-01T07:57:06.253Z</time></trkpt><trkpt lat="44.3759375" lon="11.5550962"><ele>211.0</ele><time>2026-05-01T07:57:07.254Z</time></trkpt><trkpt lat="44.3760026" lon="11.5549826"><ele>212.8</ele><time>2026-05-01T07:57:08.253Z</time></trkpt><trkpt lat="44.3760227" lon="11.5548642"><ele>214.60000000000002</ele><time>2026-05-01T07:57:09.253Z</time></trkpt><trkpt lat="44.3759913" lon="11.5547295"><ele>216.4</ele><time>2026-05-01T07:57:10.253Z</time></trkpt><trkpt lat="44.3759205" lon="11.5546154"><ele>218.2</ele><time>2026-05-01T07:57:11.253Z</time></trkpt><trkpt lat="44.3758155" lon="11.5545551"><ele>220.0</ele><time>2026-05-01T07:57:12.253Z</time></trkpt><trkpt lat="44.3757033" lon="11.5545128"><ele>221.25</ele><time>2026-05-01T07:57:13.253Z</time></trkpt><trkpt lat="44.3755796" lon="11.5544558"><ele>222.5</ele><time>2026-05-01T07:57:14.253Z</time></trkpt><trkpt lat="44.3754485" lon="11.5543969"><ele>223.75</ele><time>2026-05-01T07:57:15.253Z</time></trkpt><trkpt lat="44.3753203" lon="11.5543299"><ele>225.0</ele><time>2026-05-01T07:57:16.253Z</time></trkpt><trkpt lat="44.3752004" lon="11.5542748"><ele>225.0</ele><time>2026-05-01T07:57:17.253Z</time></trkpt><trkpt lat="44.3751107" lon="11.5542172"><ele>225.0</ele><time>2026-05-01T07:57:18.253Z</time></trkpt><trkpt lat="44.3750497" lon="11.5541339"><ele>225.0</ele><time>2026-05-01T07:57:19.253Z</time></trkpt><trkpt lat="44.3750294" lon="11.5539998"><ele>225.0</ele><time>2026-05-01T07:57:20.253Z</time></trkpt><trkpt lat="44.3750494" lon="11.553864"><ele>225.0</ele><time>2026-05-01T07:57:21.253Z</time></trkpt><trkpt lat="44.3751104" lon="11.5537539"><ele>226.0</ele><time>2026-05-01T07:57:22.254Z</time></trkpt><trkpt lat="44.3752025" lon="11.5536876"><ele>227.0</ele><time>2026-05-01T07:57:23.253Z</time></trkpt><trkpt lat="44.3753067" lon="11.5536744"><ele>228.0</ele><time>2026-05-01T07:57:24.253Z</time></trkpt><trkpt lat="44.3754321" lon="11.5536942"><ele>229.0</ele><time>2026-05-01T07:57:25.253Z</time></trkpt><trkpt lat="44.3755644" lon="11.5537118"><ele>229.0</ele><time>2026-05-01T07:57:26.253Z</time></trkpt><trkpt lat="44.3757178" lon="11.5537342"><ele>229.0</ele><time>2026-05-01T07:57:27.253Z</time></trkpt><trkpt lat="44.3758846" lon="11.5537449"><ele>229.0</ele><time>2026-05-01T07:57:28.253Z</time></trkpt><trkpt lat="44.3760524" lon="11.5537525"><ele>229.0</ele><time>2026-05-01T07:57:29.253Z</time></trkpt><trkpt lat="44.3762182" lon="11.553781"><ele>229.0</ele><time>2026-05-01T07:57:30.253Z</time></trkpt><trkpt lat="44.3763634" lon="11.5538141"><ele>229.0</ele><time>2026-05-01T07:57:31.253Z</time></trkpt><trkpt lat="44.376496" lon="11.5538535"><ele>230.2</ele><time>2026-05-01T07:57:32.253Z</time></trkpt><trkpt lat="44.3766106" lon="11.5538778"><ele>231.39999999999998</ele><time>2026-05-01T07:57:33.253Z</time></trkpt><trkpt lat="44.376717" lon="11.5539073"><ele>232.6</ele><time>2026-05-01T07:57:34.253Z</time></trkpt><trkpt lat="44.3768131" lon="11.5539217"><ele>233.8</ele><time>2026-05-01T07:57:35.253Z</time></trkpt><trkpt lat="44.3769011" lon="11.5538857"><ele>235.0</ele><time>2026-05-01T07:57:36.253Z</time></trkpt><trkpt lat="44.3769618" lon="11.5537956"><ele>237.2</ele><time>2026-05-01T07:57:37.253Z</time></trkpt><trkpt lat="44.3769809" lon="11.5536458"><ele>239.4</ele><time>2026-05-01T07:57:38.253Z</time></trkpt><trkpt lat="44.3769932" lon="11.5535191"><ele>241.60000000000002</ele><time>2026-05-01T07:57:39.253Z</time></trkpt><trkpt lat="44.3769566" lon="11.5533744"><ele>243.8</ele><time>2026-05-01T07:57:40.253Z</time></trkpt><trkpt lat="44.3768933" lon="11.5532566"><ele>246.0</ele><time>2026-05-01T07:57:41.254Z</time></trkpt><trkpt lat="44.3767878" lon="11.55317"><ele>246.0</ele><time>2026-05-01T07:57:42.253Z</time></trkpt><trkpt lat="44.3766615" lon="11.5530711"><ele>246.0</ele><time>2026-05-01T07:57:43.253Z</time></trkpt><trkpt lat="44.3765198" lon="11.5529662"><ele>246.0</ele><time>2026-05-01T07:57:44.253Z</time></trkpt><trkpt lat="44.3763759" lon="11.5528536"><ele>249.33333333333331</ele><time>2026-05-01T07:57:45.253Z</time></trkpt><trkpt lat="44.3762276" lon="11.5527459"><ele>252.66666666666666</ele><time>2026-05-01T07:57:46.253Z</time></trkpt><trkpt lat="44.3760876" lon="11.5526335"><ele>256.0</ele><time>2026-05-01T07:57:47.253Z</time></trkpt><trkpt lat="44.3759378" lon="11.5525193"><ele>256.0</ele><time>2026-05-01T07:57:48.253Z</time></trkpt><trkpt lat="44.3757931" lon="11.5523925"><ele>256.0</ele><time>2026-05-01T07:57:49.254Z</time></trkpt><trkpt lat="44.3756524" lon="11.5522494"><ele>256.0</ele><time>2026-05-01T07:57:50.254Z</time></trkpt><trkpt lat="44.3755365" lon="11.5520666"><ele>257.0</ele><time>2026-05-01T07:57:51.254Z</time></trkpt><trkpt lat="44.375444" lon="11.5518607"><ele>258.0</ele><time>2026-05-01T07:57:52.254Z</time></trkpt><trkpt lat="44.3753522" lon="11.5516589"><ele>259.0</ele><time>2026-05-01T07:57:53.254Z</time></trkpt><trkpt lat="44.3752809" lon="11.5514495"><ele>259.0</ele><time>2026-05-01T07:57:54.254Z</time></trkpt><trkpt lat="44.3752281" lon="11.5512309"><ele>259.0</ele><time>2026-05-01T07:57:55.254Z</time></trkpt><trkpt lat="44.3751786" lon="11.5510038"><ele>259.0</ele><time>2026-05-01T07:57:56.254Z</time></trkpt><trkpt lat="44.3751402" lon="11.5507715"><ele>261.3333333333333</ele><time>2026-05-01T07:57:57.254Z</time></trkpt><trkpt lat="44.3750837" lon="11.5505361"><ele>263.6666666666667</ele><time>2026-05-01T07:57:58.254Z</time></trkpt><trkpt lat="44.3750179" lon="11.5503094"><ele>266.0</ele><time>2026-05-01T07:57:59.254Z</time></trkpt><trkpt lat="44.3749237" lon="11.5500946"><ele>266.0</ele><time>2026-05-01T07:58:00.254Z</time></trkpt><trkpt lat="44.3748273" lon="11.5498807"><ele>266.0</ele><time>2026-05-01T07:58:01.254Z</time></trkpt><trkpt lat="44.3747317" lon="11.5496605"><ele>266.0</ele><time>2026-05-01T07:58:02.254Z</time></trkpt><trkpt lat="44.3746448" lon="11.5494363"><ele>268.0</ele><time>2026-05-01T07:58:03.254Z</time></trkpt><trkpt lat="44.3745529" lon="11.5492248"><ele>270.0</ele><time>2026-05-01T07:58:04.254Z</time></trkpt><trkpt lat="44.3744649" lon="11.5490111"><ele>272.0</ele><time>2026-05-01T07:58:05.255Z</time></trkpt><trkpt lat="44.3743808" lon="11.5488103"><ele>273.75</ele><time>2026-05-01T07:58:06.254Z</time></trkpt><trkpt lat="44.3743033" lon="11.5486369"><ele>275.5</ele><time>2026-05-01T07:58:07.254Z</time></trkpt><trkpt lat="44.3742255" lon="11.548475"><ele>277.25</ele><time>2026-05-01T07:58:08.254Z</time></trkpt><trkpt lat="44.3741585" lon="11.5483717"><ele>279.0</ele><time>2026-05-01T07:58:09.254Z</time></trkpt><trkpt lat="44.3740763" lon="11.5482795"><ele>279.0</ele><time>2026-05-01T07:58:10.254Z</time></trkpt><trkpt lat="44.3739814" lon="11.5482183"><ele>279.0</ele><time>2026-05-01T07:58:11.254Z</time></trkpt><trkpt lat="44.3738741" lon="11.5481893"><ele>279.0</ele><time>2026-05-01T07:58:12.254Z</time></trkpt><trkpt lat="44.3737723" lon="11.5481423"><ele>279.0</ele><time>2026-05-01T07:58:13.254Z</time></trkpt><trkpt lat="44.3736591" lon="11.5481009"><ele>279.0</ele><time>2026-05-01T07:58:14.254Z</time></trkpt><trkpt lat="44.3735298" lon="11.5480701"><ele>280.0</ele><time>2026-05-01T07:58:15.254Z</time></trkpt><trkpt lat="44.3734107" lon="11.5480359"><ele>281.0</ele><time>2026-05-01T07:58:16.254Z</time></trkpt><trkpt lat="44.3732956" lon="11.5479916"><ele>282.0</ele><time>2026-05-01T07:58:17.254Z</time></trkpt><trkpt lat="44.3731705" lon="11.5479395"><ele>283.0</ele><time>2026-05-01T07:58:18.254Z</time></trkpt><trkpt lat="44.3730571" lon="11.5478966"><ele>283.4</ele><time>2026-05-01T07:58:19.254Z</time></trkpt><trkpt lat="44.3729313" lon="11.5478802"><ele>283.8</ele><time>2026-05-01T07:58:20.254Z</time></trkpt><trkpt lat="44.3728369" lon="11.5479149"><ele>284.2</ele><time>2026-05-01T07:58:21.254Z</time></trkpt><trkpt lat="44.3727601" lon="11.5479541"><ele>284.6</ele><time>2026-05-01T07:58:22.254Z</time></trkpt><trkpt lat="44.3726907" lon="11.5480068"><ele>285.0</ele><time>2026-05-01T07:58:23.254Z</time></trkpt><trkpt lat="44.3726221" lon="11.5480803"><ele>285.0</ele><time>2026-05-01T07:58:24.254Z</time></trkpt><trkpt lat="44.3725478" lon="11.5481716"><ele>285.0</ele><time>2026-05-01T07:58:25.254Z</time></trkpt><trkpt lat="44.3724825" lon="11.5482534"><ele>285.0</ele><time>2026-05-01T07:58:26.254Z</time></trkpt><trkpt lat="44.3724104" lon="11.5483339"><ele>285.0</ele><time>2026-05-01T07:58:27.254Z</time></trkpt><trkpt lat="44.3723315" lon="11.5484224"><ele>285.0</ele><time>2026-05-01T07:58:28.255Z</time></trkpt><trkpt lat="44.3722218" lon="11.5484787"><ele>284.25</ele><time>2026-05-01T07:58:29.254Z</time></trkpt><trkpt lat="44.3721062" lon="11.5485014"><ele>283.5</ele><time>2026-05-01T07:58:30.254Z</time></trkpt><trkpt lat="44.3719831" lon="11.5485127"><ele>282.75</ele><time>2026-05-01T07:58:31.254Z</time></trkpt><trkpt lat="44.3718677" lon="11.5485309"><ele>282.0</ele><time>2026-05-01T07:58:32.254Z</time></trkpt><trkpt lat="44.3717412" lon="11.5485431"><ele>282.0</ele><time>2026-05-01T07:58:33.255Z</time></trkpt><trkpt lat="44.3716178" lon="11.5485201"><ele>282.0</ele><time>2026-05-01T07:58:34.255Z</time></trkpt><trkpt lat="44.3714998" lon="11.5484719"><ele>282.0</ele><time>2026-05-01T07:58:35.254Z</time></trkpt><trkpt lat="44.3713773" lon="11.5484068"><ele>282.0</ele><time>2026-05-01T07:58:36.254Z</time></trkpt><trkpt lat="44.3712552" lon="11.5483225"><ele>280.25</ele><time>2026-05-01T07:58:37.254Z</time></trkpt><trkpt lat="44.3711412" lon="11.5482319"><ele>278.5</ele><time>2026-05-01T07:58:38.254Z</time></trkpt><trkpt lat="44.3710263" lon="11.5481316"><ele>276.75</ele><time>2026-05-01T07:58:39.254Z</time></trkpt><trkpt lat="44.3709124" lon="11.5480182"><ele>275.0</ele><time>2026-05-01T07:58:40.254Z</time></trkpt><trkpt lat="44.3708038" lon="11.5479051"><ele>273.75</ele><time>2026-05-01T07:58:41.254Z</time></trkpt><trkpt lat="44.370695" lon="11.5477976"><ele>272.5</ele><time>2026-05-01T07:58:42.254Z</time></trkpt><trkpt lat="44.3705882" lon="11.5477"><ele>271.25</ele><time>2026-05-01T07:58:43.254Z</time></trkpt><trkpt lat="44.3704869" lon="11.5476142"><ele>270.0</ele><time>2026-05-01T07:58:44.254Z</time></trkpt><trkpt lat="44.3703914" lon="11.5475135"><ele>270.0</ele><time>2026-05-01T07:58:45.254Z</time></trkpt><trkpt lat="44.3703055" lon="11.5473846"><ele>270.0</ele><time>2026-05-01T07:58:46.255Z</time></trkpt><trkpt lat="44.3702392" lon="11.5472449"><ele>270.0</ele><time>2026-05-01T07:58:47.255Z</time></trkpt><trkpt lat="44.3701908" lon="11.5470792"><ele>270.0</ele><time>2026-05-01T07:58:48.255Z</time></trkpt><trkpt lat="44.3701579" lon="11.5469"><ele>272.6666666666667</ele><time>2026-05-01T07:58:49.255Z</time></trkpt><trkpt lat="44.3701371" lon="11.5467089"><ele>275.33333333333337</ele><time>2026-05-01T07:58:50.255Z</time></trkpt><trkpt lat="44.3701164" lon="11.5465125"><ele>278.0</ele><time>2026-05-01T07:58:51.255Z</time></trkpt><trkpt lat="44.3700437" lon="11.5460823"><ele>279.33333333333337</ele><time>2026-05-01T07:58:53.255Z</time></trkpt><trkpt lat="44.3700053" lon="11.5458725"><ele>280.6666666666667</ele><time>2026-05-01T07:58:54.255Z</time></trkpt><trkpt lat="44.3699823" lon="11.5456614"><ele>282.0</ele><time>2026-05-01T07:58:55.255Z</time></trkpt><trkpt lat="44.3699782" lon="11.5454518"><ele>281.0</ele><time>2026-05-01T07:58:56.255Z</time></trkpt><trkpt lat="44.3699867" lon="11.5452541"><ele>280.0</ele><time>2026-05-01T07:58:57.255Z</time></trkpt><trkpt lat="44.370036" lon="11.5450798"><ele>279.0</ele><time>2026-05-01T07:58:58.255Z</time></trkpt><trkpt lat="44.3701105" lon="11.5449142"><ele>278.0</ele><time>2026-05-01T07:58:59.255Z</time></trkpt><trkpt lat="44.3701837" lon="11.54474"><ele>274.6666666666667</ele><time>2026-05-01T07:59:00.255Z</time></trkpt><trkpt lat="44.3702377" lon="11.544546"><ele>271.3333333333333</ele><time>2026-05-01T07:59:01.255Z</time></trkpt><trkpt lat="44.3702767" lon="11.5443368"><ele>268.0</ele><time>2026-05-01T07:59:02.255Z</time></trkpt><trkpt lat="44.3703169" lon="11.5441179"><ele>268.0</ele><time>2026-05-01T07:59:03.255Z</time></trkpt><trkpt lat="44.3703613" lon="11.5439003"><ele>268.0</ele><time>2026-05-01T07:59:04.255Z</time></trkpt><trkpt lat="44.3704065" lon="11.5436973"><ele>268.0</ele><time>2026-05-01T07:59:05.255Z</time></trkpt><trkpt lat="44.3704489" lon="11.5435134"><ele>267.2</ele><time>2026-05-01T07:59:06.255Z</time></trkpt><trkpt lat="44.3704912" lon="11.5433558"><ele>266.4</ele><time>2026-05-01T07:59:07.255Z</time></trkpt><trkpt lat="44.3705353" lon="11.5432167"><ele>265.59999999999997</ele><time>2026-05-01T07:59:08.255Z</time></trkpt><trkpt lat="44.3705901" lon="11.5431085"><ele>264.8</ele><time>2026-05-01T07:59:09.255Z</time></trkpt><trkpt lat="44.370662" lon="11.5430323"><ele>264.0</ele><time>2026-05-01T07:59:10.255Z</time></trkpt><trkpt lat="44.3707598" lon="11.5430134"><ele>268.25</ele><time>2026-05-01T07:59:11.255Z</time></trkpt><trkpt lat="44.370887" lon="11.5430634"><ele>272.5</ele><time>2026-05-01T07:59:12.255Z</time></trkpt><trkpt lat="44.3710018" lon="11.5431583"><ele>276.75</ele><time>2026-05-01T07:59:13.255Z</time></trkpt><trkpt lat="44.3710876" lon="11.5432698"><ele>281.0</ele><time>2026-05-01T07:59:14.255Z</time></trkpt><trkpt lat="44.3711392" lon="11.5433462"><ele>281.0</ele><time>2026-05-01T07:59:15.255Z</time></trkpt><trkpt lat="44.3712381" lon="11.5433619"><ele>281.0</ele><time>2026-05-01T07:59:17.255Z</time></trkpt><trkpt lat="44.3712807" lon="11.5432951"><ele>281.0</ele><time>2026-05-01T07:59:18.255Z</time></trkpt><trkpt lat="44.3712745" lon="11.5431901"><ele>281.0</ele><time>2026-05-01T07:59:19.255Z</time></trkpt><trkpt lat="44.3712247" lon="11.5430779"><ele>281.0</ele><time>2026-05-01T07:59:20.256Z</time></trkpt><trkpt lat="44.3711324" lon="11.5429789"><ele>281.0</ele><time>2026-05-01T07:59:21.255Z</time></trkpt><trkpt lat="44.3710424" lon="11.5428942"><ele>281.0</ele><time>2026-05-01T07:59:22.255Z</time></trkpt><trkpt lat="44.3709111" lon="11.542831"><ele>281.0</ele><time>2026-05-01T07:59:23.255Z</time></trkpt><trkpt lat="44.3707915" lon="11.5427315"><ele>281.0</ele><time>2026-05-01T07:59:24.255Z</time></trkpt><trkpt lat="44.3706225" lon="11.5424494"><ele>278.0</ele><time>2026-05-01T07:59:26.255Z</time></trkpt><trkpt lat="44.3705308" lon="11.5423134"><ele>275.0</ele><time>2026-05-01T07:59:27.255Z</time></trkpt><trkpt lat="44.370441" lon="11.5421853"><ele>272.0</ele><time>2026-05-01T07:59:28.255Z</time></trkpt><trkpt lat="44.370347" lon="11.542054"><ele>269.0</ele><time>2026-05-01T07:59:29.255Z</time></trkpt><trkpt lat="44.3702497" lon="11.5419256"><ele>268.25</ele><time>2026-05-01T07:59:30.255Z</time></trkpt><trkpt lat="44.3701552" lon="11.5417977"><ele>267.5</ele><time>2026-05-01T07:59:31.255Z</time></trkpt><trkpt lat="44.3700603" lon="11.5416651"><ele>266.75</ele><time>2026-05-01T07:59:32.255Z</time></trkpt><trkpt lat="44.369966" lon="11.5415313"><ele>266.0</ele><time>2026-05-01T07:59:33.255Z</time></trkpt><trkpt lat="44.3698799" lon="11.5413846"><ele>266.0</ele><time>2026-05-01T07:59:34.255Z</time></trkpt><trkpt lat="44.3698058" lon="11.5412352"><ele>266.0</ele><time>2026-05-01T07:59:35.255Z</time></trkpt><trkpt lat="44.369739" lon="11.541085"><ele>266.0</ele><time>2026-05-01T07:59:36.255Z</time></trkpt><trkpt lat="44.3696715" lon="11.5409457"><ele>266.0</ele><time>2026-05-01T07:59:37.255Z</time></trkpt><trkpt lat="44.3695879" lon="11.5408198"><ele>263.5</ele><time>2026-05-01T07:59:38.256Z</time></trkpt><trkpt lat="44.3694837" lon="11.5407162"><ele>261.0</ele><time>2026-05-01T07:59:39.256Z</time></trkpt><trkpt lat="44.3693653" lon="11.5406382"><ele>258.5</ele><time>2026-05-01T07:59:40.256Z</time></trkpt><trkpt lat="44.3692468" lon="11.5405673"><ele>256.0</ele><time>2026-05-01T07:59:41.256Z</time></trkpt><trkpt lat="44.3691332" lon="11.5404716"><ele>255.0</ele><time>2026-05-01T07:59:42.256Z</time></trkpt><trkpt lat="44.369033" lon="11.5403344"><ele>254.0</ele><time>2026-05-01T07:59:43.256Z</time></trkpt><trkpt lat="44.36895" lon="11.540165"><ele>253.0</ele><time>2026-05-01T07:59:44.256Z</time></trkpt><trkpt lat="44.3688847" lon="11.5399777"><ele>252.0</ele><time>2026-05-01T07:59:45.256Z</time></trkpt><trkpt lat="44.3688229" lon="11.5398024"><ele>250.75</ele><time>2026-05-01T07:59:46.256Z</time></trkpt><trkpt lat="44.3687525" lon="11.539662"><ele>249.5</ele><time>2026-05-01T07:59:47.256Z</time></trkpt><trkpt lat="44.3686655" lon="11.5395594"><ele>248.25</ele><time>2026-05-01T07:59:48.256Z</time></trkpt><trkpt lat="44.3685662" lon="11.5394929"><ele>247.0</ele><time>2026-05-01T07:59:49.256Z</time></trkpt><trkpt lat="44.3684094" lon="11.5393456"><ele>246.8</ele><time>2026-05-01T07:59:51.256Z</time></trkpt><trkpt lat="44.3683738" lon="11.5392312"><ele>246.6</ele><time>2026-05-01T07:59:52.256Z</time></trkpt><trkpt lat="44.3683725" lon="11.5391059"><ele>246.40000000000003</ele><time>2026-05-01T07:59:53.256Z</time></trkpt><trkpt lat="44.3684045" lon="11.5389715"><ele>246.20000000000002</ele><time>2026-05-01T07:59:54.256Z</time></trkpt><trkpt lat="44.368453" lon="11.5388318"><ele>246.0</ele><time>2026-05-01T07:59:55.256Z</time></trkpt><trkpt lat="44.3685068" lon="11.5386879"><ele>245.0</ele><time>2026-05-01T07:59:56.256Z</time></trkpt><trkpt lat="44.3685703" lon="11.5385496"><ele>244.00000000000003</ele><time>2026-05-01T07:59:57.256Z</time></trkpt><trkpt lat="44.3686364" lon="11.5384274"><ele>243.00000000000003</ele><time>2026-05-01T07:59:58.256Z</time></trkpt><trkpt lat="44.3686911" lon="11.5383079"><ele>242.0</ele><time>2026-05-01T07:59:59.256Z</time></trkpt><trkpt lat="44.3687192" lon="11.5381819"><ele>241.0</ele><time>2026-05-01T08:00:00.256Z</time></trkpt><trkpt lat="44.368711" lon="11.5380452"><ele>241.0</ele><time>2026-05-01T08:00:01.256Z</time></trkpt><trkpt lat="44.3686682" lon="11.5379088"><ele>241.0</ele><time>2026-05-01T08:00:02.256Z</time></trkpt><trkpt lat="44.3686027" lon="11.5377773"><ele>241.0</ele><time>2026-05-01T08:00:03.256Z</time></trkpt><trkpt lat="44.3685247" lon="11.5376433"><ele>241.0</ele><time>2026-05-01T08:00:04.256Z</time></trkpt><trkpt lat="44.3684419" lon="11.5375035"><ele>241.0</ele><time>2026-05-01T08:00:05.256Z</time></trkpt><trkpt lat="44.3683566" lon="11.5373559"><ele>241.0</ele><time>2026-05-01T08:00:06.256Z</time></trkpt><trkpt lat="44.3682786" lon="11.5372006"><ele>241.0</ele><time>2026-05-01T08:00:07.256Z</time></trkpt><trkpt lat="44.368206" lon="11.5370407"><ele>241.0</ele><time>2026-05-01T08:00:08.256Z</time></trkpt><trkpt lat="44.3681289" lon="11.5368858"><ele>240.25</ele><time>2026-05-01T08:00:09.256Z</time></trkpt><trkpt lat="44.3680479" lon="11.5367393"><ele>239.5</ele><time>2026-05-01T08:00:10.257Z</time></trkpt><trkpt lat="44.3679691" lon="11.5365936"><ele>238.75</ele><time>2026-05-01T08:00:11.256Z</time></trkpt><trkpt lat="44.3678913" lon="11.536453"><ele>238.0</ele><time>2026-05-01T08:00:12.256Z</time></trkpt><trkpt lat="44.367814" lon="11.5363235"><ele>238.0</ele><time>2026-05-01T08:00:13.256Z</time></trkpt><trkpt lat="44.3677239" lon="11.5362185"><ele>238.0</ele><time>2026-05-01T08:00:14.256Z</time></trkpt><trkpt lat="44.3676059" lon="11.5361467"><ele>238.0</ele><time>2026-05-01T08:00:15.256Z</time></trkpt><trkpt lat="44.3674644" lon="11.5361153"><ele>238.0</ele><time>2026-05-01T08:00:16.256Z</time></trkpt><trkpt lat="44.3673197" lon="11.5360839"><ele>241.33333333333331</ele><time>2026-05-01T08:00:17.256Z</time></trkpt><trkpt lat="44.3671805" lon="11.5359872"><ele>244.66666666666669</ele><time>2026-05-01T08:00:18.256Z</time></trkpt><trkpt lat="44.3670523" lon="11.5358675"><ele>248.0</ele><time>2026-05-01T08:00:19.256Z</time></trkpt><trkpt lat="44.3669212" lon="11.5357544"><ele>248.0</ele><time>2026-05-01T08:00:20.256Z</time></trkpt><trkpt lat="44.3667914" lon="11.5356466"><ele>248.0</ele><time>2026-05-01T08:00:21.256Z</time></trkpt><trkpt lat="44.3666745" lon="11.5355367"><ele>248.0</ele><time>2026-05-01T08:00:22.256Z</time></trkpt><trkpt lat="44.3665729" lon="11.5354006"><ele>248.0</ele><time>2026-05-01T08:00:23.256Z</time></trkpt><trkpt lat="44.36649" lon="11.5352339"><ele>248.5</ele><time>2026-05-01T08:00:24.256Z</time></trkpt><trkpt lat="44.366411" lon="11.5350598"><ele>249.0</ele><time>2026-05-01T08:00:25.256Z</time></trkpt><trkpt lat="44.3663274" lon="11.5348918"><ele>249.5</ele><time>2026-05-01T08:00:26.256Z</time></trkpt><trkpt lat="44.3662582" lon="11.5347138"><ele>250.0</ele><time>2026-05-01T08:00:27.256Z</time></trkpt><trkpt lat="44.3662075" lon="11.5345195"><ele>250.0</ele><time>2026-05-01T08:00:28.256Z</time></trkpt><trkpt lat="44.3661764" lon="11.5343083"><ele>250.0</ele><time>2026-05-01T08:00:29.256Z</time></trkpt><trkpt lat="44.3661322" lon="11.5340974"><ele>250.0</ele><time>2026-05-01T08:00:30.256Z</time></trkpt><trkpt lat="44.3660649" lon="11.5338925"><ele>252.66666666666666</ele><time>2026-05-01T08:00:31.256Z</time></trkpt><trkpt lat="44.366008" lon="11.5336901"><ele>255.33333333333331</ele><time>2026-05-01T08:00:32.256Z</time></trkpt><trkpt lat="44.3659767" lon="11.5334748"><ele>258.0</ele><time>2026-05-01T08:00:33.256Z</time></trkpt><trkpt lat="44.3659694" lon="11.5332514"><ele>258.0</ele><time>2026-05-01T08:00:34.257Z</time></trkpt><trkpt lat="44.3659733" lon="11.5330197"><ele>258.0</ele><time>2026-05-01T08:00:35.256Z</time></trkpt><trkpt lat="44.365982" lon="11.5327854"><ele>258.0</ele><time>2026-05-01T08:00:36.257Z</time></trkpt><trkpt lat="44.3660007" lon="11.5325463"><ele>259.0</ele><time>2026-05-01T08:00:37.257Z</time></trkpt><trkpt lat="44.3660343" lon="11.5323097"><ele>260.0</ele><time>2026-05-01T08:00:38.257Z</time></trkpt><trkpt lat="44.3660731" lon="11.5320978"><ele>261.0</ele><time>2026-05-01T08:00:39.257Z</time></trkpt><trkpt lat="44.3661015" lon="11.531882"><ele>262.6666666666667</ele><time>2026-05-01T08:00:40.257Z</time></trkpt><trkpt lat="44.3661143" lon="11.5316777"><ele>264.33333333333337</ele><time>2026-05-01T08:00:41.257Z</time></trkpt><trkpt lat="44.3661017" lon="11.5314644"><ele>266.0</ele><time>2026-05-01T08:00:42.258Z</time></trkpt><trkpt lat="44.3660767" lon="11.5312513"><ele>264.75</ele><time>2026-05-01T08:00:43.257Z</time></trkpt><trkpt lat="44.3660512" lon="11.5310455"><ele>263.5</ele><time>2026-05-01T08:00:44.257Z</time></trkpt><trkpt lat="44.3660309" lon="11.5308518"><ele>262.25</ele><time>2026-05-01T08:00:45.257Z</time></trkpt><trkpt lat="44.3660201" lon="11.5306631"><ele>261.0</ele><time>2026-05-01T08:00:46.257Z</time></trkpt><trkpt lat="44.3660384" lon="11.5304874"><ele>259.75</ele><time>2026-05-01T08:00:47.257Z</time></trkpt><trkpt lat="44.366092" lon="11.5303152"><ele>258.5</ele><time>2026-05-01T08:00:48.257Z</time></trkpt><trkpt lat="44.3661843" lon="11.5301693"><ele>257.25</ele><time>2026-05-01T08:00:49.257Z</time></trkpt><trkpt lat="44.3662991" lon="11.5300507"><ele>256.0</ele><time>2026-05-01T08:00:50.257Z</time></trkpt><trkpt lat="44.3664346" lon="11.530011"><ele>260.25</ele><time>2026-05-01T08:00:51.257Z</time></trkpt><trkpt lat="44.3665591" lon="11.5300175"><ele>264.5</ele><time>2026-05-01T08:00:52.257Z</time></trkpt><trkpt lat="44.3666699" lon="11.5300568"><ele>268.75</ele><time>2026-05-01T08:00:53.257Z</time></trkpt><trkpt lat="44.3667911" lon="11.530077"><ele>273.0</ele><time>2026-05-01T08:00:54.257Z</time></trkpt><trkpt lat="44.3669117" lon="11.5300947"><ele>273.0</ele><time>2026-05-01T08:00:55.257Z</time></trkpt><trkpt lat="44.36704" lon="11.5301188"><ele>273.0</ele><time>2026-05-01T08:00:56.257Z</time></trkpt><trkpt lat="44.3671654" lon="11.5301732"><ele>273.0</ele><time>2026-05-01T08:00:57.257Z</time></trkpt><trkpt lat="44.3672791" lon="11.5302657"><ele>273.0</ele><time>2026-05-01T08:00:58.257Z</time></trkpt><trkpt lat="44.3673771" lon="11.5303808"><ele>271.75</ele><time>2026-05-01T08:00:59.257Z</time></trkpt><trkpt lat="44.3674816" lon="11.5304735"><ele>270.5</ele><time>2026-05-01T08:01:00.257Z</time></trkpt><trkpt lat="44.3675949" lon="11.530527"><ele>269.25</ele><time>2026-05-01T08:01:01.257Z</time></trkpt><trkpt lat="44.3677229" lon="11.5305331"><ele>268.0</ele><time>2026-05-01T08:01:02.257Z</time></trkpt><trkpt lat="44.3678501" lon="11.5305055"><ele>268.0</ele><time>2026-05-01T08:01:03.257Z</time></trkpt><trkpt lat="44.3679764" lon="11.5304543"><ele>268.0</ele><time>2026-05-01T08:01:04.257Z</time></trkpt><trkpt lat="44.3680941" lon="11.53041"><ele>268.0</ele><time>2026-05-01T08:01:05.257Z</time></trkpt><trkpt lat="44.3682025" lon="11.5303778"><ele>268.0</ele><time>2026-05-01T08:01:06.257Z</time></trkpt><trkpt lat="44.3682994" lon="11.5303542"><ele>271.8</ele><time>2026-05-01T08:01:07.257Z</time></trkpt><trkpt lat="44.3683827" lon="11.5303337"><ele>275.6</ele><time>2026-05-01T08:01:08.257Z</time></trkpt><trkpt lat="44.3684881" lon="11.5302852"><ele>279.4</ele><time>2026-05-01T08:01:10.257Z</time></trkpt><trkpt lat="44.3685693" lon="11.5302352"><ele>283.2</ele><time>2026-05-01T08:01:12.257Z</time></trkpt><trkpt lat="44.368646" lon="11.5301634"><ele>287.0</ele><time>2026-05-01T08:01:14.257Z</time></trkpt><trkpt lat="44.3686842" lon="11.5300393"><ele>287.0</ele><time>2026-05-01T08:01:16.257Z</time></trkpt><trkpt lat="44.3686517" lon="11.5298838"><ele>287.0</ele><time>2026-05-01T08:01:18.257Z</time></trkpt><trkpt lat="44.3685948" lon="11.5298244"><ele>287.0</ele><time>2026-05-01T08:01:19.257Z</time></trkpt><trkpt lat="44.3684669" lon="11.5298154"><ele>287.0</ele><time>2026-05-01T08:01:21.257Z</time></trkpt><trkpt lat="44.3683995" lon="11.5298553"><ele>287.0</ele><time>2026-05-01T08:01:22.257Z</time></trkpt><trkpt lat="44.3683319" lon="11.5298982"><ele>287.0</ele><time>2026-05-01T08:01:23.257Z</time></trkpt><trkpt lat="44.3682655" lon="11.529934"><ele>287.0</ele><time>2026-05-01T08:01:24.257Z</time></trkpt><trkpt lat="44.3681915" lon="11.5299604"><ele>287.0</ele><time>2026-05-01T08:01:25.258Z</time></trkpt><trkpt lat="44.3681079" lon="11.529971"><ele>287.0</ele><time>2026-05-01T08:01:26.257Z</time></trkpt><trkpt lat="44.3680172" lon="11.5299628"><ele>287.0</ele><time>2026-05-01T08:01:27.257Z</time></trkpt><trkpt lat="44.3679258" lon="11.5299383"><ele>287.0</ele><time>2026-05-01T08:01:28.257Z</time></trkpt><trkpt lat="44.3678377" lon="11.5299008"><ele>287.0</ele><time>2026-05-01T08:01:29.257Z</time></trkpt><trkpt lat="44.3677631" lon="11.5298402"><ele>287.0</ele><time>2026-05-01T08:01:30.257Z</time></trkpt><trkpt lat="44.3677155" lon="11.5297544"><ele>287.0</ele><time>2026-05-01T08:01:31.258Z</time></trkpt><trkpt lat="44.367693" lon="11.5296592"><ele>287.0</ele><time>2026-05-01T08:01:32.258Z</time></trkpt><trkpt lat="44.367686" lon="11.5295675"><ele>287.0</ele><time>2026-05-01T08:01:33.258Z</time></trkpt><trkpt lat="44.3676829" lon="11.5294778"><ele>287.0</ele><time>2026-05-01T08:01:34.258Z</time></trkpt><trkpt lat="44.3676696" lon="11.5293564"><ele>288.75</ele><time>2026-05-01T08:01:35.258Z</time></trkpt><trkpt lat="44.3676575" lon="11.5292011"><ele>290.5</ele><time>2026-05-01T08:01:36.258Z</time></trkpt><trkpt lat="44.3676563" lon="11.5290296"><ele>292.25</ele><time>2026-05-01T08:01:37.258Z</time></trkpt><trkpt lat="44.3676616" lon="11.5288435"><ele>294.0</ele><time>2026-05-01T08:01:38.258Z</time></trkpt><trkpt lat="44.3676656" lon="11.5286497"><ele>295.5</ele><time>2026-05-01T08:01:39.258Z</time></trkpt><trkpt lat="44.3676611" lon="11.5284605"><ele>297.0</ele><time>2026-05-01T08:01:40.258Z</time></trkpt><trkpt lat="44.3676516" lon="11.5282797"><ele>298.5</ele><time>2026-05-01T08:01:41.258Z</time></trkpt><trkpt lat="44.3676413" lon="11.5280986"><ele>300.0</ele><time>2026-05-01T08:01:42.258Z</time></trkpt><trkpt lat="44.3676396" lon="11.5279199"><ele>300.75</ele><time>2026-05-01T08:01:43.258Z</time></trkpt><trkpt lat="44.3676641" lon="11.5277536"><ele>301.5</ele><time>2026-05-01T08:01:44.258Z</time></trkpt><trkpt lat="44.3677183" lon="11.5276032"><ele>302.25</ele><time>2026-05-01T08:01:45.258Z</time></trkpt><trkpt lat="44.367806" lon="11.5274631"><ele>303.0</ele><time>2026-05-01T08:01:46.258Z</time></trkpt><trkpt lat="44.3679096" lon="11.5273366"><ele>303.0</ele><time>2026-05-01T08:01:47.258Z</time></trkpt><trkpt lat="44.3680003" lon="11.5272101"><ele>303.0</ele><time>2026-05-01T08:01:48.258Z</time></trkpt><trkpt lat="44.3680494" lon="11.5270849"><ele>303.0</ele><time>2026-05-01T08:01:49.258Z</time></trkpt><trkpt lat="44.3680488" lon="11.5269589"><ele>303.0</ele><time>2026-05-01T08:01:50.258Z</time></trkpt><trkpt lat="44.3680078" lon="11.5268168"><ele>303.0</ele><time>2026-05-01T08:01:51.258Z</time></trkpt><trkpt lat="44.3679393" lon="11.5266837"><ele>303.6</ele><time>2026-05-01T08:01:52.259Z</time></trkpt><trkpt lat="44.3678581" lon="11.5265638"><ele>304.20000000000005</ele><time>2026-05-01T08:01:53.258Z</time></trkpt><trkpt lat="44.3677758" lon="11.5264511"><ele>304.8</ele><time>2026-05-01T08:01:54.258Z</time></trkpt><trkpt lat="44.3677451" lon="11.5263426"><ele>305.40000000000003</ele><time>2026-05-01T08:01:55.258Z</time></trkpt><trkpt lat="44.367747" lon="11.5262033"><ele>306.0</ele><time>2026-05-01T08:01:56.258Z</time></trkpt><trkpt lat="44.3677805" lon="11.5260538"><ele>307.0</ele><time>2026-05-01T08:01:57.258Z</time></trkpt><trkpt lat="44.3678471" lon="11.5259212"><ele>308.0</ele><time>2026-05-01T08:01:58.258Z</time></trkpt><trkpt lat="44.3679196" lon="11.5257744"><ele>309.0</ele><time>2026-05-01T08:01:59.258Z</time></trkpt><trkpt lat="44.3679735" lon="11.5256206"><ele>310.0</ele><time>2026-05-01T08:02:00.258Z</time></trkpt><trkpt lat="44.3679907" lon="11.5254682"><ele>312.0</ele><time>2026-05-01T08:02:01.258Z</time></trkpt><trkpt lat="44.3679722" lon="11.5253057"><ele>314.0</ele><time>2026-05-01T08:02:02.258Z</time></trkpt><trkpt lat="44.3679143" lon="11.5251486"><ele>316.0</ele><time>2026-05-01T08:02:03.258Z</time></trkpt><trkpt lat="44.3678264" lon="11.5249849"><ele>318.0</ele><time>2026-05-01T08:02:04.258Z</time></trkpt><trkpt lat="44.3677244" lon="11.5248209"><ele>318.0</ele><time>2026-05-01T08:02:05.258Z</time></trkpt><trkpt lat="44.367616" lon="11.5246791"><ele>318.0</ele><time>2026-05-01T08:02:06.258Z</time></trkpt><trkpt lat="44.3675097" lon="11.5245772"><ele>318.0</ele><time>2026-05-01T08:02:07.258Z</time></trkpt><trkpt lat="44.367413" lon="11.5244996"><ele>318.0</ele><time>2026-05-01T08:02:08.258Z</time></trkpt><trkpt lat="44.3673346" lon="11.5244394"><ele>320.2</ele><time>2026-05-01T08:02:09.258Z</time></trkpt><trkpt lat="44.3672772" lon="11.5243601"><ele>322.4</ele><time>2026-05-01T08:02:10.258Z</time></trkpt><trkpt lat="44.367302" lon="11.5241804"><ele>324.59999999999997</ele><time>2026-05-01T08:02:12.258Z</time></trkpt><trkpt lat="44.3673725" lon="11.5241248"><ele>326.8</ele><time>2026-05-01T08:02:13.258Z</time></trkpt><trkpt lat="44.3674746" lon="11.524136"><ele>329.0</ele><time>2026-05-01T08:02:14.258Z</time></trkpt><trkpt lat="44.3675748" lon="11.5242061"><ele>329.0</ele><time>2026-05-01T08:02:15.258Z</time></trkpt><trkpt lat="44.367667" lon="11.5243176"><ele>329.0</ele><time>2026-05-01T08:02:16.258Z</time></trkpt><trkpt lat="44.3677677" lon="11.5244104"><ele>329.0</ele><time>2026-05-01T08:02:17.258Z</time></trkpt><trkpt lat="44.3678908" lon="11.5244997"><ele>329.0</ele><time>2026-05-01T08:02:18.258Z</time></trkpt><trkpt lat="44.3680217" lon="11.5245756"><ele>329.4</ele><time>2026-05-01T08:02:19.258Z</time></trkpt><trkpt lat="44.3681507" lon="11.5246597"><ele>329.79999999999995</ele><time>2026-05-01T08:02:20.258Z</time></trkpt><trkpt lat="44.368257" lon="11.5247183"><ele>330.20000000000005</ele><time>2026-05-01T08:02:21.258Z</time></trkpt><trkpt lat="44.3683447" lon="11.5247441"><ele>330.6</ele><time>2026-05-01T08:02:22.258Z</time></trkpt><trkpt lat="44.3684219" lon="11.5247186"><ele>331.0</ele><time>2026-05-01T08:02:23.258Z</time></trkpt><trkpt lat="44.3684886" lon="11.5246686"><ele>332.75</ele><time>2026-05-01T08:02:24.258Z</time></trkpt><trkpt lat="44.3685104" lon="11.5245555"><ele>334.5</ele><time>2026-05-01T08:02:25.259Z</time></trkpt><trkpt lat="44.3685093" lon="11.5243925"><ele>336.25</ele><time>2026-05-01T08:02:26.258Z</time></trkpt><trkpt lat="44.368494" lon="11.5242115"><ele>338.0</ele><time>2026-05-01T08:02:27.258Z</time></trkpt><trkpt lat="44.3684424" lon="11.5238365"><ele>339.2</ele><time>2026-05-01T08:02:29.259Z</time></trkpt><trkpt lat="44.3684013" lon="11.5236898"><ele>340.4</ele><time>2026-05-01T08:02:30.259Z</time></trkpt><trkpt lat="44.3683219" lon="11.5235839"><ele>341.59999999999997</ele><time>2026-05-01T08:02:31.259Z</time></trkpt><trkpt lat="44.3682419" lon="11.5234762"><ele>342.79999999999995</ele><time>2026-05-01T08:02:32.259Z</time></trkpt><trkpt lat="44.3681709" lon="11.5233634"><ele>344.0</ele><time>2026-05-01T08:02:33.259Z</time></trkpt><trkpt lat="44.3681285" lon="11.5232321"><ele>344.0</ele><time>2026-05-01T08:02:34.259Z</time></trkpt><trkpt lat="44.3681035" lon="11.5230927"><ele>344.0</ele><time>2026-05-01T08:02:35.259Z</time></trkpt><trkpt lat="44.3680806" lon="11.5229322"><ele>344.0</ele><time>2026-05-01T08:02:36.259Z</time></trkpt><trkpt lat="44.3680572" lon="11.5227464"><ele>344.0</ele><time>2026-05-01T08:02:37.259Z</time></trkpt><trkpt lat="44.3680337" lon="11.5225478"><ele>339.75</ele><time>2026-05-01T08:02:38.259Z</time></trkpt><trkpt lat="44.3680116" lon="11.5223434"><ele>335.5</ele><time>2026-05-01T08:02:39.259Z</time></trkpt><trkpt lat="44.3680065" lon="11.5221389"><ele>331.25</ele><time>2026-05-01T08:02:40.259Z</time></trkpt><trkpt lat="44.3680331" lon="11.521935"><ele>327.0</ele><time>2026-05-01T08:02:41.259Z</time></trkpt><trkpt lat="44.3680917" lon="11.5217413"><ele>327.0</ele><time>2026-05-01T08:02:42.259Z</time></trkpt><trkpt lat="44.3681232" lon="11.5213222"><ele>327.0</ele><time>2026-05-01T08:02:44.259Z</time></trkpt><trkpt lat="44.3680805" lon="11.5211154"><ele>328.5</ele><time>2026-05-01T08:02:45.259Z</time></trkpt><trkpt lat="44.3680139" lon="11.5209179"><ele>330.0</ele><time>2026-05-01T08:02:46.259Z</time></trkpt><trkpt lat="44.3679305" lon="11.5207388"><ele>331.5</ele><time>2026-05-01T08:02:47.259Z</time></trkpt><trkpt lat="44.3678579" lon="11.5205705"><ele>333.0</ele><time>2026-05-01T08:02:48.259Z</time></trkpt><trkpt lat="44.3678157" lon="11.5203939"><ele>333.25</ele><time>2026-05-01T08:02:49.259Z</time></trkpt><trkpt lat="44.3678072" lon="11.5202025"><ele>333.5</ele><time>2026-05-01T08:02:50.259Z</time></trkpt><trkpt lat="44.3678228" lon="11.5200034"><ele>333.75</ele><time>2026-05-01T08:02:51.259Z</time></trkpt><trkpt lat="44.3678501" lon="11.5197991"><ele>334.0</ele><time>2026-05-01T08:02:52.259Z</time></trkpt><trkpt lat="44.3678741" lon="11.519591"><ele>336.66666666666663</ele><time>2026-05-01T08:02:53.259Z</time></trkpt><trkpt lat="44.3678845" lon="11.519377"><ele>339.3333333333333</ele><time>2026-05-01T08:02:54.259Z</time></trkpt><trkpt lat="44.3678804" lon="11.5191553"><ele>342.0</ele><time>2026-05-01T08:02:55.259Z</time></trkpt><trkpt lat="44.3678626" lon="11.5189282"><ele>344.3333333333333</ele><time>2026-05-01T08:02:56.259Z</time></trkpt><trkpt lat="44.3678316" lon="11.5187007"><ele>346.66666666666663</ele><time>2026-05-01T08:02:57.259Z</time></trkpt><trkpt lat="44.3677916" lon="11.5184779"><ele>349.0</ele><time>2026-05-01T08:02:58.259Z</time></trkpt><trkpt lat="44.3677453" lon="11.5182636"><ele>349.0</ele><time>2026-05-01T08:02:59.259Z</time></trkpt><trkpt lat="44.3676927" lon="11.5180688"><ele>349.0</ele><time>2026-05-01T08:03:00.259Z</time></trkpt><trkpt lat="44.367626" lon="11.5178973"><ele>349.0</ele><time>2026-05-01T08:03:01.259Z</time></trkpt><trkpt lat="44.367551" lon="11.5177464"><ele>349.0</ele><time>2026-05-01T08:03:02.259Z</time></trkpt><trkpt lat="44.367455" lon="11.5176209"><ele>351.5</ele><time>2026-05-01T08:03:03.259Z</time></trkpt><trkpt lat="44.3673414" lon="11.5175215"><ele>354.0</ele><time>2026-05-01T08:03:04.259Z</time></trkpt><trkpt lat="44.3672147" lon="11.5174491"><ele>356.5</ele><time>2026-05-01T08:03:05.259Z</time></trkpt><trkpt lat="44.3670862" lon="11.5173917"><ele>359.0</ele><time>2026-05-01T08:03:06.259Z</time></trkpt><trkpt lat="44.3669614" lon="11.5173285"><ele>359.0</ele><time>2026-05-01T08:03:07.259Z</time></trkpt><trkpt lat="44.3668395" lon="11.517242"><ele>359.0</ele><time>2026-05-01T08:03:08.259Z</time></trkpt><trkpt lat="44.3667326" lon="11.5171191"><ele>359.0</ele><time>2026-05-01T08:03:09.259Z</time></trkpt><trkpt lat="44.3666584" lon="11.5169664"><ele>359.0</ele><time>2026-05-01T08:03:10.259Z</time></trkpt><trkpt lat="44.3666066" lon="11.5167996"><ele>363.5</ele><time>2026-05-01T08:03:11.259Z</time></trkpt><trkpt lat="44.3665644" lon="11.5166133"><ele>368.0</ele><time>2026-05-01T08:03:12.259Z</time></trkpt><trkpt lat="44.3665366" lon="11.5164124"><ele>372.5</ele><time>2026-05-01T08:03:13.259Z</time></trkpt><trkpt lat="44.3665063" lon="11.5162211"><ele>377.0</ele><time>2026-05-01T08:03:14.259Z</time></trkpt><trkpt lat="44.3664611" lon="11.5160518"><ele>377.25</ele><time>2026-05-01T08:03:15.259Z</time></trkpt><trkpt lat="44.366395" lon="11.5159144"><ele>377.5</ele><time>2026-05-01T08:03:16.259Z</time></trkpt><trkpt lat="44.366297" lon="11.5158102"><ele>377.75</ele><time>2026-05-01T08:03:17.259Z</time></trkpt><trkpt lat="44.366179" lon="11.5157242"><ele>378.0</ele><time>2026-05-01T08:03:18.259Z</time></trkpt><trkpt lat="44.366055" lon="11.5156351"><ele>378.0</ele><time>2026-05-01T08:03:19.26Z</time></trkpt><trkpt lat="44.3659224" lon="11.5155731"><ele>378.0</ele><time>2026-05-01T08:03:20.259Z</time></trkpt><trkpt lat="44.3657792" lon="11.515529"><ele>378.0</ele><time>2026-05-01T08:03:21.259Z</time></trkpt><trkpt lat="44.3656299" lon="11.515518"><ele>378.0</ele><time>2026-05-01T08:03:22.259Z</time></trkpt><trkpt lat="44.3654726" lon="11.5155055"><ele>380.0</ele><time>2026-05-01T08:03:23.259Z</time></trkpt><trkpt lat="44.3653139" lon="11.5155086"><ele>382.0</ele><time>2026-05-01T08:03:24.26Z</time></trkpt><trkpt lat="44.3651628" lon="11.5155178"><ele>384.0</ele><time>2026-05-01T08:03:25.26Z</time></trkpt><trkpt lat="44.3650229" lon="11.5155543"><ele>384.0</ele><time>2026-05-01T08:03:26.26Z</time></trkpt><trkpt lat="44.3648938" lon="11.5156251"><ele>384.0</ele><time>2026-05-01T08:03:27.26Z</time></trkpt><trkpt lat="44.3647758" lon="11.5157189"><ele>384.0</ele><time>2026-05-01T08:03:28.26Z</time></trkpt><trkpt lat="44.3646759" lon="11.5158165"><ele>384.0</ele><time>2026-05-01T08:03:29.26Z</time></trkpt><trkpt lat="44.3646007" lon="11.5158784"><ele>384.3333333333333</ele><time>2026-05-01T08:03:30.26Z</time></trkpt><trkpt lat="44.3645385" lon="11.5159016"><ele>384.66666666666663</ele><time>2026-05-01T08:03:31.26Z</time></trkpt><trkpt lat="44.3644738" lon="11.515888"><ele>385.0</ele><time>2026-05-01T08:03:32.26Z</time></trkpt><trkpt lat="44.3643841" lon="11.5158388"><ele>385.3333333333333</ele><time>2026-05-01T08:03:33.26Z</time></trkpt><trkpt lat="44.3643021" lon="11.5157811"><ele>385.66666666666663</ele><time>2026-05-01T08:03:34.26Z</time></trkpt><trkpt lat="44.3642293" lon="11.5156828"><ele>386.0</ele><time>2026-05-01T08:03:35.26Z</time></trkpt><trkpt lat="44.3641704" lon="11.5155418"><ele>388.25</ele><time>2026-05-01T08:03:36.26Z</time></trkpt><trkpt lat="44.3641117" lon="11.5153695"><ele>390.5</ele><time>2026-05-01T08:03:37.26Z</time></trkpt><trkpt lat="44.3640477" lon="11.5151903"><ele>392.75</ele><time>2026-05-01T08:03:38.26Z</time></trkpt><trkpt lat="44.3639897" lon="11.5150093"><ele>395.0</ele><time>2026-05-01T08:03:39.26Z</time></trkpt><trkpt lat="44.3639429" lon="11.5148571"><ele>394.99999999999994</ele><time>2026-05-01T08:03:40.26Z</time></trkpt><trkpt lat="44.3639049" lon="11.5147366"><ele>395.0</ele><time>2026-05-01T08:03:41.26Z</time></trkpt><trkpt lat="44.3638763" lon="11.5146434"><ele>395.0</ele><time>2026-05-01T08:03:42.26Z</time></trkpt><trkpt lat="44.3638575" lon="11.5145593"><ele>395.0</ele><time>2026-05-01T08:03:43.26Z</time></trkpt><trkpt lat="44.3638223" lon="11.514456"><ele>394.99999999999994</ele><time>2026-05-01T08:03:44.26Z</time></trkpt><trkpt lat="44.3637876" lon="11.5143569"><ele>395.0</ele><time>2026-05-01T08:03:45.26Z</time></trkpt><trkpt lat="44.3637607" lon="11.5142663"><ele>394.16666666666663</ele><time>2026-05-01T08:03:46.26Z</time></trkpt><trkpt lat="44.3637415" lon="11.5141685"><ele>393.3333333333333</ele><time>2026-05-01T08:03:47.26Z</time></trkpt><trkpt lat="44.3637407" lon="11.5140619"><ele>392.5</ele><time>2026-05-01T08:03:48.26Z</time></trkpt><trkpt lat="44.3637619" lon="11.513945"><ele>391.66666666666663</ele><time>2026-05-01T08:03:49.26Z</time></trkpt><trkpt lat="44.363805" lon="11.5138275"><ele>390.8333333333333</ele><time>2026-05-01T08:03:50.26Z</time></trkpt><trkpt lat="44.3638741" lon="11.5137087"><ele>390.0</ele><time>2026-05-01T08:03:51.26Z</time></trkpt><trkpt lat="44.3639556" lon="11.5135644"><ele>390.0</ele><time>2026-05-01T08:03:52.26Z</time></trkpt><trkpt lat="44.364038" lon="11.5133857"><ele>390.0</ele><time>2026-05-01T08:03:53.26Z</time></trkpt><trkpt lat="44.3641116" lon="11.5131895"><ele>390.0</ele><time>2026-05-01T08:03:54.26Z</time></trkpt><trkpt lat="44.3641835" lon="11.5129908"><ele>385.25</ele><time>2026-05-01T08:03:55.26Z</time></trkpt><trkpt lat="44.364254" lon="11.5128334"><ele>380.5</ele><time>2026-05-01T08:03:56.26Z</time></trkpt><trkpt lat="44.3643276" lon="11.5127149"><ele>375.75</ele><time>2026-05-01T08:03:57.26Z</time></trkpt><trkpt lat="44.3644123" lon="11.5126239"><ele>371.0</ele><time>2026-05-01T08:03:58.26Z</time></trkpt><trkpt lat="44.3645303" lon="11.5125476"><ele>371.0</ele><time>2026-05-01T08:03:59.26Z</time></trkpt><trkpt lat="44.3646583" lon="11.5124662"><ele>371.0</ele><time>2026-05-01T08:04:00.26Z</time></trkpt><trkpt lat="44.3647822" lon="11.5123623"><ele>371.0</ele><time>2026-05-01T08:04:01.26Z</time></trkpt><trkpt lat="44.3649015" lon="11.512258"><ele>371.0</ele><time>2026-05-01T08:04:02.26Z</time></trkpt><trkpt lat="44.365024" lon="11.512183"><ele>371.25</ele><time>2026-05-01T08:04:03.26Z</time></trkpt><trkpt lat="44.3651561" lon="11.5121264"><ele>371.5</ele><time>2026-05-01T08:04:04.26Z</time></trkpt><trkpt lat="44.3652577" lon="11.5120445"><ele>371.75</ele><time>2026-05-01T08:04:05.26Z</time></trkpt><trkpt lat="44.3653427" lon="11.5119151"><ele>372.0</ele><time>2026-05-01T08:04:06.26Z</time></trkpt><trkpt lat="44.3654124" lon="11.5117521"><ele>372.0</ele><time>2026-05-01T08:04:07.26Z</time></trkpt><trkpt lat="44.365463" lon="11.5115718"><ele>372.0</ele><time>2026-05-01T08:04:08.26Z</time></trkpt><trkpt lat="44.3655045" lon="11.5113825"><ele>372.0</ele><time>2026-05-01T08:04:09.26Z</time></trkpt><trkpt lat="44.365547" lon="11.5112118"><ele>372.0</ele><time>2026-05-01T08:04:10.26Z</time></trkpt><trkpt lat="44.3655722" lon="11.5109466"><ele>370.75</ele><time>2026-05-01T08:04:12.26Z</time></trkpt><trkpt lat="44.3655477" lon="11.510797"><ele>369.5</ele><time>2026-05-01T08:04:13.26Z</time></trkpt><trkpt lat="44.3655123" lon="11.5106511"><ele>368.25</ele><time>2026-05-01T08:04:14.26Z</time></trkpt><trkpt lat="44.3654478" lon="11.5105092"><ele>367.0</ele><time>2026-05-01T08:04:15.26Z</time></trkpt><trkpt lat="44.36539" lon="11.5103778"><ele>367.0</ele><time>2026-05-01T08:04:16.26Z</time></trkpt><trkpt lat="44.3653501" lon="11.5102493"><ele>367.0</ele><time>2026-05-01T08:04:17.26Z</time></trkpt><trkpt lat="44.3653288" lon="11.5101188"><ele>367.0</ele><time>2026-05-01T08:04:18.26Z</time></trkpt><trkpt lat="44.3653253" lon="11.5099932"><ele>367.0</ele><time>2026-05-01T08:04:19.261Z</time></trkpt><trkpt lat="44.3653284" lon="11.5098671"><ele>367.0</ele><time>2026-05-01T08:04:20.26Z</time></trkpt><trkpt lat="44.3653469" lon="11.509744"><ele>367.0</ele><time>2026-05-01T08:04:21.261Z</time></trkpt><trkpt lat="44.3653847" lon="11.5096106"><ele>367.0</ele><time>2026-05-01T08:04:22.262Z</time></trkpt><trkpt lat="44.365426" lon="11.5094683"><ele>367.0</ele><time>2026-05-01T08:04:23.261Z</time></trkpt><trkpt lat="44.3654522" lon="11.509314"><ele>367.0</ele><time>2026-05-01T08:04:24.261Z</time></trkpt><trkpt lat="44.3654503" lon="11.5091531"><ele>367.0</ele><time>2026-05-01T08:04:25.261Z</time></trkpt><trkpt lat="44.36544" lon="11.5089996"><ele>366.75</ele><time>2026-05-01T08:04:26.261Z</time></trkpt><trkpt lat="44.3654528" lon="11.508847"><ele>366.5</ele><time>2026-05-01T08:04:27.261Z</time></trkpt><trkpt lat="44.3655061" lon="11.5087038"><ele>366.25</ele><time>2026-05-01T08:04:28.261Z</time></trkpt><trkpt lat="44.3656033" lon="11.5085691"><ele>366.0</ele><time>2026-05-01T08:04:29.261Z</time></trkpt><trkpt lat="44.3656984" lon="11.5084549"><ele>366.0</ele><time>2026-05-01T08:04:30.261Z</time></trkpt><trkpt lat="44.3657736" lon="11.5083586"><ele>366.0</ele><time>2026-05-01T08:04:31.261Z</time></trkpt><trkpt lat="44.3658171" lon="11.5082565"><ele>366.0</ele><time>2026-05-01T08:04:32.261Z</time></trkpt><trkpt lat="44.3658226" lon="11.5081496"><ele>366.0</ele><time>2026-05-01T08:04:33.261Z</time></trkpt><trkpt lat="44.365779" lon="11.5080208"><ele>366.0</ele><time>2026-05-01T08:04:34.261Z</time></trkpt><trkpt lat="44.3657079" lon="11.5079046"><ele>364.25</ele><time>2026-05-01T08:04:35.261Z</time></trkpt><trkpt lat="44.3656025" lon="11.507816"><ele>362.5</ele><time>2026-05-01T08:04:36.261Z</time></trkpt><trkpt lat="44.3654847" lon="11.5077382"><ele>360.75</ele><time>2026-05-01T08:04:37.261Z</time></trkpt><trkpt lat="44.3653751" lon="11.5076414"><ele>359.0</ele><time>2026-05-01T08:04:38.261Z</time></trkpt><trkpt lat="44.365254" lon="11.507293"><ele>359.25</ele><time>2026-05-01T08:04:40.261Z</time></trkpt><trkpt lat="44.3651959" lon="11.5071251"><ele>359.5</ele><time>2026-05-01T08:04:41.261Z</time></trkpt><trkpt lat="44.3651183" lon="11.5069815"><ele>359.75</ele><time>2026-05-01T08:04:42.261Z</time></trkpt><trkpt lat="44.3650253" lon="11.5068551"><ele>360.0</ele><time>2026-05-01T08:04:43.261Z</time></trkpt><trkpt lat="44.3649192" lon="11.506746"><ele>360.0</ele><time>2026-05-01T08:04:44.261Z</time></trkpt><trkpt lat="44.3648005" lon="11.5066594"><ele>360.0</ele><time>2026-05-01T08:04:45.261Z</time></trkpt><trkpt lat="44.3646798" lon="11.5065828"><ele>360.0</ele><time>2026-05-01T08:04:46.261Z</time></trkpt><trkpt lat="44.3645691" lon="11.5064815"><ele>360.0</ele><time>2026-05-01T08:04:47.261Z</time></trkpt><trkpt lat="44.364474" lon="11.5063381"><ele>358.5</ele><time>2026-05-01T08:04:48.261Z</time></trkpt><trkpt lat="44.3643972" lon="11.5061604"><ele>357.0</ele><time>2026-05-01T08:04:49.261Z</time></trkpt><trkpt lat="44.3643363" lon="11.5059694"><ele>355.5</ele><time>2026-05-01T08:04:50.261Z</time></trkpt><trkpt lat="44.3642714" lon="11.5057854"><ele>354.0</ele><time>2026-05-01T08:04:51.261Z</time></trkpt><trkpt lat="44.3641778" lon="11.5056206"><ele>354.0</ele><time>2026-05-01T08:04:52.261Z</time></trkpt><trkpt lat="44.364069" lon="11.5054649"><ele>354.0</ele><time>2026-05-01T08:04:53.261Z</time></trkpt><trkpt lat="44.3639301" lon="11.5053289"><ele>354.0</ele><time>2026-05-01T08:04:54.261Z</time></trkpt><trkpt lat="44.3637877" lon="11.5051896"><ele>351.3333333333333</ele><time>2026-05-01T08:04:55.261Z</time></trkpt><trkpt lat="44.3636515" lon="11.5050304"><ele>348.66666666666663</ele><time>2026-05-01T08:04:56.261Z</time></trkpt><trkpt lat="44.3635361" lon="11.5048365"><ele>346.0</ele><time>2026-05-01T08:04:57.261Z</time></trkpt><trkpt lat="44.3634159" lon="11.5046349"><ele>346.3333333333333</ele><time>2026-05-01T08:04:58.261Z</time></trkpt><trkpt lat="44.3632843" lon="11.504452"><ele>346.6666666666667</ele><time>2026-05-01T08:04:59.261Z</time></trkpt><trkpt lat="44.3631358" lon="11.5043043"><ele>347.0</ele><time>2026-05-01T08:05:00.261Z</time></trkpt><trkpt lat="44.3629614" lon="11.5041963"><ele>349.33333333333337</ele><time>2026-05-01T08:05:01.261Z</time></trkpt><trkpt lat="44.362787" lon="11.5041214"><ele>351.6666666666667</ele><time>2026-05-01T08:05:02.261Z</time></trkpt><trkpt lat="44.3626305" lon="11.5040281"><ele>354.0</ele><time>2026-05-01T08:05:03.261Z</time></trkpt><trkpt lat="44.3625023" lon="11.5039111"><ele>354.0</ele><time>2026-05-01T08:05:04.261Z</time></trkpt><trkpt lat="44.3623827" lon="11.5037802"><ele>354.0</ele><time>2026-05-01T08:05:05.262Z</time></trkpt><trkpt lat="44.3622601" lon="11.5036867"><ele>354.0</ele><time>2026-05-01T08:05:06.261Z</time></trkpt><trkpt lat="44.3621459" lon="11.5036577"><ele>354.0</ele><time>2026-05-01T08:05:07.261Z</time></trkpt><trkpt lat="44.3620121" lon="11.5036745"><ele>356.6666666666667</ele><time>2026-05-01T08:05:08.261Z</time></trkpt><trkpt lat="44.3618783" lon="11.5037172"><ele>359.33333333333337</ele><time>2026-05-01T08:05:09.261Z</time></trkpt><trkpt lat="44.3617593" lon="11.5037208"><ele>362.0</ele><time>2026-05-01T08:05:10.261Z</time></trkpt><trkpt lat="44.3615801" lon="11.5035226"><ele>362.0</ele><time>2026-05-01T08:05:12.262Z</time></trkpt><trkpt lat="44.3615231" lon="11.5033837"><ele>362.0</ele><time>2026-05-01T08:05:13.261Z</time></trkpt><trkpt lat="44.3614841" lon="11.5032324"><ele>362.0</ele><time>2026-05-01T08:05:14.261Z</time></trkpt><trkpt lat="44.3614535" lon="11.5030747"><ele>362.0</ele><time>2026-05-01T08:05:15.261Z</time></trkpt><trkpt lat="44.3614234" lon="11.5029136"><ele>363.75</ele><time>2026-05-01T08:05:16.261Z</time></trkpt><trkpt lat="44.3613887" lon="11.5027544"><ele>365.5</ele><time>2026-05-01T08:05:17.262Z</time></trkpt><trkpt lat="44.3613517" lon="11.5025931"><ele>367.25</ele><time>2026-05-01T08:05:18.262Z</time></trkpt><trkpt lat="44.361311" lon="11.5024342"><ele>369.0</ele><time>2026-05-01T08:05:19.262Z</time></trkpt><trkpt lat="44.3612703" lon="11.5022747"><ele>369.0</ele><time>2026-05-01T08:05:20.262Z</time></trkpt><trkpt lat="44.3612361" lon="11.5020998"><ele>369.0</ele><time>2026-05-01T08:05:21.262Z</time></trkpt><trkpt lat="44.3612131" lon="11.5019104"><ele>369.0</ele><time>2026-05-01T08:05:22.262Z</time></trkpt><trkpt lat="44.3611943" lon="11.5017195"><ele>369.0</ele><time>2026-05-01T08:05:23.262Z</time></trkpt><trkpt lat="44.3611737" lon="11.5015367"><ele>368.75</ele><time>2026-05-01T08:05:24.262Z</time></trkpt><trkpt lat="44.3611469" lon="11.5013533"><ele>368.5</ele><time>2026-05-01T08:05:25.262Z</time></trkpt><trkpt lat="44.3611141" lon="11.5011693"><ele>368.25</ele><time>2026-05-01T08:05:26.262Z</time></trkpt><trkpt lat="44.3610701" lon="11.5009879"><ele>368.0</ele><time>2026-05-01T08:05:27.262Z</time></trkpt><trkpt lat="44.3610349" lon="11.5007934"><ele>367.33333333333337</ele><time>2026-05-01T08:05:28.262Z</time></trkpt><trkpt lat="44.3610131" lon="11.5005813"><ele>366.6666666666667</ele><time>2026-05-01T08:05:29.262Z</time></trkpt><trkpt lat="44.3610081" lon="11.5003572"><ele>366.0</ele><time>2026-05-01T08:05:30.262Z</time></trkpt><trkpt lat="44.361007" lon="11.5001222"><ele>366.0</ele><time>2026-05-01T08:05:31.262Z</time></trkpt><trkpt lat="44.3609992" lon="11.4998905"><ele>366.0</ele><time>2026-05-01T08:05:32.262Z</time></trkpt><trkpt lat="44.3609712" lon="11.4996632"><ele>366.0</ele><time>2026-05-01T08:05:33.262Z</time></trkpt><trkpt lat="44.3609327" lon="11.499444"><ele>366.75</ele><time>2026-05-01T08:05:34.262Z</time></trkpt><trkpt lat="44.3608878" lon="11.4992395"><ele>367.5</ele><time>2026-05-01T08:05:35.262Z</time></trkpt><trkpt lat="44.3608334" lon="11.4990476"><ele>368.25</ele><time>2026-05-01T08:05:36.262Z</time></trkpt><trkpt lat="44.3607665" lon="11.4988705"><ele>369.0</ele><time>2026-05-01T08:05:37.262Z</time></trkpt><trkpt lat="44.3606889" lon="11.4986893"><ele>370.0</ele><time>2026-05-01T08:05:38.262Z</time></trkpt><trkpt lat="44.3606233" lon="11.4984959"><ele>371.0</ele><time>2026-05-01T08:05:39.262Z</time></trkpt><trkpt lat="44.3605854" lon="11.4982859"><ele>372.0</ele><time>2026-05-01T08:05:40.262Z</time></trkpt><trkpt lat="44.3605643" lon="11.4980634"><ele>373.0</ele><time>2026-05-01T08:05:41.262Z</time></trkpt><trkpt lat="44.3605378" lon="11.4978425"><ele>374.0</ele><time>2026-05-01T08:05:42.263Z</time></trkpt><trkpt lat="44.3605117" lon="11.4976237"><ele>375.0</ele><time>2026-05-01T08:05:43.262Z</time></trkpt><trkpt lat="44.3604837" lon="11.4974058"><ele>371.3333333333333</ele><time>2026-05-01T08:05:44.263Z</time></trkpt><trkpt lat="44.3604547" lon="11.4971927"><ele>367.66666666666663</ele><time>2026-05-01T08:05:45.262Z</time></trkpt><trkpt lat="44.3604343" lon="11.4969833"><ele>364.0</ele><time>2026-05-01T08:05:46.262Z</time></trkpt><trkpt lat="44.3604186" lon="11.4967806"><ele>364.0</ele><time>2026-05-01T08:05:47.262Z</time></trkpt><trkpt lat="44.3604113" lon="11.4965944"><ele>364.0</ele><time>2026-05-01T08:05:48.262Z</time></trkpt><trkpt lat="44.3604145" lon="11.4964322"><ele>364.0</ele><time>2026-05-01T08:05:49.262Z</time></trkpt><trkpt lat="44.3604218" lon="11.4962981"><ele>364.0</ele><time>2026-05-01T08:05:50.262Z</time></trkpt><trkpt lat="44.3604277" lon="11.4961756"><ele>364.0</ele><time>2026-05-01T08:05:51.262Z</time></trkpt><trkpt lat="44.3604396" lon="11.4960513"><ele>365.75</ele><time>2026-05-01T08:05:52.262Z</time></trkpt><trkpt lat="44.3604636" lon="11.4959147"><ele>367.5</ele><time>2026-05-01T08:05:53.262Z</time></trkpt><trkpt lat="44.3605213" lon="11.4957789"><ele>369.25</ele><time>2026-05-01T08:05:54.262Z</time></trkpt><trkpt lat="44.3605892" lon="11.4956305"><ele>371.0</ele><time>2026-05-01T08:05:55.262Z</time></trkpt><trkpt lat="44.3606508" lon="11.4954685"><ele>380.33333333333337</ele><time>2026-05-01T08:05:56.262Z</time></trkpt><trkpt lat="44.36067" lon="11.4952866"><ele>389.6666666666667</ele><time>2026-05-01T08:05:57.262Z</time></trkpt><trkpt lat="44.3606888" lon="11.4948883"><ele>399.0</ele><time>2026-05-01T08:05:59.262Z</time></trkpt><trkpt lat="44.3606936" lon="11.4946792"><ele>401.0</ele><time>2026-05-01T08:06:00.262Z</time></trkpt><trkpt lat="44.3606816" lon="11.4944759"><ele>403.0</ele><time>2026-05-01T08:06:01.262Z</time></trkpt><trkpt lat="44.3606536" lon="11.4943035"><ele>405.0</ele><time>2026-05-01T08:06:02.262Z</time></trkpt><trkpt lat="44.3606228" lon="11.494146"><ele>407.0</ele><time>2026-05-01T08:06:03.262Z</time></trkpt><trkpt lat="44.3605954" lon="11.4940299"><ele>407.0</ele><time>2026-05-01T08:06:04.262Z</time></trkpt><trkpt lat="44.3605806" lon="11.4939316"><ele>407.0</ele><time>2026-05-01T08:06:05.262Z</time></trkpt><trkpt lat="44.3606076" lon="11.4937732"><ele>407.0</ele><time>2026-05-01T08:06:07.262Z</time></trkpt><trkpt lat="44.3607154" lon="11.4937258"><ele>407.0</ele><time>2026-05-01T08:06:09.262Z</time></trkpt><trkpt lat="44.3607795" lon="11.493753"><ele>407.0</ele><time>2026-05-01T08:06:10.262Z</time></trkpt><trkpt lat="44.3608355" lon="11.4938496"><ele>407.0</ele><time>2026-05-01T08:06:11.262Z</time></trkpt><trkpt lat="44.3608956" lon="11.4939619"><ele>407.0</ele><time>2026-05-01T08:06:12.262Z</time></trkpt><trkpt lat="44.3609622" lon="11.4940872"><ele>407.0</ele><time>2026-05-01T08:06:13.262Z</time></trkpt><trkpt lat="44.3610364" lon="11.4942171"><ele>407.0</ele><time>2026-05-01T08:06:14.263Z</time></trkpt><trkpt lat="44.3611269" lon="11.4943363"><ele>407.0</ele><time>2026-05-01T08:06:15.263Z</time></trkpt><trkpt lat="44.3612281" lon="11.4944381"><ele>407.0</ele><time>2026-05-01T08:06:16.263Z</time></trkpt><trkpt lat="44.361324" lon="11.49453"><ele>407.0</ele><time>2026-05-01T08:06:17.263Z</time></trkpt><trkpt lat="44.3614101" lon="11.4946104"><ele>407.0</ele><time>2026-05-01T08:06:18.263Z</time></trkpt><trkpt lat="44.3614874" lon="11.4946815"><ele>407.0</ele><time>2026-05-01T08:06:19.263Z</time></trkpt><trkpt lat="44.3615603" lon="11.4947334"><ele>407.0</ele><time>2026-05-01T08:06:20.263Z</time></trkpt><trkpt lat="44.3616319" lon="11.4947483"><ele>407.0</ele><time>2026-05-01T08:06:21.263Z</time></trkpt><trkpt lat="44.3617262" lon="11.4946437"><ele>407.0</ele><time>2026-05-01T08:06:23.263Z</time></trkpt><trkpt lat="44.3617166" lon="11.4945372"><ele>407.0</ele><time>2026-05-01T08:06:24.263Z</time></trkpt><trkpt lat="44.3616708" lon="11.4944298"><ele>407.0</ele><time>2026-05-01T08:06:25.263Z</time></trkpt><trkpt lat="44.3616104" lon="11.4943113"><ele>410.3333333333333</ele><time>2026-05-01T08:06:26.263Z</time></trkpt><trkpt lat="44.3615343" lon="11.4941926"><ele>413.66666666666663</ele><time>2026-05-01T08:06:27.263Z</time></trkpt><trkpt lat="44.361451" lon="11.4940582"><ele>417.0</ele><time>2026-05-01T08:06:28.263Z</time></trkpt><trkpt lat="44.3612902" lon="11.4937316"><ele>417.25</ele><time>2026-05-01T08:06:30.263Z</time></trkpt><trkpt lat="44.36122" lon="11.4935655"><ele>417.5</ele><time>2026-05-01T08:06:31.263Z</time></trkpt><trkpt lat="44.361147" lon="11.493395"><ele>417.75</ele><time>2026-05-01T08:06:32.263Z</time></trkpt><trkpt lat="44.3610804" lon="11.4932126"><ele>418.0</ele><time>2026-05-01T08:06:33.263Z</time></trkpt><trkpt lat="44.3610279" lon="11.4930307"><ele>421.0</ele><time>2026-05-01T08:06:34.263Z</time></trkpt><trkpt lat="44.3609845" lon="11.4928307"><ele>424.0</ele><time>2026-05-01T08:06:35.264Z</time></trkpt><trkpt lat="44.3609466" lon="11.4926254"><ele>427.0</ele><time>2026-05-01T08:06:36.263Z</time></trkpt><trkpt lat="44.3609266" lon="11.4924039"><ele>427.0</ele><time>2026-05-01T08:06:37.263Z</time></trkpt><trkpt lat="44.3609151" lon="11.4921904"><ele>427.0</ele><time>2026-05-01T08:06:38.263Z</time></trkpt><trkpt lat="44.3609016" lon="11.4919954"><ele>427.0</ele><time>2026-05-01T08:06:39.263Z</time></trkpt><trkpt lat="44.3608761" lon="11.4918095"><ele>427.0</ele><time>2026-05-01T08:06:40.263Z</time></trkpt><trkpt lat="44.3608323" lon="11.4916243"><ele>429.75</ele><time>2026-05-01T08:06:41.263Z</time></trkpt><trkpt lat="44.3607764" lon="11.491443"><ele>432.5</ele><time>2026-05-01T08:06:42.263Z</time></trkpt><trkpt lat="44.3607084" lon="11.4912696"><ele>435.25</ele><time>2026-05-01T08:06:43.263Z</time></trkpt><trkpt lat="44.3606286" lon="11.4911301"><ele>438.0</ele><time>2026-05-01T08:06:44.263Z</time></trkpt><trkpt lat="44.3605342" lon="11.4910245"><ele>438.5</ele><time>2026-05-01T08:06:45.263Z</time></trkpt><trkpt lat="44.3604588" lon="11.4909541"><ele>439.0</ele><time>2026-05-01T08:06:46.263Z</time></trkpt><trkpt lat="44.3604044" lon="11.4908839"><ele>439.5</ele><time>2026-05-01T08:06:47.263Z</time></trkpt><trkpt lat="44.3603831" lon="11.4907974"><ele>440.0</ele><time>2026-05-01T08:06:48.263Z</time></trkpt><trkpt lat="44.3604107" lon="11.4907025"><ele>440.5</ele><time>2026-05-01T08:06:49.263Z</time></trkpt><trkpt lat="44.360487" lon="11.4906377"><ele>441.0</ele><time>2026-05-01T08:06:50.263Z</time></trkpt><trkpt lat="44.3605851" lon="11.4906501"><ele>443.25</ele><time>2026-05-01T08:06:51.263Z</time></trkpt><trkpt lat="44.3606897" lon="11.4907177"><ele>445.5</ele><time>2026-05-01T08:06:52.263Z</time></trkpt><trkpt lat="44.3607983" lon="11.4908216"><ele>447.75</ele><time>2026-05-01T08:06:53.263Z</time></trkpt><trkpt lat="44.3609117" lon="11.4909274"><ele>450.0</ele><time>2026-05-01T08:06:54.263Z</time></trkpt><trkpt lat="44.3610306" lon="11.491042"><ele>450.0</ele><time>2026-05-01T08:06:55.263Z</time></trkpt><trkpt lat="44.36113" lon="11.4911914"><ele>450.0</ele><time>2026-05-01T08:06:56.263Z</time></trkpt><trkpt lat="44.3612215" lon="11.4913624"><ele>450.0</ele><time>2026-05-01T08:06:57.263Z</time></trkpt><trkpt lat="44.3613136" lon="11.4915155"><ele>450.0</ele><time>2026-05-01T08:06:58.263Z</time></trkpt><trkpt lat="44.361412" lon="11.4916647"><ele>451.0</ele><time>2026-05-01T08:06:59.263Z</time></trkpt><trkpt lat="44.3615048" lon="11.4918023"><ele>452.0</ele><time>2026-05-01T08:07:00.263Z</time></trkpt><trkpt lat="44.3616575" lon="11.4919604"><ele>453.0</ele><time>2026-05-01T08:07:02.263Z</time></trkpt><trkpt lat="44.3617497" lon="11.4919825"><ele>454.0</ele><time>2026-05-01T08:07:03.263Z</time></trkpt><trkpt lat="44.3618428" lon="11.491945"><ele>454.0</ele><time>2026-05-01T08:07:04.263Z</time></trkpt><trkpt lat="44.3619332" lon="11.4918785"><ele>454.0</ele><time>2026-05-01T08:07:05.263Z</time></trkpt><trkpt lat="44.362009" lon="11.4917493"><ele>454.0</ele><time>2026-05-01T08:07:06.263Z</time></trkpt><trkpt lat="44.3620968" lon="11.4916082"><ele>454.0</ele><time>2026-05-01T08:07:07.263Z</time></trkpt><trkpt lat="44.3621896" lon="11.49148"><ele>455.0</ele><time>2026-05-01T08:07:08.263Z</time></trkpt><trkpt lat="44.3622922" lon="11.4913809"><ele>456.0</ele><time>2026-05-01T08:07:09.264Z</time></trkpt><trkpt lat="44.3623996" lon="11.4912914"><ele>457.0</ele><time>2026-05-01T08:07:10.263Z</time></trkpt><trkpt lat="44.3625206" lon="11.4912294"><ele>458.0</ele><time>2026-05-01T08:07:11.265Z</time></trkpt><trkpt lat="44.3626597" lon="11.4912156"><ele>461.0</ele><time>2026-05-01T08:07:12.264Z</time></trkpt><trkpt lat="44.3628043" lon="11.4912124"><ele>464.0</ele><time>2026-05-01T08:07:13.264Z</time></trkpt><trkpt lat="44.3629594" lon="11.4912204"><ele>467.0</ele><time>2026-05-01T08:07:14.264Z</time></trkpt><trkpt lat="44.3632552" lon="11.4913186"><ele>467.0</ele><time>2026-05-01T08:07:16.264Z</time></trkpt><trkpt lat="44.3633528" lon="11.4914254"><ele>467.00000000000006</ele><time>2026-05-01T08:07:17.264Z</time></trkpt><trkpt lat="44.3634185" lon="11.491574"><ele>467.00000000000006</ele><time>2026-05-01T08:07:18.264Z</time></trkpt><trkpt lat="44.3634645" lon="11.4917057"><ele>467.0</ele><time>2026-05-01T08:07:19.264Z</time></trkpt><trkpt lat="44.363509" lon="11.4917972"><ele>467.0</ele><time>2026-05-01T08:07:20.264Z</time></trkpt><trkpt lat="44.3635682" lon="11.4918342"><ele>467.0</ele><time>2026-05-01T08:07:21.264Z</time></trkpt><trkpt lat="44.3636666" lon="11.4917583"><ele>467.00000000000006</ele><time>2026-05-01T08:07:23.264Z</time></trkpt><trkpt lat="44.3636889" lon="11.4916661"><ele>467.00000000000006</ele><time>2026-05-01T08:07:24.264Z</time></trkpt><trkpt lat="44.3636655" lon="11.4915534"><ele>467.0</ele><time>2026-05-01T08:07:25.264Z</time></trkpt><trkpt lat="44.3636049" lon="11.4914392"><ele>467.0</ele><time>2026-05-01T08:07:26.264Z</time></trkpt><trkpt lat="44.3635326" lon="11.4913183"><ele>469.75</ele><time>2026-05-01T08:07:27.264Z</time></trkpt><trkpt lat="44.3634575" lon="11.4911808"><ele>472.5</ele><time>2026-05-01T08:07:28.264Z</time></trkpt><trkpt lat="44.3633777" lon="11.4910414"><ele>475.25</ele><time>2026-05-01T08:07:29.264Z</time></trkpt><trkpt lat="44.3632805" lon="11.4909045"><ele>478.0</ele><time>2026-05-01T08:07:30.264Z</time></trkpt><trkpt lat="44.3630358" lon="11.4907544"><ele>477.75</ele><time>2026-05-01T08:07:32.264Z</time></trkpt><trkpt lat="44.3629046" lon="11.4907124"><ele>477.5</ele><time>2026-05-01T08:07:33.264Z</time></trkpt><trkpt lat="44.3627703" lon="11.4906938"><ele>477.25</ele><time>2026-05-01T08:07:34.264Z</time></trkpt><trkpt lat="44.3626278" lon="11.4906805"><ele>477.0</ele><time>2026-05-01T08:07:35.264Z</time></trkpt><trkpt lat="44.3625035" lon="11.4906647"><ele>477.0</ele><time>2026-05-01T08:07:36.264Z</time></trkpt><trkpt lat="44.362395" lon="11.4906158"><ele>477.00000000000006</ele><time>2026-05-01T08:07:37.264Z</time></trkpt><trkpt lat="44.3622952" lon="11.4905577"><ele>477.00000000000006</ele><time>2026-05-01T08:07:38.264Z</time></trkpt><trkpt lat="44.3622205" lon="11.4904518"><ele>477.0</ele><time>2026-05-01T08:07:39.264Z</time></trkpt><trkpt lat="44.3621591" lon="11.4903258"><ele>477.0</ele><time>2026-05-01T08:07:40.264Z</time></trkpt><trkpt lat="44.3621105" lon="11.4901858"><ele>478.25</ele><time>2026-05-01T08:07:41.264Z</time></trkpt><trkpt lat="44.3620677" lon="11.490042"><ele>479.5</ele><time>2026-05-01T08:07:42.264Z</time></trkpt><trkpt lat="44.3620404" lon="11.4898861"><ele>480.75</ele><time>2026-05-01T08:07:43.264Z</time></trkpt><trkpt lat="44.3620291" lon="11.4897169"><ele>482.0</ele><time>2026-05-01T08:07:44.264Z</time></trkpt><trkpt lat="44.3620249" lon="11.4895433"><ele>483.6</ele><time>2026-05-01T08:07:45.264Z</time></trkpt><trkpt lat="44.3620248" lon="11.4894063"><ele>485.20000000000005</ele><time>2026-05-01T08:07:46.264Z</time></trkpt><trkpt lat="44.3620295" lon="11.4893098"><ele>486.8</ele><time>2026-05-01T08:07:47.265Z</time></trkpt><trkpt lat="44.3620358" lon="11.4891857"><ele>488.4</ele><time>2026-05-01T08:07:49.264Z</time></trkpt><trkpt lat="44.3619724" lon="11.4890503"><ele>490.0</ele><time>2026-05-01T08:07:51.264Z</time></trkpt><trkpt lat="44.3618993" lon="11.4889692"><ele>490.0</ele><time>2026-05-01T08:07:52.264Z</time></trkpt><trkpt lat="44.361814" lon="11.4888839"><ele>490.0</ele><time>2026-05-01T08:07:53.264Z</time></trkpt><trkpt lat="44.3617204" lon="11.4887972"><ele>490.0</ele><time>2026-05-01T08:07:54.264Z</time></trkpt><trkpt lat="44.3616059" lon="11.4887273"><ele>490.0</ele><time>2026-05-01T08:07:55.264Z</time></trkpt><trkpt lat="44.3614782" lon="11.4886659"><ele>493.25</ele><time>2026-05-01T08:07:56.264Z</time></trkpt><trkpt lat="44.3613459" lon="11.488589"><ele>496.5</ele><time>2026-05-01T08:07:57.264Z</time></trkpt><trkpt lat="44.3612098" lon="11.488496"><ele>499.75</ele><time>2026-05-01T08:07:58.264Z</time></trkpt><trkpt lat="44.3610826" lon="11.4883758"><ele>503.0</ele><time>2026-05-01T08:07:59.264Z</time></trkpt><trkpt lat="44.3609659" lon="11.4882652"><ele>503.0</ele><time>2026-05-01T08:08:00.264Z</time></trkpt><trkpt lat="44.3608555" lon="11.4881801"><ele>503.0</ele><time>2026-05-01T08:08:01.264Z</time></trkpt><trkpt lat="44.3605858" lon="11.4881322"><ele>503.0</ele><time>2026-05-01T08:08:03.264Z</time></trkpt><trkpt lat="44.3604416" lon="11.4880946"><ele>502.25</ele><time>2026-05-01T08:08:04.264Z</time></trkpt><trkpt lat="44.3603025" lon="11.4880539"><ele>501.5</ele><time>2026-05-01T08:08:05.264Z</time></trkpt><trkpt lat="44.360169" lon="11.4880121"><ele>500.75</ele><time>2026-05-01T08:08:06.264Z</time></trkpt><trkpt lat="44.3600413" lon="11.4879698"><ele>500.0</ele><time>2026-05-01T08:08:07.265Z</time></trkpt><trkpt lat="44.3599332" lon="11.4879132"><ele>501.25</ele><time>2026-05-01T08:08:08.265Z</time></trkpt><trkpt lat="44.3598222" lon="11.4878454"><ele>502.5</ele><time>2026-05-01T08:08:09.265Z</time></trkpt><trkpt lat="44.3597205" lon="11.4877396"><ele>503.75</ele><time>2026-05-01T08:08:10.265Z</time></trkpt><trkpt lat="44.3596206" lon="11.4876244"><ele>505.0</ele><time>2026-05-01T08:08:11.265Z</time></trkpt><trkpt lat="44.359519" lon="11.4875095"><ele>505.0</ele><time>2026-05-01T08:08:12.265Z</time></trkpt><trkpt lat="44.3594139" lon="11.4874033"><ele>505.0</ele><time>2026-05-01T08:08:13.265Z</time></trkpt><trkpt lat="44.3593159" lon="11.4872867"><ele>505.0</ele><time>2026-05-01T08:08:14.265Z</time></trkpt><trkpt lat="44.3592217" lon="11.4871589"><ele>505.0</ele><time>2026-05-01T08:08:15.265Z</time></trkpt><trkpt lat="44.3591274" lon="11.487029"><ele>507.0</ele><time>2026-05-01T08:08:16.265Z</time></trkpt><trkpt lat="44.3590326" lon="11.4869035"><ele>509.0</ele><time>2026-05-01T08:08:17.265Z</time></trkpt><trkpt lat="44.3589377" lon="11.4867876"><ele>511.0</ele><time>2026-05-01T08:08:18.265Z</time></trkpt><trkpt lat="44.358842" lon="11.4867033"><ele>513.0</ele><time>2026-05-01T08:08:19.265Z</time></trkpt><trkpt lat="44.3587584" lon="11.4866683"><ele>513.0</ele><time>2026-05-01T08:08:20.265Z</time></trkpt><trkpt lat="44.3585608" lon="11.4867207"><ele>513.0</ele><time>2026-05-01T08:08:22.265Z</time></trkpt><trkpt lat="44.3584591" lon="11.4867712"><ele>513.0</ele><time>2026-05-01T08:08:23.265Z</time></trkpt><trkpt lat="44.358362" lon="11.4867802"><ele>513.0</ele><time>2026-05-01T08:08:24.265Z</time></trkpt><trkpt lat="44.3582549" lon="11.4867633"><ele>513.0</ele><time>2026-05-01T08:08:25.265Z</time></trkpt><trkpt lat="44.3581481" lon="11.4867147"><ele>513.0</ele><time>2026-05-01T08:08:26.265Z</time></trkpt><trkpt lat="44.3580387" lon="11.4866513"><ele>513.0</ele><time>2026-05-01T08:08:27.265Z</time></trkpt><trkpt lat="44.3579194" lon="11.4865906"><ele>513.0</ele><time>2026-05-01T08:08:28.265Z</time></trkpt><trkpt lat="44.357793" lon="11.4865253"><ele>512.5</ele><time>2026-05-01T08:08:29.265Z</time></trkpt><trkpt lat="44.357664" lon="11.4864497"><ele>512.0</ele><time>2026-05-01T08:08:30.265Z</time></trkpt><trkpt lat="44.3575361" lon="11.4863645"><ele>511.5</ele><time>2026-05-01T08:08:31.265Z</time></trkpt><trkpt lat="44.3574091" lon="11.4862801"><ele>511.0</ele><time>2026-05-01T08:08:32.265Z</time></trkpt><trkpt lat="44.3572845" lon="11.4861964"><ele>511.75</ele><time>2026-05-01T08:08:33.265Z</time></trkpt><trkpt lat="44.3571614" lon="11.4861146"><ele>512.5</ele><time>2026-05-01T08:08:34.265Z</time></trkpt><trkpt lat="44.3570396" lon="11.4860393"><ele>513.25</ele><time>2026-05-01T08:08:35.265Z</time></trkpt><trkpt lat="44.3569145" lon="11.4859826"><ele>514.0</ele><time>2026-05-01T08:08:36.265Z</time></trkpt><trkpt lat="44.3567875" lon="11.4859431"><ele>514.0</ele><time>2026-05-01T08:08:37.265Z</time></trkpt><trkpt lat="44.3566641" lon="11.4859096"><ele>514.0</ele><time>2026-05-01T08:08:38.265Z</time></trkpt><trkpt lat="44.3565447" lon="11.4858916"><ele>514.0</ele><time>2026-05-01T08:08:39.265Z</time></trkpt><trkpt lat="44.3564284" lon="11.4858834"><ele>514.0</ele><time>2026-05-01T08:08:40.265Z</time></trkpt><trkpt lat="44.3563117" lon="11.4859144"><ele>513.5</ele><time>2026-05-01T08:08:41.265Z</time></trkpt><trkpt lat="44.3561936" lon="11.4859636"><ele>513.0</ele><time>2026-05-01T08:08:42.265Z</time></trkpt><trkpt lat="44.3560776" lon="11.4860229"><ele>512.5</ele><time>2026-05-01T08:08:43.265Z</time></trkpt><trkpt lat="44.3559655" lon="11.4860806"><ele>512.0</ele><time>2026-05-01T08:08:44.265Z</time></trkpt><trkpt lat="44.3558599" lon="11.4861347"><ele>512.0</ele><time>2026-05-01T08:08:45.265Z</time></trkpt><trkpt lat="44.3557637" lon="11.4861844"><ele>512.0</ele><time>2026-05-01T08:08:46.266Z</time></trkpt><trkpt lat="44.355673" lon="11.4862248"><ele>512.0</ele><time>2026-05-01T08:08:47.265Z</time></trkpt><trkpt lat="44.355579" lon="11.4862398"><ele>512.0</ele><time>2026-05-01T08:08:48.265Z</time></trkpt><trkpt lat="44.3554887" lon="11.4862196"><ele>512.0</ele><time>2026-05-01T08:08:49.266Z</time></trkpt><trkpt lat="44.3554019" lon="11.4861604"><ele>516.25</ele><time>2026-05-01T08:08:50.265Z</time></trkpt><trkpt lat="44.3553217" lon="11.4860658"><ele>520.5</ele><time>2026-05-01T08:08:51.265Z</time></trkpt><trkpt lat="44.3552421" lon="11.4859615"><ele>524.75</ele><time>2026-05-01T08:08:52.265Z</time></trkpt><trkpt lat="44.3551611" lon="11.485839"><ele>529.0</ele><time>2026-05-01T08:08:53.265Z</time></trkpt><trkpt lat="44.3550768" lon="11.4857117"><ele>529.0</ele><time>2026-05-01T08:08:54.266Z</time></trkpt><trkpt lat="44.354872" lon="11.485472"><ele>529.0</ele><time>2026-05-01T08:08:56.265Z</time></trkpt><trkpt lat="44.3547553" lon="11.4853533"><ele>529.0</ele><time>2026-05-01T08:08:57.265Z</time></trkpt><trkpt lat="44.3546477" lon="11.4852199"><ele>533.0</ele><time>2026-05-01T08:08:58.266Z</time></trkpt><trkpt lat="44.3545497" lon="11.4850727"><ele>537.0</ele><time>2026-05-01T08:08:59.265Z</time></trkpt><trkpt lat="44.3544611" lon="11.484918"><ele>541.0</ele><time>2026-05-01T08:09:00.265Z</time></trkpt><trkpt lat="44.3543758" lon="11.4847683"><ele>545.0</ele><time>2026-05-01T08:09:01.265Z</time></trkpt><trkpt lat="44.3542884" lon="11.4846345"><ele>543.4</ele><time>2026-05-01T08:09:02.266Z</time></trkpt><trkpt lat="44.3542026" lon="11.4845161"><ele>541.8</ele><time>2026-05-01T08:09:03.265Z</time></trkpt><trkpt lat="44.3541213" lon="11.4844459"><ele>540.2</ele><time>2026-05-01T08:09:04.266Z</time></trkpt><trkpt lat="44.3540445" lon="11.4843852"><ele>538.6</ele><time>2026-05-01T08:09:05.266Z</time></trkpt><trkpt lat="44.3539733" lon="11.4843461"><ele>537.0</ele><time>2026-05-01T08:09:06.266Z</time></trkpt><trkpt lat="44.3538962" lon="11.4842962"><ele>537.0</ele><time>2026-05-01T08:09:07.266Z</time></trkpt><trkpt lat="44.3538109" lon="11.4842354"><ele>537.0</ele><time>2026-05-01T08:09:08.266Z</time></trkpt><trkpt lat="44.3537202" lon="11.4841768"><ele>537.0</ele><time>2026-05-01T08:09:09.266Z</time></trkpt><trkpt lat="44.3536163" lon="11.4841175"><ele>537.0</ele><time>2026-05-01T08:09:10.266Z</time></trkpt><trkpt lat="44.3535024" lon="11.4840618"><ele>537.0</ele><time>2026-05-01T08:09:11.266Z</time></trkpt><trkpt lat="44.3533785" lon="11.4840119"><ele>537.0</ele><time>2026-05-01T08:09:12.266Z</time></trkpt><trkpt lat="44.353256" lon="11.4839758"><ele>537.0</ele><time>2026-05-01T08:09:13.266Z</time></trkpt><trkpt lat="44.3531342" lon="11.4839895"><ele>537.0</ele><time>2026-05-01T08:09:14.266Z</time></trkpt><trkpt lat="44.3530189" lon="11.4840307"><ele>537.0</ele><time>2026-05-01T08:09:15.266Z</time></trkpt><trkpt lat="44.352916" lon="11.484111"><ele>534.75</ele><time>2026-05-01T08:09:16.266Z</time></trkpt><trkpt lat="44.3528137" lon="11.4842191"><ele>532.5</ele><time>2026-05-01T08:09:17.266Z</time></trkpt><trkpt lat="44.3526922" lon="11.4843423"><ele>530.25</ele><time>2026-05-01T08:09:18.266Z</time></trkpt><trkpt lat="44.3525737" lon="11.4844698"><ele>528.0</ele><time>2026-05-01T08:09:19.266Z</time></trkpt><trkpt lat="44.352458" lon="11.4845641"><ele>532.75</ele><time>2026-05-01T08:09:20.266Z</time></trkpt><trkpt lat="44.3523349" lon="11.4846185"><ele>537.5</ele><time>2026-05-01T08:09:21.266Z</time></trkpt><trkpt lat="44.3522114" lon="11.4846505"><ele>542.25</ele><time>2026-05-01T08:09:22.266Z</time></trkpt><trkpt lat="44.3520958" lon="11.4846788"><ele>547.0</ele><time>2026-05-01T08:09:23.266Z</time></trkpt><trkpt lat="44.3519966" lon="11.4846956"><ele>547.1666666666667</ele><time>2026-05-01T08:09:24.266Z</time></trkpt><trkpt lat="44.3519219" lon="11.4847044"><ele>547.3333333333334</ele><time>2026-05-01T08:09:25.266Z</time></trkpt><trkpt lat="44.3518589" lon="11.4846848"><ele>547.5</ele><time>2026-05-01T08:09:26.266Z</time></trkpt><trkpt lat="44.3518164" lon="11.4846145"><ele>547.6666666666666</ele><time>2026-05-01T08:09:27.266Z</time></trkpt><trkpt lat="44.3517807" lon="11.4844998"><ele>547.8333333333333</ele><time>2026-05-01T08:09:28.266Z</time></trkpt><trkpt lat="44.3517605" lon="11.4843423"><ele>548.0</ele><time>2026-05-01T08:09:29.266Z</time></trkpt><trkpt lat="44.3517625" lon="11.4841734"><ele>548.0</ele><time>2026-05-01T08:09:30.266Z</time></trkpt><trkpt lat="44.3517713" lon="11.4839979"><ele>548.0</ele><time>2026-05-01T08:09:31.266Z</time></trkpt><trkpt lat="44.3517931" lon="11.4838218"><ele>548.0</ele><time>2026-05-01T08:09:32.266Z</time></trkpt><trkpt lat="44.3518256" lon="11.483647"><ele>548.0</ele><time>2026-05-01T08:09:33.266Z</time></trkpt><trkpt lat="44.3518665" lon="11.4834735"><ele>548.5</ele><time>2026-05-01T08:09:34.266Z</time></trkpt><trkpt lat="44.351904" lon="11.4832827"><ele>549.0</ele><time>2026-05-01T08:09:35.266Z</time></trkpt><trkpt lat="44.3519363" lon="11.4831028"><ele>549.5</ele><time>2026-05-01T08:09:36.266Z</time></trkpt><trkpt lat="44.3519709" lon="11.4829148"><ele>550.0</ele><time>2026-05-01T08:09:37.266Z</time></trkpt><trkpt lat="44.3520017" lon="11.4827391"><ele>548.5</ele><time>2026-05-01T08:09:38.266Z</time></trkpt><trkpt lat="44.3520284" lon="11.4825603"><ele>547.0</ele><time>2026-05-01T08:09:39.266Z</time></trkpt><trkpt lat="44.3520531" lon="11.4823866"><ele>545.5</ele><time>2026-05-01T08:09:40.266Z</time></trkpt><trkpt lat="44.3520719" lon="11.4822248"><ele>544.0</ele><time>2026-05-01T08:09:41.266Z</time></trkpt><trkpt lat="44.3520827" lon="11.4820759"><ele>539.4</ele><time>2026-05-01T08:09:42.266Z</time></trkpt><trkpt lat="44.3520783" lon="11.4819238"><ele>534.8</ele><time>2026-05-01T08:09:43.266Z</time></trkpt><trkpt lat="44.3520574" lon="11.4817774"><ele>530.2</ele><time>2026-05-01T08:09:44.266Z</time></trkpt><trkpt lat="44.3520174" lon="11.4816439"><ele>525.6</ele><time>2026-05-01T08:09:45.266Z</time></trkpt><trkpt lat="44.3519609" lon="11.4815381"><ele>521.0</ele><time>2026-05-01T08:09:46.266Z</time></trkpt><trkpt lat="44.351901" lon="11.4814585"><ele>521.0</ele><time>2026-05-01T08:09:47.266Z</time></trkpt><trkpt lat="44.3518326" lon="11.4814068"><ele>521.0</ele><time>2026-05-01T08:09:48.266Z</time></trkpt><trkpt lat="44.3517382" lon="11.4813902"><ele>521.0</ele><time>2026-05-01T08:09:49.266Z</time></trkpt><trkpt lat="44.3516178" lon="11.4814026"><ele>521.0</ele><time>2026-05-01T08:09:50.266Z</time></trkpt><trkpt lat="44.3514859" lon="11.4814338"><ele>521.0</ele><time>2026-05-01T08:09:51.266Z</time></trkpt><trkpt lat="44.3513538" lon="11.4814629"><ele>520.0</ele><time>2026-05-01T08:09:52.266Z</time></trkpt><trkpt lat="44.3512105" lon="11.4814792"><ele>519.0</ele><time>2026-05-01T08:09:53.266Z</time></trkpt><trkpt lat="44.3510791" lon="11.4814449"><ele>518.0</ele><time>2026-05-01T08:09:54.266Z</time></trkpt><trkpt lat="44.3509589" lon="11.4813915"><ele>517.0</ele><time>2026-05-01T08:09:55.266Z</time></trkpt><trkpt lat="44.3508416" lon="11.4813506"><ele>517.0</ele><time>2026-05-01T08:09:56.266Z</time></trkpt><trkpt lat="44.3507323" lon="11.4813406"><ele>517.0</ele><time>2026-05-01T08:09:57.266Z</time></trkpt><trkpt lat="44.3506445" lon="11.4813574"><ele>517.0</ele><time>2026-05-01T08:09:58.266Z</time></trkpt><trkpt lat="44.3505742" lon="11.4813749"><ele>517.0</ele><time>2026-05-01T08:09:59.266Z</time></trkpt><trkpt lat="44.350502" lon="11.4813849"><ele>517.0</ele><time>2026-05-01T08:10:00.267Z</time></trkpt><trkpt lat="44.3504236" lon="11.4813858"><ele>517.0</ele><time>2026-05-01T08:10:01.267Z</time></trkpt><trkpt lat="44.3503451" lon="11.4813774"><ele>514.0</ele><time>2026-05-01T08:10:02.267Z</time></trkpt><trkpt lat="44.3502638" lon="11.4813651"><ele>511.0</ele><time>2026-05-01T08:10:03.267Z</time></trkpt><trkpt lat="44.3501845" lon="11.4813672"><ele>508.0</ele><time>2026-05-01T08:10:04.267Z</time></trkpt><trkpt lat="44.3501128" lon="11.4813909"><ele>505.0</ele><time>2026-05-01T08:10:05.267Z</time></trkpt><trkpt lat="44.3500432" lon="11.4814328"><ele>502.00000000000006</ele><time>2026-05-01T08:10:06.267Z</time></trkpt><trkpt lat="44.3499712" lon="11.4814947"><ele>499.0</ele><time>2026-05-01T08:10:07.267Z</time></trkpt><trkpt lat="44.3498895" lon="11.4815685"><ele>499.0</ele><time>2026-05-01T08:10:08.268Z</time></trkpt><trkpt lat="44.3498118" lon="11.4816597"><ele>499.0</ele><time>2026-05-01T08:10:09.267Z</time></trkpt><trkpt lat="44.3497453" lon="11.4817663"><ele>499.0</ele><time>2026-05-01T08:10:10.267Z</time></trkpt><trkpt lat="44.3496982" lon="11.4818821"><ele>499.0</ele><time>2026-05-01T08:10:11.267Z</time></trkpt><trkpt lat="44.3496722" lon="11.4820047"><ele>499.0</ele><time>2026-05-01T08:10:12.267Z</time></trkpt><trkpt lat="44.3496748" lon="11.4821329"><ele>501.4</ele><time>2026-05-01T08:10:13.267Z</time></trkpt><trkpt lat="44.3496994" lon="11.4822566"><ele>503.79999999999995</ele><time>2026-05-01T08:10:14.267Z</time></trkpt><trkpt lat="44.3497181" lon="11.4823955"><ele>506.20000000000005</ele><time>2026-05-01T08:10:15.267Z</time></trkpt><trkpt lat="44.349722" lon="11.4825391"><ele>508.6</ele><time>2026-05-01T08:10:16.267Z</time></trkpt><trkpt lat="44.3497017" lon="11.4826869"><ele>511.0</ele><time>2026-05-01T08:10:17.267Z</time></trkpt><trkpt lat="44.3496532" lon="11.4828251"><ele>506.75</ele><time>2026-05-01T08:10:18.267Z</time></trkpt><trkpt lat="44.3495792" lon="11.4829563"><ele>502.5</ele><time>2026-05-01T08:10:19.267Z</time></trkpt><trkpt lat="44.3495163" lon="11.4830806"><ele>498.25</ele><time>2026-05-01T08:10:20.267Z</time></trkpt><trkpt lat="44.3494568" lon="11.4832129"><ele>494.0</ele><time>2026-05-01T08:10:21.267Z</time></trkpt><trkpt lat="44.3494012" lon="11.483352"><ele>494.0</ele><time>2026-05-01T08:10:22.267Z</time></trkpt><trkpt lat="44.3493433" lon="11.4834682"><ele>494.0</ele><time>2026-05-01T08:10:23.267Z</time></trkpt><trkpt lat="44.3492725" lon="11.4835571"><ele>494.0</ele><time>2026-05-01T08:10:24.267Z</time></trkpt><trkpt lat="44.3491928" lon="11.4836323"><ele>494.0</ele><time>2026-05-01T08:10:25.267Z</time></trkpt><trkpt lat="44.3491144" lon="11.4836747"><ele>494.0</ele><time>2026-05-01T08:10:26.267Z</time></trkpt><trkpt lat="44.34892" lon="11.4836432"><ele>490.49999999999994</ele><time>2026-05-01T08:10:28.267Z</time></trkpt><trkpt lat="44.3488247" lon="11.4836041"><ele>487.0</ele><time>2026-05-01T08:10:29.267Z</time></trkpt><trkpt lat="44.3487264" lon="11.4835707"><ele>483.5</ele><time>2026-05-01T08:10:30.267Z</time></trkpt><trkpt lat="44.3486372" lon="11.4835464"><ele>480.0</ele><time>2026-05-01T08:10:31.267Z</time></trkpt><trkpt lat="44.3485627" lon="11.4835278"><ele>476.49999999999994</ele><time>2026-05-01T08:10:32.267Z</time></trkpt><trkpt lat="44.3485004" lon="11.4834956"><ele>473.0</ele><time>2026-05-01T08:10:33.267Z</time></trkpt><trkpt lat="44.3484672" lon="11.4833531"><ele>473.0</ele><time>2026-05-01T08:10:35.267Z</time></trkpt><trkpt lat="44.3485702" lon="11.4832396"><ele>472.99999999999994</ele><time>2026-05-01T08:10:37.267Z</time></trkpt><trkpt lat="44.3486494" lon="11.4831944"><ele>472.99999999999994</ele><time>2026-05-01T08:10:38.267Z</time></trkpt><trkpt lat="44.348733" lon="11.4831454"><ele>473.0</ele><time>2026-05-01T08:10:39.267Z</time></trkpt><trkpt lat="44.3488235" lon="11.4830894"><ele>473.0</ele><time>2026-05-01T08:10:40.267Z</time></trkpt><trkpt lat="44.3489155" lon="11.4830297"><ele>474.3333333333333</ele><time>2026-05-01T08:10:41.267Z</time></trkpt><trkpt lat="44.3490041" lon="11.4829759"><ele>475.66666666666663</ele><time>2026-05-01T08:10:42.267Z</time></trkpt><trkpt lat="44.3490783" lon="11.4829264"><ele>477.0</ele><time>2026-05-01T08:10:43.267Z</time></trkpt><trkpt lat="44.3491372" lon="11.4828769"><ele>478.33333333333337</ele><time>2026-05-01T08:10:44.267Z</time></trkpt><trkpt lat="44.3491973" lon="11.4827365"><ele>479.6666666666667</ele><time>2026-05-01T08:10:46.267Z</time></trkpt><trkpt lat="44.3491704" lon="11.4826437"><ele>481.0</ele><time>2026-05-01T08:10:47.267Z</time></trkpt><trkpt lat="44.3491141" lon="11.482533"><ele>481.0</ele><time>2026-05-01T08:10:48.267Z</time></trkpt><trkpt lat="44.3490317" lon="11.4824491"><ele>481.0</ele><time>2026-05-01T08:10:49.267Z</time></trkpt><trkpt lat="44.3489476" lon="11.4823684"><ele>481.0</ele><time>2026-05-01T08:10:50.267Z</time></trkpt><trkpt lat="44.34887" lon="11.4822661"><ele>481.0</ele><time>2026-05-01T08:10:51.267Z</time></trkpt><trkpt lat="44.3487995" lon="11.4821352"><ele>481.0</ele><time>2026-05-01T08:10:52.267Z</time></trkpt><trkpt lat="44.348738" lon="11.4820045"><ele>476.0</ele><time>2026-05-01T08:10:53.268Z</time></trkpt><trkpt lat="44.3486758" lon="11.4818881"><ele>471.0</ele><time>2026-05-01T08:10:54.267Z</time></trkpt><trkpt lat="44.3486109" lon="11.4817842"><ele>466.0</ele><time>2026-05-01T08:10:55.269Z</time></trkpt><trkpt lat="44.3485474" lon="11.4816864"><ele>461.0</ele><time>2026-05-01T08:10:56.268Z</time></trkpt><trkpt lat="44.3484842" lon="11.4815902"><ele>456.0</ele><time>2026-05-01T08:10:57.268Z</time></trkpt><trkpt lat="44.34842" lon="11.4814913"><ele>456.0</ele><time>2026-05-01T08:10:58.268Z</time></trkpt><trkpt lat="44.3483594" lon="11.4813886"><ele>456.0</ele><time>2026-05-01T08:10:59.268Z</time></trkpt><trkpt lat="44.3483076" lon="11.4812695"><ele>456.0</ele><time>2026-05-01T08:11:00.268Z</time></trkpt><trkpt lat="44.3482833" lon="11.4811249"><ele>456.0</ele><time>2026-05-01T08:11:01.268Z</time></trkpt><trkpt lat="44.3482925" lon="11.4809689"><ele>456.0</ele><time>2026-05-01T08:11:02.268Z</time></trkpt><trkpt lat="44.3483254" lon="11.480804"><ele>452.0</ele><time>2026-05-01T08:11:03.268Z</time></trkpt><trkpt lat="44.3483676" lon="11.4806169"><ele>448.0</ele><time>2026-05-01T08:11:04.268Z</time></trkpt><trkpt lat="44.3483977" lon="11.4804237"><ele>444.0</ele><time>2026-05-01T08:11:05.268Z</time></trkpt><trkpt lat="44.348406" lon="11.4802225"><ele>440.0</ele><time>2026-05-01T08:11:06.268Z</time></trkpt><trkpt lat="44.3483885" lon="11.4800059"><ele>437.66666666666663</ele><time>2026-05-01T08:11:07.268Z</time></trkpt><trkpt lat="44.3483755" lon="11.4797969"><ele>435.33333333333337</ele><time>2026-05-01T08:11:08.268Z</time></trkpt><trkpt lat="44.3483808" lon="11.4795754"><ele>433.0</ele><time>2026-05-01T08:11:09.268Z</time></trkpt><trkpt lat="44.3484223" lon="11.479371"><ele>431.0</ele><time>2026-05-01T08:11:10.268Z</time></trkpt><trkpt lat="44.3484626" lon="11.4791865"><ele>429.0</ele><time>2026-05-01T08:11:11.268Z</time></trkpt><trkpt lat="44.3484859" lon="11.4790015"><ele>427.0</ele><time>2026-05-01T08:11:12.268Z</time></trkpt><trkpt lat="44.3484964" lon="11.4788168"><ele>425.0</ele><time>2026-05-01T08:11:13.268Z</time></trkpt><trkpt lat="44.348513" lon="11.4786395"><ele>424.6</ele><time>2026-05-01T08:11:14.268Z</time></trkpt><trkpt lat="44.3485418" lon="11.4784863"><ele>424.2</ele><time>2026-05-01T08:11:15.268Z</time></trkpt><trkpt lat="44.348581" lon="11.4783535"><ele>423.79999999999995</ele><time>2026-05-01T08:11:16.268Z</time></trkpt><trkpt lat="44.3486266" lon="11.478241"><ele>423.4</ele><time>2026-05-01T08:11:17.268Z</time></trkpt><trkpt lat="44.3486711" lon="11.4781258"><ele>423.0</ele><time>2026-05-01T08:11:18.269Z</time></trkpt><trkpt lat="44.3487246" lon="11.4780145"><ele>423.59999999999997</ele><time>2026-05-01T08:11:19.268Z</time></trkpt><trkpt lat="44.3487867" lon="11.4779047"><ele>424.2</ele><time>2026-05-01T08:11:20.268Z</time></trkpt><trkpt lat="44.3488517" lon="11.4777849"><ele>424.8</ele><time>2026-05-01T08:11:21.268Z</time></trkpt><trkpt lat="44.3489142" lon="11.4776604"><ele>425.4</ele><time>2026-05-01T08:11:22.268Z</time></trkpt><trkpt lat="44.3489773" lon="11.4775274"><ele>426.0</ele><time>2026-05-01T08:11:23.269Z</time></trkpt><trkpt lat="44.3490433" lon="11.477396"><ele>426.0</ele><time>2026-05-01T08:11:24.268Z</time></trkpt><trkpt lat="44.349114" lon="11.477273"><ele>426.0</ele><time>2026-05-01T08:11:25.268Z</time></trkpt><trkpt lat="44.3491878" lon="11.477167"><ele>426.0</ele><time>2026-05-01T08:11:26.268Z</time></trkpt><trkpt lat="44.3492654" lon="11.4770746"><ele>426.0</ele><time>2026-05-01T08:11:27.268Z</time></trkpt><trkpt lat="44.3493446" lon="11.4769824"><ele>426.0</ele><time>2026-05-01T08:11:28.268Z</time></trkpt><trkpt lat="44.349419" lon="11.4768823"><ele>426.25</ele><time>2026-05-01T08:11:29.268Z</time></trkpt><trkpt lat="44.349484" lon="11.4767544"><ele>426.5</ele><time>2026-05-01T08:11:30.268Z</time></trkpt><trkpt lat="44.3495355" lon="11.4765957"><ele>426.75</ele><time>2026-05-01T08:11:31.268Z</time></trkpt><trkpt lat="44.3495835" lon="11.4764282"><ele>427.0</ele><time>2026-05-01T08:11:32.268Z</time></trkpt><trkpt lat="44.3496346" lon="11.4762618"><ele>427.25</ele><time>2026-05-01T08:11:33.268Z</time></trkpt><trkpt lat="44.34969" lon="11.4760968"><ele>427.5</ele><time>2026-05-01T08:11:34.268Z</time></trkpt><trkpt lat="44.3497426" lon="11.4759329"><ele>427.75</ele><time>2026-05-01T08:11:35.268Z</time></trkpt><trkpt lat="44.3497878" lon="11.4757665"><ele>428.0</ele><time>2026-05-01T08:11:36.269Z</time></trkpt><trkpt lat="44.3498165" lon="11.4755955"><ele>429.75</ele><time>2026-05-01T08:11:37.268Z</time></trkpt><trkpt lat="44.3498364" lon="11.4754084"><ele>431.5</ele><time>2026-05-01T08:11:38.268Z</time></trkpt><trkpt lat="44.3498427" lon="11.475223"><ele>433.25</ele><time>2026-05-01T08:11:39.268Z</time></trkpt><trkpt lat="44.3498447" lon="11.4750477"><ele>435.0</ele><time>2026-05-01T08:11:40.268Z</time></trkpt><trkpt lat="44.3498387" lon="11.4748866"><ele>435.0</ele><time>2026-05-01T08:11:41.268Z</time></trkpt><trkpt lat="44.3498264" lon="11.4747354"><ele>435.0</ele><time>2026-05-01T08:11:42.268Z</time></trkpt><trkpt lat="44.3497974" lon="11.4745874"><ele>435.0</ele><time>2026-05-01T08:11:43.268Z</time></trkpt><trkpt lat="44.3497485" lon="11.4744599"><ele>435.0</ele><time>2026-05-01T08:11:44.268Z</time></trkpt><trkpt lat="44.3496858" lon="11.4743508"><ele>435.0</ele><time>2026-05-01T08:11:45.268Z</time></trkpt><trkpt lat="44.3496139" lon="11.4742586"><ele>437.4</ele><time>2026-05-01T08:11:46.268Z</time></trkpt><trkpt lat="44.3495317" lon="11.4741826"><ele>439.8</ele><time>2026-05-01T08:11:47.268Z</time></trkpt><trkpt lat="44.349441" lon="11.4741287"><ele>442.20000000000005</ele><time>2026-05-01T08:11:48.268Z</time></trkpt><trkpt lat="44.3493395" lon="11.4741064"><ele>444.6</ele><time>2026-05-01T08:11:49.268Z</time></trkpt><trkpt lat="44.3492315" lon="11.4740936"><ele>447.0</ele><time>2026-05-01T08:11:50.269Z</time></trkpt><trkpt lat="44.3491301" lon="11.4740926"><ele>447.0</ele><time>2026-05-01T08:11:51.269Z</time></trkpt><trkpt lat="44.3490362" lon="11.4740696"><ele>447.0</ele><time>2026-05-01T08:11:52.269Z</time></trkpt><trkpt lat="44.3489536" lon="11.4740257"><ele>447.0</ele><time>2026-05-01T08:11:53.269Z</time></trkpt><trkpt lat="44.3488934" lon="11.4739543"><ele>447.0</ele><time>2026-05-01T08:11:54.269Z</time></trkpt><trkpt lat="44.3488566" lon="11.4738598"><ele>447.0</ele><time>2026-05-01T08:11:55.269Z</time></trkpt><trkpt lat="44.3488421" lon="11.4737481"><ele>447.0</ele><time>2026-05-01T08:11:56.269Z</time></trkpt><trkpt lat="44.3488551" lon="11.4736255"><ele>445.75</ele><time>2026-05-01T08:11:57.269Z</time></trkpt><trkpt lat="44.3488835" lon="11.4734928"><ele>444.5</ele><time>2026-05-01T08:11:58.269Z</time></trkpt><trkpt lat="44.3488943" lon="11.4733543"><ele>443.25</ele><time>2026-05-01T08:11:59.269Z</time></trkpt><trkpt lat="44.3488776" lon="11.4732121"><ele>442.0</ele><time>2026-05-01T08:12:00.269Z</time></trkpt><trkpt lat="44.3487903" lon="11.472931"><ele>441.8</ele><time>2026-05-01T08:12:02.269Z</time></trkpt><trkpt lat="44.3487466" lon="11.4727987"><ele>441.6</ele><time>2026-05-01T08:12:03.269Z</time></trkpt><trkpt lat="44.3487072" lon="11.472668"><ele>441.40000000000003</ele><time>2026-05-01T08:12:04.269Z</time></trkpt><trkpt lat="44.3486716" lon="11.4725385"><ele>441.20000000000005</ele><time>2026-05-01T08:12:05.27Z</time></trkpt><trkpt lat="44.3486451" lon="11.4724023"><ele>441.0</ele><time>2026-05-01T08:12:06.269Z</time></trkpt><trkpt lat="44.3486312" lon="11.4722598"><ele>441.0</ele><time>2026-05-01T08:12:07.269Z</time></trkpt><trkpt lat="44.348632" lon="11.4721209"><ele>441.0</ele><time>2026-05-01T08:12:08.269Z</time></trkpt><trkpt lat="44.3486371" lon="11.4719861"><ele>441.0</ele><time>2026-05-01T08:12:09.269Z</time></trkpt><trkpt lat="44.3486382" lon="11.4718466"><ele>441.0</ele><time>2026-05-01T08:12:10.269Z</time></trkpt><trkpt lat="44.3486359" lon="11.4717026"><ele>441.0</ele><time>2026-05-01T08:12:11.269Z</time></trkpt><trkpt lat="44.3486326" lon="11.4715608"><ele>441.20000000000005</ele><time>2026-05-01T08:12:12.269Z</time></trkpt><trkpt lat="44.3486333" lon="11.4714112"><ele>441.40000000000003</ele><time>2026-05-01T08:12:13.269Z</time></trkpt><trkpt lat="44.3486318" lon="11.4712653"><ele>441.6</ele><time>2026-05-01T08:12:14.269Z</time></trkpt><trkpt lat="44.3486175" lon="11.4711156"><ele>441.8</ele><time>2026-05-01T08:12:15.269Z</time></trkpt><trkpt lat="44.3485845" lon="11.4709551"><ele>442.0</ele><time>2026-05-01T08:12:16.269Z</time></trkpt><trkpt lat="44.3485343" lon="11.470793"><ele>443.0</ele><time>2026-05-01T08:12:17.269Z</time></trkpt><trkpt lat="44.34847" lon="11.4706442"><ele>444.0</ele><time>2026-05-01T08:12:18.269Z</time></trkpt><trkpt lat="44.3483885" lon="11.4705108"><ele>445.0</ele><time>2026-05-01T08:12:19.269Z</time></trkpt><trkpt lat="44.3482952" lon="11.4703898"><ele>446.0</ele><time>2026-05-01T08:12:20.269Z</time></trkpt><trkpt lat="44.3481886" lon="11.4702762"><ele>446.5</ele><time>2026-05-01T08:12:21.269Z</time></trkpt><trkpt lat="44.3480845" lon="11.4701662"><ele>447.0</ele><time>2026-05-01T08:12:22.269Z</time></trkpt><trkpt lat="44.3479797" lon="11.4700534"><ele>447.5</ele><time>2026-05-01T08:12:23.269Z</time></trkpt><trkpt lat="44.3478858" lon="11.4699467"><ele>448.0</ele><time>2026-05-01T08:12:24.269Z</time></trkpt><trkpt lat="44.3478076" lon="11.4698399"><ele>448.0</ele><time>2026-05-01T08:12:25.269Z</time></trkpt><trkpt lat="44.3477495" lon="11.469722"><ele>447.99999999999994</ele><time>2026-05-01T08:12:26.269Z</time></trkpt><trkpt lat="44.3477224" lon="11.4696013"><ele>447.99999999999994</ele><time>2026-05-01T08:12:27.269Z</time></trkpt><trkpt lat="44.3477101" lon="11.4694614"><ele>448.0</ele><time>2026-05-01T08:12:28.269Z</time></trkpt><trkpt lat="44.3477139" lon="11.4693123"><ele>448.0</ele><time>2026-05-01T08:12:29.269Z</time></trkpt><trkpt lat="44.3477238" lon="11.4691518"><ele>448.5</ele><time>2026-05-01T08:12:30.269Z</time></trkpt><trkpt lat="44.3477405" lon="11.4689794"><ele>449.0</ele><time>2026-05-01T08:12:31.269Z</time></trkpt><trkpt lat="44.3477576" lon="11.4688094"><ele>449.5</ele><time>2026-05-01T08:12:32.269Z</time></trkpt><trkpt lat="44.3477712" lon="11.4686472"><ele>450.0</ele><time>2026-05-01T08:12:33.269Z</time></trkpt><trkpt lat="44.3477983" lon="11.4684953"><ele>449.2</ele><time>2026-05-01T08:12:34.269Z</time></trkpt><trkpt lat="44.3478467" lon="11.4683508"><ele>448.4</ele><time>2026-05-01T08:12:35.269Z</time></trkpt><trkpt lat="44.3479163" lon="11.4682263"><ele>447.6</ele><time>2026-05-01T08:12:36.269Z</time></trkpt><trkpt lat="44.3479778" lon="11.4681314"><ele>446.8</ele><time>2026-05-01T08:12:37.269Z</time></trkpt><trkpt lat="44.3480382" lon="11.4680209"><ele>446.0</ele><time>2026-05-01T08:12:38.269Z</time></trkpt><trkpt lat="44.3480846" lon="11.4678877"><ele>446.0</ele><time>2026-05-01T08:12:39.269Z</time></trkpt><trkpt lat="44.3481143" lon="11.4677692"><ele>446.0</ele><time>2026-05-01T08:12:40.269Z</time></trkpt><trkpt lat="44.3481491" lon="11.4676505"><ele>446.0</ele><time>2026-05-01T08:12:41.269Z</time></trkpt><trkpt lat="44.3482016" lon="11.46753"><ele>446.0</ele><time>2026-05-01T08:12:42.269Z</time></trkpt><trkpt lat="44.3482773" lon="11.4674194"><ele>446.0</ele><time>2026-05-01T08:12:43.269Z</time></trkpt><trkpt lat="44.3483546" lon="11.4673073"><ele>446.0</ele><time>2026-05-01T08:12:44.269Z</time></trkpt><trkpt lat="44.3484181" lon="11.4671971"><ele>446.0</ele><time>2026-05-01T08:12:45.269Z</time></trkpt><trkpt lat="44.3484587" lon="11.467071"><ele>446.0</ele><time>2026-05-01T08:12:46.27Z</time></trkpt><trkpt lat="44.348483" lon="11.4669342"><ele>446.0</ele><time>2026-05-01T08:12:47.27Z</time></trkpt><trkpt lat="44.3484935" lon="11.4667774"><ele>446.0</ele><time>2026-05-01T08:12:48.27Z</time></trkpt><trkpt lat="44.3484926" lon="11.4665918"><ele>442.3333333333333</ele><time>2026-05-01T08:12:49.27Z</time></trkpt><trkpt lat="44.3484945" lon="11.4664109"><ele>438.66666666666663</ele><time>2026-05-01T08:12:50.27Z</time></trkpt><trkpt lat="44.3484853" lon="11.4662176"><ele>435.0</ele><time>2026-05-01T08:12:51.27Z</time></trkpt><trkpt lat="44.348428" lon="11.4658438"><ele>434.75</ele><time>2026-05-01T08:12:53.27Z</time></trkpt><trkpt lat="44.3483889" lon="11.4656515"><ele>434.5</ele><time>2026-05-01T08:12:54.27Z</time></trkpt><trkpt lat="44.3483532" lon="11.4654566"><ele>434.25</ele><time>2026-05-01T08:12:55.27Z</time></trkpt><trkpt lat="44.3483161" lon="11.4652623"><ele>434.0</ele><time>2026-05-01T08:12:56.27Z</time></trkpt><trkpt lat="44.3482799" lon="11.4650732"><ele>432.79999999999995</ele><time>2026-05-01T08:12:57.27Z</time></trkpt><trkpt lat="44.3482424" lon="11.4649012"><ele>431.59999999999997</ele><time>2026-05-01T08:12:58.27Z</time></trkpt><trkpt lat="44.348202" lon="11.464746"><ele>430.4</ele><time>2026-05-01T08:12:59.27Z</time></trkpt><trkpt lat="44.3481697" lon="11.4646049"><ele>429.2</ele><time>2026-05-01T08:13:00.27Z</time></trkpt><trkpt lat="44.3481599" lon="11.4644732"><ele>428.0</ele><time>2026-05-01T08:13:01.27Z</time></trkpt><trkpt lat="44.3481792" lon="11.4643522"><ele>427.79999999999995</ele><time>2026-05-01T08:13:02.27Z</time></trkpt><trkpt lat="44.348214" lon="11.4642336"><ele>427.59999999999997</ele><time>2026-05-01T08:13:03.27Z</time></trkpt><trkpt lat="44.3482797" lon="11.4641094"><ele>427.40000000000003</ele><time>2026-05-01T08:13:04.27Z</time></trkpt><trkpt lat="44.3483516" lon="11.463984"><ele>427.20000000000005</ele><time>2026-05-01T08:13:05.27Z</time></trkpt><trkpt lat="44.3484141" lon="11.4638624"><ele>427.0</ele><time>2026-05-01T08:13:06.27Z</time></trkpt><trkpt lat="44.348456" lon="11.4637385"><ele>427.0</ele><time>2026-05-01T08:13:07.27Z</time></trkpt><trkpt lat="44.3484992" lon="11.4636064"><ele>427.0</ele><time>2026-05-01T08:13:08.27Z</time></trkpt><trkpt lat="44.3485317" lon="11.4634625"><ele>427.0</ele><time>2026-05-01T08:13:09.27Z</time></trkpt><trkpt lat="44.3485424" lon="11.4632966"><ele>427.0</ele><time>2026-05-01T08:13:10.271Z</time></trkpt><trkpt lat="44.348534" lon="11.4631284"><ele>427.0</ele><time>2026-05-01T08:13:11.27Z</time></trkpt><trkpt lat="44.3485114" lon="11.4629541"><ele>427.0</ele><time>2026-05-01T08:13:12.27Z</time></trkpt><trkpt lat="44.3484829" lon="11.4627869"><ele>427.0</ele><time>2026-05-01T08:13:13.27Z</time></trkpt><trkpt lat="44.3484461" lon="11.4626293"><ele>427.0</ele><time>2026-05-01T08:13:14.27Z</time></trkpt><trkpt lat="44.3484091" lon="11.4624662"><ele>428.5</ele><time>2026-05-01T08:13:15.27Z</time></trkpt><trkpt lat="44.3483752" lon="11.4622996"><ele>430.0</ele><time>2026-05-01T08:13:16.27Z</time></trkpt><trkpt lat="44.3483438" lon="11.46212"><ele>431.5</ele><time>2026-05-01T08:13:17.27Z</time></trkpt><trkpt lat="44.3483123" lon="11.4619298"><ele>433.0</ele><time>2026-05-01T08:13:18.27Z</time></trkpt><trkpt lat="44.3482797" lon="11.4617454"><ele>433.0</ele><time>2026-05-01T08:13:19.27Z</time></trkpt><trkpt lat="44.3482433" lon="11.4615717"><ele>433.0</ele><time>2026-05-01T08:13:20.27Z</time></trkpt><trkpt lat="44.3481922" lon="11.4614059"><ele>433.0</ele><time>2026-05-01T08:13:21.27Z</time></trkpt><trkpt lat="44.3481117" lon="11.46125"><ele>433.0</ele><time>2026-05-01T08:13:22.27Z</time></trkpt><trkpt lat="44.3479948" lon="11.4610938"><ele>430.0</ele><time>2026-05-01T08:13:23.27Z</time></trkpt><trkpt lat="44.3478617" lon="11.4609744"><ele>427.0</ele><time>2026-05-01T08:13:24.27Z</time></trkpt><trkpt lat="44.3477132" lon="11.4608486"><ele>424.0</ele><time>2026-05-01T08:13:25.27Z</time></trkpt><trkpt lat="44.3475663" lon="11.4607096"><ele>424.0</ele><time>2026-05-01T08:13:26.27Z</time></trkpt><trkpt lat="44.3474194" lon="11.460558"><ele>424.0</ele><time>2026-05-01T08:13:27.271Z</time></trkpt><trkpt lat="44.3472754" lon="11.460386"><ele>424.0</ele><time>2026-05-01T08:13:28.27Z</time></trkpt><trkpt lat="44.3471331" lon="11.460206"><ele>421.33333333333337</ele><time>2026-05-01T08:13:29.27Z</time></trkpt><trkpt lat="44.3469965" lon="11.4600226"><ele>418.66666666666663</ele><time>2026-05-01T08:13:30.27Z</time></trkpt><trkpt lat="44.3468659" lon="11.4598308"><ele>416.0</ele><time>2026-05-01T08:13:31.27Z</time></trkpt><trkpt lat="44.3467384" lon="11.4596435"><ele>418.0</ele><time>2026-05-01T08:13:32.27Z</time></trkpt><trkpt lat="44.3466048" lon="11.4594751"><ele>420.0</ele><time>2026-05-01T08:13:33.27Z</time></trkpt><trkpt lat="44.3464557" lon="11.4593258"><ele>422.0</ele><time>2026-05-01T08:13:34.27Z</time></trkpt><trkpt lat="44.3463047" lon="11.4591942"><ele>423.66666666666663</ele><time>2026-05-01T08:13:35.27Z</time></trkpt><trkpt lat="44.3461652" lon="11.4590667"><ele>425.33333333333337</ele><time>2026-05-01T08:13:36.27Z</time></trkpt><trkpt lat="44.3460334" lon="11.4589337"><ele>427.0</ele><time>2026-05-01T08:13:37.27Z</time></trkpt><trkpt lat="44.3459151" lon="11.4588083"><ele>427.6</ele><time>2026-05-01T08:13:38.27Z</time></trkpt><trkpt lat="44.3458114" lon="11.4586919"><ele>428.20000000000005</ele><time>2026-05-01T08:13:39.27Z</time></trkpt><trkpt lat="44.3457483" lon="11.4585859"><ele>428.8</ele><time>2026-05-01T08:13:40.27Z</time></trkpt><trkpt lat="44.3457099" lon="11.4584747"><ele>429.4</ele><time>2026-05-01T08:13:41.27Z</time></trkpt><trkpt lat="44.3456884" lon="11.45834"><ele>430.0</ele><time>2026-05-01T08:13:42.271Z</time></trkpt><trkpt lat="44.3456682" lon="11.4581802"><ele>430.0</ele><time>2026-05-01T08:13:43.271Z</time></trkpt><trkpt lat="44.3456457" lon="11.4580074"><ele>430.0</ele><time>2026-05-01T08:13:44.271Z</time></trkpt><trkpt lat="44.3456116" lon="11.4578317"><ele>430.0</ele><time>2026-05-01T08:13:45.271Z</time></trkpt><trkpt lat="44.3455737" lon="11.4576645"><ele>430.0</ele><time>2026-05-01T08:13:46.271Z</time></trkpt><trkpt lat="44.3455192" lon="11.4575348"><ele>430.8</ele><time>2026-05-01T08:13:47.271Z</time></trkpt><trkpt lat="44.3454426" lon="11.4574361"><ele>431.6</ele><time>2026-05-01T08:13:48.271Z</time></trkpt><trkpt lat="44.3453514" lon="11.4573304"><ele>432.4</ele><time>2026-05-01T08:13:49.271Z</time></trkpt><trkpt lat="44.3452724" lon="11.457209"><ele>433.2</ele><time>2026-05-01T08:13:50.271Z</time></trkpt><trkpt lat="44.3452346" lon="11.457069"><ele>434.0</ele><time>2026-05-01T08:13:51.271Z</time></trkpt><trkpt lat="44.3452452" lon="11.456923"><ele>436.0</ele><time>2026-05-01T08:13:52.271Z</time></trkpt><trkpt lat="44.3452661" lon="11.4568121"><ele>438.0</ele><time>2026-05-01T08:13:53.271Z</time></trkpt><trkpt lat="44.3452957" lon="11.4566843"><ele>440.0</ele><time>2026-05-01T08:13:54.271Z</time></trkpt><trkpt lat="44.3453142" lon="11.4565491"><ele>442.0</ele><time>2026-05-01T08:13:55.271Z</time></trkpt><trkpt lat="44.3453271" lon="11.4563964"><ele>444.0</ele><time>2026-05-01T08:13:56.271Z</time></trkpt><trkpt lat="44.3453337" lon="11.4562314"><ele>443.75</ele><time>2026-05-01T08:13:57.271Z</time></trkpt><trkpt lat="44.345354" lon="11.4560773"><ele>443.5</ele><time>2026-05-01T08:13:58.271Z</time></trkpt><trkpt lat="44.345411" lon="11.4559372"><ele>443.25</ele><time>2026-05-01T08:13:59.271Z</time></trkpt><trkpt lat="44.3455108" lon="11.4558266"><ele>443.0</ele><time>2026-05-01T08:14:00.271Z</time></trkpt><trkpt lat="44.3456179" lon="11.4557475"><ele>443.0</ele><time>2026-05-01T08:14:01.271Z</time></trkpt><trkpt lat="44.345703" lon="11.455647"><ele>442.99999999999994</ele><time>2026-05-01T08:14:02.271Z</time></trkpt><trkpt lat="44.3457674" lon="11.4555347"><ele>442.99999999999994</ele><time>2026-05-01T08:14:03.271Z</time></trkpt><trkpt lat="44.3458223" lon="11.4554121"><ele>443.0</ele><time>2026-05-01T08:14:04.271Z</time></trkpt><trkpt lat="44.3458288" lon="11.4552497"><ele>443.0</ele><time>2026-05-01T08:14:05.271Z</time></trkpt><trkpt lat="44.3458234" lon="11.4551255"><ele>444.2</ele><time>2026-05-01T08:14:06.271Z</time></trkpt><trkpt lat="44.3457651" lon="11.4550117"><ele>445.4</ele><time>2026-05-01T08:14:07.271Z</time></trkpt><trkpt lat="44.3456972" lon="11.4549405"><ele>446.59999999999997</ele><time>2026-05-01T08:14:08.271Z</time></trkpt><trkpt lat="44.3456234" lon="11.4548733"><ele>447.79999999999995</ele><time>2026-05-01T08:14:09.271Z</time></trkpt><trkpt lat="44.3455446" lon="11.4548076"><ele>449.0</ele><time>2026-05-01T08:14:10.271Z</time></trkpt><trkpt lat="44.3454584" lon="11.4547319"><ele>451.0</ele><time>2026-05-01T08:14:11.271Z</time></trkpt><trkpt lat="44.3453715" lon="11.4546468"><ele>453.0</ele><time>2026-05-01T08:14:12.271Z</time></trkpt><trkpt lat="44.3452815" lon="11.4545527"><ele>455.0</ele><time>2026-05-01T08:14:13.271Z</time></trkpt><trkpt lat="44.3451897" lon="11.4544341"><ele>457.0</ele><time>2026-05-01T08:14:14.271Z</time></trkpt><trkpt lat="44.3451204" lon="11.454304"><ele>457.0</ele><time>2026-05-01T08:14:15.271Z</time></trkpt><trkpt lat="44.3450665" lon="11.4541542"><ele>457.0</ele><time>2026-05-01T08:14:16.271Z</time></trkpt><trkpt lat="44.3450318" lon="11.4539877"><ele>457.0</ele><time>2026-05-01T08:14:17.271Z</time></trkpt><trkpt lat="44.3450107" lon="11.4538094"><ele>457.0</ele><time>2026-05-01T08:14:18.271Z</time></trkpt><trkpt lat="44.3449801" lon="11.4536264"><ele>457.25</ele><time>2026-05-01T08:14:19.271Z</time></trkpt><trkpt lat="44.3449218" lon="11.4534448"><ele>457.5</ele><time>2026-05-01T08:14:20.271Z</time></trkpt><trkpt lat="44.3448614" lon="11.453254"><ele>457.75</ele><time>2026-05-01T08:14:21.272Z</time></trkpt><trkpt lat="44.3447967" lon="11.4530713"><ele>458.0</ele><time>2026-05-01T08:14:22.271Z</time></trkpt><trkpt lat="44.3447255" lon="11.4528918"><ele>459.75</ele><time>2026-05-01T08:14:23.271Z</time></trkpt><trkpt lat="44.3446554" lon="11.4527278"><ele>461.5</ele><time>2026-05-01T08:14:24.271Z</time></trkpt><trkpt lat="44.3445908" lon="11.452578"><ele>463.25</ele><time>2026-05-01T08:14:25.271Z</time></trkpt><trkpt lat="44.3445242" lon="11.4524261"><ele>465.0</ele><time>2026-05-01T08:14:26.271Z</time></trkpt><trkpt lat="44.344456" lon="11.4522964"><ele>465.0</ele><time>2026-05-01T08:14:27.271Z</time></trkpt><trkpt lat="44.3443792" lon="11.4521971"><ele>465.0</ele><time>2026-05-01T08:14:28.271Z</time></trkpt><trkpt lat="44.3442829" lon="11.4521257"><ele>465.0</ele><time>2026-05-01T08:14:29.271Z</time></trkpt><trkpt lat="44.3441767" lon="11.452078"><ele>465.0</ele><time>2026-05-01T08:14:30.272Z</time></trkpt><trkpt lat="44.3440912" lon="11.4520239"><ele>465.0</ele><time>2026-05-01T08:14:31.271Z</time></trkpt><trkpt lat="44.3440306" lon="11.4519353"><ele>467.2</ele><time>2026-05-01T08:14:32.271Z</time></trkpt><trkpt lat="44.3439873" lon="11.4518155"><ele>469.4</ele><time>2026-05-01T08:14:33.271Z</time></trkpt><trkpt lat="44.3439619" lon="11.4516972"><ele>471.6</ele><time>2026-05-01T08:14:34.271Z</time></trkpt><trkpt lat="44.3439568" lon="11.451596"><ele>473.8</ele><time>2026-05-01T08:14:35.271Z</time></trkpt><trkpt lat="44.3440185" lon="11.4514903"><ele>476.0</ele><time>2026-05-01T08:14:37.272Z</time></trkpt><trkpt lat="44.344141" lon="11.4514986"><ele>476.0</ele><time>2026-05-01T08:14:39.272Z</time></trkpt><trkpt lat="44.3442018" lon="11.4515594"><ele>476.0</ele><time>2026-05-01T08:14:40.272Z</time></trkpt><trkpt lat="44.3442465" lon="11.4516447"><ele>476.0</ele><time>2026-05-01T08:14:41.272Z</time></trkpt><trkpt lat="44.3442977" lon="11.4517253"><ele>476.0</ele><time>2026-05-01T08:14:42.272Z</time></trkpt><trkpt lat="44.3443768" lon="11.4517772"><ele>476.0</ele><time>2026-05-01T08:14:43.272Z</time></trkpt><trkpt lat="44.3445792" lon="11.451793"><ele>475.99999999999994</ele><time>2026-05-01T08:14:45.272Z</time></trkpt><trkpt lat="44.3446643" lon="11.4517943"><ele>476.0</ele><time>2026-05-01T08:14:46.272Z</time></trkpt><trkpt lat="44.3447378" lon="11.4517735"><ele>476.0</ele><time>2026-05-01T08:14:47.272Z</time></trkpt><trkpt lat="44.3448065" lon="11.4517231"><ele>476.0</ele><time>2026-05-01T08:14:48.272Z</time></trkpt><trkpt lat="44.3448711" lon="11.4516561"><ele>475.99999999999994</ele><time>2026-05-01T08:14:49.272Z</time></trkpt><trkpt lat="44.344934" lon="11.4515792"><ele>476.0</ele><time>2026-05-01T08:14:50.272Z</time></trkpt><trkpt lat="44.344993" lon="11.4514944"><ele>476.99999999999994</ele><time>2026-05-01T08:14:51.272Z</time></trkpt><trkpt lat="44.3450421" lon="11.4514056"><ele>478.0</ele><time>2026-05-01T08:14:52.272Z</time></trkpt><trkpt lat="44.345079" lon="11.4513135"><ele>479.0</ele><time>2026-05-01T08:14:53.272Z</time></trkpt><trkpt lat="44.345102" lon="11.4512118"><ele>480.0</ele><time>2026-05-01T08:14:54.272Z</time></trkpt><trkpt lat="44.3451094" lon="11.4510975"><ele>480.99999999999994</ele><time>2026-05-01T08:14:55.272Z</time></trkpt><trkpt lat="44.3451151" lon="11.4509774"><ele>482.0</ele><time>2026-05-01T08:14:56.272Z</time></trkpt><trkpt lat="44.3451244" lon="11.4508471"><ele>484.8</ele><time>2026-05-01T08:14:57.272Z</time></trkpt><trkpt lat="44.3451463" lon="11.4507138"><ele>487.6</ele><time>2026-05-01T08:14:58.272Z</time></trkpt><trkpt lat="44.3451924" lon="11.4505835"><ele>490.40000000000003</ele><time>2026-05-01T08:14:59.272Z</time></trkpt><trkpt lat="44.345261" lon="11.4504626"><ele>493.20000000000005</ele><time>2026-05-01T08:15:00.272Z</time></trkpt><trkpt lat="44.3453357" lon="11.4503481"><ele>496.0</ele><time>2026-05-01T08:15:01.272Z</time></trkpt><trkpt lat="44.3454006" lon="11.4502165"><ele>496.25</ele><time>2026-05-01T08:15:02.272Z</time></trkpt><trkpt lat="44.3454577" lon="11.4500901"><ele>496.5</ele><time>2026-05-01T08:15:03.272Z</time></trkpt><trkpt lat="44.3455201" lon="11.4499654"><ele>496.75</ele><time>2026-05-01T08:15:04.272Z</time></trkpt><trkpt lat="44.3456115" lon="11.4498571"><ele>497.0</ele><time>2026-05-01T08:15:05.272Z</time></trkpt><trkpt lat="44.3457264" lon="11.4497859"><ele>497.0</ele><time>2026-05-01T08:15:06.272Z</time></trkpt><trkpt lat="44.3458588" lon="11.4497531"><ele>497.0</ele><time>2026-05-01T08:15:07.272Z</time></trkpt><trkpt lat="44.345996" lon="11.4497614"><ele>497.0</ele><time>2026-05-01T08:15:08.272Z</time></trkpt><trkpt lat="44.3461254" lon="11.4497846"><ele>497.0</ele><time>2026-05-01T08:15:09.272Z</time></trkpt><trkpt lat="44.3462563" lon="11.449801"><ele>497.0</ele><time>2026-05-01T08:15:10.272Z</time></trkpt><trkpt lat="44.3463778" lon="11.4497844"><ele>497.0</ele><time>2026-05-01T08:15:11.272Z</time></trkpt><trkpt lat="44.3464949" lon="11.4497298"><ele>497.0</ele><time>2026-05-01T08:15:12.272Z</time></trkpt><trkpt lat="44.3466115" lon="11.4496623"><ele>497.0</ele><time>2026-05-01T08:15:13.272Z</time></trkpt><trkpt lat="44.3467148" lon="11.4496014"><ele>497.6</ele><time>2026-05-01T08:15:14.272Z</time></trkpt><trkpt lat="44.3468099" lon="11.4495526"><ele>498.20000000000005</ele><time>2026-05-01T08:15:15.272Z</time></trkpt><trkpt lat="44.3469027" lon="11.4495274"><ele>498.8</ele><time>2026-05-01T08:15:16.272Z</time></trkpt><trkpt lat="44.3470032" lon="11.449525"><ele>499.4</ele><time>2026-05-01T08:15:17.272Z</time></trkpt><trkpt lat="44.3471068" lon="11.4495656"><ele>500.0</ele><time>2026-05-01T08:15:18.272Z</time></trkpt><trkpt lat="44.3471751" lon="11.4496528"><ele>497.0</ele><time>2026-05-01T08:15:19.272Z</time></trkpt><trkpt lat="44.3472455" lon="11.449753"><ele>494.0</ele><time>2026-05-01T08:15:20.273Z</time></trkpt><trkpt lat="44.3473155" lon="11.4499075"><ele>491.0</ele><time>2026-05-01T08:15:21.272Z</time></trkpt><trkpt lat="44.3473947" lon="11.4500467"><ele>488.0</ele><time>2026-05-01T08:15:22.272Z</time></trkpt><trkpt lat="44.3474925" lon="11.4501578"><ele>488.0</ele><time>2026-05-01T08:15:23.272Z</time></trkpt><trkpt lat="44.347605" lon="11.4502523"><ele>488.0</ele><time>2026-05-01T08:15:24.272Z</time></trkpt><trkpt lat="44.347739" lon="11.4503303"><ele>488.0</ele><time>2026-05-01T08:15:25.272Z</time></trkpt><trkpt lat="44.347873" lon="11.4504165"><ele>488.0</ele><time>2026-05-01T08:15:26.272Z</time></trkpt><trkpt lat="44.348145" lon="11.4506195"><ele>485.0</ele><time>2026-05-01T08:15:28.272Z</time></trkpt><trkpt lat="44.3482796" lon="11.4506963"><ele>482.0</ele><time>2026-05-01T08:15:29.272Z</time></trkpt><trkpt lat="44.3484117" lon="11.4507504"><ele>479.0</ele><time>2026-05-01T08:15:30.272Z</time></trkpt><trkpt lat="44.3485499" lon="11.4507941"><ele>476.0</ele><time>2026-05-01T08:15:31.272Z</time></trkpt><trkpt lat="44.3486907" lon="11.4508378"><ele>476.0</ele><time>2026-05-01T08:15:32.273Z</time></trkpt><trkpt lat="44.3488327" lon="11.450881"><ele>476.0</ele><time>2026-05-01T08:15:33.273Z</time></trkpt><trkpt lat="44.3489718" lon="11.4509269"><ele>476.0</ele><time>2026-05-01T08:15:34.273Z</time></trkpt><trkpt lat="44.3491118" lon="11.450978"><ele>476.0</ele><time>2026-05-01T08:15:35.273Z</time></trkpt><trkpt lat="44.3492571" lon="11.4510294"><ele>475.0</ele><time>2026-05-01T08:15:36.273Z</time></trkpt><trkpt lat="44.3494132" lon="11.4510769"><ele>474.0</ele><time>2026-05-01T08:15:37.273Z</time></trkpt><trkpt lat="44.349577" lon="11.4511268"><ele>473.0</ele><time>2026-05-01T08:15:38.273Z</time></trkpt><trkpt lat="44.3497461" lon="11.4511823"><ele>470.66666666666663</ele><time>2026-05-01T08:15:39.273Z</time></trkpt><trkpt lat="44.3499205" lon="11.4512478"><ele>468.33333333333337</ele><time>2026-05-01T08:15:40.273Z</time></trkpt><trkpt lat="44.350096" lon="11.4513239"><ele>466.0</ele><time>2026-05-01T08:15:41.273Z</time></trkpt><trkpt lat="44.3502697" lon="11.4514163"><ele>466.0</ele><time>2026-05-01T08:15:42.273Z</time></trkpt><trkpt lat="44.3504295" lon="11.4515157"><ele>466.0</ele><time>2026-05-01T08:15:43.273Z</time></trkpt><trkpt lat="44.3505781" lon="11.4516024"><ele>466.0</ele><time>2026-05-01T08:15:44.273Z</time></trkpt><trkpt lat="44.3507229" lon="11.4516595"><ele>466.75</ele><time>2026-05-01T08:15:45.273Z</time></trkpt><trkpt lat="44.3508636" lon="11.451682"><ele>467.5</ele><time>2026-05-01T08:15:46.273Z</time></trkpt><trkpt lat="44.3510038" lon="11.4516704"><ele>468.25</ele><time>2026-05-01T08:15:47.273Z</time></trkpt><trkpt lat="44.3511486" lon="11.4516358"><ele>469.0</ele><time>2026-05-01T08:15:48.273Z</time></trkpt><trkpt lat="44.3512976" lon="11.4515957"><ele>469.5</ele><time>2026-05-01T08:15:49.273Z</time></trkpt><trkpt lat="44.3514478" lon="11.4515485"><ele>470.0</ele><time>2026-05-01T08:15:50.273Z</time></trkpt><trkpt lat="44.3515944" lon="11.4515056"><ele>470.5</ele><time>2026-05-01T08:15:51.273Z</time></trkpt><trkpt lat="44.3517304" lon="11.4514755"><ele>471.0</ele><time>2026-05-01T08:15:52.273Z</time></trkpt><trkpt lat="44.3518625" lon="11.4514642"><ele>471.0</ele><time>2026-05-01T08:15:53.273Z</time></trkpt><trkpt lat="44.3519953" lon="11.451467"><ele>471.0</ele><time>2026-05-01T08:15:54.273Z</time></trkpt><trkpt lat="44.3521343" lon="11.451493"><ele>471.0</ele><time>2026-05-01T08:15:55.273Z</time></trkpt><trkpt lat="44.3522812" lon="11.4515301"><ele>471.0</ele><time>2026-05-01T08:15:56.273Z</time></trkpt><trkpt lat="44.3524254" lon="11.4515687"><ele>471.75</ele><time>2026-05-01T08:15:57.273Z</time></trkpt><trkpt lat="44.3525729" lon="11.4515937"><ele>472.5</ele><time>2026-05-01T08:15:58.274Z</time></trkpt><trkpt lat="44.352717" lon="11.4515969"><ele>473.25</ele><time>2026-05-01T08:15:59.273Z</time></trkpt><trkpt lat="44.3528613" lon="11.4515939"><ele>474.0</ele><time>2026-05-01T08:16:00.273Z</time></trkpt><trkpt lat="44.3530055" lon="11.4515812"><ele>474.0</ele><time>2026-05-01T08:16:01.273Z</time></trkpt><trkpt lat="44.3531424" lon="11.451553"><ele>474.0</ele><time>2026-05-01T08:16:02.273Z</time></trkpt><trkpt lat="44.3532787" lon="11.4515142"><ele>474.0</ele><time>2026-05-01T08:16:03.273Z</time></trkpt><trkpt lat="44.3534145" lon="11.4514959"><ele>474.0</ele><time>2026-05-01T08:16:04.273Z</time></trkpt><trkpt lat="44.3535499" lon="11.4515089"><ele>474.0</ele><time>2026-05-01T08:16:05.273Z</time></trkpt><trkpt lat="44.3536684" lon="11.451551"><ele>474.0</ele><time>2026-05-01T08:16:06.273Z</time></trkpt><trkpt lat="44.353755" lon="11.4516198"><ele>474.0</ele><time>2026-05-01T08:16:07.273Z</time></trkpt><trkpt lat="44.3538196" lon="11.4516941"><ele>474.0</ele><time>2026-05-01T08:16:08.273Z</time></trkpt><trkpt lat="44.3538772" lon="11.4517343"><ele>474.0</ele><time>2026-05-01T08:16:09.273Z</time></trkpt><trkpt lat="44.3540112" lon="11.4516292"><ele>473.5</ele><time>2026-05-01T08:16:11.273Z</time></trkpt><trkpt lat="44.3540772" lon="11.4515085"><ele>473.0</ele><time>2026-05-01T08:16:12.273Z</time></trkpt><trkpt lat="44.3541397" lon="11.4513438"><ele>472.5</ele><time>2026-05-01T08:16:13.273Z</time></trkpt><trkpt lat="44.3541868" lon="11.4511716"><ele>472.0</ele><time>2026-05-01T08:16:14.273Z</time></trkpt><trkpt lat="44.3542094" lon="11.4509845"><ele>472.0</ele><time>2026-05-01T08:16:15.273Z</time></trkpt><trkpt lat="44.3542138" lon="11.4507984"><ele>472.0</ele><time>2026-05-01T08:16:16.273Z</time></trkpt><trkpt lat="44.3542431" lon="11.4506592"><ele>472.0</ele><time>2026-05-01T08:16:17.273Z</time></trkpt><trkpt lat="44.3543086" lon="11.4505415"><ele>472.0</ele><time>2026-05-01T08:16:18.273Z</time></trkpt><trkpt lat="44.3543954" lon="11.4504417"><ele>471.25</ele><time>2026-05-01T08:16:19.273Z</time></trkpt><trkpt lat="44.3545101" lon="11.4503594"><ele>470.5</ele><time>2026-05-01T08:16:20.273Z</time></trkpt><trkpt lat="44.3546302" lon="11.450289"><ele>469.75</ele><time>2026-05-01T08:16:21.273Z</time></trkpt><trkpt lat="44.3547651" lon="11.4502258"><ele>469.0</ele><time>2026-05-01T08:16:22.273Z</time></trkpt><trkpt lat="44.3549009" lon="11.4501653"><ele>467.25</ele><time>2026-05-01T08:16:23.273Z</time></trkpt><trkpt lat="44.3550317" lon="11.4501103"><ele>465.5</ele><time>2026-05-01T08:16:24.273Z</time></trkpt><trkpt lat="44.3551664" lon="11.4500567"><ele>463.75</ele><time>2026-05-01T08:16:25.273Z</time></trkpt><trkpt lat="44.3552803" lon="11.4500124"><ele>462.0</ele><time>2026-05-01T08:16:26.273Z</time></trkpt><trkpt lat="44.3553794" lon="11.4499768"><ele>462.0</ele><time>2026-05-01T08:16:27.274Z</time></trkpt><trkpt lat="44.355482" lon="11.449955"><ele>462.00000000000006</ele><time>2026-05-01T08:16:28.274Z</time></trkpt><trkpt lat="44.355586" lon="11.4499698"><ele>462.00000000000006</ele><time>2026-05-01T08:16:29.274Z</time></trkpt><trkpt lat="44.3556926" lon="11.450043"><ele>462.0</ele><time>2026-05-01T08:16:30.274Z</time></trkpt><trkpt lat="44.3557893" lon="11.4501432"><ele>462.0</ele><time>2026-05-01T08:16:31.274Z</time></trkpt><trkpt lat="44.3558662" lon="11.4502524"><ele>459.40000000000003</ele><time>2026-05-01T08:16:32.274Z</time></trkpt><trkpt lat="44.3559409" lon="11.4503513"><ele>456.80000000000007</ele><time>2026-05-01T08:16:33.274Z</time></trkpt><trkpt lat="44.356025" lon="11.4504201"><ele>454.2</ele><time>2026-05-01T08:16:34.274Z</time></trkpt><trkpt lat="44.3561245" lon="11.4504489"><ele>451.6</ele><time>2026-05-01T08:16:35.274Z</time></trkpt><trkpt lat="44.3562237" lon="11.4504382"><ele>449.0</ele><time>2026-05-01T08:16:36.274Z</time></trkpt><trkpt lat="44.3563238" lon="11.4503917"><ele>444.75</ele><time>2026-05-01T08:16:37.274Z</time></trkpt><trkpt lat="44.3564328" lon="11.4503226"><ele>440.5</ele><time>2026-05-01T08:16:38.274Z</time></trkpt><trkpt lat="44.3565527" lon="11.4502702"><ele>436.25</ele><time>2026-05-01T08:16:39.274Z</time></trkpt><trkpt lat="44.3566742" lon="11.4502801"><ele>432.0</ele><time>2026-05-01T08:16:40.274Z</time></trkpt><trkpt lat="44.3568064" lon="11.4503374"><ele>432.0</ele><time>2026-05-01T08:16:41.274Z</time></trkpt><trkpt lat="44.3569429" lon="11.4504165"><ele>432.0</ele><time>2026-05-01T08:16:42.274Z</time></trkpt><trkpt lat="44.3570783" lon="11.4505123"><ele>432.0</ele><time>2026-05-01T08:16:43.274Z</time></trkpt><trkpt lat="44.3572218" lon="11.4506192"><ele>429.75</ele><time>2026-05-01T08:16:44.274Z</time></trkpt><trkpt lat="44.357364" lon="11.4507027"><ele>427.5</ele><time>2026-05-01T08:16:45.274Z</time></trkpt><trkpt lat="44.3575068" lon="11.4507457"><ele>425.25</ele><time>2026-05-01T08:16:46.274Z</time></trkpt><trkpt lat="44.3576526" lon="11.4507489"><ele>423.0</ele><time>2026-05-01T08:16:47.274Z</time></trkpt><trkpt lat="44.3577899" lon="11.4507123"><ele>423.0</ele><time>2026-05-01T08:16:48.274Z</time></trkpt><trkpt lat="44.3579152" lon="11.4506696"><ele>423.0</ele><time>2026-05-01T08:16:49.274Z</time></trkpt><trkpt lat="44.3580312" lon="11.4506137"><ele>423.0</ele><time>2026-05-01T08:16:50.274Z</time></trkpt><trkpt lat="44.3581496" lon="11.4505235"><ele>423.0</ele><time>2026-05-01T08:16:51.274Z</time></trkpt><trkpt lat="44.3582729" lon="11.4504193"><ele>422.75</ele><time>2026-05-01T08:16:52.274Z</time></trkpt><trkpt lat="44.3583893" lon="11.4503131"><ele>422.5</ele><time>2026-05-01T08:16:53.274Z</time></trkpt><trkpt lat="44.3584991" lon="11.4501956"><ele>422.25</ele><time>2026-05-01T08:16:54.274Z</time></trkpt><trkpt lat="44.358592" lon="11.4500579"><ele>422.0</ele><time>2026-05-01T08:16:55.274Z</time></trkpt><trkpt lat="44.3586714" lon="11.449897"><ele>422.0</ele><time>2026-05-01T08:16:56.274Z</time></trkpt><trkpt lat="44.3587398" lon="11.4497352"><ele>422.0</ele><time>2026-05-01T08:16:57.274Z</time></trkpt><trkpt lat="44.3587925" lon="11.4495673"><ele>422.0</ele><time>2026-05-01T08:16:58.274Z</time></trkpt><trkpt lat="44.3588296" lon="11.449395"><ele>422.0</ele><time>2026-05-01T08:16:59.274Z</time></trkpt><trkpt lat="44.3588401" lon="11.4492277"><ele>420.8</ele><time>2026-05-01T08:17:00.274Z</time></trkpt><trkpt lat="44.358846" lon="11.449065"><ele>419.6</ele><time>2026-05-01T08:17:01.274Z</time></trkpt><trkpt lat="44.3588788" lon="11.4489156"><ele>418.40000000000003</ele><time>2026-05-01T08:17:02.274Z</time></trkpt><trkpt lat="44.3589485" lon="11.4488033"><ele>417.20000000000005</ele><time>2026-05-01T08:17:03.274Z</time></trkpt><trkpt lat="44.3590472" lon="11.4487463"><ele>416.0</ele><time>2026-05-01T08:17:04.274Z</time></trkpt><trkpt lat="44.3591696" lon="11.4487237"><ele>412.75</ele><time>2026-05-01T08:17:05.274Z</time></trkpt><trkpt lat="44.3593078" lon="11.4487268"><ele>409.5</ele><time>2026-05-01T08:17:06.274Z</time></trkpt><trkpt lat="44.3594505" lon="11.4487362"><ele>406.25</ele><time>2026-05-01T08:17:07.274Z</time></trkpt><trkpt lat="44.3595893" lon="11.4487326"><ele>403.0</ele><time>2026-05-01T08:17:08.274Z</time></trkpt><trkpt lat="44.3597195" lon="11.4487127"><ele>402.75</ele><time>2026-05-01T08:17:09.274Z</time></trkpt><trkpt lat="44.3598506" lon="11.44867"><ele>402.5</ele><time>2026-05-01T08:17:10.274Z</time></trkpt><trkpt lat="44.3599745" lon="11.4485983"><ele>402.25</ele><time>2026-05-01T08:17:11.274Z</time></trkpt><trkpt lat="44.3601082" lon="11.4484924"><ele>402.0</ele><time>2026-05-01T08:17:12.274Z</time></trkpt><trkpt lat="44.3602497" lon="11.4483626"><ele>402.0</ele><time>2026-05-01T08:17:13.274Z</time></trkpt><trkpt lat="44.3603913" lon="11.4482186"><ele>402.0</ele><time>2026-05-01T08:17:14.274Z</time></trkpt><trkpt lat="44.3607244" lon="11.4479762"><ele>399.0</ele><time>2026-05-01T08:17:16.274Z</time></trkpt><trkpt lat="44.3608988" lon="11.447856"><ele>396.0</ele><time>2026-05-01T08:17:17.274Z</time></trkpt><trkpt lat="44.3610758" lon="11.4477289"><ele>393.0</ele><time>2026-05-01T08:17:18.274Z</time></trkpt><trkpt lat="44.3612487" lon="11.4476053"><ele>394.66666666666663</ele><time>2026-05-01T08:17:19.274Z</time></trkpt><trkpt lat="44.3614175" lon="11.4474861"><ele>396.3333333333333</ele><time>2026-05-01T08:17:20.274Z</time></trkpt><trkpt lat="44.3615847" lon="11.4473722"><ele>398.0</ele><time>2026-05-01T08:17:21.274Z</time></trkpt><trkpt lat="44.3617392" lon="11.4472667"><ele>398.0</ele><time>2026-05-01T08:17:22.275Z</time></trkpt><trkpt lat="44.3618784" lon="11.4471637"><ele>398.0</ele><time>2026-05-01T08:17:23.275Z</time></trkpt><trkpt lat="44.3620056" lon="11.447046"><ele>398.0</ele><time>2026-05-01T08:17:24.275Z</time></trkpt><trkpt lat="44.3621241" lon="11.4469193"><ele>397.5</ele><time>2026-05-01T08:17:25.275Z</time></trkpt><trkpt lat="44.3622176" lon="11.4467847"><ele>397.0</ele><time>2026-05-01T08:17:26.275Z</time></trkpt><trkpt lat="44.362294" lon="11.4466529"><ele>396.5</ele><time>2026-05-01T08:17:27.275Z</time></trkpt><trkpt lat="44.3623735" lon="11.4465417"><ele>396.0</ele><time>2026-05-01T08:17:28.275Z</time></trkpt><trkpt lat="44.362475" lon="11.4464642"><ele>396.0</ele><time>2026-05-01T08:17:29.275Z</time></trkpt><trkpt lat="44.3626147" lon="11.4464186"><ele>396.0</ele><time>2026-05-01T08:17:30.275Z</time></trkpt><trkpt lat="44.3627504" lon="11.4463646"><ele>396.0</ele><time>2026-05-01T08:17:31.275Z</time></trkpt><trkpt lat="44.3628799" lon="11.4462683"><ele>396.0</ele><time>2026-05-01T08:17:32.275Z</time></trkpt><trkpt lat="44.3630012" lon="11.4461271"><ele>392.0</ele><time>2026-05-01T08:17:33.275Z</time></trkpt><trkpt lat="44.3631247" lon="11.4459781"><ele>388.0</ele><time>2026-05-01T08:17:34.275Z</time></trkpt><trkpt lat="44.3632493" lon="11.4458185"><ele>384.0</ele><time>2026-05-01T08:17:35.275Z</time></trkpt><trkpt lat="44.3633768" lon="11.4456694"><ele>384.0</ele><time>2026-05-01T08:17:36.275Z</time></trkpt><trkpt lat="44.3635048" lon="11.4455158"><ele>384.0</ele><time>2026-05-01T08:17:37.275Z</time></trkpt><trkpt lat="44.3636305" lon="11.4453594"><ele>384.0</ele><time>2026-05-01T08:17:38.275Z</time></trkpt><trkpt lat="44.3637519" lon="11.4452028"><ele>385.33333333333337</ele><time>2026-05-01T08:17:39.275Z</time></trkpt><trkpt lat="44.3638659" lon="11.4450464"><ele>386.6666666666667</ele><time>2026-05-01T08:17:40.275Z</time></trkpt><trkpt lat="44.3639718" lon="11.444889"><ele>388.0</ele><time>2026-05-01T08:17:41.275Z</time></trkpt><trkpt lat="44.3640791" lon="11.4447501"><ele>388.0</ele><time>2026-05-01T08:17:42.275Z</time></trkpt><trkpt lat="44.3641862" lon="11.4446557"><ele>388.0</ele><time>2026-05-01T08:17:43.275Z</time></trkpt><trkpt lat="44.364288" lon="11.4446114"><ele>388.0</ele><time>2026-05-01T08:17:44.275Z</time></trkpt><trkpt lat="44.3643664" lon="11.4445711"><ele>388.0</ele><time>2026-05-01T08:17:45.275Z</time></trkpt><trkpt lat="44.3644171" lon="11.4445068"><ele>388.0</ele><time>2026-05-01T08:17:46.275Z</time></trkpt><trkpt lat="44.3644552" lon="11.4443907"><ele>388.2</ele><time>2026-05-01T08:17:47.275Z</time></trkpt><trkpt lat="44.3644828" lon="11.444248"><ele>388.4</ele><time>2026-05-01T08:17:48.275Z</time></trkpt><trkpt lat="44.3644989" lon="11.4440819"><ele>388.59999999999997</ele><time>2026-05-01T08:17:49.275Z</time></trkpt><trkpt lat="44.3645247" lon="11.4439267"><ele>388.79999999999995</ele><time>2026-05-01T08:17:50.275Z</time></trkpt><trkpt lat="44.3645586" lon="11.443786"><ele>389.0</ele><time>2026-05-01T08:17:51.275Z</time></trkpt><trkpt lat="44.3645844" lon="11.4436659"><ele>389.0</ele><time>2026-05-01T08:17:52.275Z</time></trkpt><trkpt lat="44.3645852" lon="11.4435493"><ele>389.0</ele><time>2026-05-01T08:17:53.275Z</time></trkpt><trkpt lat="44.3645581" lon="11.4434242"><ele>389.0</ele><time>2026-05-01T08:17:54.275Z</time></trkpt><trkpt lat="44.3645293" lon="11.4432926"><ele>389.0</ele><time>2026-05-01T08:17:55.275Z</time></trkpt><trkpt lat="44.3645287" lon="11.4431537"><ele>389.0</ele><time>2026-05-01T08:17:56.275Z</time></trkpt><trkpt lat="44.3645692" lon="11.443012"><ele>388.5</ele><time>2026-05-01T08:17:57.275Z</time></trkpt><trkpt lat="44.3646501" lon="11.4429025"><ele>388.0</ele><time>2026-05-01T08:17:58.275Z</time></trkpt><trkpt lat="44.364764" lon="11.4428148"><ele>387.5</ele><time>2026-05-01T08:17:59.275Z</time></trkpt><trkpt lat="44.3648932" lon="11.4427456"><ele>387.0</ele><time>2026-05-01T08:18:00.275Z</time></trkpt><trkpt lat="44.3650131" lon="11.4426744"><ele>387.0</ele><time>2026-05-01T08:18:01.275Z</time></trkpt><trkpt lat="44.3651214" lon="11.4425873"><ele>387.0</ele><time>2026-05-01T08:18:02.275Z</time></trkpt><trkpt lat="44.3652188" lon="11.4424877"><ele>387.0</ele><time>2026-05-01T08:18:03.275Z</time></trkpt><trkpt lat="44.365309" lon="11.4423951"><ele>387.0</ele><time>2026-05-01T08:18:04.275Z</time></trkpt><trkpt lat="44.3653876" lon="11.4423167"><ele>387.0</ele><time>2026-05-01T08:18:05.275Z</time></trkpt><trkpt lat="44.3654591" lon="11.442244"><ele>387.0</ele><time>2026-05-01T08:18:06.275Z</time></trkpt><trkpt lat="44.3655254" lon="11.4421577"><ele>387.0</ele><time>2026-05-01T08:18:07.275Z</time></trkpt><trkpt lat="44.3655824" lon="11.4420518"><ele>387.0</ele><time>2026-05-01T08:18:08.275Z</time></trkpt><trkpt lat="44.3656254" lon="11.4419437"><ele>387.0</ele><time>2026-05-01T08:18:09.275Z</time></trkpt><trkpt lat="44.3656482" lon="11.441848"><ele>387.0</ele><time>2026-05-01T08:18:10.275Z</time></trkpt><trkpt lat="44.3655859" lon="11.4416779"><ele>386.6666666666667</ele><time>2026-05-01T08:18:12.275Z</time></trkpt><trkpt lat="44.3655096" lon="11.4415934"><ele>386.33333333333337</ele><time>2026-05-01T08:18:13.276Z</time></trkpt><trkpt lat="44.3654363" lon="11.4415314"><ele>386.0</ele><time>2026-05-01T08:18:14.275Z</time></trkpt><trkpt lat="44.3653634" lon="11.4415019"><ele>385.6666666666667</ele><time>2026-05-01T08:18:15.275Z</time></trkpt><trkpt lat="44.3652828" lon="11.4415136"><ele>385.33333333333337</ele><time>2026-05-01T08:18:16.275Z</time></trkpt><trkpt lat="44.3651977" lon="11.4415613"><ele>385.0</ele><time>2026-05-01T08:18:17.276Z</time></trkpt><trkpt lat="44.3651036" lon="11.4416274"><ele>385.0</ele><time>2026-05-01T08:18:18.276Z</time></trkpt><trkpt lat="44.3649996" lon="11.4416781"><ele>385.0</ele><time>2026-05-01T08:18:19.276Z</time></trkpt><trkpt lat="44.3648926" lon="11.4416867"><ele>385.0</ele><time>2026-05-01T08:18:20.276Z</time></trkpt><trkpt lat="44.364777" lon="11.4416563"><ele>385.0</ele><time>2026-05-01T08:18:21.276Z</time></trkpt><trkpt lat="44.3646718" lon="11.4416014"><ele>385.0</ele><time>2026-05-01T08:18:22.276Z</time></trkpt><trkpt lat="44.3645792" lon="11.4415191"><ele>383.5</ele><time>2026-05-01T08:18:23.276Z</time></trkpt><trkpt lat="44.3644956" lon="11.4414135"><ele>382.0</ele><time>2026-05-01T08:18:24.276Z</time></trkpt><trkpt lat="44.3644247" lon="11.4412781"><ele>380.5</ele><time>2026-05-01T08:18:25.276Z</time></trkpt><trkpt lat="44.3643531" lon="11.4411321"><ele>379.0</ele><time>2026-05-01T08:18:26.276Z</time></trkpt><trkpt lat="44.364289" lon="11.4410109"><ele>377.2</ele><time>2026-05-01T08:18:27.276Z</time></trkpt><trkpt lat="44.3642156" lon="11.4409175"><ele>375.4</ele><time>2026-05-01T08:18:28.276Z</time></trkpt><trkpt lat="44.3641232" lon="11.4408525"><ele>373.6</ele><time>2026-05-01T08:18:29.276Z</time></trkpt><trkpt lat="44.364012" lon="11.4408001"><ele>371.8</ele><time>2026-05-01T08:18:30.276Z</time></trkpt><trkpt lat="44.3638954" lon="11.440754"><ele>370.0</ele><time>2026-05-01T08:18:31.276Z</time></trkpt><trkpt lat="44.3637828" lon="11.4407088"><ele>367.25</ele><time>2026-05-01T08:18:32.276Z</time></trkpt><trkpt lat="44.3636668" lon="11.4406762"><ele>364.5</ele><time>2026-05-01T08:18:33.276Z</time></trkpt><trkpt lat="44.3635432" lon="11.4406675"><ele>361.75</ele><time>2026-05-01T08:18:34.276Z</time></trkpt><trkpt lat="44.3634205" lon="11.4406733"><ele>359.0</ele><time>2026-05-01T08:18:35.276Z</time></trkpt><trkpt lat="44.3632945" lon="11.4406835"><ele>359.0</ele><time>2026-05-01T08:18:36.276Z</time></trkpt><trkpt lat="44.3631754" lon="11.4406898"><ele>359.0</ele><time>2026-05-01T08:18:37.276Z</time></trkpt><trkpt lat="44.3630699" lon="11.4406893"><ele>359.0</ele><time>2026-05-01T08:18:38.276Z</time></trkpt><trkpt lat="44.3629766" lon="11.4406753"><ele>359.0</ele><time>2026-05-01T08:18:39.276Z</time></trkpt><trkpt lat="44.3628878" lon="11.4406427"><ele>359.0</ele><time>2026-05-01T08:18:40.276Z</time></trkpt><trkpt lat="44.3628031" lon="11.440571"><ele>359.4</ele><time>2026-05-01T08:18:41.276Z</time></trkpt><trkpt lat="44.3627388" lon="11.440473"><ele>359.79999999999995</ele><time>2026-05-01T08:18:42.276Z</time></trkpt><trkpt lat="44.362695" lon="11.4403439"><ele>360.20000000000005</ele><time>2026-05-01T08:18:43.276Z</time></trkpt><trkpt lat="44.3626708" lon="11.4401863"><ele>360.6</ele><time>2026-05-01T08:18:44.276Z</time></trkpt><trkpt lat="44.3626591" lon="11.4400039"><ele>361.0</ele><time>2026-05-01T08:18:45.276Z</time></trkpt><trkpt lat="44.3626722" lon="11.439822"><ele>361.0</ele><time>2026-05-01T08:18:46.276Z</time></trkpt><trkpt lat="44.3626979" lon="11.439635"><ele>361.0</ele><time>2026-05-01T08:18:47.276Z</time></trkpt><trkpt lat="44.3627437" lon="11.439464"><ele>361.0</ele><time>2026-05-01T08:18:48.276Z</time></trkpt><trkpt lat="44.3628088" lon="11.439292"><ele>361.0</ele><time>2026-05-01T08:18:49.276Z</time></trkpt><trkpt lat="44.3628666" lon="11.4391276"><ele>360.5</ele><time>2026-05-01T08:18:50.276Z</time></trkpt><trkpt lat="44.3628971" lon="11.4389717"><ele>360.0</ele><time>2026-05-01T08:18:51.276Z</time></trkpt><trkpt lat="44.3628971" lon="11.4388017"><ele>359.5</ele><time>2026-05-01T08:18:52.276Z</time></trkpt><trkpt lat="44.3628841" lon="11.4386242"><ele>359.0</ele><time>2026-05-01T08:18:53.276Z</time></trkpt><trkpt lat="44.362868" lon="11.4384488"><ele>359.0</ele><time>2026-05-01T08:18:54.276Z</time></trkpt><trkpt lat="44.3628629" lon="11.4382896"><ele>359.0</ele><time>2026-05-01T08:18:55.276Z</time></trkpt><trkpt lat="44.362873" lon="11.4381667"><ele>359.0</ele><time>2026-05-01T08:18:56.276Z</time></trkpt><trkpt lat="44.3628935" lon="11.438068"><ele>359.0</ele><time>2026-05-01T08:18:57.277Z</time></trkpt><trkpt lat="44.3629197" lon="11.437985"><ele>359.0</ele><time>2026-05-01T08:18:58.276Z</time></trkpt><trkpt lat="44.3629579" lon="11.4379084"><ele>359.0</ele><time>2026-05-01T08:18:59.276Z</time></trkpt><trkpt lat="44.3629997" lon="11.4378269"><ele>358.5</ele><time>2026-05-01T08:19:00.276Z</time></trkpt><trkpt lat="44.3630459" lon="11.4377346"><ele>358.0</ele><time>2026-05-01T08:19:01.277Z</time></trkpt><trkpt lat="44.3630969" lon="11.43764"><ele>357.5</ele><time>2026-05-01T08:19:02.277Z</time></trkpt><trkpt lat="44.3631521" lon="11.4375415"><ele>357.0</ele><time>2026-05-01T08:19:03.276Z</time></trkpt><trkpt lat="44.3632109" lon="11.4374418"><ele>356.5</ele><time>2026-05-01T08:19:04.277Z</time></trkpt><trkpt lat="44.3632709" lon="11.4373434"><ele>356.0</ele><time>2026-05-01T08:19:05.276Z</time></trkpt><trkpt lat="44.3633286" lon="11.4372376"><ele>354.4</ele><time>2026-05-01T08:19:06.276Z</time></trkpt><trkpt lat="44.3633881" lon="11.4371228"><ele>352.8</ele><time>2026-05-01T08:19:07.276Z</time></trkpt><trkpt lat="44.3634489" lon="11.4370006"><ele>351.2</ele><time>2026-05-01T08:19:08.276Z</time></trkpt><trkpt lat="44.3635103" lon="11.4368745"><ele>349.59999999999997</ele><time>2026-05-01T08:19:09.276Z</time></trkpt><trkpt lat="44.3635712" lon="11.4367528"><ele>348.0</ele><time>2026-05-01T08:19:10.276Z</time></trkpt><trkpt lat="44.3636285" lon="11.4366386"><ele>348.0</ele><time>2026-05-01T08:19:11.277Z</time></trkpt><trkpt lat="44.3636837" lon="11.4365163"><ele>348.0</ele><time>2026-05-01T08:19:12.276Z</time></trkpt><trkpt lat="44.3637333" lon="11.4363782"><ele>348.0</ele><time>2026-05-01T08:19:13.276Z</time></trkpt><trkpt lat="44.3637746" lon="11.436213"><ele>348.0</ele><time>2026-05-01T08:19:14.276Z</time></trkpt><trkpt lat="44.3638055" lon="11.4360396"><ele>347.5</ele><time>2026-05-01T08:19:15.277Z</time></trkpt><trkpt lat="44.3638221" lon="11.435863"><ele>347.0</ele><time>2026-05-01T08:19:16.277Z</time></trkpt><trkpt lat="44.3638212" lon="11.4356805"><ele>346.5</ele><time>2026-05-01T08:19:17.277Z</time></trkpt><trkpt lat="44.3638005" lon="11.4354936"><ele>346.0</ele><time>2026-05-01T08:19:18.277Z</time></trkpt><trkpt lat="44.3637583" lon="11.4353017"><ele>346.0</ele><time>2026-05-01T08:19:19.277Z</time></trkpt><trkpt lat="44.363698" lon="11.4351066"><ele>346.0</ele><time>2026-05-01T08:19:20.277Z</time></trkpt><trkpt lat="44.3636337" lon="11.4349042"><ele>346.0</ele><time>2026-05-01T08:19:21.277Z</time></trkpt><trkpt lat="44.3635773" lon="11.4346966"><ele>347.75</ele><time>2026-05-01T08:19:22.277Z</time></trkpt><trkpt lat="44.3635222" lon="11.43449"><ele>349.5</ele><time>2026-05-01T08:19:23.277Z</time></trkpt><trkpt lat="44.3634621" lon="11.4342965"><ele>351.25</ele><time>2026-05-01T08:19:24.277Z</time></trkpt><trkpt lat="44.3633935" lon="11.4341362"><ele>353.0</ele><time>2026-05-01T08:19:25.277Z</time></trkpt><trkpt lat="44.3633246" lon="11.4339915"><ele>353.0</ele><time>2026-05-01T08:19:26.277Z</time></trkpt><trkpt lat="44.3632695" lon="11.4338387"><ele>353.0</ele><time>2026-05-01T08:19:27.277Z</time></trkpt><trkpt lat="44.3632229" lon="11.4336827"><ele>353.0</ele><time>2026-05-01T08:19:28.277Z</time></trkpt><trkpt lat="44.3631812" lon="11.4335427"><ele>353.0</ele><time>2026-05-01T08:19:29.277Z</time></trkpt><trkpt lat="44.3631439" lon="11.4334147"><ele>352.5</ele><time>2026-05-01T08:19:30.277Z</time></trkpt><trkpt lat="44.3631168" lon="11.4332816"><ele>352.0</ele><time>2026-05-01T08:19:31.277Z</time></trkpt><trkpt lat="44.3631109" lon="11.4331248"><ele>351.5</ele><time>2026-05-01T08:19:32.277Z</time></trkpt><trkpt lat="44.3631198" lon="11.432963"><ele>351.0</ele><time>2026-05-01T08:19:33.277Z</time></trkpt><trkpt lat="44.3631433" lon="11.43278"><ele>350.0</ele><time>2026-05-01T08:19:34.277Z</time></trkpt><trkpt lat="44.3631666" lon="11.4325891"><ele>349.0</ele><time>2026-05-01T08:19:35.277Z</time></trkpt><trkpt lat="44.3631875" lon="11.432395"><ele>348.0</ele><time>2026-05-01T08:19:36.277Z</time></trkpt><trkpt lat="44.3632114" lon="11.432215"><ele>347.0</ele><time>2026-05-01T08:19:37.277Z</time></trkpt><trkpt lat="44.3632497" lon="11.432053"><ele>346.75</ele><time>2026-05-01T08:19:38.278Z</time></trkpt><trkpt lat="44.3632926" lon="11.4318999"><ele>346.5</ele><time>2026-05-01T08:19:39.277Z</time></trkpt><trkpt lat="44.3633245" lon="11.431734"><ele>346.25</ele><time>2026-05-01T08:19:40.277Z</time></trkpt><trkpt lat="44.3633409" lon="11.4315573"><ele>346.0</ele><time>2026-05-01T08:19:41.277Z</time></trkpt><trkpt lat="44.3633562" lon="11.4313728"><ele>344.25</ele><time>2026-05-01T08:19:42.277Z</time></trkpt><trkpt lat="44.363376" lon="11.4311951"><ele>342.5</ele><time>2026-05-01T08:19:43.277Z</time></trkpt><trkpt lat="44.3634163" lon="11.4310174"><ele>340.75</ele><time>2026-05-01T08:19:44.277Z</time></trkpt><trkpt lat="44.3634795" lon="11.4308369"><ele>339.0</ele><time>2026-05-01T08:19:45.277Z</time></trkpt><trkpt lat="44.3635495" lon="11.4306474"><ele>337.5</ele><time>2026-05-01T08:19:46.277Z</time></trkpt><trkpt lat="44.3636165" lon="11.4304637"><ele>336.0</ele><time>2026-05-01T08:19:47.277Z</time></trkpt><trkpt lat="44.3636796" lon="11.4302879"><ele>334.5</ele><time>2026-05-01T08:19:48.277Z</time></trkpt><trkpt lat="44.3637336" lon="11.4301373"><ele>333.0</ele><time>2026-05-01T08:19:49.277Z</time></trkpt><trkpt lat="44.3637859" lon="11.4299972"><ele>333.0</ele><time>2026-05-01T08:19:50.277Z</time></trkpt><trkpt lat="44.363851" lon="11.4298525"><ele>333.0</ele><time>2026-05-01T08:19:51.277Z</time></trkpt><trkpt lat="44.3639277" lon="11.4297056"><ele>333.0</ele><time>2026-05-01T08:19:52.277Z</time></trkpt><trkpt lat="44.3640242" lon="11.4295637"><ele>333.0</ele><time>2026-05-01T08:19:53.277Z</time></trkpt><trkpt lat="44.3641305" lon="11.4294186"><ele>330.0</ele><time>2026-05-01T08:19:54.277Z</time></trkpt><trkpt lat="44.3642403" lon="11.4292727"><ele>327.0</ele><time>2026-05-01T08:19:55.277Z</time></trkpt><trkpt lat="44.3643388" lon="11.4291321"><ele>324.0</ele><time>2026-05-01T08:19:56.278Z</time></trkpt><trkpt lat="44.3644248" lon="11.4290141"><ele>321.0</ele><time>2026-05-01T08:19:57.277Z</time></trkpt><trkpt lat="44.3644976" lon="11.4289089"><ele>321.0</ele><time>2026-05-01T08:19:58.278Z</time></trkpt><trkpt lat="44.3645652" lon="11.4288168"><ele>321.0</ele><time>2026-05-01T08:19:59.277Z</time></trkpt><trkpt lat="44.3646259" lon="11.4287188"><ele>321.0</ele><time>2026-05-01T08:20:00.277Z</time></trkpt><trkpt lat="44.3646747" lon="11.4286107"><ele>321.0</ele><time>2026-05-01T08:20:01.277Z</time></trkpt><trkpt lat="44.3646955" lon="11.4284841"><ele>321.0</ele><time>2026-05-01T08:20:02.277Z</time></trkpt><trkpt lat="44.3646906" lon="11.4283421"><ele>319.25</ele><time>2026-05-01T08:20:03.277Z</time></trkpt><trkpt lat="44.3646616" lon="11.428206"><ele>317.5</ele><time>2026-05-01T08:20:04.277Z</time></trkpt><trkpt lat="44.3645821" lon="11.4279488"><ele>315.75</ele><time>2026-05-01T08:20:06.278Z</time></trkpt><trkpt lat="44.364543" lon="11.4278604"><ele>314.0</ele><time>2026-05-01T08:20:07.277Z</time></trkpt><trkpt lat="44.3644747" lon="11.4278213"><ele>310.4</ele><time>2026-05-01T08:20:08.277Z</time></trkpt><trkpt lat="44.3643957" lon="11.4278175"><ele>306.79999999999995</ele><time>2026-05-01T08:20:09.277Z</time></trkpt><trkpt lat="44.364313" lon="11.4278307"><ele>303.20000000000005</ele><time>2026-05-01T08:20:10.278Z</time></trkpt><trkpt lat="44.3642205" lon="11.4278728"><ele>299.6</ele><time>2026-05-01T08:20:11.278Z</time></trkpt><trkpt lat="44.3641186" lon="11.4279162"><ele>296.0</ele><time>2026-05-01T08:20:12.278Z</time></trkpt><trkpt lat="44.364017" lon="11.4279659"><ele>298.2</ele><time>2026-05-01T08:20:13.278Z</time></trkpt><trkpt lat="44.3639199" lon="11.4280145"><ele>300.40000000000003</ele><time>2026-05-01T08:20:14.278Z</time></trkpt><trkpt lat="44.3638319" lon="11.4280581"><ele>302.6</ele><time>2026-05-01T08:20:15.278Z</time></trkpt><trkpt lat="44.3637556" lon="11.4280948"><ele>304.8</ele><time>2026-05-01T08:20:16.278Z</time></trkpt><trkpt lat="44.3636897" lon="11.4281145"><ele>307.0</ele><time>2026-05-01T08:20:17.278Z</time></trkpt><trkpt lat="44.3635868" lon="11.4280337"><ele>305.16666666666663</ele><time>2026-05-01T08:20:19.278Z</time></trkpt><trkpt lat="44.3635802" lon="11.427945"><ele>303.3333333333333</ele><time>2026-05-01T08:20:20.278Z</time></trkpt><trkpt lat="44.3636095" lon="11.4278531"><ele>301.5</ele><time>2026-05-01T08:20:21.278Z</time></trkpt><trkpt lat="44.3636582" lon="11.4277624"><ele>299.6666666666667</ele><time>2026-05-01T08:20:22.278Z</time></trkpt><trkpt lat="44.363739" lon="11.4276716"><ele>297.83333333333337</ele><time>2026-05-01T08:20:23.278Z</time></trkpt><trkpt lat="44.3638247" lon="11.4275693"><ele>296.0</ele><time>2026-05-01T08:20:24.278Z</time></trkpt><trkpt lat="44.3639116" lon="11.4274512"><ele>296.0</ele><time>2026-05-01T08:20:25.278Z</time></trkpt><trkpt lat="44.3639962" lon="11.4273278"><ele>296.0</ele><time>2026-05-01T08:20:26.278Z</time></trkpt><trkpt lat="44.3640771" lon="11.4272097"><ele>296.0</ele><time>2026-05-01T08:20:27.278Z</time></trkpt><trkpt lat="44.3641535" lon="11.4270974"><ele>296.0</ele><time>2026-05-01T08:20:28.278Z</time></trkpt><trkpt lat="44.3642274" lon="11.4269936"><ele>292.6666666666667</ele><time>2026-05-01T08:20:29.278Z</time></trkpt><trkpt lat="44.3643014" lon="11.4269044"><ele>289.33333333333337</ele><time>2026-05-01T08:20:30.278Z</time></trkpt><trkpt lat="44.3643799" lon="11.4268371"><ele>286.0</ele><time>2026-05-01T08:20:31.278Z</time></trkpt><trkpt lat="44.3644607" lon="11.4267981"><ele>282.6666666666667</ele><time>2026-05-01T08:20:32.278Z</time></trkpt><trkpt lat="44.3645381" lon="11.4267859"><ele>279.3333333333333</ele><time>2026-05-01T08:20:33.278Z</time></trkpt><trkpt lat="44.3646107" lon="11.4268031"><ele>276.0</ele><time>2026-05-01T08:20:34.278Z</time></trkpt><trkpt lat="44.3646812" lon="11.4268433"><ele>276.8333333333333</ele><time>2026-05-01T08:20:35.278Z</time></trkpt><trkpt lat="44.3647561" lon="11.4268978"><ele>277.6666666666667</ele><time>2026-05-01T08:20:36.278Z</time></trkpt><trkpt lat="44.3648378" lon="11.4269577"><ele>278.5</ele><time>2026-05-01T08:20:37.278Z</time></trkpt><trkpt lat="44.3649193" lon="11.427018"><ele>279.33333333333337</ele><time>2026-05-01T08:20:38.278Z</time></trkpt><trkpt lat="44.3649928" lon="11.4270812"><ele>280.1666666666667</ele><time>2026-05-01T08:20:39.278Z</time></trkpt><trkpt lat="44.3650578" lon="11.4271649"><ele>281.0</ele><time>2026-05-01T08:20:40.278Z</time></trkpt><trkpt lat="44.3651194" lon="11.4272665"><ele>281.0</ele><time>2026-05-01T08:20:41.278Z</time></trkpt><trkpt lat="44.3651599" lon="11.4273937"><ele>281.0</ele><time>2026-05-01T08:20:42.278Z</time></trkpt><trkpt lat="44.3652663" lon="11.4277015"><ele>281.0</ele><time>2026-05-01T08:20:44.279Z</time></trkpt><trkpt lat="44.3653316" lon="11.4278383"><ele>283.6</ele><time>2026-05-01T08:20:45.278Z</time></trkpt><trkpt lat="44.3653934" lon="11.4279797"><ele>286.20000000000005</ele><time>2026-05-01T08:20:46.278Z</time></trkpt><trkpt lat="44.3654498" lon="11.4281273"><ele>288.79999999999995</ele><time>2026-05-01T08:20:47.278Z</time></trkpt><trkpt lat="44.3654922" lon="11.4282587"><ele>291.4</ele><time>2026-05-01T08:20:48.278Z</time></trkpt><trkpt lat="44.3655255" lon="11.4283629"><ele>294.0</ele><time>2026-05-01T08:20:49.278Z</time></trkpt><trkpt lat="44.3655605" lon="11.4284422"><ele>286.59999999999997</ele><time>2026-05-01T08:20:50.278Z</time></trkpt><trkpt lat="44.3656537" lon="11.4285183"><ele>279.2</ele><time>2026-05-01T08:20:52.279Z</time></trkpt><trkpt lat="44.3657355" lon="11.4283967"><ele>271.79999999999995</ele><time>2026-05-01T08:20:54.278Z</time></trkpt><trkpt lat="44.3657529" lon="11.4283042"><ele>264.4</ele><time>2026-05-01T08:20:55.278Z</time></trkpt><trkpt lat="44.3657574" lon="11.4281993"><ele>257.0</ele><time>2026-05-01T08:20:56.278Z</time></trkpt><trkpt lat="44.3657451" lon="11.4280718"><ele>256.5</ele><time>2026-05-01T08:20:57.278Z</time></trkpt><trkpt lat="44.365729" lon="11.4279449"><ele>256.0</ele><time>2026-05-01T08:20:58.278Z</time></trkpt><trkpt lat="44.3657229" lon="11.4278322"><ele>255.5</ele><time>2026-05-01T08:20:59.278Z</time></trkpt><trkpt lat="44.3657847" lon="11.4277034"><ele>255.0</ele><time>2026-05-01T08:21:01.278Z</time></trkpt><trkpt lat="44.3658447" lon="11.4276704"><ele>254.50000000000003</ele><time>2026-05-01T08:21:02.278Z</time></trkpt><trkpt lat="44.3659311" lon="11.4276646"><ele>254.0</ele><time>2026-05-01T08:21:03.278Z</time></trkpt><trkpt lat="44.3659979" lon="11.4276522"><ele>254.0</ele><time>2026-05-01T08:21:04.278Z</time></trkpt><trkpt lat="44.3660705" lon="11.4275456"><ele>253.99999999999997</ele><time>2026-05-01T08:21:06.279Z</time></trkpt><trkpt lat="44.3659853" lon="11.4274246"><ele>253.99999999999997</ele><time>2026-05-01T08:21:08.279Z</time></trkpt><trkpt lat="44.3659087" lon="11.4273981"><ele>254.0</ele><time>2026-05-01T08:21:09.279Z</time></trkpt><trkpt lat="44.3658214" lon="11.4273766"><ele>254.0</ele><time>2026-05-01T08:21:10.279Z</time></trkpt><trkpt lat="44.365743" lon="11.4273131"><ele>254.0</ele><time>2026-05-01T08:21:11.279Z</time></trkpt><trkpt lat="44.3657017" lon="11.4271931"><ele>253.99999999999997</ele><time>2026-05-01T08:21:12.279Z</time></trkpt><trkpt lat="44.3656846" lon="11.4270567"><ele>253.99999999999997</ele><time>2026-05-01T08:21:13.279Z</time></trkpt><trkpt lat="44.3656923" lon="11.4269156"><ele>254.0</ele><time>2026-05-01T08:21:14.279Z</time></trkpt><trkpt lat="44.3657115" lon="11.426766"><ele>254.0</ele><time>2026-05-01T08:21:15.279Z</time></trkpt><trkpt lat="44.3657587" lon="11.4264489"><ele>248.25</ele><time>2026-05-01T08:21:17.279Z</time></trkpt><trkpt lat="44.3657659" lon="11.4262853"><ele>242.5</ele><time>2026-05-01T08:21:18.279Z</time></trkpt><trkpt lat="44.365772" lon="11.4261248"><ele>236.75</ele><time>2026-05-01T08:21:19.279Z</time></trkpt><trkpt lat="44.3657728" lon="11.4259717"><ele>231.0</ele><time>2026-05-01T08:21:20.279Z</time></trkpt><trkpt lat="44.3657596" lon="11.4258166"><ele>231.0</ele><time>2026-05-01T08:21:21.279Z</time></trkpt><trkpt lat="44.3657277" lon="11.4256555"><ele>231.0</ele><time>2026-05-01T08:21:22.279Z</time></trkpt><trkpt lat="44.3656902" lon="11.4254816"><ele>231.0</ele><time>2026-05-01T08:21:23.279Z</time></trkpt><trkpt lat="44.3656506" lon="11.4253032"><ele>231.0</ele><time>2026-05-01T08:21:24.279Z</time></trkpt><trkpt lat="44.365607" lon="11.4251172"><ele>230.0</ele><time>2026-05-01T08:21:25.279Z</time></trkpt><trkpt lat="44.3655552" lon="11.4249348"><ele>229.0</ele><time>2026-05-01T08:21:26.279Z</time></trkpt><trkpt lat="44.3655043" lon="11.4247643"><ele>228.0</ele><time>2026-05-01T08:21:27.279Z</time></trkpt><trkpt lat="44.365459" lon="11.4246137"><ele>227.0</ele><time>2026-05-01T08:21:28.279Z</time></trkpt><trkpt lat="44.3654091" lon="11.4244949"><ele>223.6</ele><time>2026-05-01T08:21:29.279Z</time></trkpt><trkpt lat="44.3653454" lon="11.4244023"><ele>220.2</ele><time>2026-05-01T08:21:30.279Z</time></trkpt><trkpt lat="44.3652703" lon="11.4243154"><ele>216.8</ele><time>2026-05-01T08:21:31.279Z</time></trkpt><trkpt lat="44.3652104" lon="11.4242074"><ele>213.4</ele><time>2026-05-01T08:21:32.279Z</time></trkpt><trkpt lat="44.3651813" lon="11.4240656"><ele>210.0</ele><time>2026-05-01T08:21:33.279Z</time></trkpt><trkpt lat="44.3651208" lon="11.4237995"><ele>207.66666666666666</ele><time>2026-05-01T08:21:35.279Z</time></trkpt><trkpt lat="44.3650589" lon="11.4237165"><ele>205.33333333333331</ele><time>2026-05-01T08:21:36.279Z</time></trkpt><trkpt lat="44.364977" lon="11.4236715"><ele>203.0</ele><time>2026-05-01T08:21:37.279Z</time></trkpt><trkpt lat="44.3648951" lon="11.4236332"><ele>200.66666666666666</ele><time>2026-05-01T08:21:38.279Z</time></trkpt><trkpt lat="44.3648343" lon="11.4235779"><ele>198.33333333333331</ele><time>2026-05-01T08:21:39.279Z</time></trkpt><trkpt lat="44.3647945" lon="11.4234861"><ele>196.0</ele><time>2026-05-01T08:21:40.279Z</time></trkpt><trkpt lat="44.3647795" lon="11.4233672"><ele>195.99999999999997</ele><time>2026-05-01T08:21:41.279Z</time></trkpt><trkpt lat="44.3647735" lon="11.4232365"><ele>196.0</ele><time>2026-05-01T08:21:42.279Z</time></trkpt><trkpt lat="44.3647662" lon="11.4231112"><ele>196.0</ele><time>2026-05-01T08:21:43.28Z</time></trkpt><trkpt lat="44.364749" lon="11.4230001"><ele>196.0</ele><time>2026-05-01T08:21:44.279Z</time></trkpt><trkpt lat="44.3647383" lon="11.4228929"><ele>195.99999999999997</ele><time>2026-05-01T08:21:45.279Z</time></trkpt><trkpt lat="44.3647545" lon="11.4227937"><ele>196.0</ele><time>2026-05-01T08:21:46.279Z</time></trkpt><trkpt lat="44.3648093" lon="11.4227114"><ele>193.75</ele><time>2026-05-01T08:21:47.279Z</time></trkpt><trkpt lat="44.3648936" lon="11.4226502"><ele>191.5</ele><time>2026-05-01T08:21:48.279Z</time></trkpt><trkpt lat="44.3649964" lon="11.4225995"><ele>189.25</ele><time>2026-05-01T08:21:49.279Z</time></trkpt><trkpt lat="44.3651123" lon="11.4225413"><ele>187.0</ele><time>2026-05-01T08:21:50.279Z</time></trkpt><trkpt lat="44.3652343" lon="11.4224727"><ele>187.0</ele><time>2026-05-01T08:21:51.279Z</time></trkpt><trkpt lat="44.3653615" lon="11.422404"><ele>187.0</ele><time>2026-05-01T08:21:52.279Z</time></trkpt><trkpt lat="44.3654774" lon="11.4223386"><ele>187.0</ele><time>2026-05-01T08:21:53.279Z</time></trkpt><trkpt lat="44.365579" lon="11.4222746"><ele>187.0</ele><time>2026-05-01T08:21:54.279Z</time></trkpt><trkpt lat="44.3656498" lon="11.4221935"><ele>184.8</ele><time>2026-05-01T08:21:55.279Z</time></trkpt><trkpt lat="44.3657051" lon="11.4221111"><ele>182.6</ele><time>2026-05-01T08:21:56.279Z</time></trkpt><trkpt lat="44.3657331" lon="11.4220066"><ele>180.4</ele><time>2026-05-01T08:21:57.279Z</time></trkpt><trkpt lat="44.3657305" lon="11.4218974"><ele>178.20000000000002</ele><time>2026-05-01T08:21:58.279Z</time></trkpt><trkpt lat="44.3656925" lon="11.4217459"><ele>176.0</ele><time>2026-05-01T08:21:59.279Z</time></trkpt><trkpt lat="44.3656409" lon="11.4215821"><ele>176.0</ele><time>2026-05-01T08:22:00.279Z</time></trkpt><trkpt lat="44.3655804" lon="11.4214055"><ele>176.0</ele><time>2026-05-01T08:22:01.279Z</time></trkpt><trkpt lat="44.3655118" lon="11.4212178"><ele>176.0</ele><time>2026-05-01T08:22:02.279Z</time></trkpt><trkpt lat="44.3654331" lon="11.4210337"><ele>176.0</ele><time>2026-05-01T08:22:03.28Z</time></trkpt><trkpt lat="44.3653555" lon="11.4208555"><ele>175.75</ele><time>2026-05-01T08:22:04.28Z</time></trkpt><trkpt lat="44.3652846" lon="11.4206831"><ele>175.5</ele><time>2026-05-01T08:22:05.28Z</time></trkpt><trkpt lat="44.3652192" lon="11.4205075"><ele>175.25</ele><time>2026-05-01T08:22:06.28Z</time></trkpt><trkpt lat="44.3651619" lon="11.4203415"><ele>175.0</ele><time>2026-05-01T08:22:07.28Z</time></trkpt><trkpt lat="44.3651083" lon="11.4201868"><ele>174.2</ele><time>2026-05-01T08:22:08.28Z</time></trkpt><trkpt lat="44.3650633" lon="11.420046"><ele>173.4</ele><time>2026-05-01T08:22:09.28Z</time></trkpt><trkpt lat="44.3650246" lon="11.4199062"><ele>172.60000000000002</ele><time>2026-05-01T08:22:10.28Z</time></trkpt><trkpt lat="44.3649925" lon="11.4197653"><ele>171.8</ele><time>2026-05-01T08:22:11.28Z</time></trkpt><trkpt lat="44.3649753" lon="11.4196281"><ele>171.0</ele><time>2026-05-01T08:22:12.28Z</time></trkpt><trkpt lat="44.3649729" lon="11.4194934"><ele>170.16666666666666</ele><time>2026-05-01T08:22:13.28Z</time></trkpt><trkpt lat="44.364986" lon="11.4193731"><ele>169.33333333333334</ele><time>2026-05-01T08:22:14.28Z</time></trkpt><trkpt lat="44.3650189" lon="11.4192721"><ele>168.5</ele><time>2026-05-01T08:22:15.28Z</time></trkpt><trkpt lat="44.3650601" lon="11.4191765"><ele>167.66666666666669</ele><time>2026-05-01T08:22:16.28Z</time></trkpt><trkpt lat="44.3651036" lon="11.4190835"><ele>166.83333333333334</ele><time>2026-05-01T08:22:17.28Z</time></trkpt><trkpt lat="44.3651478" lon="11.4189792"><ele>166.0</ele><time>2026-05-01T08:22:18.28Z</time></trkpt><trkpt lat="44.3651954" lon="11.4188719"><ele>164.8</ele><time>2026-05-01T08:22:19.28Z</time></trkpt><trkpt lat="44.3652466" lon="11.4187609"><ele>163.60000000000002</ele><time>2026-05-01T08:22:20.28Z</time></trkpt><trkpt lat="44.3653018" lon="11.4186497"><ele>162.4</ele><time>2026-05-01T08:22:21.28Z</time></trkpt><trkpt lat="44.3653532" lon="11.4185455"><ele>161.2</ele><time>2026-05-01T08:22:22.28Z</time></trkpt><trkpt lat="44.3653975" lon="11.4183463"><ele>160.0</ele><time>2026-05-01T08:22:24.28Z</time></trkpt><trkpt lat="44.3654123" lon="11.4182591"><ele>160.0</ele><time>2026-05-01T08:22:25.28Z</time></trkpt><trkpt lat="44.3654375" lon="11.418131"><ele>160.0</ele><time>2026-05-01T08:22:27.28Z</time></trkpt><trkpt lat="44.3654617" lon="11.4180431"><ele>160.0</ele><time>2026-05-01T08:30:15.288Z</time></trkpt><trkpt lat="44.3654572" lon="11.4179309"><ele>160.0</ele><time>2026-05-01T08:30:17.288Z</time></trkpt><trkpt lat="44.3654676" lon="11.4178363"><ele>160.0</ele><time>2026-05-01T08:30:19.288Z</time></trkpt><trkpt lat="44.365528" lon="11.417791"><ele>160.0</ele><time>2026-05-01T08:30:28.289Z</time></trkpt><trkpt lat="44.3656443" lon="11.4177851"><ele>158.8</ele><time>2026-05-01T08:30:30.289Z</time></trkpt><trkpt lat="44.3657389" lon="11.417782"><ele>157.6</ele><time>2026-05-01T08:30:31.289Z</time></trkpt><trkpt lat="44.3658328" lon="11.41778"><ele>156.4</ele><time>2026-05-01T08:30:32.289Z</time></trkpt><trkpt lat="44.3659255" lon="11.4177985"><ele>155.2</ele><time>2026-05-01T08:30:33.289Z</time></trkpt><trkpt lat="44.3660176" lon="11.4178102"><ele>154.0</ele><time>2026-05-01T08:30:34.289Z</time></trkpt><trkpt lat="44.3661252" lon="11.4178418"><ele>154.0</ele><time>2026-05-01T08:30:35.289Z</time></trkpt><trkpt lat="44.3662456" lon="11.4178959"><ele>154.0</ele><time>2026-05-01T08:30:36.29Z</time></trkpt><trkpt lat="44.366377" lon="11.4179787"><ele>154.0</ele><time>2026-05-01T08:30:37.289Z</time></trkpt><trkpt lat="44.3664977" lon="11.4180933"><ele>154.0</ele><time>2026-05-01T08:30:38.289Z</time></trkpt><trkpt lat="44.3666116" lon="11.4182455"><ele>154.0</ele><time>2026-05-01T08:30:39.289Z</time></trkpt><trkpt lat="44.3667154" lon="11.4184198"><ele>154.0</ele><time>2026-05-01T08:30:40.289Z</time></trkpt><trkpt lat="44.3667963" lon="11.418629"><ele>154.0</ele><time>2026-05-01T08:30:41.289Z</time></trkpt><trkpt lat="44.3668593" lon="11.4188555"><ele>154.66666666666669</ele><time>2026-05-01T08:30:42.289Z</time></trkpt><trkpt lat="44.3669193" lon="11.4190841"><ele>155.33333333333334</ele><time>2026-05-01T08:30:43.289Z</time></trkpt><trkpt lat="44.3669839" lon="11.4193072"><ele>156.0</ele><time>2026-05-01T08:30:44.289Z</time></trkpt><trkpt lat="44.3670583" lon="11.4195277"><ele>158.0</ele><time>2026-05-01T08:30:45.289Z</time></trkpt><trkpt lat="44.3671407" lon="11.4197536"><ele>160.0</ele><time>2026-05-01T08:30:46.289Z</time></trkpt><trkpt lat="44.3672235" lon="11.4199801"><ele>162.0</ele><time>2026-05-01T08:30:47.289Z</time></trkpt><trkpt lat="44.3673124" lon="11.420205"><ele>159.66666666666666</ele><time>2026-05-01T08:30:48.289Z</time></trkpt><trkpt lat="44.3674064" lon="11.4204269"><ele>157.33333333333331</ele><time>2026-05-01T08:30:49.289Z</time></trkpt><trkpt lat="44.367505" lon="11.4206287"><ele>155.0</ele><time>2026-05-01T08:30:50.289Z</time></trkpt><trkpt lat="44.3676133" lon="11.420818"><ele>155.0</ele><time>2026-05-01T08:30:51.289Z</time></trkpt><trkpt lat="44.3677244" lon="11.4210106"><ele>155.0</ele><time>2026-05-01T08:30:52.289Z</time></trkpt><trkpt lat="44.3678289" lon="11.4212112"><ele>155.0</ele><time>2026-05-01T08:30:53.289Z</time></trkpt><trkpt lat="44.3679142" lon="11.4214427"><ele>153.66666666666666</ele><time>2026-05-01T08:30:54.289Z</time></trkpt><trkpt lat="44.3679679" lon="11.4216954"><ele>152.33333333333334</ele><time>2026-05-01T08:30:55.289Z</time></trkpt><trkpt lat="44.3680001" lon="11.4219517"><ele>151.0</ele><time>2026-05-01T08:30:56.289Z</time></trkpt><trkpt lat="44.3680124" lon="11.4222081"><ele>150.33333333333334</ele><time>2026-05-01T08:30:57.289Z</time></trkpt><trkpt lat="44.3680212" lon="11.4224633"><ele>149.66666666666666</ele><time>2026-05-01T08:30:58.289Z</time></trkpt><trkpt lat="44.3680387" lon="11.4227057"><ele>149.0</ele><time>2026-05-01T08:30:59.289Z</time></trkpt><trkpt lat="44.3680608" lon="11.422939"><ele>149.0</ele><time>2026-05-01T08:31:00.289Z</time></trkpt><trkpt lat="44.3681061" lon="11.4231538"><ele>149.0</ele><time>2026-05-01T08:31:01.289Z</time></trkpt><trkpt lat="44.3681911" lon="11.4233457"><ele>149.0</ele><time>2026-05-01T08:31:02.289Z</time></trkpt><trkpt lat="44.3683033" lon="11.4235093"><ele>149.0</ele><time>2026-05-01T08:31:03.289Z</time></trkpt><trkpt lat="44.368428" lon="11.4236707"><ele>149.0</ele><time>2026-05-01T08:31:04.289Z</time></trkpt><trkpt lat="44.3685515" lon="11.4238304"><ele>149.0</ele><time>2026-05-01T08:31:05.289Z</time></trkpt><trkpt lat="44.3686833" lon="11.4239926"><ele>146.66666666666666</ele><time>2026-05-01T08:31:06.289Z</time></trkpt><trkpt lat="44.368814" lon="11.4241682"><ele>144.33333333333334</ele><time>2026-05-01T08:31:07.289Z</time></trkpt><trkpt lat="44.3689504" lon="11.4243544"><ele>142.0</ele><time>2026-05-01T08:31:08.289Z</time></trkpt><trkpt lat="44.3690908" lon="11.4245469"><ele>146.0</ele><time>2026-05-01T08:31:09.289Z</time></trkpt><trkpt lat="44.369234" lon="11.4247393"><ele>150.0</ele><time>2026-05-01T08:31:10.289Z</time></trkpt><trkpt lat="44.369362" lon="11.4249338"><ele>154.0</ele><time>2026-05-01T08:31:11.289Z</time></trkpt><trkpt lat="44.369503" lon="11.4251369"><ele>154.0</ele><time>2026-05-01T08:31:12.289Z</time></trkpt><trkpt lat="44.3696421" lon="11.4253403"><ele>154.0</ele><time>2026-05-01T08:31:13.289Z</time></trkpt><trkpt lat="44.3697814" lon="11.4255435"><ele>154.0</ele><time>2026-05-01T08:31:14.289Z</time></trkpt><trkpt lat="44.3699275" lon="11.4257429"><ele>154.33333333333334</ele><time>2026-05-01T08:31:15.289Z</time></trkpt><trkpt lat="44.3700727" lon="11.4259459"><ele>154.66666666666666</ele><time>2026-05-01T08:31:16.289Z</time></trkpt><trkpt lat="44.3702184" lon="11.426153"><ele>155.0</ele><time>2026-05-01T08:31:17.289Z</time></trkpt><trkpt lat="44.3703668" lon="11.4263512"><ele>155.0</ele><time>2026-05-01T08:31:18.289Z</time></trkpt><trkpt lat="44.3705177" lon="11.4265199"><ele>155.0</ele><time>2026-05-01T08:31:19.289Z</time></trkpt><trkpt lat="44.3706697" lon="11.4266685"><ele>155.0</ele><time>2026-05-01T08:31:20.289Z</time></trkpt><trkpt lat="44.3708231" lon="11.4267859"><ele>154.0</ele><time>2026-05-01T08:31:21.289Z</time></trkpt><trkpt lat="44.3709915" lon="11.4268938"><ele>153.0</ele><time>2026-05-01T08:31:22.289Z</time></trkpt><trkpt lat="44.3711532" lon="11.4269787"><ele>152.0</ele><time>2026-05-01T08:31:23.289Z</time></trkpt><trkpt lat="44.3713227" lon="11.4270615"><ele>152.0</ele><time>2026-05-01T08:31:24.29Z</time></trkpt><trkpt lat="44.3714956" lon="11.427149"><ele>152.0</ele><time>2026-05-01T08:31:25.29Z</time></trkpt><trkpt lat="44.3716765" lon="11.4272197"><ele>152.0</ele><time>2026-05-01T08:31:26.29Z</time></trkpt><trkpt lat="44.3718615" lon="11.4272958"><ele>152.0</ele><time>2026-05-01T08:31:27.29Z</time></trkpt><trkpt lat="44.3720532" lon="11.4273817"><ele>152.0</ele><time>2026-05-01T08:31:28.291Z</time></trkpt><trkpt lat="44.3722452" lon="11.4274551"><ele>152.0</ele><time>2026-05-01T08:31:29.29Z</time></trkpt><trkpt lat="44.3724335" lon="11.4275386"><ele>148.66666666666666</ele><time>2026-05-01T08:31:30.29Z</time></trkpt><trkpt lat="44.3726191" lon="11.4276029"><ele>145.33333333333334</ele><time>2026-05-01T08:31:31.29Z</time></trkpt><trkpt lat="44.372803" lon="11.4276283"><ele>142.0</ele><time>2026-05-01T08:31:32.29Z</time></trkpt><trkpt lat="44.3729689" lon="11.4276302"><ele>141.0</ele><time>2026-05-01T08:31:33.29Z</time></trkpt><trkpt lat="44.3731305" lon="11.4276114"><ele>140.0</ele><time>2026-05-01T08:31:34.29Z</time></trkpt><trkpt lat="44.3732907" lon="11.4275515"><ele>139.0</ele><time>2026-05-01T08:31:35.291Z</time></trkpt><trkpt lat="44.373448" lon="11.4274591"><ele>139.0</ele><time>2026-05-01T08:31:36.29Z</time></trkpt><trkpt lat="44.3736054" lon="11.4273627"><ele>139.0</ele><time>2026-05-01T08:31:37.29Z</time></trkpt><trkpt lat="44.3737612" lon="11.4272766"><ele>139.0</ele><time>2026-05-01T08:31:38.29Z</time></trkpt><trkpt lat="44.3739211" lon="11.4271926"><ele>137.33333333333334</ele><time>2026-05-01T08:31:39.29Z</time></trkpt><trkpt lat="44.3740802" lon="11.4271115"><ele>135.66666666666666</ele><time>2026-05-01T08:31:40.29Z</time></trkpt><trkpt lat="44.3742363" lon="11.4270363"><ele>134.0</ele><time>2026-05-01T08:31:41.29Z</time></trkpt><trkpt lat="44.3743915" lon="11.426963"><ele>134.0</ele><time>2026-05-01T08:31:42.29Z</time></trkpt><trkpt lat="44.3745424" lon="11.4269067"><ele>134.0</ele><time>2026-05-01T08:31:43.29Z</time></trkpt><trkpt lat="44.3746939" lon="11.4268623"><ele>134.0</ele><time>2026-05-01T08:31:44.29Z</time></trkpt><trkpt lat="44.3748489" lon="11.4268195"><ele>134.66666666666666</ele><time>2026-05-01T08:31:45.29Z</time></trkpt><trkpt lat="44.3750051" lon="11.4267804"><ele>135.33333333333334</ele><time>2026-05-01T08:31:46.29Z</time></trkpt><trkpt lat="44.3751632" lon="11.4267372"><ele>136.0</ele><time>2026-05-01T08:31:47.29Z</time></trkpt><trkpt lat="44.3753237" lon="11.4266917"><ele>136.0</ele><time>2026-05-01T08:31:48.29Z</time></trkpt><trkpt lat="44.3754789" lon="11.4266474"><ele>136.0</ele><time>2026-05-01T08:31:49.29Z</time></trkpt><trkpt lat="44.3756395" lon="11.4266064"><ele>136.0</ele><time>2026-05-01T08:31:50.29Z</time></trkpt><trkpt lat="44.3757981" lon="11.4265725"><ele>135.33333333333334</ele><time>2026-05-01T08:31:51.29Z</time></trkpt><trkpt lat="44.3759592" lon="11.4265365"><ele>134.66666666666666</ele><time>2026-05-01T08:31:52.29Z</time></trkpt><trkpt lat="44.3761218" lon="11.4265107"><ele>134.0</ele><time>2026-05-01T08:31:53.29Z</time></trkpt><trkpt lat="44.3762915" lon="11.4264793"><ele>134.0</ele><time>2026-05-01T08:31:54.29Z</time></trkpt><trkpt lat="44.3764587" lon="11.4264535"><ele>134.0</ele><time>2026-05-01T08:31:55.29Z</time></trkpt><trkpt lat="44.376636" lon="11.4264277"><ele>134.0</ele><time>2026-05-01T08:31:56.29Z</time></trkpt><trkpt lat="44.3768021" lon="11.4264008"><ele>134.0</ele><time>2026-05-01T08:31:57.29Z</time></trkpt><trkpt lat="44.3769664" lon="11.4263774"><ele>134.0</ele><time>2026-05-01T08:31:58.29Z</time></trkpt><trkpt lat="44.3771293" lon="11.4263621"><ele>134.0</ele><time>2026-05-01T08:31:59.29Z</time></trkpt><trkpt lat="44.3772924" lon="11.426365"><ele>133.33333333333331</ele><time>2026-05-01T08:32:00.29Z</time></trkpt><trkpt lat="44.3774603" lon="11.4264017"><ele>132.66666666666666</ele><time>2026-05-01T08:32:01.29Z</time></trkpt><trkpt lat="44.3776216" lon="11.4264594"><ele>132.0</ele><time>2026-05-01T08:32:02.29Z</time></trkpt><trkpt lat="44.3777799" lon="11.4265255"><ele>132.0</ele><time>2026-05-01T08:32:03.29Z</time></trkpt><trkpt lat="44.3779425" lon="11.4265862"><ele>132.0</ele><time>2026-05-01T08:32:04.29Z</time></trkpt><trkpt lat="44.3781042" lon="11.4266319"><ele>132.0</ele><time>2026-05-01T08:32:05.29Z</time></trkpt><trkpt lat="44.3782612" lon="11.426681"><ele>131.33333333333334</ele><time>2026-05-01T08:32:06.29Z</time></trkpt><trkpt lat="44.378419" lon="11.4267383"><ele>130.66666666666669</ele><time>2026-05-01T08:32:07.29Z</time></trkpt><trkpt lat="44.3785788" lon="11.4268038"><ele>130.0</ele><time>2026-05-01T08:32:08.29Z</time></trkpt><trkpt lat="44.3787389" lon="11.4268622"><ele>129.0</ele><time>2026-05-01T08:32:09.29Z</time></trkpt><trkpt lat="44.3789012" lon="11.4269318"><ele>128.0</ele><time>2026-05-01T08:32:10.29Z</time></trkpt><trkpt lat="44.3790695" lon="11.4269996"><ele>127.0</ele><time>2026-05-01T08:32:11.29Z</time></trkpt><trkpt lat="44.3792445" lon="11.4270834"><ele>128.33333333333334</ele><time>2026-05-01T08:32:12.29Z</time></trkpt><trkpt lat="44.3794086" lon="11.427183"><ele>129.66666666666666</ele><time>2026-05-01T08:32:13.29Z</time></trkpt><trkpt lat="44.3795649" lon="11.4272781"><ele>131.0</ele><time>2026-05-01T08:32:14.29Z</time></trkpt><trkpt lat="44.3797143" lon="11.4273827"><ele>131.0</ele><time>2026-05-01T08:32:15.29Z</time></trkpt><trkpt lat="44.3798588" lon="11.427482"><ele>131.0</ele><time>2026-05-01T08:32:16.29Z</time></trkpt><trkpt lat="44.3799965" lon="11.4275679"><ele>131.0</ele><time>2026-05-01T08:32:17.291Z</time></trkpt><trkpt lat="44.3801227" lon="11.4276901"><ele>131.0</ele><time>2026-05-01T08:32:18.291Z</time></trkpt><trkpt lat="44.3802298" lon="11.4278372"><ele>131.0</ele><time>2026-05-01T08:32:19.29Z</time></trkpt><trkpt lat="44.3803187" lon="11.4280223"><ele>131.0</ele><time>2026-05-01T08:32:20.29Z</time></trkpt><trkpt lat="44.3803905" lon="11.4282207"><ele>130.0</ele><time>2026-05-01T08:32:21.291Z</time></trkpt><trkpt lat="44.3804552" lon="11.4284172"><ele>129.0</ele><time>2026-05-01T08:32:22.29Z</time></trkpt><trkpt lat="44.3805196" lon="11.4286055"><ele>128.0</ele><time>2026-05-01T08:32:23.291Z</time></trkpt><trkpt lat="44.3805865" lon="11.4287926"><ele>128.66666666666666</ele><time>2026-05-01T08:32:24.291Z</time></trkpt><trkpt lat="44.3806661" lon="11.4289635"><ele>129.33333333333334</ele><time>2026-05-01T08:32:25.291Z</time></trkpt><trkpt lat="44.3807601" lon="11.4291328"><ele>130.0</ele><time>2026-05-01T08:32:26.291Z</time></trkpt><trkpt lat="44.3808654" lon="11.4292943"><ele>130.0</ele><time>2026-05-01T08:32:27.291Z</time></trkpt><trkpt lat="44.3809713" lon="11.4294596"><ele>130.0</ele><time>2026-05-01T08:32:28.291Z</time></trkpt><trkpt lat="44.3810814" lon="11.4296226"><ele>130.0</ele><time>2026-05-01T08:32:29.291Z</time></trkpt><trkpt lat="44.3811965" lon="11.4297902"><ele>129.66666666666669</ele><time>2026-05-01T08:32:30.291Z</time></trkpt><trkpt lat="44.3813199" lon="11.4299596"><ele>129.33333333333334</ele><time>2026-05-01T08:32:31.291Z</time></trkpt><trkpt lat="44.3814489" lon="11.4301259"><ele>129.0</ele><time>2026-05-01T08:32:32.291Z</time></trkpt><trkpt lat="44.3815847" lon="11.4302788"><ele>129.0</ele><time>2026-05-01T08:32:33.291Z</time></trkpt><trkpt lat="44.3817288" lon="11.4304184"><ele>129.0</ele><time>2026-05-01T08:32:34.291Z</time></trkpt><trkpt lat="44.3818742" lon="11.4305708"><ele>129.0</ele><time>2026-05-01T08:32:35.291Z</time></trkpt><trkpt lat="44.3820063" lon="11.4307136"><ele>129.33333333333334</ele><time>2026-05-01T08:32:36.291Z</time></trkpt><trkpt lat="44.3821432" lon="11.4308596"><ele>129.66666666666669</ele><time>2026-05-01T08:32:37.291Z</time></trkpt><trkpt lat="44.3822874" lon="11.4309954"><ele>130.0</ele><time>2026-05-01T08:32:38.291Z</time></trkpt><trkpt lat="44.3824431" lon="11.4311251"><ele>130.0</ele><time>2026-05-01T08:32:39.291Z</time></trkpt><trkpt lat="44.3826062" lon="11.4312535"><ele>130.0</ele><time>2026-05-01T08:32:40.291Z</time></trkpt><trkpt lat="44.3827643" lon="11.4313742"><ele>130.0</ele><time>2026-05-01T08:32:41.291Z</time></trkpt><trkpt lat="44.3829202" lon="11.4314894"><ele>129.66666666666669</ele><time>2026-05-01T08:32:42.291Z</time></trkpt><trkpt lat="44.3830667" lon="11.4316053"><ele>129.33333333333334</ele><time>2026-05-01T08:32:43.291Z</time></trkpt><trkpt lat="44.38321" lon="11.4317297"><ele>129.0</ele><time>2026-05-01T08:32:44.291Z</time></trkpt><trkpt lat="44.383356" lon="11.4318424"><ele>129.0</ele><time>2026-05-01T08:32:45.291Z</time></trkpt><trkpt lat="44.3834987" lon="11.4319698"><ele>129.0</ele><time>2026-05-01T08:32:46.291Z</time></trkpt><trkpt lat="44.3836435" lon="11.4320952"><ele>129.0</ele><time>2026-05-01T08:32:47.291Z</time></trkpt><trkpt lat="44.3837876" lon="11.4322171"><ele>126.33333333333334</ele><time>2026-05-01T08:32:48.291Z</time></trkpt><trkpt lat="44.3839315" lon="11.4323333"><ele>123.66666666666667</ele><time>2026-05-01T08:32:49.291Z</time></trkpt><trkpt lat="44.3840802" lon="11.4324321"><ele>121.0</ele><time>2026-05-01T08:32:50.291Z</time></trkpt><trkpt lat="44.3842428" lon="11.4325012"><ele>121.0</ele><time>2026-05-01T08:32:51.291Z</time></trkpt><trkpt lat="44.3844108" lon="11.4325493"><ele>121.0</ele><time>2026-05-01T08:32:52.291Z</time></trkpt><trkpt lat="44.3845789" lon="11.4325908"><ele>121.0</ele><time>2026-05-01T08:32:53.291Z</time></trkpt><trkpt lat="44.3847496" lon="11.4326122"><ele>121.0</ele><time>2026-05-01T08:32:54.291Z</time></trkpt><trkpt lat="44.3849252" lon="11.4326077"><ele>121.0</ele><time>2026-05-01T08:32:55.291Z</time></trkpt><trkpt lat="44.3851011" lon="11.4325843"><ele>121.0</ele><time>2026-05-01T08:32:56.291Z</time></trkpt><trkpt lat="44.3852865" lon="11.4325614"><ele>121.0</ele><time>2026-05-01T08:32:57.291Z</time></trkpt><trkpt lat="44.3854545" lon="11.4325364"><ele>121.0</ele><time>2026-05-01T08:32:58.291Z</time></trkpt><trkpt lat="44.3856154" lon="11.4325194"><ele>121.0</ele><time>2026-05-01T08:32:59.291Z</time></trkpt><trkpt lat="44.3857813" lon="11.4325058"><ele>121.66666666666667</ele><time>2026-05-01T08:33:00.291Z</time></trkpt><trkpt lat="44.385949" lon="11.4324865"><ele>122.33333333333334</ele><time>2026-05-01T08:33:01.291Z</time></trkpt><trkpt lat="44.3861152" lon="11.4324764"><ele>123.0</ele><time>2026-05-01T08:33:02.291Z</time></trkpt><trkpt lat="44.3862749" lon="11.4324502"><ele>123.25</ele><time>2026-05-01T08:33:03.291Z</time></trkpt><trkpt lat="44.3864282" lon="11.4324257"><ele>123.5</ele><time>2026-05-01T08:33:04.291Z</time></trkpt><trkpt lat="44.3865789" lon="11.4323857"><ele>123.75</ele><time>2026-05-01T08:33:05.291Z</time></trkpt><trkpt lat="44.3867169" lon="11.432346"><ele>124.0</ele><time>2026-05-01T08:33:06.291Z</time></trkpt><trkpt lat="44.3868496" lon="11.4323072"><ele>124.0</ele><time>2026-05-01T08:33:07.291Z</time></trkpt><trkpt lat="44.386983" lon="11.4322748"><ele>124.0</ele><time>2026-05-01T08:33:08.291Z</time></trkpt><trkpt lat="44.3871236" lon="11.4322648"><ele>124.0</ele><time>2026-05-01T08:33:09.291Z</time></trkpt><trkpt lat="44.3872694" lon="11.4322697"><ele>124.0</ele><time>2026-05-01T08:33:10.291Z</time></trkpt><trkpt lat="44.3874127" lon="11.4323114"><ele>124.25</ele><time>2026-05-01T08:33:11.291Z</time></trkpt><trkpt lat="44.3875439" lon="11.432371"><ele>124.5</ele><time>2026-05-01T08:33:12.291Z</time></trkpt><trkpt lat="44.3876515" lon="11.4324565"><ele>124.75</ele><time>2026-05-01T08:33:13.291Z</time></trkpt><trkpt lat="44.3877672" lon="11.4325398"><ele>125.0</ele><time>2026-05-01T08:33:14.291Z</time></trkpt><trkpt lat="44.3878797" lon="11.4326201"><ele>125.0</ele><time>2026-05-01T08:33:15.291Z</time></trkpt><trkpt lat="44.3879954" lon="11.4326845"><ele>125.0</ele><time>2026-05-01T08:33:16.291Z</time></trkpt><trkpt lat="44.3881177" lon="11.4327415"><ele>125.0</ele><time>2026-05-01T08:33:17.292Z</time></trkpt><trkpt lat="44.3882466" lon="11.4327701"><ele>125.0</ele><time>2026-05-01T08:33:18.291Z</time></trkpt><trkpt lat="44.38838" lon="11.432781"><ele>124.75</ele><time>2026-05-01T08:33:19.291Z</time></trkpt><trkpt lat="44.3885081" lon="11.4327773"><ele>124.5</ele><time>2026-05-01T08:33:20.291Z</time></trkpt><trkpt lat="44.3886381" lon="11.432767"><ele>124.25</ele><time>2026-05-01T08:33:21.292Z</time></trkpt><trkpt lat="44.3887613" lon="11.4327573"><ele>124.0</ele><time>2026-05-01T08:33:22.292Z</time></trkpt><trkpt lat="44.3888881" lon="11.4327413"><ele>125.25</ele><time>2026-05-01T08:33:23.292Z</time></trkpt><trkpt lat="44.3890239" lon="11.4327233"><ele>126.5</ele><time>2026-05-01T08:33:24.292Z</time></trkpt><trkpt lat="44.3891542" lon="11.4326794"><ele>127.75</ele><time>2026-05-01T08:33:25.292Z</time></trkpt><trkpt lat="44.3892781" lon="11.4325853"><ele>129.0</ele><time>2026-05-01T08:33:26.292Z</time></trkpt><trkpt lat="44.3893932" lon="11.4324729"><ele>129.0</ele><time>2026-05-01T08:33:27.292Z</time></trkpt><trkpt lat="44.389498" lon="11.4323705"><ele>129.0</ele><time>2026-05-01T08:33:28.292Z</time></trkpt><trkpt lat="44.3895948" lon="11.4322426"><ele>129.0</ele><time>2026-05-01T08:33:29.292Z</time></trkpt><trkpt lat="44.3896919" lon="11.4321136"><ele>129.0</ele><time>2026-05-01T08:33:30.292Z</time></trkpt><trkpt lat="44.3897816" lon="11.4319902"><ele>128.25</ele><time>2026-05-01T08:33:31.292Z</time></trkpt><trkpt lat="44.3898658" lon="11.4318531"><ele>127.5</ele><time>2026-05-01T08:33:32.292Z</time></trkpt><trkpt lat="44.3899546" lon="11.4317232"><ele>126.75</ele><time>2026-05-01T08:33:33.292Z</time></trkpt><trkpt lat="44.3900446" lon="11.4315955"><ele>126.0</ele><time>2026-05-01T08:33:34.292Z</time></trkpt><trkpt lat="44.3901233" lon="11.4314679"><ele>126.0</ele><time>2026-05-01T08:33:35.292Z</time></trkpt><trkpt lat="44.3902043" lon="11.4313457"><ele>126.0</ele><time>2026-05-01T08:33:36.292Z</time></trkpt><trkpt lat="44.3902751" lon="11.4312158"><ele>126.0</ele><time>2026-05-01T08:33:37.292Z</time></trkpt><trkpt lat="44.3903364" lon="11.4310776"><ele>126.0</ele><time>2026-05-01T08:33:38.292Z</time></trkpt><trkpt lat="44.3903905" lon="11.4309331"><ele>124.25</ele><time>2026-05-01T08:33:39.292Z</time></trkpt><trkpt lat="44.3904472" lon="11.4307778"><ele>122.5</ele><time>2026-05-01T08:33:40.292Z</time></trkpt><trkpt lat="44.3905122" lon="11.4306134"><ele>120.75</ele><time>2026-05-01T08:33:41.293Z</time></trkpt><trkpt lat="44.3905804" lon="11.430441"><ele>119.0</ele><time>2026-05-01T08:33:42.292Z</time></trkpt><trkpt lat="44.390654" lon="11.4302616"><ele>118.0</ele><time>2026-05-01T08:33:43.292Z</time></trkpt><trkpt lat="44.3907323" lon="11.4300775"><ele>117.0</ele><time>2026-05-01T08:33:44.292Z</time></trkpt><trkpt lat="44.3908273" lon="11.4299015"><ele>116.0</ele><time>2026-05-01T08:33:45.292Z</time></trkpt><trkpt lat="44.3909342" lon="11.4297335"><ele>116.0</ele><time>2026-05-01T08:33:46.292Z</time></trkpt><trkpt lat="44.3910604" lon="11.4295883"><ele>116.0</ele><time>2026-05-01T08:33:47.292Z</time></trkpt><trkpt lat="44.3913482" lon="11.4293194"><ele>116.0</ele><time>2026-05-01T08:33:49.292Z</time></trkpt><trkpt lat="44.3914996" lon="11.4291961"><ele>116.0</ele><time>2026-05-01T08:33:50.292Z</time></trkpt><trkpt lat="44.3916534" lon="11.4290782"><ele>116.0</ele><time>2026-05-01T08:33:51.292Z</time></trkpt><trkpt lat="44.3917974" lon="11.4289622"><ele>116.0</ele><time>2026-05-01T08:33:52.292Z</time></trkpt><trkpt lat="44.3919405" lon="11.4288467"><ele>116.0</ele><time>2026-05-01T08:33:53.292Z</time></trkpt><trkpt lat="44.3920843" lon="11.4287355"><ele>116.0</ele><time>2026-05-01T08:33:54.292Z</time></trkpt><trkpt lat="44.3922306" lon="11.428622"><ele>114.66666666666666</ele><time>2026-05-01T08:33:55.292Z</time></trkpt><trkpt lat="44.3923711" lon="11.4285283"><ele>113.33333333333334</ele><time>2026-05-01T08:33:56.292Z</time></trkpt><trkpt lat="44.3925211" lon="11.4284545"><ele>112.0</ele><time>2026-05-01T08:33:57.292Z</time></trkpt><trkpt lat="44.3926824" lon="11.428407"><ele>112.0</ele><time>2026-05-01T08:33:58.292Z</time></trkpt><trkpt lat="44.3929968" lon="11.4284599"><ele>112.0</ele><time>2026-05-01T08:34:00.292Z</time></trkpt><trkpt lat="44.3931508" lon="11.4285414"><ele>111.66666666666667</ele><time>2026-05-01T08:34:01.292Z</time></trkpt><trkpt lat="44.3933018" lon="11.4286483"><ele>111.33333333333334</ele><time>2026-05-01T08:34:02.292Z</time></trkpt><trkpt lat="44.3934563" lon="11.428766"><ele>111.0</ele><time>2026-05-01T08:34:03.292Z</time></trkpt><trkpt lat="44.3936111" lon="11.428894"><ele>111.66666666666666</ele><time>2026-05-01T08:34:04.292Z</time></trkpt><trkpt lat="44.3937672" lon="11.4290191"><ele>112.33333333333333</ele><time>2026-05-01T08:34:05.292Z</time></trkpt><trkpt lat="44.393922" lon="11.4291415"><ele>113.0</ele><time>2026-05-01T08:34:06.292Z</time></trkpt><trkpt lat="44.3940703" lon="11.4292622"><ele>113.0</ele><time>2026-05-01T08:34:07.292Z</time></trkpt><trkpt lat="44.3942111" lon="11.4293755"><ele>113.0</ele><time>2026-05-01T08:34:08.292Z</time></trkpt><trkpt lat="44.3943418" lon="11.4294878"><ele>113.0</ele><time>2026-05-01T08:34:09.292Z</time></trkpt><trkpt lat="44.3944712" lon="11.4295946"><ele>113.0</ele><time>2026-05-01T08:34:10.292Z</time></trkpt><trkpt lat="44.3946038" lon="11.4297016"><ele>113.0</ele><time>2026-05-01T08:34:11.292Z</time></trkpt><trkpt lat="44.3947301" lon="11.4298003"><ele>113.0</ele><time>2026-05-01T08:34:12.292Z</time></trkpt><trkpt lat="44.3948494" lon="11.4298934"><ele>113.0</ele><time>2026-05-01T08:34:13.292Z</time></trkpt><trkpt lat="44.3949612" lon="11.4299779"><ele>113.0</ele><time>2026-05-01T08:34:14.292Z</time></trkpt><trkpt lat="44.3950653" lon="11.4300604"><ele>113.0</ele><time>2026-05-01T08:34:15.292Z</time></trkpt><trkpt lat="44.3951711" lon="11.4301423"><ele>113.0</ele><time>2026-05-01T08:34:16.292Z</time></trkpt><trkpt lat="44.3954455" lon="11.4302767"><ele>112.0</ele><time>2026-05-01T08:34:18.292Z</time></trkpt><trkpt lat="44.3956179" lon="11.4303117"><ele>111.0</ele><time>2026-05-01T08:34:19.292Z</time></trkpt><trkpt lat="44.3958108" lon="11.4303319"><ele>110.0</ele><time>2026-05-01T08:34:20.292Z</time></trkpt><trkpt lat="44.3960197" lon="11.4303544"><ele>110.0</ele><time>2026-05-01T08:34:21.292Z</time></trkpt><trkpt lat="44.3962365" lon="11.4303841"><ele>110.0</ele><time>2026-05-01T08:34:22.293Z</time></trkpt><trkpt lat="44.3964605" lon="11.4304126"><ele>110.0</ele><time>2026-05-01T08:34:23.293Z</time></trkpt><trkpt lat="44.3966979" lon="11.4304392"><ele>108.0</ele><time>2026-05-01T08:34:24.293Z</time></trkpt><trkpt lat="44.3969326" lon="11.4304642"><ele>106.0</ele><time>2026-05-01T08:34:25.293Z</time></trkpt><trkpt lat="44.3971559" lon="11.4304864"><ele>108.0</ele><time>2026-05-01T08:34:26.293Z</time></trkpt><trkpt lat="44.397371" lon="11.4305041"><ele>110.0</ele><time>2026-05-01T08:34:27.293Z</time></trkpt><trkpt lat="44.3975741" lon="11.4305208"><ele>112.0</ele><time>2026-05-01T08:34:28.293Z</time></trkpt><trkpt lat="44.397772" lon="11.430537"><ele>112.0</ele><time>2026-05-01T08:34:29.293Z</time></trkpt><trkpt lat="44.3979687" lon="11.4305607"><ele>112.0</ele><time>2026-05-01T08:34:30.293Z</time></trkpt><trkpt lat="44.3981578" lon="11.4305967"><ele>112.0</ele><time>2026-05-01T08:34:31.293Z</time></trkpt><trkpt lat="44.3983449" lon="11.4306243"><ele>112.0</ele><time>2026-05-01T08:34:32.293Z</time></trkpt><trkpt lat="44.3985303" lon="11.4306677"><ele>112.0</ele><time>2026-05-01T08:34:33.293Z</time></trkpt><trkpt lat="44.3987187" lon="11.4307158"><ele>112.0</ele><time>2026-05-01T08:34:34.293Z</time></trkpt><trkpt lat="44.3989033" lon="11.4307623"><ele>112.33333333333334</ele><time>2026-05-01T08:34:35.293Z</time></trkpt><trkpt lat="44.3990858" lon="11.4307968"><ele>112.66666666666666</ele><time>2026-05-01T08:34:36.293Z</time></trkpt><trkpt lat="44.3992587" lon="11.4307946"><ele>113.0</ele><time>2026-05-01T08:34:37.293Z</time></trkpt><trkpt lat="44.3994156" lon="11.4307572"><ele>113.0</ele><time>2026-05-01T08:34:38.293Z</time></trkpt><trkpt lat="44.3995633" lon="11.4306912"><ele>113.0</ele><time>2026-05-01T08:34:39.293Z</time></trkpt><trkpt lat="44.3996984" lon="11.4306"><ele>113.0</ele><time>2026-05-01T08:34:40.293Z</time></trkpt><trkpt lat="44.3998368" lon="11.4305212"><ele>111.0</ele><time>2026-05-01T08:34:41.293Z</time></trkpt><trkpt lat="44.3999775" lon="11.4304371"><ele>109.0</ele><time>2026-05-01T08:34:42.293Z</time></trkpt><trkpt lat="44.4001153" lon="11.4303388"><ele>107.0</ele><time>2026-05-01T08:34:43.293Z</time></trkpt><trkpt lat="44.4002467" lon="11.4302258"><ele>107.0</ele><time>2026-05-01T08:34:44.293Z</time></trkpt><trkpt lat="44.4003781" lon="11.4300998"><ele>107.0</ele><time>2026-05-01T08:34:45.293Z</time></trkpt><trkpt lat="44.4005039" lon="11.4299687"><ele>107.0</ele><time>2026-05-01T08:34:46.293Z</time></trkpt><trkpt lat="44.4006267" lon="11.4298464"><ele>108.0</ele><time>2026-05-01T08:34:47.293Z</time></trkpt><trkpt lat="44.4007499" lon="11.4297227"><ele>109.0</ele><time>2026-05-01T08:34:48.293Z</time></trkpt><trkpt lat="44.4008761" lon="11.429597"><ele>110.0</ele><time>2026-05-01T08:34:49.293Z</time></trkpt><trkpt lat="44.4010108" lon="11.4294733"><ele>110.0</ele><time>2026-05-01T08:34:50.293Z</time></trkpt><trkpt lat="44.4011609" lon="11.4293513"><ele>110.0</ele><time>2026-05-01T08:34:51.293Z</time></trkpt><trkpt lat="44.4013155" lon="11.4292253"><ele>110.0</ele><time>2026-05-01T08:34:52.293Z</time></trkpt><trkpt lat="44.4014695" lon="11.4291158"><ele>110.66666666666666</ele><time>2026-05-01T08:34:53.293Z</time></trkpt><trkpt lat="44.4016211" lon="11.4290008"><ele>111.33333333333334</ele><time>2026-05-01T08:34:54.293Z</time></trkpt><trkpt lat="44.4017836" lon="11.4289072"><ele>112.0</ele><time>2026-05-01T08:34:55.293Z</time></trkpt><trkpt lat="44.4019495" lon="11.4288024"><ele>111.66666666666667</ele><time>2026-05-01T08:34:56.293Z</time></trkpt><trkpt lat="44.4021174" lon="11.4287046"><ele>111.33333333333334</ele><time>2026-05-01T08:34:57.293Z</time></trkpt><trkpt lat="44.4022825" lon="11.4286038"><ele>111.0</ele><time>2026-05-01T08:34:58.293Z</time></trkpt><trkpt lat="44.402447" lon="11.4284954"><ele>111.0</ele><time>2026-05-01T08:34:59.293Z</time></trkpt><trkpt lat="44.4026098" lon="11.428395"><ele>111.0</ele><time>2026-05-01T08:35:00.293Z</time></trkpt><trkpt lat="44.4027703" lon="11.4282997"><ele>111.0</ele><time>2026-05-01T08:35:01.293Z</time></trkpt><trkpt lat="44.4029284" lon="11.4282131"><ele>111.33333333333334</ele><time>2026-05-01T08:35:02.293Z</time></trkpt><trkpt lat="44.4030868" lon="11.4281384"><ele>111.66666666666667</ele><time>2026-05-01T08:35:03.293Z</time></trkpt><trkpt lat="44.4032471" lon="11.428062"><ele>112.0</ele><time>2026-05-01T08:35:04.293Z</time></trkpt><trkpt lat="44.4034058" lon="11.4279897"><ele>111.33333333333334</ele><time>2026-05-01T08:35:05.293Z</time></trkpt><trkpt lat="44.403568" lon="11.4279243"><ele>110.66666666666666</ele><time>2026-05-01T08:35:06.293Z</time></trkpt><trkpt lat="44.4037316" lon="11.4278551"><ele>110.0</ele><time>2026-05-01T08:35:07.293Z</time></trkpt><trkpt lat="44.4038992" lon="11.4277854"><ele>110.0</ele><time>2026-05-01T08:35:08.293Z</time></trkpt><trkpt lat="44.404065" lon="11.4277131"><ele>110.0</ele><time>2026-05-01T08:35:09.293Z</time></trkpt><trkpt lat="44.4042284" lon="11.4276441"><ele>110.0</ele><time>2026-05-01T08:35:10.293Z</time></trkpt><trkpt lat="44.4043876" lon="11.4275789"><ele>110.0</ele><time>2026-05-01T08:35:11.293Z</time></trkpt><trkpt lat="44.4045355" lon="11.4275154"><ele>110.0</ele><time>2026-05-01T08:35:12.293Z</time></trkpt><trkpt lat="44.4046774" lon="11.427455"><ele>110.0</ele><time>2026-05-01T08:35:13.293Z</time></trkpt><trkpt lat="44.4048181" lon="11.4273902"><ele>110.66666666666666</ele><time>2026-05-01T08:35:14.293Z</time></trkpt><trkpt lat="44.404952" lon="11.4273188"><ele>111.33333333333334</ele><time>2026-05-01T08:35:15.293Z</time></trkpt><trkpt lat="44.4050899" lon="11.4272014"><ele>112.0</ele><time>2026-05-01T08:35:16.293Z</time></trkpt><trkpt lat="44.405211" lon="11.4270553"><ele>112.5</ele><time>2026-05-01T08:35:17.293Z</time></trkpt><trkpt lat="44.4053157" lon="11.4268849"><ele>113.0</ele><time>2026-05-01T08:35:18.293Z</time></trkpt><trkpt lat="44.4054007" lon="11.4267233"><ele>113.5</ele><time>2026-05-01T08:35:19.293Z</time></trkpt><trkpt lat="44.4054866" lon="11.4265634"><ele>114.0</ele><time>2026-05-01T08:35:20.294Z</time></trkpt><trkpt lat="44.4055776" lon="11.426424"><ele>111.0</ele><time>2026-05-01T08:35:21.294Z</time></trkpt><trkpt lat="44.4056922" lon="11.4262994"><ele>108.0</ele><time>2026-05-01T08:35:22.295Z</time></trkpt><trkpt lat="44.4058456" lon="11.4262133"><ele>105.0</ele><time>2026-05-01T08:35:23.294Z</time></trkpt><trkpt lat="44.4060105" lon="11.4261722"><ele>105.0</ele><time>2026-05-01T08:35:24.294Z</time></trkpt><trkpt lat="44.4061816" lon="11.4261936"><ele>105.0</ele><time>2026-05-01T08:35:25.294Z</time></trkpt><trkpt lat="44.4063467" lon="11.4262779"><ele>105.0</ele><time>2026-05-01T08:35:26.294Z</time></trkpt><trkpt lat="44.4065025" lon="11.4264141"><ele>103.66666666666666</ele><time>2026-05-01T08:35:27.294Z</time></trkpt><trkpt lat="44.406644" lon="11.4265546"><ele>102.33333333333333</ele><time>2026-05-01T08:35:28.295Z</time></trkpt><trkpt lat="44.406767" lon="11.4267102"><ele>101.0</ele><time>2026-05-01T08:35:29.294Z</time></trkpt><trkpt lat="44.4068924" lon="11.4268636"><ele>101.0</ele><time>2026-05-01T08:35:30.294Z</time></trkpt><trkpt lat="44.4070046" lon="11.427011"><ele>101.0</ele><time>2026-05-01T08:35:31.294Z</time></trkpt><trkpt lat="44.4071185" lon="11.4271544"><ele>101.0</ele><time>2026-05-01T08:35:32.294Z</time></trkpt><trkpt lat="44.4072278" lon="11.4272996"><ele>100.66666666666666</ele><time>2026-05-01T08:35:33.294Z</time></trkpt><trkpt lat="44.4073364" lon="11.4274406"><ele>100.33333333333334</ele><time>2026-05-01T08:35:34.294Z</time></trkpt><trkpt lat="44.4074476" lon="11.4275828"><ele>100.0</ele><time>2026-05-01T08:35:35.294Z</time></trkpt><trkpt lat="44.4075689" lon="11.4277099"><ele>100.0</ele><time>2026-05-01T08:35:36.294Z</time></trkpt><trkpt lat="44.4077047" lon="11.4278051"><ele>100.0</ele><time>2026-05-01T08:35:37.294Z</time></trkpt><trkpt lat="44.4078543" lon="11.4278607"><ele>100.0</ele><time>2026-05-01T08:35:38.294Z</time></trkpt><trkpt lat="44.4080075" lon="11.4278876"><ele>99.0</ele><time>2026-05-01T08:35:39.294Z</time></trkpt><trkpt lat="44.408157" lon="11.4278856"><ele>98.0</ele><time>2026-05-01T08:35:40.294Z</time></trkpt><trkpt lat="44.4083063" lon="11.4278489"><ele>97.0</ele><time>2026-05-01T08:35:41.294Z</time></trkpt><trkpt lat="44.4084586" lon="11.4277942"><ele>97.0</ele><time>2026-05-01T08:35:42.294Z</time></trkpt><trkpt lat="44.4086045" lon="11.4277211"><ele>97.0</ele><time>2026-05-01T08:35:43.294Z</time></trkpt><trkpt lat="44.4087445" lon="11.4276522"><ele>97.0</ele><time>2026-05-01T08:35:44.294Z</time></trkpt><trkpt lat="44.40889" lon="11.4276013"><ele>98.0</ele><time>2026-05-01T08:35:45.294Z</time></trkpt><trkpt lat="44.4090386" lon="11.4275539"><ele>99.0</ele><time>2026-05-01T08:35:46.294Z</time></trkpt><trkpt lat="44.4091892" lon="11.427503"><ele>100.0</ele><time>2026-05-01T08:35:47.294Z</time></trkpt><trkpt lat="44.4093502" lon="11.4274606"><ele>100.0</ele><time>2026-05-01T08:35:48.294Z</time></trkpt><trkpt lat="44.4095183" lon="11.4274231"><ele>100.0</ele><time>2026-05-01T08:35:49.294Z</time></trkpt><trkpt lat="44.4096952" lon="11.4274004"><ele>100.0</ele><time>2026-05-01T08:35:50.294Z</time></trkpt><trkpt lat="44.4098766" lon="11.4273787"><ele>100.66666666666667</ele><time>2026-05-01T08:35:51.294Z</time></trkpt><trkpt lat="44.4100577" lon="11.4273706"><ele>101.33333333333334</ele><time>2026-05-01T08:35:52.294Z</time></trkpt><trkpt lat="44.4102489" lon="11.4273599"><ele>102.0</ele><time>2026-05-01T08:35:53.294Z</time></trkpt><trkpt lat="44.410433" lon="11.4273575"><ele>101.66666666666666</ele><time>2026-05-01T08:35:54.294Z</time></trkpt><trkpt lat="44.4106191" lon="11.4273618"><ele>101.33333333333333</ele><time>2026-05-01T08:35:55.294Z</time></trkpt><trkpt lat="44.4108087" lon="11.4273729"><ele>101.0</ele><time>2026-05-01T08:35:56.294Z</time></trkpt><trkpt lat="44.4109997" lon="11.4274033"><ele>101.0</ele><time>2026-05-01T08:35:57.294Z</time></trkpt><trkpt lat="44.4111914" lon="11.4274311"><ele>101.0</ele><time>2026-05-01T08:35:58.294Z</time></trkpt><trkpt lat="44.4113844" lon="11.4274486"><ele>101.0</ele><time>2026-05-01T08:35:59.294Z</time></trkpt><trkpt lat="44.4115781" lon="11.4274439"><ele>99.33333333333333</ele><time>2026-05-01T08:36:00.294Z</time></trkpt><trkpt lat="44.411769" lon="11.4274286"><ele>97.66666666666666</ele><time>2026-05-01T08:36:01.294Z</time></trkpt><trkpt lat="44.4119571" lon="11.4273987"><ele>96.0</ele><time>2026-05-01T08:36:02.294Z</time></trkpt><trkpt lat="44.4121493" lon="11.4273648"><ele>95.0</ele><time>2026-05-01T08:36:03.294Z</time></trkpt><trkpt lat="44.41235" lon="11.4273406"><ele>94.0</ele><time>2026-05-01T08:36:04.294Z</time></trkpt><trkpt lat="44.4125506" lon="11.4273191"><ele>93.0</ele><time>2026-05-01T08:36:05.294Z</time></trkpt><trkpt lat="44.4127529" lon="11.427292"><ele>93.0</ele><time>2026-05-01T08:36:06.294Z</time></trkpt><trkpt lat="44.4129543" lon="11.4272721"><ele>93.0</ele><time>2026-05-01T08:36:07.294Z</time></trkpt><trkpt lat="44.413156" lon="11.4272505"><ele>93.0</ele><time>2026-05-01T08:36:08.294Z</time></trkpt><trkpt lat="44.4133594" lon="11.4272202"><ele>93.33333333333333</ele><time>2026-05-01T08:36:09.294Z</time></trkpt><trkpt lat="44.4135604" lon="11.4271994"><ele>93.66666666666666</ele><time>2026-05-01T08:36:10.294Z</time></trkpt><trkpt lat="44.413761" lon="11.427173"><ele>94.0</ele><time>2026-05-01T08:36:11.294Z</time></trkpt><trkpt lat="44.4139574" lon="11.427156"><ele>92.33333333333333</ele><time>2026-05-01T08:36:12.294Z</time></trkpt><trkpt lat="44.4141577" lon="11.4271342"><ele>90.66666666666667</ele><time>2026-05-01T08:36:13.294Z</time></trkpt><trkpt lat="44.4143612" lon="11.4271117"><ele>89.0</ele><time>2026-05-01T08:36:14.294Z</time></trkpt><trkpt lat="44.4145597" lon="11.4270828"><ele>90.66666666666667</ele><time>2026-05-01T08:36:15.294Z</time></trkpt><trkpt lat="44.4147475" lon="11.4270633"><ele>92.33333333333333</ele><time>2026-05-01T08:36:16.295Z</time></trkpt><trkpt lat="44.4149312" lon="11.4270448"><ele>94.0</ele><time>2026-05-01T08:36:17.294Z</time></trkpt><trkpt lat="44.4151167" lon="11.4270285"><ele>94.0</ele><time>2026-05-01T08:36:18.295Z</time></trkpt><trkpt lat="44.4152926" lon="11.4270066"><ele>94.0</ele><time>2026-05-01T08:36:19.295Z</time></trkpt><trkpt lat="44.4154723" lon="11.4269875"><ele>94.0</ele><time>2026-05-01T08:36:20.295Z</time></trkpt><trkpt lat="44.4156502" lon="11.4269711"><ele>96.0</ele><time>2026-05-01T08:36:21.295Z</time></trkpt><trkpt lat="44.4158376" lon="11.4269578"><ele>98.0</ele><time>2026-05-01T08:36:22.295Z</time></trkpt><trkpt lat="44.416027" lon="11.4269369"><ele>100.0</ele><time>2026-05-01T08:36:23.295Z</time></trkpt><trkpt lat="44.4162153" lon="11.4269126"><ele>97.0</ele><time>2026-05-01T08:36:24.295Z</time></trkpt><trkpt lat="44.4163985" lon="11.4268921"><ele>94.0</ele><time>2026-05-01T08:36:25.295Z</time></trkpt><trkpt lat="44.4165788" lon="11.4268727"><ele>91.0</ele><time>2026-05-01T08:36:26.295Z</time></trkpt><trkpt lat="44.4167543" lon="11.4268569"><ele>91.0</ele><time>2026-05-01T08:36:27.295Z</time></trkpt><trkpt lat="44.4169247" lon="11.4268373"><ele>91.0</ele><time>2026-05-01T08:36:28.295Z</time></trkpt><trkpt lat="44.417089" lon="11.4268245"><ele>91.0</ele><time>2026-05-01T08:36:29.295Z</time></trkpt><trkpt lat="44.4172558" lon="11.4268074"><ele>90.66666666666666</ele><time>2026-05-01T08:36:30.295Z</time></trkpt><trkpt lat="44.4174273" lon="11.426786"><ele>90.33333333333333</ele><time>2026-05-01T08:36:31.295Z</time></trkpt><trkpt lat="44.4176142" lon="11.4267605"><ele>90.0</ele><time>2026-05-01T08:36:32.295Z</time></trkpt><trkpt lat="44.4178114" lon="11.4267363"><ele>89.66666666666667</ele><time>2026-05-01T08:36:33.295Z</time></trkpt><trkpt lat="44.4180128" lon="11.4267114"><ele>89.33333333333334</ele><time>2026-05-01T08:36:34.295Z</time></trkpt><trkpt lat="44.418225" lon="11.4266848"><ele>89.0</ele><time>2026-05-01T08:36:35.295Z</time></trkpt><trkpt lat="44.4184596" lon="11.4266443"><ele>89.0</ele><time>2026-05-01T08:36:36.295Z</time></trkpt><trkpt lat="44.4187256" lon="11.4265985"><ele>89.0</ele><time>2026-05-01T08:36:37.295Z</time></trkpt><trkpt lat="44.4190041" lon="11.4265626"><ele>89.0</ele><time>2026-05-01T08:36:38.295Z</time></trkpt><trkpt lat="44.4192894" lon="11.4265349"><ele>89.0</ele><time>2026-05-01T08:36:39.295Z</time></trkpt><trkpt lat="44.4195773" lon="11.4265123"><ele>90.0</ele><time>2026-05-01T08:36:40.295Z</time></trkpt><trkpt lat="44.4198438" lon="11.4264826"><ele>91.0</ele><time>2026-05-01T08:36:41.295Z</time></trkpt><trkpt lat="44.4200408" lon="11.4264485"><ele>91.0</ele><time>2026-05-01T08:36:42.295Z</time></trkpt><trkpt lat="44.4202032" lon="11.4264152"><ele>91.0</ele><time>2026-05-01T08:36:43.295Z</time></trkpt><trkpt lat="44.4203602" lon="11.4263686"><ele>91.0</ele><time>2026-05-01T08:36:44.295Z</time></trkpt><trkpt lat="44.4205112" lon="11.4263345"><ele>89.75</ele><time>2026-05-01T08:36:45.295Z</time></trkpt><trkpt lat="44.4206551" lon="11.426303"><ele>88.5</ele><time>2026-05-01T08:36:46.295Z</time></trkpt><trkpt lat="44.4208032" lon="11.4262732"><ele>87.25</ele><time>2026-05-01T08:36:47.295Z</time></trkpt><trkpt lat="44.4209523" lon="11.4262624"><ele>86.0</ele><time>2026-05-01T08:36:48.295Z</time></trkpt><trkpt lat="44.4210919" lon="11.4262483"><ele>86.0</ele><time>2026-05-01T08:36:49.295Z</time></trkpt><trkpt lat="44.4212407" lon="11.4262631"><ele>86.0</ele><time>2026-05-01T08:36:50.295Z</time></trkpt><trkpt lat="44.4213868" lon="11.4263317"><ele>86.0</ele><time>2026-05-01T08:36:51.295Z</time></trkpt><trkpt lat="44.4215268" lon="11.4264454"><ele>86.0</ele><time>2026-05-01T08:36:52.295Z</time></trkpt><trkpt lat="44.4216535" lon="11.4265649"><ele>86.0</ele><time>2026-05-01T08:36:53.295Z</time></trkpt><trkpt lat="44.4217716" lon="11.4267056"><ele>86.0</ele><time>2026-05-01T08:36:54.295Z</time></trkpt><trkpt lat="44.4218845" lon="11.4268663"><ele>86.0</ele><time>2026-05-01T08:36:55.295Z</time></trkpt><trkpt lat="44.4219958" lon="11.4270264"><ele>86.0</ele><time>2026-05-01T08:36:56.295Z</time></trkpt><trkpt lat="44.422115" lon="11.4271858"><ele>86.0</ele><time>2026-05-01T08:36:57.295Z</time></trkpt><trkpt lat="44.4222296" lon="11.4273368"><ele>85.33333333333334</ele><time>2026-05-01T08:36:58.295Z</time></trkpt><trkpt lat="44.4223469" lon="11.4274865"><ele>84.66666666666667</ele><time>2026-05-01T08:36:59.295Z</time></trkpt><trkpt lat="44.4224617" lon="11.4276355"><ele>84.0</ele><time>2026-05-01T08:37:00.295Z</time></trkpt><trkpt lat="44.4225648" lon="11.4277848"><ele>84.0</ele><time>2026-05-01T08:37:01.295Z</time></trkpt><trkpt lat="44.4226536" lon="11.4279416"><ele>84.0</ele><time>2026-05-01T08:37:02.295Z</time></trkpt><trkpt lat="44.4227322" lon="11.4281153"><ele>84.0</ele><time>2026-05-01T08:37:03.295Z</time></trkpt><trkpt lat="44.4227994" lon="11.4283084"><ele>84.0</ele><time>2026-05-01T08:37:04.295Z</time></trkpt><trkpt lat="44.4228472" lon="11.4285067"><ele>84.0</ele><time>2026-05-01T08:37:05.295Z</time></trkpt><trkpt lat="44.4228966" lon="11.4287011"><ele>84.0</ele><time>2026-05-01T08:37:06.296Z</time></trkpt><trkpt lat="44.4229504" lon="11.428885"><ele>84.0</ele><time>2026-05-01T08:37:07.295Z</time></trkpt><trkpt lat="44.4230091" lon="11.4290679"><ele>84.0</ele><time>2026-05-01T08:37:08.295Z</time></trkpt><trkpt lat="44.4230758" lon="11.4292456"><ele>84.0</ele><time>2026-05-01T08:37:09.295Z</time></trkpt><trkpt lat="44.4231545" lon="11.4294205"><ele>84.0</ele><time>2026-05-01T08:37:10.295Z</time></trkpt><trkpt lat="44.4232367" lon="11.42958"><ele>84.0</ele><time>2026-05-01T08:37:11.295Z</time></trkpt><trkpt lat="44.4233245" lon="11.4297208"><ele>84.0</ele><time>2026-05-01T08:37:12.295Z</time></trkpt><trkpt lat="44.4234201" lon="11.429836"><ele>84.0</ele><time>2026-05-01T08:37:13.296Z</time></trkpt><trkpt lat="44.4235095" lon="11.4299429"><ele>84.0</ele><time>2026-05-01T08:37:14.295Z</time></trkpt><trkpt lat="44.4236028" lon="11.4300443"><ele>84.0</ele><time>2026-05-01T08:37:15.295Z</time></trkpt><trkpt lat="44.4236922" lon="11.4301503"><ele>84.0</ele><time>2026-05-01T08:37:16.295Z</time></trkpt><trkpt lat="44.4237864" lon="11.4302639"><ele>84.0</ele><time>2026-05-01T08:37:17.295Z</time></trkpt><trkpt lat="44.4238854" lon="11.4303828"><ele>84.0</ele><time>2026-05-01T08:37:18.296Z</time></trkpt><trkpt lat="44.4239911" lon="11.4305094"><ele>84.0</ele><time>2026-05-01T08:37:19.296Z</time></trkpt><trkpt lat="44.4240978" lon="11.4306425"><ele>84.0</ele><time>2026-05-01T08:37:20.296Z</time></trkpt><trkpt lat="44.4242158" lon="11.4307791"><ele>84.33333333333333</ele><time>2026-05-01T08:37:21.297Z</time></trkpt><trkpt lat="44.4243298" lon="11.4309296"><ele>84.66666666666666</ele><time>2026-05-01T08:37:22.296Z</time></trkpt><trkpt lat="44.4244487" lon="11.4310832"><ele>85.0</ele><time>2026-05-01T08:37:23.296Z</time></trkpt><trkpt lat="44.4245733" lon="11.4312343"><ele>85.66666666666666</ele><time>2026-05-01T08:37:24.296Z</time></trkpt><trkpt lat="44.4246934" lon="11.4313824"><ele>86.33333333333333</ele><time>2026-05-01T08:37:25.296Z</time></trkpt><trkpt lat="44.4248142" lon="11.4315392"><ele>87.0</ele><time>2026-05-01T08:37:26.296Z</time></trkpt><trkpt lat="44.4250489" lon="11.4318455"><ele>87.0</ele><time>2026-05-01T08:37:28.296Z</time></trkpt><trkpt lat="44.4251529" lon="11.4319868"><ele>87.0</ele><time>2026-05-01T08:37:29.296Z</time></trkpt><trkpt lat="44.4252782" lon="11.432111"><ele>87.0</ele><time>2026-05-01T08:37:30.296Z</time></trkpt><trkpt lat="44.4254108" lon="11.4322159"><ele>89.75</ele><time>2026-05-01T08:37:31.296Z</time></trkpt><trkpt lat="44.425537" lon="11.4322941"><ele>92.5</ele><time>2026-05-01T08:37:32.296Z</time></trkpt><trkpt lat="44.4256589" lon="11.4323614"><ele>95.25</ele><time>2026-05-01T08:37:33.296Z</time></trkpt><trkpt lat="44.4257817" lon="11.4324121"><ele>98.0</ele><time>2026-05-01T08:37:34.296Z</time></trkpt><trkpt lat="44.425901" lon="11.4324535"><ele>98.0</ele><time>2026-05-01T08:37:35.296Z</time></trkpt><trkpt lat="44.4260136" lon="11.4324897"><ele>98.0</ele><time>2026-05-01T08:37:36.296Z</time></trkpt><trkpt lat="44.4261172" lon="11.4325277"><ele>98.0</ele><time>2026-05-01T08:37:37.296Z</time></trkpt><trkpt lat="44.426205" lon="11.4325622"><ele>98.0</ele><time>2026-05-01T08:37:38.296Z</time></trkpt><trkpt lat="44.4262828" lon="11.4325934"><ele>98.0</ele><time>2026-05-01T08:37:39.296Z</time></trkpt><trkpt lat="44.4263611" lon="11.4326201"><ele>97.99999999999999</ele><time>2026-05-01T08:37:40.296Z</time></trkpt><trkpt lat="44.4264358" lon="11.4326523"><ele>98.0</ele><time>2026-05-01T08:37:41.296Z</time></trkpt><trkpt lat="44.4264979" lon="11.4326905"><ele>98.0</ele><time>2026-05-01T08:37:42.297Z</time></trkpt><trkpt lat="44.4265961" lon="11.432772"><ele>98.0</ele><time>2026-05-01T08:37:44.296Z</time></trkpt><trkpt lat="44.4266655" lon="11.4328358"><ele>97.99999999999999</ele><time>2026-05-01T08:37:46.297Z</time></trkpt><trkpt lat="44.4267268" lon="11.4329097"><ele>98.0</ele><time>2026-05-01T08:37:48.296Z</time></trkpt><trkpt lat="44.4267957" lon="11.4330076"><ele>97.99999999999999</ele><time>2026-05-01T08:37:50.296Z</time></trkpt><trkpt lat="44.4268586" lon="11.4330895"><ele>98.0</ele><time>2026-05-01T08:37:52.296Z</time></trkpt><trkpt lat="44.4269055" lon="11.4331512"><ele>98.0</ele><time>2026-05-01T08:37:54.296Z</time></trkpt><trkpt lat="44.4269626" lon="11.433216"><ele>98.0</ele><time>2026-05-01T08:37:56.296Z</time></trkpt><trkpt lat="44.4270126" lon="11.4332735"><ele>97.99999999999999</ele><time>2026-05-01T08:37:57.296Z</time></trkpt><trkpt lat="44.4270871" lon="11.4333552"><ele>98.0</ele><time>2026-05-01T08:37:58.296Z</time></trkpt><trkpt lat="44.4271709" lon="11.4334472"><ele>98.33333333333333</ele><time>2026-05-01T08:37:59.296Z</time></trkpt><trkpt lat="44.4272825" lon="11.4335788"><ele>98.66666666666666</ele><time>2026-05-01T08:38:00.296Z</time></trkpt><trkpt lat="44.4274074" lon="11.433735"><ele>99.0</ele><time>2026-05-01T08:38:01.296Z</time></trkpt><trkpt lat="44.4275262" lon="11.4339"><ele>99.0</ele><time>2026-05-01T08:38:02.296Z</time></trkpt><trkpt lat="44.4276422" lon="11.4340743"><ele>99.0</ele><time>2026-05-01T08:38:03.296Z</time></trkpt><trkpt lat="44.4277484" lon="11.4342653"><ele>99.0</ele><time>2026-05-01T08:38:04.296Z</time></trkpt><trkpt lat="44.427841" lon="11.4344862"><ele>100.0</ele><time>2026-05-01T08:38:05.296Z</time></trkpt><trkpt lat="44.4279079" lon="11.4347383"><ele>101.0</ele><time>2026-05-01T08:38:06.296Z</time></trkpt><trkpt lat="44.4279641" lon="11.4349949"><ele>102.0</ele><time>2026-05-01T08:38:07.296Z</time></trkpt><trkpt lat="44.4280171" lon="11.435249"><ele>99.33333333333333</ele><time>2026-05-01T08:38:08.296Z</time></trkpt><trkpt lat="44.4280735" lon="11.4355054"><ele>96.66666666666666</ele><time>2026-05-01T08:38:09.296Z</time></trkpt><trkpt lat="44.4281385" lon="11.43577"><ele>94.0</ele><time>2026-05-01T08:38:10.296Z</time></trkpt><trkpt lat="44.428207" lon="11.4360393"><ele>95.33333333333333</ele><time>2026-05-01T08:38:11.296Z</time></trkpt><trkpt lat="44.428277" lon="11.4363206"><ele>96.66666666666666</ele><time>2026-05-01T08:38:12.296Z</time></trkpt><trkpt lat="44.4283456" lon="11.4366096"><ele>98.0</ele><time>2026-05-01T08:38:13.296Z</time></trkpt><trkpt lat="44.428414" lon="11.4369053"><ele>98.0</ele><time>2026-05-01T08:38:14.296Z</time></trkpt><trkpt lat="44.4284972" lon="11.4372084"><ele>98.0</ele><time>2026-05-01T08:38:15.297Z</time></trkpt><trkpt lat="44.4286107" lon="11.4374959"><ele>98.0</ele><time>2026-05-01T08:38:16.297Z</time></trkpt><trkpt lat="44.4287494" lon="11.4377596"><ele>98.0</ele><time>2026-05-01T08:38:17.298Z</time></trkpt><trkpt lat="44.4289147" lon="11.4380002"><ele>96.0</ele><time>2026-05-01T08:38:18.297Z</time></trkpt><trkpt lat="44.4290992" lon="11.4382271"><ele>94.0</ele><time>2026-05-01T08:38:19.297Z</time></trkpt><trkpt lat="44.4292974" lon="11.4384453"><ele>94.0</ele><time>2026-05-01T08:38:20.297Z</time></trkpt><trkpt lat="44.4294975" lon="11.4386609"><ele>94.0</ele><time>2026-05-01T08:38:21.297Z</time></trkpt><trkpt lat="44.4296944" lon="11.4388918"><ele>93.5</ele><time>2026-05-01T08:38:22.297Z</time></trkpt><trkpt lat="44.4298901" lon="11.4391236"><ele>93.0</ele><time>2026-05-01T08:38:23.297Z</time></trkpt><trkpt lat="44.4300901" lon="11.4393445"><ele>93.0</ele><time>2026-05-01T08:38:24.297Z</time></trkpt><trkpt lat="44.4302874" lon="11.4395625"><ele>93.0</ele><time>2026-05-01T08:38:25.297Z</time></trkpt><trkpt lat="44.430478" lon="11.4397919"><ele>92.0</ele><time>2026-05-01T08:38:26.297Z</time></trkpt><trkpt lat="44.4306589" lon="11.4400261"><ele>91.0</ele><time>2026-05-01T08:38:27.297Z</time></trkpt><trkpt lat="44.4308291" lon="11.4402784"><ele>90.5</ele><time>2026-05-01T08:38:28.297Z</time></trkpt><trkpt lat="44.4309896" lon="11.4405531"><ele>90.0</ele><time>2026-05-01T08:38:29.297Z</time></trkpt><trkpt lat="44.431124" lon="11.4408274"><ele>90.0</ele><time>2026-05-01T08:38:30.297Z</time></trkpt><trkpt lat="44.4312659" lon="11.4410984"><ele>90.0</ele><time>2026-05-01T08:38:31.297Z</time></trkpt><trkpt lat="44.4314203" lon="11.4413628"><ele>89.5</ele><time>2026-05-01T08:38:32.297Z</time></trkpt><trkpt lat="44.4315909" lon="11.4415996"><ele>89.0</ele><time>2026-05-01T08:38:33.297Z</time></trkpt><trkpt lat="44.4317772" lon="11.4418344"><ele>89.0</ele><time>2026-05-01T08:38:34.297Z</time></trkpt><trkpt lat="44.4319708" lon="11.4420645"><ele>89.0</ele><time>2026-05-01T08:38:35.297Z</time></trkpt><trkpt lat="44.4321582" lon="11.4422802"><ele>88.33333333333334</ele><time>2026-05-01T08:38:36.297Z</time></trkpt><trkpt lat="44.4323204" lon="11.4424788"><ele>87.66666666666667</ele><time>2026-05-01T08:38:37.297Z</time></trkpt><trkpt lat="44.4324671" lon="11.4426618"><ele>87.0</ele><time>2026-05-01T08:38:38.297Z</time></trkpt><trkpt lat="44.4325967" lon="11.4428215"><ele>86.75</ele><time>2026-05-01T08:38:39.297Z</time></trkpt><trkpt lat="44.4327104" lon="11.4429664"><ele>86.5</ele><time>2026-05-01T08:38:40.297Z</time></trkpt><trkpt lat="44.4328154" lon="11.4430907"><ele>86.25</ele><time>2026-05-01T08:38:41.297Z</time></trkpt><trkpt lat="44.432904" lon="11.443199"><ele>86.0</ele><time>2026-05-01T08:38:42.297Z</time></trkpt><trkpt lat="44.4329839" lon="11.4433027"><ele>86.75</ele><time>2026-05-01T08:38:43.297Z</time></trkpt><trkpt lat="44.4330733" lon="11.4434165"><ele>87.5</ele><time>2026-05-01T08:38:44.297Z</time></trkpt><trkpt lat="44.4331667" lon="11.4435294"><ele>88.25</ele><time>2026-05-01T08:38:45.297Z</time></trkpt><trkpt lat="44.433269" lon="11.4436476"><ele>89.0</ele><time>2026-05-01T08:38:46.297Z</time></trkpt><trkpt lat="44.4333918" lon="11.4437665"><ele>88.33333333333334</ele><time>2026-05-01T08:38:47.297Z</time></trkpt><trkpt lat="44.4335352" lon="11.4438731"><ele>87.66666666666667</ele><time>2026-05-01T08:38:48.297Z</time></trkpt><trkpt lat="44.4336901" lon="11.4439763"><ele>87.0</ele><time>2026-05-01T08:38:49.297Z</time></trkpt><trkpt lat="44.4338657" lon="11.4440538"><ele>86.66666666666667</ele><time>2026-05-01T08:38:50.297Z</time></trkpt><trkpt lat="44.434045" lon="11.4441141"><ele>86.33333333333334</ele><time>2026-05-01T08:38:51.297Z</time></trkpt><trkpt lat="44.434227" lon="11.444169"><ele>86.0</ele><time>2026-05-01T08:38:52.297Z</time></trkpt><trkpt lat="44.4344134" lon="11.4442041"><ele>86.0</ele><time>2026-05-01T08:38:53.298Z</time></trkpt><trkpt lat="44.4346034" lon="11.4442323"><ele>86.0</ele><time>2026-05-01T08:38:54.297Z</time></trkpt><trkpt lat="44.4347991" lon="11.4442438"><ele>86.0</ele><time>2026-05-01T08:38:55.297Z</time></trkpt><trkpt lat="44.4349959" lon="11.4442524"><ele>86.33333333333334</ele><time>2026-05-01T08:38:56.297Z</time></trkpt><trkpt lat="44.4351745" lon="11.4442461"><ele>86.66666666666667</ele><time>2026-05-01T08:38:57.297Z</time></trkpt><trkpt lat="44.4353363" lon="11.4442659"><ele>87.0</ele><time>2026-05-01T08:38:58.297Z</time></trkpt><trkpt lat="44.4354996" lon="11.4442902"><ele>85.33333333333333</ele><time>2026-05-01T08:38:59.297Z</time></trkpt><trkpt lat="44.43565" lon="11.4443607"><ele>83.66666666666666</ele><time>2026-05-01T08:39:00.297Z</time></trkpt><trkpt lat="44.4358106" lon="11.4444684"><ele>82.0</ele><time>2026-05-01T08:39:01.297Z</time></trkpt><trkpt lat="44.4359636" lon="11.4445419"><ele>82.0</ele><time>2026-05-01T08:39:02.297Z</time></trkpt><trkpt lat="44.4361322" lon="11.444608"><ele>82.0</ele><time>2026-05-01T08:39:03.297Z</time></trkpt><trkpt lat="44.4362897" lon="11.4446754"><ele>82.0</ele><time>2026-05-01T08:39:04.297Z</time></trkpt><trkpt lat="44.4364446" lon="11.4447337"><ele>81.66666666666666</ele><time>2026-05-01T08:39:05.298Z</time></trkpt><trkpt lat="44.4365949" lon="11.4448042"><ele>81.33333333333333</ele><time>2026-05-01T08:39:06.297Z</time></trkpt><trkpt lat="44.4367407" lon="11.444877"><ele>81.0</ele><time>2026-05-01T08:39:07.298Z</time></trkpt><trkpt lat="44.4368923" lon="11.444945"><ele>81.0</ele><time>2026-05-01T08:39:08.297Z</time></trkpt><trkpt lat="44.4370498" lon="11.4450074"><ele>81.0</ele><time>2026-05-01T08:39:09.298Z</time></trkpt><trkpt lat="44.4372001" lon="11.4450707"><ele>81.0</ele><time>2026-05-01T08:39:10.297Z</time></trkpt><trkpt lat="44.4373619" lon="11.4451372"><ele>79.33333333333333</ele><time>2026-05-01T08:39:11.298Z</time></trkpt><trkpt lat="44.4375437" lon="11.4452141"><ele>77.66666666666666</ele><time>2026-05-01T08:39:12.297Z</time></trkpt><trkpt lat="44.4377418" lon="11.4452955"><ele>76.0</ele><time>2026-05-01T08:39:13.298Z</time></trkpt><trkpt lat="44.4379507" lon="11.4453826"><ele>77.0</ele><time>2026-05-01T08:39:14.298Z</time></trkpt><trkpt lat="44.4381748" lon="11.4454773"><ele>78.0</ele><time>2026-05-01T08:39:15.298Z</time></trkpt><trkpt lat="44.4384099" lon="11.4455666"><ele>78.0</ele><time>2026-05-01T08:39:16.298Z</time></trkpt><trkpt lat="44.4386422" lon="11.4456686"><ele>78.0</ele><time>2026-05-01T08:39:17.298Z</time></trkpt><trkpt lat="44.4388755" lon="11.4457741"><ele>77.5</ele><time>2026-05-01T08:39:18.298Z</time></trkpt><trkpt lat="44.4391172" lon="11.4458791"><ele>77.0</ele><time>2026-05-01T08:39:19.298Z</time></trkpt><trkpt lat="44.4393623" lon="11.445986"><ele>77.0</ele><time>2026-05-01T08:39:20.298Z</time></trkpt><trkpt lat="44.4396082" lon="11.4460949"><ele>77.0</ele><time>2026-05-01T08:39:21.298Z</time></trkpt><trkpt lat="44.4398565" lon="11.4462007"><ele>78.0</ele><time>2026-05-01T08:39:22.298Z</time></trkpt><trkpt lat="44.4401092" lon="11.4463019"><ele>79.0</ele><time>2026-05-01T08:39:23.298Z</time></trkpt><trkpt lat="44.4403622" lon="11.4464003"><ele>79.0</ele><time>2026-05-01T08:39:24.298Z</time></trkpt><trkpt lat="44.4406132" lon="11.4464946"><ele>79.0</ele><time>2026-05-01T08:39:25.298Z</time></trkpt><trkpt lat="44.4408604" lon="11.4465865"><ele>79.0</ele><time>2026-05-01T08:39:26.298Z</time></trkpt><trkpt lat="44.4411023" lon="11.4466728"><ele>79.0</ele><time>2026-05-01T08:39:27.298Z</time></trkpt><trkpt lat="44.4413408" lon="11.446762"><ele>80.5</ele><time>2026-05-01T08:39:28.298Z</time></trkpt><trkpt lat="44.4415683" lon="11.4468495"><ele>82.0</ele><time>2026-05-01T08:39:29.298Z</time></trkpt><trkpt lat="44.4417946" lon="11.446932"><ele>82.0</ele><time>2026-05-01T08:39:30.298Z</time></trkpt><trkpt lat="44.4420162" lon="11.4470127"><ele>82.0</ele><time>2026-05-01T08:39:31.298Z</time></trkpt><trkpt lat="44.4422357" lon="11.4470877"><ele>80.0</ele><time>2026-05-01T08:39:32.298Z</time></trkpt><trkpt lat="44.442459" lon="11.4471443"><ele>78.0</ele><time>2026-05-01T08:39:33.298Z</time></trkpt><trkpt lat="44.4426883" lon="11.4471577"><ele>78.0</ele><time>2026-05-01T08:39:34.298Z</time></trkpt><trkpt lat="44.4429161" lon="11.4471281"><ele>78.0</ele><time>2026-05-01T08:39:35.298Z</time></trkpt><trkpt lat="44.4431323" lon="11.4470824"><ele>78.0</ele><time>2026-05-01T08:39:36.298Z</time></trkpt><trkpt lat="44.4433129" lon="11.4470443"><ele>77.25</ele><time>2026-05-01T08:39:37.298Z</time></trkpt><trkpt lat="44.4434655" lon="11.4470198"><ele>76.5</ele><time>2026-05-01T08:39:38.298Z</time></trkpt><trkpt lat="44.4436074" lon="11.4470003"><ele>75.75</ele><time>2026-05-01T08:39:39.298Z</time></trkpt><trkpt lat="44.4437396" lon="11.4469906"><ele>75.0</ele><time>2026-05-01T08:39:40.298Z</time></trkpt><trkpt lat="44.4438523" lon="11.4469747"><ele>75.0</ele><time>2026-05-01T08:39:41.298Z</time></trkpt><trkpt lat="44.4439463" lon="11.4469707"><ele>75.0</ele><time>2026-05-01T08:39:42.298Z</time></trkpt><trkpt lat="44.4440245" lon="11.44699"><ele>75.0</ele><time>2026-05-01T08:39:43.298Z</time></trkpt><trkpt lat="44.4440978" lon="11.447044"><ele>75.0</ele><time>2026-05-01T08:39:44.298Z</time></trkpt><trkpt lat="44.4441883" lon="11.4471143"><ele>75.0</ele><time>2026-05-01T08:39:45.298Z</time></trkpt><trkpt lat="44.444292" lon="11.4471594"><ele>75.0</ele><time>2026-05-01T08:39:46.298Z</time></trkpt><trkpt lat="44.444406" lon="11.4471445"><ele>75.0</ele><time>2026-05-01T08:39:47.298Z</time></trkpt><trkpt lat="44.4445233" lon="11.4470549"><ele>75.0</ele><time>2026-05-01T08:39:48.298Z</time></trkpt><trkpt lat="44.4446298" lon="11.4469705"><ele>75.0</ele><time>2026-05-01T08:39:49.298Z</time></trkpt><trkpt lat="44.4447268" lon="11.4469219"><ele>75.33333333333333</ele><time>2026-05-01T08:39:50.298Z</time></trkpt><trkpt lat="44.4448549" lon="11.4469629"><ele>75.66666666666666</ele><time>2026-05-01T08:39:51.298Z</time></trkpt><trkpt lat="44.444996" lon="11.4470634"><ele>76.0</ele><time>2026-05-01T08:39:52.298Z</time></trkpt><trkpt lat="44.4451535" lon="11.4471502"><ele>76.0</ele><time>2026-05-01T08:39:53.298Z</time></trkpt><trkpt lat="44.4453218" lon="11.4472191"><ele>76.0</ele><time>2026-05-01T08:39:54.298Z</time></trkpt><trkpt lat="44.4454952" lon="11.4472863"><ele>76.0</ele><time>2026-05-01T08:39:55.298Z</time></trkpt><trkpt lat="44.4456816" lon="11.4473655"><ele>75.33333333333333</ele><time>2026-05-01T08:39:56.298Z</time></trkpt><trkpt lat="44.4458722" lon="11.4474206"><ele>74.66666666666667</ele><time>2026-05-01T08:39:57.298Z</time></trkpt><trkpt lat="44.4460766" lon="11.4474358"><ele>74.0</ele><time>2026-05-01T08:39:58.298Z</time></trkpt><trkpt lat="44.4462956" lon="11.4474024"><ele>73.66666666666667</ele><time>2026-05-01T08:39:59.299Z</time></trkpt><trkpt lat="44.4465183" lon="11.4473512"><ele>73.33333333333333</ele><time>2026-05-01T08:40:00.298Z</time></trkpt><trkpt lat="44.4467398" lon="11.4473147"><ele>73.0</ele><time>2026-05-01T08:40:01.298Z</time></trkpt><trkpt lat="44.4469539" lon="11.4472997"><ele>72.66666666666666</ele><time>2026-05-01T08:40:02.298Z</time></trkpt><trkpt lat="44.4471564" lon="11.4472836"><ele>72.33333333333333</ele><time>2026-05-01T08:40:03.298Z</time></trkpt><trkpt lat="44.4473704" lon="11.4472615"><ele>72.0</ele><time>2026-05-01T08:40:04.298Z</time></trkpt><trkpt lat="44.4475932" lon="11.4472391"><ele>72.0</ele><time>2026-05-01T08:40:05.298Z</time></trkpt><trkpt lat="44.447824" lon="11.4472243"><ele>72.0</ele><time>2026-05-01T08:40:06.298Z</time></trkpt><trkpt lat="44.4480575" lon="11.447203"><ele>71.5</ele><time>2026-05-01T08:40:07.298Z</time></trkpt><trkpt lat="44.4482955" lon="11.447179"><ele>71.0</ele><time>2026-05-01T08:40:08.298Z</time></trkpt><trkpt lat="44.4485362" lon="11.4471534"><ele>71.0</ele><time>2026-05-01T08:40:09.298Z</time></trkpt><trkpt lat="44.4487796" lon="11.4471276"><ele>71.0</ele><time>2026-05-01T08:40:10.298Z</time></trkpt><trkpt lat="44.4490237" lon="11.4471092"><ele>70.5</ele><time>2026-05-01T08:40:11.298Z</time></trkpt><trkpt lat="44.4492679" lon="11.4470852"><ele>70.0</ele><time>2026-05-01T08:40:12.299Z</time></trkpt><trkpt lat="44.4495161" lon="11.4470648"><ele>68.0</ele><time>2026-05-01T08:40:13.299Z</time></trkpt><trkpt lat="44.4497674" lon="11.4470445"><ele>66.0</ele><time>2026-05-01T08:40:14.299Z</time></trkpt><trkpt lat="44.4500178" lon="11.4470282"><ele>66.0</ele><time>2026-05-01T08:40:15.299Z</time></trkpt><trkpt lat="44.4502632" lon="11.4470161"><ele>66.0</ele><time>2026-05-01T08:40:16.299Z</time></trkpt><trkpt lat="44.450503" lon="11.4470042"><ele>66.0</ele><time>2026-05-01T08:40:17.299Z</time></trkpt><trkpt lat="44.4507384" lon="11.4469907"><ele>66.0</ele><time>2026-05-01T08:40:18.299Z</time></trkpt><trkpt lat="44.4509689" lon="11.4469772"><ele>66.0</ele><time>2026-05-01T08:40:19.299Z</time></trkpt><trkpt lat="44.4511936" lon="11.4469637"><ele>66.0</ele><time>2026-05-01T08:40:20.299Z</time></trkpt><trkpt lat="44.4514109" lon="11.4469502"><ele>66.0</ele><time>2026-05-01T08:40:21.299Z</time></trkpt><trkpt lat="44.4516194" lon="11.4469365"><ele>66.66666666666667</ele><time>2026-05-01T08:40:22.299Z</time></trkpt><trkpt lat="44.4518226" lon="11.4469297"><ele>67.33333333333334</ele><time>2026-05-01T08:40:23.299Z</time></trkpt><trkpt lat="44.4520285" lon="11.4469292"><ele>68.0</ele><time>2026-05-01T08:40:24.3Z</time></trkpt><trkpt lat="44.4522392" lon="11.4469498"><ele>68.0</ele><time>2026-05-01T08:40:25.299Z</time></trkpt><trkpt lat="44.4524486" lon="11.4470064"><ele>68.0</ele><time>2026-05-01T08:40:26.299Z</time></trkpt><trkpt lat="44.4526472" lon="11.447093"><ele>68.0</ele><time>2026-05-01T08:40:27.299Z</time></trkpt><trkpt lat="44.4528335" lon="11.4472076"><ele>68.0</ele><time>2026-05-01T08:40:28.299Z</time></trkpt><trkpt lat="44.4530032" lon="11.4473286"><ele>68.0</ele><time>2026-05-01T08:40:29.299Z</time></trkpt><trkpt lat="44.4531646" lon="11.4474456"><ele>68.0</ele><time>2026-05-01T08:40:30.299Z</time></trkpt><trkpt lat="44.4533161" lon="11.4475624"><ele>68.0</ele><time>2026-05-01T08:40:31.299Z</time></trkpt><trkpt lat="44.4534451" lon="11.4476552"><ele>68.0</ele><time>2026-05-01T08:40:32.299Z</time></trkpt><trkpt lat="44.453565" lon="11.4477266"><ele>68.0</ele><time>2026-05-01T08:40:33.299Z</time></trkpt><trkpt lat="44.4536761" lon="11.4478071"><ele>68.0</ele><time>2026-05-01T08:40:34.299Z</time></trkpt><trkpt lat="44.4537844" lon="11.4478873"><ele>67.5</ele><time>2026-05-01T08:40:35.299Z</time></trkpt><trkpt lat="44.4539037" lon="11.447973"><ele>67.0</ele><time>2026-05-01T08:40:36.299Z</time></trkpt><trkpt lat="44.4540298" lon="11.4480601"><ele>66.5</ele><time>2026-05-01T08:40:37.299Z</time></trkpt><trkpt lat="44.4541559" lon="11.4481511"><ele>66.0</ele><time>2026-05-01T08:40:38.299Z</time></trkpt><trkpt lat="44.4542739" lon="11.4482286"><ele>66.0</ele><time>2026-05-01T08:40:39.299Z</time></trkpt><trkpt lat="44.4543845" lon="11.4483156"><ele>66.0</ele><time>2026-05-01T08:40:40.299Z</time></trkpt><trkpt lat="44.4544926" lon="11.4483904"><ele>66.0</ele><time>2026-05-01T08:40:41.299Z</time></trkpt><trkpt lat="44.4545872" lon="11.4484498"><ele>66.0</ele><time>2026-05-01T08:40:42.299Z</time></trkpt><trkpt lat="44.454672" lon="11.448506"><ele>66.0</ele><time>2026-05-01T08:40:43.299Z</time></trkpt><trkpt lat="44.4547542" lon="11.4485677"><ele>65.66666666666667</ele><time>2026-05-01T08:40:44.299Z</time></trkpt><trkpt lat="44.4548278" lon="11.4486257"><ele>65.33333333333333</ele><time>2026-05-01T08:40:45.299Z</time></trkpt><trkpt lat="44.4548924" lon="11.4486977"><ele>65.0</ele><time>2026-05-01T08:40:46.299Z</time></trkpt><trkpt lat="44.4549538" lon="11.4487799"><ele>64.66666666666666</ele><time>2026-05-01T08:40:47.299Z</time></trkpt><trkpt lat="44.455017" lon="11.44888"><ele>64.33333333333333</ele><time>2026-05-01T08:40:48.299Z</time></trkpt><trkpt lat="44.4550698" lon="11.4489926"><ele>64.0</ele><time>2026-05-01T08:40:49.299Z</time></trkpt><trkpt lat="44.4551176" lon="11.4491151"><ele>63.400000000000006</ele><time>2026-05-01T08:40:50.299Z</time></trkpt><trkpt lat="44.455166" lon="11.4492353"><ele>62.800000000000004</ele><time>2026-05-01T08:40:51.299Z</time></trkpt><trkpt lat="44.4552266" lon="11.4493371"><ele>62.199999999999996</ele><time>2026-05-01T08:40:52.299Z</time></trkpt><trkpt lat="44.455306" lon="11.4494107"><ele>61.599999999999994</ele><time>2026-05-01T08:40:53.299Z</time></trkpt><trkpt lat="44.4554052" lon="11.4494332"><ele>61.0</ele><time>2026-05-01T08:40:54.299Z</time></trkpt><trkpt lat="44.4555039" lon="11.4494196"><ele>61.0</ele><time>2026-05-01T08:40:55.299Z</time></trkpt><trkpt lat="44.4555937" lon="11.4493896"><ele>60.99999999999999</ele><time>2026-05-01T08:40:56.299Z</time></trkpt><trkpt lat="44.4556764" lon="11.4493518"><ele>60.99999999999999</ele><time>2026-05-01T08:40:57.299Z</time></trkpt><trkpt lat="44.4557716" lon="11.449348"><ele>61.0</ele><time>2026-05-01T08:40:58.299Z</time></trkpt><trkpt lat="44.4558656" lon="11.4493686"><ele>61.0</ele><time>2026-05-01T08:40:59.299Z</time></trkpt><trkpt lat="44.4559702" lon="11.4494326"><ele>61.0</ele><time>2026-05-01T08:41:00.299Z</time></trkpt><trkpt lat="44.4560919" lon="11.4495128"><ele>61.0</ele><time>2026-05-01T08:41:01.299Z</time></trkpt><trkpt lat="44.4562179" lon="11.4495987"><ele>61.0</ele><time>2026-05-01T08:41:02.299Z</time></trkpt><trkpt lat="44.4563646" lon="11.4496922"><ele>61.0</ele><time>2026-05-01T08:41:03.299Z</time></trkpt><trkpt lat="44.4565368" lon="11.4497999"><ele>61.0</ele><time>2026-05-01T08:41:04.299Z</time></trkpt><trkpt lat="44.4567198" lon="11.4499214"><ele>61.0</ele><time>2026-05-01T08:41:05.299Z</time></trkpt><trkpt lat="44.4569201" lon="11.4500663"><ele>61.0</ele><time>2026-05-01T08:41:06.299Z</time></trkpt><trkpt lat="44.4571275" lon="11.4502202"><ele>61.0</ele><time>2026-05-01T08:41:07.3Z</time></trkpt><trkpt lat="44.4573419" lon="11.4503759"><ele>61.0</ele><time>2026-05-01T08:41:08.299Z</time></trkpt><trkpt lat="44.4575581" lon="11.4505188"><ele>60.0</ele><time>2026-05-01T08:41:09.299Z</time></trkpt><trkpt lat="44.4577827" lon="11.4506564"><ele>59.0</ele><time>2026-05-01T08:41:10.3Z</time></trkpt><trkpt lat="44.4580088" lon="11.4507946"><ele>59.0</ele><time>2026-05-01T08:41:11.3Z</time></trkpt><trkpt lat="44.4582358" lon="11.4509273"><ele>59.0</ele><time>2026-05-01T08:41:12.3Z</time></trkpt><trkpt lat="44.4584667" lon="11.4510326"><ele>59.0</ele><time>2026-05-01T08:41:13.3Z</time></trkpt><trkpt lat="44.458702" lon="11.4510972"><ele>59.0</ele><time>2026-05-01T08:41:14.3Z</time></trkpt><trkpt lat="44.4589504" lon="11.4510873"><ele>59.0</ele><time>2026-05-01T08:41:15.3Z</time></trkpt><trkpt lat="44.4591992" lon="11.4510637"><ele>59.0</ele><time>2026-05-01T08:41:16.3Z</time></trkpt><trkpt lat="44.4594512" lon="11.4510239"><ele>58.0</ele><time>2026-05-01T08:41:17.3Z</time></trkpt><trkpt lat="44.4597017" lon="11.450994"><ele>57.0</ele><time>2026-05-01T08:41:18.3Z</time></trkpt><trkpt lat="44.4599557" lon="11.4509695"><ele>57.0</ele><time>2026-05-01T08:41:19.3Z</time></trkpt><trkpt lat="44.4602192" lon="11.4509476"><ele>57.0</ele><time>2026-05-01T08:41:20.3Z</time></trkpt><trkpt lat="44.4604861" lon="11.4509158"><ele>56.5</ele><time>2026-05-01T08:41:21.3Z</time></trkpt><trkpt lat="44.4607583" lon="11.450867"><ele>56.0</ele><time>2026-05-01T08:41:22.3Z</time></trkpt><trkpt lat="44.4610361" lon="11.4507962"><ele>57.0</ele><time>2026-05-01T08:41:23.3Z</time></trkpt><trkpt lat="44.4613094" lon="11.4507212"><ele>58.0</ele><time>2026-05-01T08:41:24.301Z</time></trkpt><trkpt lat="44.4615843" lon="11.4506613"><ele>58.0</ele><time>2026-05-01T08:41:25.3Z</time></trkpt><trkpt lat="44.461862" lon="11.4506349"><ele>58.0</ele><time>2026-05-01T08:41:26.3Z</time></trkpt><trkpt lat="44.4621351" lon="11.4506216"><ele>57.0</ele><time>2026-05-01T08:41:27.3Z</time></trkpt><trkpt lat="44.4624069" lon="11.4506093"><ele>56.0</ele><time>2026-05-01T08:41:28.3Z</time></trkpt><trkpt lat="44.4626772" lon="11.4505975"><ele>56.0</ele><time>2026-05-01T08:41:29.3Z</time></trkpt><trkpt lat="44.4629468" lon="11.450577"><ele>56.0</ele><time>2026-05-01T08:41:30.3Z</time></trkpt><trkpt lat="44.4632133" lon="11.450555"><ele>56.5</ele><time>2026-05-01T08:41:31.3Z</time></trkpt><trkpt lat="44.4634725" lon="11.4505362"><ele>57.0</ele><time>2026-05-01T08:41:32.3Z</time></trkpt><trkpt lat="44.4637287" lon="11.4505224"><ele>56.5</ele><time>2026-05-01T08:41:33.3Z</time></trkpt><trkpt lat="44.4639802" lon="11.4505231"><ele>56.0</ele><time>2026-05-01T08:41:34.3Z</time></trkpt><trkpt lat="44.4642211" lon="11.4505609"><ele>56.0</ele><time>2026-05-01T08:41:35.3Z</time></trkpt><trkpt lat="44.4644475" lon="11.4506386"><ele>56.0</ele><time>2026-05-01T08:41:36.3Z</time></trkpt><trkpt lat="44.4646663" lon="11.4507589"><ele>56.0</ele><time>2026-05-01T08:41:37.3Z</time></trkpt><trkpt lat="44.4648754" lon="11.4509114"><ele>56.0</ele><time>2026-05-01T08:41:38.3Z</time></trkpt><trkpt lat="44.4650769" lon="11.4510834"><ele>56.0</ele><time>2026-05-01T08:41:39.3Z</time></trkpt><trkpt lat="44.4652815" lon="11.4512497"><ele>56.0</ele><time>2026-05-01T08:41:40.3Z</time></trkpt><trkpt lat="44.4654916" lon="11.4514053"><ele>55.0</ele><time>2026-05-01T08:41:41.3Z</time></trkpt><trkpt lat="44.4656997" lon="11.4515481"><ele>54.0</ele><time>2026-05-01T08:41:42.3Z</time></trkpt><trkpt lat="44.4659124" lon="11.4516532"><ele>54.0</ele><time>2026-05-01T08:41:43.3Z</time></trkpt><trkpt lat="44.4661289" lon="11.4517335"><ele>54.0</ele><time>2026-05-01T08:41:44.3Z</time></trkpt><trkpt lat="44.4663511" lon="11.4517825"><ele>54.0</ele><time>2026-05-01T08:41:45.3Z</time></trkpt><trkpt lat="44.466586" lon="11.4518039"><ele>55.0</ele><time>2026-05-01T08:41:46.3Z</time></trkpt><trkpt lat="44.4668308" lon="11.4518151"><ele>56.0</ele><time>2026-05-01T08:41:47.3Z</time></trkpt><trkpt lat="44.4670778" lon="11.4518261"><ele>55.5</ele><time>2026-05-01T08:41:48.3Z</time></trkpt><trkpt lat="44.4673342" lon="11.4518401"><ele>55.0</ele><time>2026-05-01T08:41:49.3Z</time></trkpt><trkpt lat="44.4675824" lon="11.45185"><ele>55.0</ele><time>2026-05-01T08:41:50.3Z</time></trkpt><trkpt lat="44.4678176" lon="11.4518543"><ele>55.0</ele><time>2026-05-01T08:41:51.3Z</time></trkpt><trkpt lat="44.4680455" lon="11.4518698"><ele>54.666666666666664</ele><time>2026-05-01T08:41:52.3Z</time></trkpt><trkpt lat="44.4682694" lon="11.4518919"><ele>54.33333333333333</ele><time>2026-05-01T08:41:53.3Z</time></trkpt><trkpt lat="44.4684825" lon="11.4519324"><ele>54.0</ele><time>2026-05-01T08:41:54.3Z</time></trkpt><trkpt lat="44.468686" lon="11.452"><ele>54.0</ele><time>2026-05-01T08:41:55.3Z</time></trkpt><trkpt lat="44.4688801" lon="11.452112"><ele>54.0</ele><time>2026-05-01T08:41:56.3Z</time></trkpt><trkpt lat="44.4690667" lon="11.452254"><ele>54.0</ele><time>2026-05-01T08:41:57.3Z</time></trkpt><trkpt lat="44.4692415" lon="11.4524108"><ele>54.0</ele><time>2026-05-01T08:41:58.3Z</time></trkpt><trkpt lat="44.4693985" lon="11.4525583"><ele>54.0</ele><time>2026-05-01T08:41:59.3Z</time></trkpt><trkpt lat="44.4695573" lon="11.4526948"><ele>54.0</ele><time>2026-05-01T08:42:00.3Z</time></trkpt><trkpt lat="44.4697092" lon="11.4528177"><ele>54.0</ele><time>2026-05-01T08:42:01.3Z</time></trkpt><trkpt lat="44.4698531" lon="11.4529397"><ele>54.0</ele><time>2026-05-01T08:42:02.3Z</time></trkpt><trkpt lat="44.4699937" lon="11.4530599"><ele>54.0</ele><time>2026-05-01T08:42:03.3Z</time></trkpt><trkpt lat="44.4701307" lon="11.4531813"><ele>54.0</ele><time>2026-05-01T08:42:04.3Z</time></trkpt><trkpt lat="44.4702707" lon="11.4533012"><ele>54.0</ele><time>2026-05-01T08:42:05.3Z</time></trkpt><trkpt lat="44.470409" lon="11.4534172"><ele>54.0</ele><time>2026-05-01T08:42:06.3Z</time></trkpt><trkpt lat="44.4705384" lon="11.4535325"><ele>54.0</ele><time>2026-05-01T08:42:07.3Z</time></trkpt><trkpt lat="44.4706774" lon="11.4536441"><ele>54.0</ele><time>2026-05-01T08:42:08.301Z</time></trkpt><trkpt lat="44.4708209" lon="11.4537524"><ele>54.0</ele><time>2026-05-01T08:42:09.301Z</time></trkpt><trkpt lat="44.47097" lon="11.4538484"><ele>54.0</ele><time>2026-05-01T08:42:10.301Z</time></trkpt><trkpt lat="44.4711242" lon="11.4539339"><ele>54.0</ele><time>2026-05-01T08:42:11.301Z</time></trkpt><trkpt lat="44.471282" lon="11.4540143"><ele>54.0</ele><time>2026-05-01T08:42:12.302Z</time></trkpt><trkpt lat="44.4714396" lon="11.4540953"><ele>54.0</ele><time>2026-05-01T08:42:13.301Z</time></trkpt><trkpt lat="44.4715937" lon="11.45418"><ele>54.0</ele><time>2026-05-01T08:42:14.301Z</time></trkpt><trkpt lat="44.4717419" lon="11.4542819"><ele>54.0</ele><time>2026-05-01T08:42:15.301Z</time></trkpt><trkpt lat="44.4718865" lon="11.4543895"><ele>54.0</ele><time>2026-05-01T08:42:16.301Z</time></trkpt><trkpt lat="44.4720326" lon="11.4544887"><ele>54.0</ele><time>2026-05-01T08:42:17.301Z</time></trkpt><trkpt lat="44.4721757" lon="11.4545928"><ele>54.0</ele><time>2026-05-01T08:42:18.301Z</time></trkpt><trkpt lat="44.4723197" lon="11.4547009"><ele>54.33333333333333</ele><time>2026-05-01T08:42:19.301Z</time></trkpt><trkpt lat="44.4724587" lon="11.4548051"><ele>54.666666666666664</ele><time>2026-05-01T08:42:20.302Z</time></trkpt><trkpt lat="44.4725969" lon="11.4549057"><ele>55.0</ele><time>2026-05-01T08:42:21.301Z</time></trkpt><trkpt lat="44.4727337" lon="11.4550053"><ele>55.0</ele><time>2026-05-01T08:42:22.301Z</time></trkpt><trkpt lat="44.472866" lon="11.4551006"><ele>55.0</ele><time>2026-05-01T08:42:23.301Z</time></trkpt><trkpt lat="44.4729935" lon="11.4551934"><ele>55.0</ele><time>2026-05-01T08:42:24.301Z</time></trkpt><trkpt lat="44.4731186" lon="11.4552809"><ele>55.0</ele><time>2026-05-01T08:42:25.301Z</time></trkpt><trkpt lat="44.4732407" lon="11.45536"><ele>54.5</ele><time>2026-05-01T08:42:26.301Z</time></trkpt><trkpt lat="44.4733569" lon="11.4554298"><ele>54.0</ele><time>2026-05-01T08:42:27.301Z</time></trkpt><trkpt lat="44.4734676" lon="11.4554874"><ele>53.5</ele><time>2026-05-01T08:42:28.301Z</time></trkpt><trkpt lat="44.4735712" lon="11.4555421"><ele>53.0</ele><time>2026-05-01T08:42:29.301Z</time></trkpt><trkpt lat="44.4736711" lon="11.4556133"><ele>53.0</ele><time>2026-05-01T08:42:30.301Z</time></trkpt><trkpt lat="44.4737491" lon="11.4557127"><ele>53.0</ele><time>2026-05-01T08:42:31.301Z</time></trkpt><trkpt lat="44.4738014" lon="11.4558365"><ele>53.0</ele><time>2026-05-01T08:42:32.301Z</time></trkpt><trkpt lat="44.4738156" lon="11.4559812"><ele>53.0</ele><time>2026-05-01T08:42:33.302Z</time></trkpt><trkpt lat="44.4738113" lon="11.4561344"><ele>53.0</ele><time>2026-05-01T08:42:34.301Z</time></trkpt><trkpt lat="44.4738189" lon="11.4562921"><ele>52.5</ele><time>2026-05-01T08:42:35.301Z</time></trkpt><trkpt lat="44.4738498" lon="11.4564506"><ele>52.0</ele><time>2026-05-01T08:42:36.301Z</time></trkpt><trkpt lat="44.4739192" lon="11.4565932"><ele>51.5</ele><time>2026-05-01T08:42:37.301Z</time></trkpt><trkpt lat="44.4740143" lon="11.4567"><ele>51.0</ele><time>2026-05-01T08:42:38.301Z</time></trkpt><trkpt lat="44.4741233" lon="11.4567611"><ele>51.0</ele><time>2026-05-01T08:42:39.301Z</time></trkpt><trkpt lat="44.47424" lon="11.4567655"><ele>51.0</ele><time>2026-05-01T08:42:40.301Z</time></trkpt><trkpt lat="44.4743623" lon="11.4567356"><ele>51.0</ele><time>2026-05-01T08:42:41.302Z</time></trkpt><trkpt lat="44.474485" lon="11.456663"><ele>51.0</ele><time>2026-05-01T08:42:42.301Z</time></trkpt><trkpt lat="44.4746073" lon="11.4566089"><ele>52.0</ele><time>2026-05-01T08:42:43.301Z</time></trkpt><trkpt lat="44.4747264" lon="11.456595"><ele>53.0</ele><time>2026-05-01T08:42:44.301Z</time></trkpt><trkpt lat="44.4748318" lon="11.4566248"><ele>54.0</ele><time>2026-05-01T08:42:45.301Z</time></trkpt><trkpt lat="44.4749167" lon="11.4567191"><ele>55.0</ele><time>2026-05-01T08:42:46.301Z</time></trkpt><trkpt lat="44.4749949" lon="11.456845"><ele>55.0</ele><time>2026-05-01T08:42:47.302Z</time></trkpt><trkpt lat="44.4750792" lon="11.4569994"><ele>55.0</ele><time>2026-05-01T08:42:48.301Z</time></trkpt><trkpt lat="44.4751669" lon="11.4571574"><ele>55.0</ele><time>2026-05-01T08:42:49.301Z</time></trkpt><trkpt lat="44.4752662" lon="11.4573286"><ele>55.0</ele><time>2026-05-01T08:42:50.301Z</time></trkpt><trkpt lat="44.4753689" lon="11.4575074"><ele>54.33333333333333</ele><time>2026-05-01T08:42:51.301Z</time></trkpt><trkpt lat="44.4754793" lon="11.4576808"><ele>53.66666666666667</ele><time>2026-05-01T08:42:52.301Z</time></trkpt><trkpt lat="44.4756003" lon="11.4578418"><ele>53.0</ele><time>2026-05-01T08:42:53.302Z</time></trkpt><trkpt lat="44.4757346" lon="11.4579827"><ele>52.333333333333336</ele><time>2026-05-01T08:42:54.301Z</time></trkpt><trkpt lat="44.4758943" lon="11.4581082"><ele>51.66666666666667</ele><time>2026-05-01T08:42:55.301Z</time></trkpt><trkpt lat="44.4760728" lon="11.4582191"><ele>51.0</ele><time>2026-05-01T08:42:56.301Z</time></trkpt><trkpt lat="44.4762679" lon="11.4583233"><ele>51.33333333333333</ele><time>2026-05-01T08:42:57.301Z</time></trkpt><trkpt lat="44.4764613" lon="11.4584248"><ele>51.666666666666664</ele><time>2026-05-01T08:42:58.302Z</time></trkpt><trkpt lat="44.4766562" lon="11.4585326"><ele>52.0</ele><time>2026-05-01T08:42:59.302Z</time></trkpt><trkpt lat="44.4768501" lon="11.4586391"><ele>52.0</ele><time>2026-05-01T08:43:00.302Z</time></trkpt><trkpt lat="44.4770463" lon="11.4587363"><ele>52.0</ele><time>2026-05-01T08:43:01.302Z</time></trkpt><trkpt lat="44.4772483" lon="11.4588137"><ele>52.0</ele><time>2026-05-01T08:43:02.302Z</time></trkpt><trkpt lat="44.4774589" lon="11.458869"><ele>51.0</ele><time>2026-05-01T08:43:03.302Z</time></trkpt><trkpt lat="44.4776679" lon="11.4589313"><ele>50.0</ele><time>2026-05-01T08:43:04.302Z</time></trkpt><trkpt lat="44.4778771" lon="11.4590079"><ele>49.0</ele><time>2026-05-01T08:43:05.302Z</time></trkpt><trkpt lat="44.4780787" lon="11.4590886"><ele>48.33333333333333</ele><time>2026-05-01T08:43:06.302Z</time></trkpt><trkpt lat="44.4782684" lon="11.4591724"><ele>47.666666666666664</ele><time>2026-05-01T08:43:07.302Z</time></trkpt><trkpt lat="44.4784476" lon="11.4592596"><ele>47.0</ele><time>2026-05-01T08:43:08.302Z</time></trkpt><trkpt lat="44.4786133" lon="11.4593496"><ele>48.0</ele><time>2026-05-01T08:43:09.302Z</time></trkpt><trkpt lat="44.4787753" lon="11.4594371"><ele>49.0</ele><time>2026-05-01T08:43:10.302Z</time></trkpt><trkpt lat="44.4789196" lon="11.4595327"><ele>50.0</ele><time>2026-05-01T08:43:11.302Z</time></trkpt><trkpt lat="44.4790487" lon="11.4596336"><ele>50.0</ele><time>2026-05-01T08:43:12.302Z</time></trkpt><trkpt lat="44.4791581" lon="11.4597304"><ele>50.0</ele><time>2026-05-01T08:43:13.302Z</time></trkpt><trkpt lat="44.4792588" lon="11.4598139"><ele>50.0</ele><time>2026-05-01T08:43:14.302Z</time></trkpt><trkpt lat="44.4793503" lon="11.4598876"><ele>50.0</ele><time>2026-05-01T08:43:15.302Z</time></trkpt><trkpt lat="44.4794275" lon="11.4599494"><ele>50.0</ele><time>2026-05-01T08:43:16.302Z</time></trkpt><trkpt lat="44.4794918" lon="11.459994"><ele>50.0</ele><time>2026-05-01T08:43:17.302Z</time></trkpt><trkpt lat="44.4795737" lon="11.4600829"><ele>50.0</ele><time>2026-05-01T08:43:19.302Z</time></trkpt><trkpt lat="44.4796353" lon="11.4601868"><ele>50.0</ele><time>2026-05-01T08:43:21.302Z</time></trkpt><trkpt lat="44.4796817" lon="11.4602658"><ele>50.0</ele><time>2026-05-01T08:43:22.302Z</time></trkpt><trkpt lat="44.4797452" lon="11.4603739"><ele>50.0</ele><time>2026-05-01T08:43:23.302Z</time></trkpt><trkpt lat="44.4798269" lon="11.4604703"><ele>49.5</ele><time>2026-05-01T08:43:24.302Z</time></trkpt><trkpt lat="44.4799241" lon="11.4605469"><ele>49.0</ele><time>2026-05-01T08:43:25.302Z</time></trkpt><trkpt lat="44.480033" lon="11.4605805"><ele>48.5</ele><time>2026-05-01T08:43:26.302Z</time></trkpt><trkpt lat="44.4801609" lon="11.4605932"><ele>48.0</ele><time>2026-05-01T08:43:27.302Z</time></trkpt><trkpt lat="44.4803026" lon="11.4606081"><ele>48.66666666666667</ele><time>2026-05-01T08:43:28.302Z</time></trkpt><trkpt lat="44.4804622" lon="11.4606853"><ele>49.333333333333336</ele><time>2026-05-01T08:43:29.302Z</time></trkpt><trkpt lat="44.4806125" lon="11.460816"><ele>50.0</ele><time>2026-05-01T08:43:30.302Z</time></trkpt><trkpt lat="44.4807605" lon="11.4609478"><ele>50.0</ele><time>2026-05-01T08:43:31.302Z</time></trkpt><trkpt lat="44.4809108" lon="11.4610722"><ele>50.0</ele><time>2026-05-01T08:43:32.302Z</time></trkpt><trkpt lat="44.4810713" lon="11.4611901"><ele>50.0</ele><time>2026-05-01T08:43:33.302Z</time></trkpt><trkpt lat="44.4812359" lon="11.4613154"><ele>50.333333333333336</ele><time>2026-05-01T08:43:34.302Z</time></trkpt><trkpt lat="44.4814032" lon="11.4614391"><ele>50.66666666666667</ele><time>2026-05-01T08:43:35.302Z</time></trkpt><trkpt lat="44.4815706" lon="11.4615827"><ele>51.0</ele><time>2026-05-01T08:43:36.303Z</time></trkpt><trkpt lat="44.4817405" lon="11.4617177"><ele>51.0</ele><time>2026-05-01T08:43:37.302Z</time></trkpt><trkpt lat="44.4819061" lon="11.4618378"><ele>51.0</ele><time>2026-05-01T08:43:38.302Z</time></trkpt><trkpt lat="44.4820653" lon="11.4619592"><ele>51.0</ele><time>2026-05-01T08:43:39.302Z</time></trkpt><trkpt lat="44.4822209" lon="11.4620725"><ele>51.0</ele><time>2026-05-01T08:43:40.302Z</time></trkpt><trkpt lat="44.4823758" lon="11.4621873"><ele>51.0</ele><time>2026-05-01T08:43:41.302Z</time></trkpt><trkpt lat="44.482531" lon="11.4622915"><ele>51.0</ele><time>2026-05-01T08:43:42.302Z</time></trkpt><trkpt lat="44.4826836" lon="11.4624075"><ele>51.0</ele><time>2026-05-01T08:43:43.302Z</time></trkpt><trkpt lat="44.4828255" lon="11.4625208"><ele>51.0</ele><time>2026-05-01T08:43:44.302Z</time></trkpt><trkpt lat="44.4829705" lon="11.4626328"><ele>51.0</ele><time>2026-05-01T08:43:45.302Z</time></trkpt><trkpt lat="44.483127" lon="11.4627217"><ele>51.0</ele><time>2026-05-01T08:43:46.302Z</time></trkpt><trkpt lat="44.4832772" lon="11.4628395"><ele>51.0</ele><time>2026-05-01T08:43:47.303Z</time></trkpt><trkpt lat="44.4834361" lon="11.4629627"><ele>51.0</ele><time>2026-05-01T08:43:48.302Z</time></trkpt><trkpt lat="44.4835942" lon="11.4630932"><ele>50.0</ele><time>2026-05-01T08:43:49.303Z</time></trkpt><trkpt lat="44.4837566" lon="11.4632275"><ele>49.0</ele><time>2026-05-01T08:43:50.303Z</time></trkpt><trkpt lat="44.4839213" lon="11.4633585"><ele>48.0</ele><time>2026-05-01T08:43:51.303Z</time></trkpt><trkpt lat="44.484089" lon="11.46349"><ele>48.0</ele><time>2026-05-01T08:43:52.303Z</time></trkpt><trkpt lat="44.484259" lon="11.4636199"><ele>48.0</ele><time>2026-05-01T08:43:53.303Z</time></trkpt><trkpt lat="44.4844272" lon="11.4637511"><ele>48.0</ele><time>2026-05-01T08:43:54.303Z</time></trkpt><trkpt lat="44.4845965" lon="11.4638813"><ele>47.666666666666664</ele><time>2026-05-01T08:43:55.303Z</time></trkpt><trkpt lat="44.4847665" lon="11.4640084"><ele>47.33333333333333</ele><time>2026-05-01T08:43:56.303Z</time></trkpt><trkpt lat="44.4849358" lon="11.4641325"><ele>47.0</ele><time>2026-05-01T08:43:57.303Z</time></trkpt><trkpt lat="44.4851043" lon="11.4642592"><ele>47.0</ele><time>2026-05-01T08:43:58.303Z</time></trkpt><trkpt lat="44.4852705" lon="11.4643907"><ele>47.0</ele><time>2026-05-01T08:43:59.303Z</time></trkpt><trkpt lat="44.4854354" lon="11.4645229"><ele>47.0</ele><time>2026-05-01T08:44:00.303Z</time></trkpt><trkpt lat="44.4855997" lon="11.4646518"><ele>47.666666666666664</ele><time>2026-05-01T08:44:01.303Z</time></trkpt><trkpt lat="44.4857662" lon="11.4647796"><ele>48.33333333333333</ele><time>2026-05-01T08:44:02.303Z</time></trkpt><trkpt lat="44.4859296" lon="11.4649065"><ele>49.0</ele><time>2026-05-01T08:44:03.303Z</time></trkpt><trkpt lat="44.4860967" lon="11.4650337"><ele>48.33333333333333</ele><time>2026-05-01T08:44:04.303Z</time></trkpt><trkpt lat="44.4862621" lon="11.4651568"><ele>47.666666666666664</ele><time>2026-05-01T08:44:05.303Z</time></trkpt><trkpt lat="44.4864261" lon="11.46529"><ele>47.0</ele><time>2026-05-01T08:44:06.303Z</time></trkpt><trkpt lat="44.4865898" lon="11.4654232"><ele>47.0</ele><time>2026-05-01T08:44:07.303Z</time></trkpt><trkpt lat="44.4867574" lon="11.465558"><ele>47.0</ele><time>2026-05-01T08:44:08.303Z</time></trkpt><trkpt lat="44.4869412" lon="11.4657063"><ele>47.0</ele><time>2026-05-01T08:44:09.303Z</time></trkpt><trkpt lat="44.4871213" lon="11.4658376"><ele>46.33333333333333</ele><time>2026-05-01T08:44:10.303Z</time></trkpt><trkpt lat="44.4873035" lon="11.4659677"><ele>45.666666666666664</ele><time>2026-05-01T08:44:11.303Z</time></trkpt><trkpt lat="44.4874814" lon="11.4661006"><ele>45.0</ele><time>2026-05-01T08:44:12.303Z</time></trkpt><trkpt lat="44.4876591" lon="11.4662441"><ele>45.0</ele><time>2026-05-01T08:44:13.303Z</time></trkpt><trkpt lat="44.4878387" lon="11.4663726"><ele>45.0</ele><time>2026-05-01T08:44:14.303Z</time></trkpt><trkpt lat="44.4880207" lon="11.466512"><ele>45.0</ele><time>2026-05-01T08:44:15.303Z</time></trkpt><trkpt lat="44.4882056" lon="11.4666481"><ele>44.666666666666664</ele><time>2026-05-01T08:44:16.303Z</time></trkpt><trkpt lat="44.4883918" lon="11.4667819"><ele>44.33333333333333</ele><time>2026-05-01T08:44:17.303Z</time></trkpt><trkpt lat="44.4885756" lon="11.4669233"><ele>44.0</ele><time>2026-05-01T08:44:18.303Z</time></trkpt><trkpt lat="44.4887615" lon="11.4670623"><ele>43.666666666666664</ele><time>2026-05-01T08:44:19.303Z</time></trkpt><trkpt lat="44.488945" lon="11.4672051"><ele>43.333333333333336</ele><time>2026-05-01T08:44:20.303Z</time></trkpt><trkpt lat="44.4891291" lon="11.4673506"><ele>43.0</ele><time>2026-05-01T08:44:21.303Z</time></trkpt><trkpt lat="44.4893137" lon="11.4674983"><ele>43.0</ele><time>2026-05-01T08:44:22.303Z</time></trkpt><trkpt lat="44.4894992" lon="11.4676436"><ele>43.0</ele><time>2026-05-01T08:44:23.303Z</time></trkpt><trkpt lat="44.4896886" lon="11.4677885"><ele>43.0</ele><time>2026-05-01T08:44:24.303Z</time></trkpt><trkpt lat="44.4898785" lon="11.467936"><ele>42.66666666666667</ele><time>2026-05-01T08:44:25.303Z</time></trkpt><trkpt lat="44.4900662" lon="11.4680844"><ele>42.333333333333336</ele><time>2026-05-01T08:44:26.303Z</time></trkpt><trkpt lat="44.4902555" lon="11.468232"><ele>42.0</ele><time>2026-05-01T08:44:27.303Z</time></trkpt><trkpt lat="44.4904458" lon="11.4683809"><ele>42.0</ele><time>2026-05-01T08:44:28.303Z</time></trkpt><trkpt lat="44.490635" lon="11.4685354"><ele>42.0</ele><time>2026-05-01T08:44:29.303Z</time></trkpt><trkpt lat="44.4908245" lon="11.4686888"><ele>42.0</ele><time>2026-05-01T08:44:30.303Z</time></trkpt><trkpt lat="44.4910168" lon="11.4688384"><ele>41.666666666666664</ele><time>2026-05-01T08:44:31.303Z</time></trkpt><trkpt lat="44.4912096" lon="11.4689823"><ele>41.33333333333333</ele><time>2026-05-01T08:44:32.303Z</time></trkpt><trkpt lat="44.4914022" lon="11.4691252"><ele>41.0</ele><time>2026-05-01T08:44:33.303Z</time></trkpt><trkpt lat="44.4915963" lon="11.4692694"><ele>41.0</ele><time>2026-05-01T08:44:34.303Z</time></trkpt><trkpt lat="44.4917915" lon="11.4694175"><ele>41.0</ele><time>2026-05-01T08:44:35.303Z</time></trkpt><trkpt lat="44.4919855" lon="11.4695622"><ele>41.0</ele><time>2026-05-01T08:44:36.303Z</time></trkpt><trkpt lat="44.4921797" lon="11.4697081"><ele>41.0</ele><time>2026-05-01T08:44:37.303Z</time></trkpt><trkpt lat="44.4923741" lon="11.4698544"><ele>41.0</ele><time>2026-05-01T08:44:38.303Z</time></trkpt><trkpt lat="44.4925662" lon="11.4699976"><ele>41.0</ele><time>2026-05-01T08:44:39.303Z</time></trkpt><trkpt lat="44.4927554" lon="11.4701383"><ele>41.0</ele><time>2026-05-01T08:44:40.304Z</time></trkpt><trkpt lat="44.4929431" lon="11.4702768"><ele>41.0</ele><time>2026-05-01T08:44:41.303Z</time></trkpt><trkpt lat="44.49313" lon="11.4704177"><ele>41.0</ele><time>2026-05-01T08:44:42.303Z</time></trkpt><trkpt lat="44.4933182" lon="11.4705582"><ele>41.666666666666664</ele><time>2026-05-01T08:44:43.303Z</time></trkpt><trkpt lat="44.4935086" lon="11.4706978"><ele>42.333333333333336</ele><time>2026-05-01T08:44:44.304Z</time></trkpt><trkpt lat="44.4936959" lon="11.4708503"><ele>43.0</ele><time>2026-05-01T08:44:45.304Z</time></trkpt><trkpt lat="44.4938867" lon="11.4709935"><ele>43.0</ele><time>2026-05-01T08:44:46.304Z</time></trkpt><trkpt lat="44.4940804" lon="11.4711377"><ele>43.0</ele><time>2026-05-01T08:44:47.304Z</time></trkpt><trkpt lat="44.4942705" lon="11.4712905"><ele>43.0</ele><time>2026-05-01T08:44:48.304Z</time></trkpt><trkpt lat="44.4944635" lon="11.4714397"><ele>42.333333333333336</ele><time>2026-05-01T08:44:49.304Z</time></trkpt><trkpt lat="44.4946568" lon="11.4715912"><ele>41.666666666666664</ele><time>2026-05-01T08:44:50.304Z</time></trkpt><trkpt lat="44.4948526" lon="11.4717413"><ele>41.0</ele><time>2026-05-01T08:44:51.304Z</time></trkpt><trkpt lat="44.4950503" lon="11.4718904"><ele>41.0</ele><time>2026-05-01T08:44:52.304Z</time></trkpt><trkpt lat="44.495243" lon="11.4720474"><ele>41.0</ele><time>2026-05-01T08:44:53.304Z</time></trkpt><trkpt lat="44.4954354" lon="11.4722025"><ele>41.0</ele><time>2026-05-01T08:44:54.304Z</time></trkpt><trkpt lat="44.4956276" lon="11.4723494"><ele>41.666666666666664</ele><time>2026-05-01T08:44:55.304Z</time></trkpt><trkpt lat="44.4958186" lon="11.4725044"><ele>42.333333333333336</ele><time>2026-05-01T08:44:56.304Z</time></trkpt><trkpt lat="44.4960105" lon="11.4726456"><ele>43.0</ele><time>2026-05-01T08:44:57.304Z</time></trkpt><trkpt lat="44.4961965" lon="11.4727788"><ele>42.66666666666667</ele><time>2026-05-01T08:44:58.304Z</time></trkpt><trkpt lat="44.4963833" lon="11.472916"><ele>42.333333333333336</ele><time>2026-05-01T08:44:59.304Z</time></trkpt><trkpt lat="44.496568" lon="11.4730545"><ele>42.0</ele><time>2026-05-01T08:45:00.304Z</time></trkpt><trkpt lat="44.4967448" lon="11.4732031"><ele>41.666666666666664</ele><time>2026-05-01T08:45:01.304Z</time></trkpt><trkpt lat="44.4969192" lon="11.473331"><ele>41.33333333333333</ele><time>2026-05-01T08:45:02.304Z</time></trkpt><trkpt lat="44.4970865" lon="11.4734705"><ele>41.0</ele><time>2026-05-01T08:45:03.304Z</time></trkpt><trkpt lat="44.4972495" lon="11.4736038"><ele>41.0</ele><time>2026-05-01T08:45:04.304Z</time></trkpt><trkpt lat="44.4974113" lon="11.4737307"><ele>41.0</ele><time>2026-05-01T08:45:05.304Z</time></trkpt><trkpt lat="44.4975749" lon="11.4738589"><ele>41.0</ele><time>2026-05-01T08:45:06.304Z</time></trkpt><trkpt lat="44.4977347" lon="11.4739805"><ele>40.666666666666664</ele><time>2026-05-01T08:45:07.304Z</time></trkpt><trkpt lat="44.4978951" lon="11.4741022"><ele>40.333333333333336</ele><time>2026-05-01T08:45:08.304Z</time></trkpt><trkpt lat="44.4980494" lon="11.4742226"><ele>40.0</ele><time>2026-05-01T08:45:09.304Z</time></trkpt><trkpt lat="44.4982019" lon="11.474343"><ele>39.0</ele><time>2026-05-01T08:45:10.304Z</time></trkpt><trkpt lat="44.4983532" lon="11.4744602"><ele>38.0</ele><time>2026-05-01T08:45:11.304Z</time></trkpt><trkpt lat="44.4985046" lon="11.4745736"><ele>37.0</ele><time>2026-05-01T08:45:12.304Z</time></trkpt><trkpt lat="44.4986508" lon="11.4746805"><ele>37.0</ele><time>2026-05-01T08:45:13.304Z</time></trkpt><trkpt lat="44.4987784" lon="11.4747705"><ele>37.0</ele><time>2026-05-01T08:45:14.304Z</time></trkpt><trkpt lat="44.4988843" lon="11.4748455"><ele>37.0</ele><time>2026-05-01T08:45:15.304Z</time></trkpt><trkpt lat="44.4989812" lon="11.4749078"><ele>37.0</ele><time>2026-05-01T08:45:16.304Z</time></trkpt><trkpt lat="44.4990663" lon="11.4749737"><ele>37.0</ele><time>2026-05-01T08:45:17.304Z</time></trkpt><trkpt lat="44.4991441" lon="11.475036"><ele>37.0</ele><time>2026-05-01T08:45:18.304Z</time></trkpt><trkpt lat="44.4992194" lon="11.4750899"><ele>37.0</ele><time>2026-05-01T08:45:19.304Z</time></trkpt><trkpt lat="44.4992953" lon="11.4751381"><ele>37.0</ele><time>2026-05-01T08:45:20.304Z</time></trkpt><trkpt lat="44.499372" lon="11.4751909"><ele>37.0</ele><time>2026-05-01T08:45:21.304Z</time></trkpt><trkpt lat="44.499443" lon="11.4752429"><ele>37.0</ele><time>2026-05-01T08:45:22.304Z</time></trkpt><trkpt lat="44.499513" lon="11.4752944"><ele>37.2</ele><time>2026-05-01T08:45:23.304Z</time></trkpt><trkpt lat="44.4995873" lon="11.4753504"><ele>37.400000000000006</ele><time>2026-05-01T08:45:24.304Z</time></trkpt><trkpt lat="44.4996707" lon="11.4754168"><ele>37.599999999999994</ele><time>2026-05-01T08:45:25.304Z</time></trkpt><trkpt lat="44.499765" lon="11.4754889"><ele>37.8</ele><time>2026-05-01T08:45:26.304Z</time></trkpt><trkpt lat="44.4998681" lon="11.4755698"><ele>38.0</ele><time>2026-05-01T08:45:27.304Z</time></trkpt><trkpt lat="44.4999801" lon="11.4756529"><ele>38.25</ele><time>2026-05-01T08:45:28.305Z</time></trkpt><trkpt lat="44.5000969" lon="11.4757452"><ele>38.5</ele><time>2026-05-01T08:45:29.304Z</time></trkpt><trkpt lat="44.5002172" lon="11.4758384"><ele>38.75</ele><time>2026-05-01T08:45:30.305Z</time></trkpt><trkpt lat="44.5003383" lon="11.4759263"><ele>39.0</ele><time>2026-05-01T08:45:31.304Z</time></trkpt><trkpt lat="44.5004537" lon="11.4760124"><ele>39.4</ele><time>2026-05-01T08:45:32.304Z</time></trkpt><trkpt lat="44.5005569" lon="11.4760935"><ele>39.8</ele><time>2026-05-01T08:45:33.304Z</time></trkpt><trkpt lat="44.5006458" lon="11.4761623"><ele>40.199999999999996</ele><time>2026-05-01T08:45:34.304Z</time></trkpt><trkpt lat="44.5007228" lon="11.4762276"><ele>40.599999999999994</ele><time>2026-05-01T08:45:35.304Z</time></trkpt><trkpt lat="44.5007876" lon="11.47628"><ele>41.0</ele><time>2026-05-01T08:45:36.305Z</time></trkpt><trkpt lat="44.5008728" lon="11.4763405"><ele>41.0</ele><time>2026-05-01T08:45:38.304Z</time></trkpt><trkpt lat="44.5009409" lon="11.4764023"><ele>41.0</ele><time>2026-05-01T08:45:52.305Z</time></trkpt><trkpt lat="44.5010016" lon="11.4764466"><ele>41.0</ele><time>2026-05-01T08:45:54.306Z</time></trkpt><trkpt lat="44.5010935" lon="11.4765119"><ele>41.0</ele><time>2026-05-01T08:45:57.305Z</time></trkpt><trkpt lat="44.5011799" lon="11.476579"><ele>41.0</ele><time>2026-05-01T08:45:59.305Z</time></trkpt><trkpt lat="44.501283" lon="11.4766551"><ele>40.83333333333333</ele><time>2026-05-01T08:46:01.305Z</time></trkpt><trkpt lat="44.5013414" lon="11.4766991"><ele>40.666666666666664</ele><time>2026-05-01T08:46:02.305Z</time></trkpt><trkpt lat="44.501404" lon="11.4767468"><ele>40.5</ele><time>2026-05-01T08:46:03.305Z</time></trkpt><trkpt lat="44.5014606" lon="11.4767917"><ele>40.333333333333336</ele><time>2026-05-01T08:46:04.305Z</time></trkpt><trkpt lat="44.5015352" lon="11.4768461"><ele>40.16666666666667</ele><time>2026-05-01T08:46:06.305Z</time></trkpt><trkpt lat="44.5016071" lon="11.4768952"><ele>40.0</ele><time>2026-05-01T08:46:08.305Z</time></trkpt><trkpt lat="44.5016858" lon="11.4769386"><ele>40.0</ele><time>2026-05-01T08:46:10.305Z</time></trkpt><trkpt lat="44.5017596" lon="11.4769783"><ele>40.0</ele><time>2026-05-01T08:46:12.305Z</time></trkpt><trkpt lat="44.5018385" lon="11.4770161"><ele>40.0</ele><time>2026-05-01T08:46:14.305Z</time></trkpt><trkpt lat="44.501908" lon="11.4770425"><ele>40.0</ele><time>2026-05-01T08:46:16.305Z</time></trkpt><trkpt lat="44.5019732" lon="11.4770598"><ele>40.0</ele><time>2026-05-01T08:46:18.305Z</time></trkpt><trkpt lat="44.5020405" lon="11.4770795"><ele>40.0</ele><time>2026-05-01T08:46:21.305Z</time></trkpt><trkpt lat="44.5021434" lon="11.4771026"><ele>40.0</ele><time>2026-05-01T08:46:37.306Z</time></trkpt><trkpt lat="44.5022268" lon="11.4771209"><ele>40.0</ele><time>2026-05-01T08:46:39.306Z</time></trkpt><trkpt lat="44.5022922" lon="11.477135"><ele>40.0</ele><time>2026-05-01T08:46:41.306Z</time></trkpt><trkpt lat="44.5023698" lon="11.4771686"><ele>40.0</ele><time>2026-05-01T08:46:44.306Z</time></trkpt><trkpt lat="44.502436" lon="11.477212"><ele>40.0</ele><time>2026-05-01T08:46:48.306Z</time></trkpt><trkpt lat="44.5025008" lon="11.477271"><ele>40.0</ele><time>2026-05-01T08:46:53.306Z</time></trkpt><trkpt lat="44.5025603" lon="11.47734"><ele>40.0</ele><time>2026-05-01T08:46:57.306Z</time></trkpt><trkpt lat="44.5026294" lon="11.4774467"><ele>40.0</ele><time>2026-05-01T08:46:59.306Z</time></trkpt><trkpt lat="44.5026678" lon="11.4775309"><ele>40.0</ele><time>2026-05-01T08:47:00.306Z</time></trkpt><trkpt lat="44.5027103" lon="11.4776226"><ele>40.0</ele><time>2026-05-01T08:47:01.306Z</time></trkpt><trkpt lat="44.5027652" lon="11.4777023"><ele>40.0</ele><time>2026-05-01T08:47:02.306Z</time></trkpt><trkpt lat="44.5028358" lon="11.4777559"><ele>40.0</ele><time>2026-05-01T08:47:03.306Z</time></trkpt><trkpt lat="44.5029134" lon="11.4778004"><ele>40.0</ele><time>2026-05-01T08:47:04.306Z</time></trkpt><trkpt lat="44.5030038" lon="11.4778132"><ele>40.0</ele><time>2026-05-01T08:47:05.306Z</time></trkpt><trkpt lat="44.5030853" lon="11.4778314"><ele>40.0</ele><time>2026-05-01T08:47:06.306Z</time></trkpt><trkpt lat="44.5031571" lon="11.4778783"><ele>40.0</ele><time>2026-05-01T08:47:07.306Z</time></trkpt><trkpt lat="44.5032176" lon="11.4779513"><ele>40.0</ele><time>2026-05-01T08:47:08.306Z</time></trkpt><trkpt lat="44.5032706" lon="11.4780412"><ele>40.0</ele><time>2026-05-01T08:47:09.306Z</time></trkpt><trkpt lat="44.5033208" lon="11.4781398"><ele>40.0</ele><time>2026-05-01T08:47:10.306Z</time></trkpt><trkpt lat="44.5033734" lon="11.4782339"><ele>40.0</ele><time>2026-05-01T08:47:11.306Z</time></trkpt><trkpt lat="44.5034338" lon="11.4783114"><ele>40.0</ele><time>2026-05-01T08:47:12.306Z</time></trkpt><trkpt lat="44.5034979" lon="11.4783735"><ele>40.0</ele><time>2026-05-01T08:47:13.306Z</time></trkpt><trkpt lat="44.5035656" lon="11.4784103"><ele>40.0</ele><time>2026-05-01T08:47:14.306Z</time></trkpt><trkpt lat="44.5036324" lon="11.4784074"><ele>40.0</ele><time>2026-05-01T08:47:15.306Z</time></trkpt><trkpt lat="44.5036885" lon="11.4783604"><ele>40.0</ele><time>2026-05-01T08:47:16.306Z</time></trkpt><trkpt lat="44.5037332" lon="11.4782872"><ele>40.0</ele><time>2026-05-01T08:47:17.306Z</time></trkpt><trkpt lat="44.5037683" lon="11.4782022"><ele>40.0</ele><time>2026-05-01T08:47:18.306Z</time></trkpt><trkpt lat="44.5038018" lon="11.4781124"><ele>40.0</ele><time>2026-05-01T08:47:19.306Z</time></trkpt><trkpt lat="44.5038326" lon="11.4780246"><ele>40.0</ele><time>2026-05-01T08:47:20.306Z</time></trkpt><trkpt lat="44.5038646" lon="11.4779427"><ele>40.0</ele><time>2026-05-01T08:47:21.306Z</time></trkpt><trkpt lat="44.5039024" lon="11.477857"><ele>40.0</ele><time>2026-05-01T08:47:22.306Z</time></trkpt><trkpt lat="44.5039445" lon="11.477759"><ele>40.6</ele><time>2026-05-01T08:47:23.306Z</time></trkpt><trkpt lat="44.5039865" lon="11.4776547"><ele>41.2</ele><time>2026-05-01T08:47:24.306Z</time></trkpt><trkpt lat="44.5040314" lon="11.4775421"><ele>41.8</ele><time>2026-05-01T08:47:25.306Z</time></trkpt><trkpt lat="44.5040807" lon="11.4774215"><ele>42.4</ele><time>2026-05-01T08:47:26.306Z</time></trkpt><trkpt lat="44.5041323" lon="11.4772963"><ele>43.0</ele><time>2026-05-01T08:47:27.306Z</time></trkpt><trkpt lat="44.5041885" lon="11.477167"><ele>43.2</ele><time>2026-05-01T08:47:28.306Z</time></trkpt><trkpt lat="44.50424" lon="11.4770316"><ele>43.4</ele><time>2026-05-01T08:47:29.306Z</time></trkpt><trkpt lat="44.50429" lon="11.4768919"><ele>43.6</ele><time>2026-05-01T08:47:30.306Z</time></trkpt><trkpt lat="44.5043411" lon="11.4767531"><ele>43.800000000000004</ele><time>2026-05-01T08:47:31.306Z</time></trkpt><trkpt lat="44.5043907" lon="11.4766225"><ele>44.0</ele><time>2026-05-01T08:47:32.307Z</time></trkpt><trkpt lat="44.5044397" lon="11.476501"><ele>44.0</ele><time>2026-05-01T08:47:33.306Z</time></trkpt><trkpt lat="44.504485" lon="11.4763899"><ele>44.0</ele><time>2026-05-01T08:47:34.306Z</time></trkpt><trkpt lat="44.5045366" lon="11.4762911"><ele>44.0</ele><time>2026-05-01T08:47:35.306Z</time></trkpt><trkpt lat="44.5046008" lon="11.476216"><ele>44.0</ele><time>2026-05-01T08:47:36.307Z</time></trkpt><trkpt lat="44.5046696" lon="11.476168"><ele>44.0</ele><time>2026-05-01T08:47:37.307Z</time></trkpt><trkpt lat="44.50474" lon="11.4761512"><ele>44.0</ele><time>2026-05-01T08:47:38.307Z</time></trkpt><trkpt lat="44.5048092" lon="11.4761707"><ele>44.0</ele><time>2026-05-01T08:47:39.307Z</time></trkpt><trkpt lat="44.5048756" lon="11.4762116"><ele>44.0</ele><time>2026-05-01T08:47:40.307Z</time></trkpt><trkpt lat="44.5049395" lon="11.4762593"><ele>44.0</ele><time>2026-05-01T08:47:41.307Z</time></trkpt><trkpt lat="44.5049961" lon="11.476306"><ele>44.0</ele><time>2026-05-01T08:47:42.307Z</time></trkpt><trkpt lat="44.5050619" lon="11.476367"><ele>44.0</ele><time>2026-05-01T08:47:44.307Z</time></trkpt><trkpt lat="44.5051284" lon="11.4764305"><ele>44.0</ele><time>2026-05-01T08:47:48.307Z</time></trkpt><trkpt lat="44.5052057" lon="11.4763649"><ele>43.83333333333333</ele><time>2026-05-01T08:47:51.307Z</time></trkpt><trkpt lat="44.5052755" lon="11.4761999"><ele>43.666666666666664</ele><time>2026-05-01T08:47:53.307Z</time></trkpt><trkpt lat="44.5053101" lon="11.4761131"><ele>43.5</ele><time>2026-05-01T08:47:54.307Z</time></trkpt><trkpt lat="44.5053484" lon="11.4760222"><ele>43.333333333333336</ele><time>2026-05-01T08:47:55.307Z</time></trkpt><trkpt lat="44.5053875" lon="11.4759307"><ele>43.16666666666667</ele><time>2026-05-01T08:47:56.307Z</time></trkpt><trkpt lat="44.5054286" lon="11.475836"><ele>43.0</ele><time>2026-05-01T08:47:57.307Z</time></trkpt><trkpt lat="44.5054619" lon="11.4757373"><ele>42.833333333333336</ele><time>2026-05-01T08:47:58.307Z</time></trkpt><trkpt lat="44.5055027" lon="11.47564"><ele>42.66666666666667</ele><time>2026-05-01T08:47:59.307Z</time></trkpt><trkpt lat="44.5055408" lon="11.47554"><ele>42.5</ele><time>2026-05-01T08:48:00.307Z</time></trkpt><trkpt lat="44.5055786" lon="11.4754479"><ele>42.333333333333336</ele><time>2026-05-01T08:48:01.307Z</time></trkpt><trkpt lat="44.5056186" lon="11.4753526"><ele>42.166666666666664</ele><time>2026-05-01T08:48:02.307Z</time></trkpt><trkpt lat="44.5056547" lon="11.4752575"><ele>42.0</ele><time>2026-05-01T08:48:03.307Z</time></trkpt><trkpt lat="44.5056927" lon="11.475164"><ele>42.0</ele><time>2026-05-01T08:48:04.307Z</time></trkpt><trkpt lat="44.5057322" lon="11.4750714"><ele>42.0</ele><time>2026-05-01T08:48:05.307Z</time></trkpt><trkpt lat="44.5057676" lon="11.4749794"><ele>42.0</ele><time>2026-05-01T08:48:06.307Z</time></trkpt><trkpt lat="44.505803" lon="11.4748869"><ele>42.0</ele><time>2026-05-01T08:48:07.308Z</time></trkpt><trkpt lat="44.5058392" lon="11.474796"><ele>42.0</ele><time>2026-05-01T08:48:08.307Z</time></trkpt><trkpt lat="44.505879" lon="11.4747085"><ele>42.0</ele><time>2026-05-01T08:48:09.307Z</time></trkpt><trkpt lat="44.5059146" lon="11.4746203"><ele>42.0</ele><time>2026-05-01T08:48:10.307Z</time></trkpt><trkpt lat="44.5059515" lon="11.4745315"><ele>42.0</ele><time>2026-05-01T08:48:11.307Z</time></trkpt><trkpt lat="44.5059849" lon="11.4744414"><ele>42.0</ele><time>2026-05-01T08:48:12.307Z</time></trkpt><trkpt lat="44.5060167" lon="11.4743528"><ele>42.0</ele><time>2026-05-01T08:48:13.306Z</time></trkpt><trkpt lat="44.5060508" lon="11.4742675"><ele>42.0</ele><time>2026-05-01T08:48:14.307Z</time></trkpt><trkpt lat="44.5060816" lon="11.474184"><ele>42.0</ele><time>2026-05-01T08:48:15.307Z</time></trkpt><trkpt lat="44.5061584" lon="11.4740853"><ele>42.0</ele><time>2026-05-01T08:48:17.307Z</time></trkpt><trkpt lat="44.5062515" lon="11.4741465"><ele>41.666666666666664</ele><time>2026-05-01T08:48:19.307Z</time></trkpt><trkpt lat="44.5063028" lon="11.4741985"><ele>41.333333333333336</ele><time>2026-05-01T08:48:20.307Z</time></trkpt><trkpt lat="44.5063649" lon="11.4742562"><ele>41.0</ele><time>2026-05-01T08:48:21.307Z</time></trkpt><trkpt lat="44.5064342" lon="11.4743212"><ele>40.66666666666667</ele><time>2026-05-01T08:48:22.307Z</time></trkpt><trkpt lat="44.5065109" lon="11.4743923"><ele>40.333333333333336</ele><time>2026-05-01T08:48:23.307Z</time></trkpt><trkpt lat="44.5065902" lon="11.4744739"><ele>40.0</ele><time>2026-05-01T08:48:24.307Z</time></trkpt><trkpt lat="44.5066712" lon="11.4745563"><ele>40.4</ele><time>2026-05-01T08:48:25.307Z</time></trkpt><trkpt lat="44.5067541" lon="11.4746354"><ele>40.8</ele><time>2026-05-01T08:48:26.307Z</time></trkpt><trkpt lat="44.5068393" lon="11.4747116"><ele>41.2</ele><time>2026-05-01T08:48:27.307Z</time></trkpt><trkpt lat="44.5069231" lon="11.4747871"><ele>41.6</ele><time>2026-05-01T08:48:28.307Z</time></trkpt><trkpt lat="44.5070004" lon="11.4748631"><ele>42.0</ele><time>2026-05-01T08:48:29.307Z</time></trkpt><trkpt lat="44.5070766" lon="11.4749331"><ele>41.833333333333336</ele><time>2026-05-01T08:48:30.307Z</time></trkpt><trkpt lat="44.5071504" lon="11.4750026"><ele>41.666666666666664</ele><time>2026-05-01T08:48:31.307Z</time></trkpt><trkpt lat="44.5072249" lon="11.4750722"><ele>41.5</ele><time>2026-05-01T08:48:32.307Z</time></trkpt><trkpt lat="44.5072983" lon="11.4751457"><ele>41.33333333333333</ele><time>2026-05-01T08:48:33.307Z</time></trkpt><trkpt lat="44.5073716" lon="11.4752201"><ele>41.166666666666664</ele><time>2026-05-01T08:48:34.307Z</time></trkpt><trkpt lat="44.5074443" lon="11.4752931"><ele>41.0</ele><time>2026-05-01T08:48:35.308Z</time></trkpt><trkpt lat="44.5075165" lon="11.4753676"><ele>40.599999999999994</ele><time>2026-05-01T08:48:36.308Z</time></trkpt><trkpt lat="44.5075917" lon="11.4754379"><ele>40.199999999999996</ele><time>2026-05-01T08:48:37.308Z</time></trkpt><trkpt lat="44.507667" lon="11.4755042"><ele>39.8</ele><time>2026-05-01T08:48:38.308Z</time></trkpt><trkpt lat="44.5077414" lon="11.4755781"><ele>39.4</ele><time>2026-05-01T08:48:39.308Z</time></trkpt><trkpt lat="44.5078105" lon="11.4756654"><ele>39.0</ele><time>2026-05-01T08:48:40.308Z</time></trkpt><trkpt lat="44.5078714" lon="11.4757573"><ele>38.2</ele><time>2026-05-01T08:48:41.308Z</time></trkpt><trkpt lat="44.5079231" lon="11.4758331"><ele>37.4</ele><time>2026-05-01T08:48:42.308Z</time></trkpt><trkpt lat="44.5079832" lon="11.4759298"><ele>36.6</ele><time>2026-05-01T08:48:44.308Z</time></trkpt><trkpt lat="44.5080466" lon="11.4760324"><ele>35.8</ele><time>2026-05-01T08:48:48.308Z</time></trkpt><trkpt lat="44.5081272" lon="11.4761789"><ele>35.0</ele><time>2026-05-01T08:48:50.308Z</time></trkpt><trkpt lat="44.5081882" lon="11.4762832"><ele>35.0</ele><time>2026-05-01T08:48:51.308Z</time></trkpt><trkpt lat="44.5082565" lon="11.4763945"><ele>35.0</ele><time>2026-05-01T08:48:52.308Z</time></trkpt><trkpt lat="44.5083269" lon="11.4765201"><ele>35.0</ele><time>2026-05-01T08:48:53.309Z</time></trkpt><trkpt lat="44.5084" lon="11.4766598"><ele>35.0</ele><time>2026-05-01T08:48:54.308Z</time></trkpt><trkpt lat="44.5084667" lon="11.4768145"><ele>35.0</ele><time>2026-05-01T08:48:55.309Z</time></trkpt><trkpt lat="44.5085241" lon="11.476987"><ele>35.0</ele><time>2026-05-01T08:48:56.308Z</time></trkpt><trkpt lat="44.5085732" lon="11.4771599"><ele>35.0</ele><time>2026-05-01T08:48:57.308Z</time></trkpt><trkpt lat="44.5086043" lon="11.4773543"><ele>35.0</ele><time>2026-05-01T08:48:58.308Z</time></trkpt><trkpt lat="44.5086473" lon="11.477532"><ele>35.0</ele><time>2026-05-01T08:48:59.308Z</time></trkpt><trkpt lat="44.5087624" lon="11.4776611"><ele>35.0</ele><time>2026-05-01T08:49:00.308Z</time></trkpt><trkpt lat="44.508881" lon="11.4777864"><ele>35.0</ele><time>2026-05-01T08:49:01.308Z</time></trkpt><trkpt lat="44.5090133" lon="11.4778985"><ele>34.666666666666664</ele><time>2026-05-01T08:49:02.308Z</time></trkpt><trkpt lat="44.5091532" lon="11.4780054"><ele>34.333333333333336</ele><time>2026-05-01T08:49:03.308Z</time></trkpt><trkpt lat="44.5092981" lon="11.478116"><ele>34.0</ele><time>2026-05-01T08:49:04.308Z</time></trkpt><trkpt lat="44.5094437" lon="11.478236"><ele>34.0</ele><time>2026-05-01T08:49:05.308Z</time></trkpt><trkpt lat="44.5095888" lon="11.4783653"><ele>34.0</ele><time>2026-05-01T08:49:06.308Z</time></trkpt><trkpt lat="44.5097335" lon="11.4785067"><ele>34.0</ele><time>2026-05-01T08:49:07.308Z</time></trkpt><trkpt lat="44.5098707" lon="11.4786571"><ele>33.66666666666667</ele><time>2026-05-01T08:49:08.308Z</time></trkpt><trkpt lat="44.5099992" lon="11.4788084"><ele>33.333333333333336</ele><time>2026-05-01T08:49:09.308Z</time></trkpt><trkpt lat="44.5101214" lon="11.4789557"><ele>33.0</ele><time>2026-05-01T08:49:10.308Z</time></trkpt><trkpt lat="44.5102425" lon="11.4791023"><ele>33.0</ele><time>2026-05-01T08:49:11.308Z</time></trkpt><trkpt lat="44.5103597" lon="11.4792542"><ele>33.0</ele><time>2026-05-01T08:49:12.308Z</time></trkpt><trkpt lat="44.5104688" lon="11.4794153"><ele>33.0</ele><time>2026-05-01T08:49:13.307Z</time></trkpt><trkpt lat="44.5105673" lon="11.4795867"><ele>33.25</ele><time>2026-05-01T08:49:14.308Z</time></trkpt><trkpt lat="44.5106633" lon="11.4797562"><ele>33.5</ele><time>2026-05-01T08:49:15.308Z</time></trkpt><trkpt lat="44.5107581" lon="11.4799096"><ele>33.75</ele><time>2026-05-01T08:49:16.308Z</time></trkpt><trkpt lat="44.5108586" lon="11.4800322"><ele>34.0</ele><time>2026-05-01T08:49:17.308Z</time></trkpt><trkpt lat="44.5109717" lon="11.4801231"><ele>34.0</ele><time>2026-05-01T08:49:18.308Z</time></trkpt><trkpt lat="44.5110928" lon="11.4801801"><ele>34.0</ele><time>2026-05-01T08:49:19.308Z</time></trkpt><trkpt lat="44.5112337" lon="11.4801908"><ele>34.0</ele><time>2026-05-01T08:49:20.308Z</time></trkpt><trkpt lat="44.5113653" lon="11.4802081"><ele>34.0</ele><time>2026-05-01T08:49:21.308Z</time></trkpt><trkpt lat="44.511481" lon="11.480239"><ele>33.833333333333336</ele><time>2026-05-01T08:49:22.308Z</time></trkpt><trkpt lat="44.5115456" lon="11.4803412"><ele>33.66666666666667</ele><time>2026-05-01T08:49:23.308Z</time></trkpt><trkpt lat="44.511625" lon="11.4804192"><ele>33.5</ele><time>2026-05-01T08:49:24.308Z</time></trkpt><trkpt lat="44.5116871" lon="11.4805024"><ele>33.333333333333336</ele><time>2026-05-01T08:49:25.308Z</time></trkpt><trkpt lat="44.5117357" lon="11.4805867"><ele>33.166666666666664</ele><time>2026-05-01T08:49:26.308Z</time></trkpt><trkpt lat="44.5117768" lon="11.4806685"><ele>33.0</ele><time>2026-05-01T08:49:27.308Z</time></trkpt><trkpt lat="44.5118012" lon="11.4807529"><ele>33.333333333333336</ele><time>2026-05-01T08:49:28.308Z</time></trkpt><trkpt lat="44.5117862" lon="11.4809144"><ele>33.666666666666664</ele><time>2026-05-01T08:49:30.308Z</time></trkpt><trkpt lat="44.5117591" lon="11.4809953"><ele>34.0</ele><time>2026-05-01T08:49:31.308Z</time></trkpt><trkpt lat="44.5117304" lon="11.481086"><ele>34.33333333333333</ele><time>2026-05-01T08:49:32.308Z</time></trkpt><trkpt lat="44.5116972" lon="11.4811876"><ele>34.666666666666664</ele><time>2026-05-01T08:49:33.309Z</time></trkpt><trkpt lat="44.5116612" lon="11.4813025"><ele>35.0</ele><time>2026-05-01T08:49:34.309Z</time></trkpt><trkpt lat="44.5115885" lon="11.4815396"><ele>35.2</ele><time>2026-05-01T08:49:36.309Z</time></trkpt><trkpt lat="44.511554" lon="11.4816586"><ele>35.4</ele><time>2026-05-01T08:49:37.309Z</time></trkpt><trkpt lat="44.5115252" lon="11.4817897"><ele>35.6</ele><time>2026-05-01T08:49:38.309Z</time></trkpt><trkpt lat="44.511502" lon="11.481929"><ele>35.8</ele><time>2026-05-01T08:49:39.309Z</time></trkpt><trkpt lat="44.5114898" lon="11.4820915"><ele>36.0</ele><time>2026-05-01T08:49:40.309Z</time></trkpt><trkpt lat="44.5114797" lon="11.4822837"><ele>36.0</ele><time>2026-05-01T08:49:41.309Z</time></trkpt><trkpt lat="44.5114577" lon="11.4824855"><ele>36.0</ele><time>2026-05-01T08:49:42.309Z</time></trkpt><trkpt lat="44.5114384" lon="11.4827018"><ele>36.0</ele><time>2026-05-01T08:49:43.309Z</time></trkpt><trkpt lat="44.5114305" lon="11.482931"><ele>36.333333333333336</ele><time>2026-05-01T08:49:44.309Z</time></trkpt><trkpt lat="44.5114354" lon="11.4831687"><ele>36.66666666666667</ele><time>2026-05-01T08:49:45.309Z</time></trkpt><trkpt lat="44.5114598" lon="11.4834139"><ele>37.0</ele><time>2026-05-01T08:49:46.309Z</time></trkpt><trkpt lat="44.5115008" lon="11.4836448"><ele>37.66666666666667</ele><time>2026-05-01T08:49:47.309Z</time></trkpt><trkpt lat="44.5115526" lon="11.4838712"><ele>38.333333333333336</ele><time>2026-05-01T08:49:48.309Z</time></trkpt><trkpt lat="44.5115994" lon="11.4840824"><ele>39.0</ele><time>2026-05-01T08:49:49.309Z</time></trkpt><trkpt lat="44.5116482" lon="11.4842962"><ele>39.0</ele><time>2026-05-01T08:49:50.309Z</time></trkpt><trkpt lat="44.5117002" lon="11.4845189"><ele>39.0</ele><time>2026-05-01T08:49:51.309Z</time></trkpt><trkpt lat="44.5117524" lon="11.4847429"><ele>39.0</ele><time>2026-05-01T08:49:52.309Z</time></trkpt><trkpt lat="44.5118056" lon="11.4849724"><ele>38.333333333333336</ele><time>2026-05-01T08:49:53.31Z</time></trkpt><trkpt lat="44.5118629" lon="11.4852079"><ele>37.66666666666667</ele><time>2026-05-01T08:49:54.309Z</time></trkpt><trkpt lat="44.5119265" lon="11.485445"><ele>37.0</ele><time>2026-05-01T08:49:55.309Z</time></trkpt><trkpt lat="44.5120002" lon="11.4856819"><ele>37.0</ele><time>2026-05-01T08:49:56.309Z</time></trkpt><trkpt lat="44.5120891" lon="11.4859027"><ele>37.0</ele><time>2026-05-01T08:49:57.309Z</time></trkpt><trkpt lat="44.5121992" lon="11.4861054"><ele>37.0</ele><time>2026-05-01T08:49:58.309Z</time></trkpt><trkpt lat="44.5123296" lon="11.486293"><ele>37.0</ele><time>2026-05-01T08:49:59.309Z</time></trkpt><trkpt lat="44.5124729" lon="11.4864776"><ele>37.0</ele><time>2026-05-01T08:50:00.309Z</time></trkpt><trkpt lat="44.5126201" lon="11.4866654"><ele>37.0</ele><time>2026-05-01T08:50:01.309Z</time></trkpt><trkpt lat="44.5127717" lon="11.4868566"><ele>37.0</ele><time>2026-05-01T08:50:02.309Z</time></trkpt><trkpt lat="44.512925" lon="11.4870541"><ele>37.0</ele><time>2026-05-01T08:50:03.309Z</time></trkpt><trkpt lat="44.5130753" lon="11.4872483"><ele>37.0</ele><time>2026-05-01T08:50:04.309Z</time></trkpt><trkpt lat="44.5132248" lon="11.4874466"><ele>37.0</ele><time>2026-05-01T08:50:05.309Z</time></trkpt><trkpt lat="44.5133766" lon="11.4876384"><ele>37.0</ele><time>2026-05-01T08:50:06.309Z</time></trkpt><trkpt lat="44.5135304" lon="11.4878329"><ele>37.0</ele><time>2026-05-01T08:50:07.309Z</time></trkpt><trkpt lat="44.5136879" lon="11.4880287"><ele>37.66666666666667</ele><time>2026-05-01T08:50:08.309Z</time></trkpt><trkpt lat="44.5138457" lon="11.488227"><ele>38.333333333333336</ele><time>2026-05-01T08:50:09.309Z</time></trkpt><trkpt lat="44.5140084" lon="11.4884258"><ele>39.0</ele><time>2026-05-01T08:50:10.309Z</time></trkpt><trkpt lat="44.5141734" lon="11.4886282"><ele>38.333333333333336</ele><time>2026-05-01T08:50:11.309Z</time></trkpt><trkpt lat="44.5143377" lon="11.4888281"><ele>37.66666666666667</ele><time>2026-05-01T08:50:12.309Z</time></trkpt><trkpt lat="44.5144993" lon="11.4890285"><ele>37.0</ele><time>2026-05-01T08:50:13.309Z</time></trkpt><trkpt lat="44.5146575" lon="11.4892275"><ele>37.0</ele><time>2026-05-01T08:50:14.309Z</time></trkpt><trkpt lat="44.5148127" lon="11.4894216"><ele>37.0</ele><time>2026-05-01T08:50:15.309Z</time></trkpt><trkpt lat="44.5149596" lon="11.4896041"><ele>37.0</ele><time>2026-05-01T08:50:16.309Z</time></trkpt><trkpt lat="44.5150924" lon="11.4897788"><ele>36.333333333333336</ele><time>2026-05-01T08:50:17.309Z</time></trkpt><trkpt lat="44.5152017" lon="11.4899482"><ele>35.666666666666664</ele><time>2026-05-01T08:50:18.309Z</time></trkpt><trkpt lat="44.5152799" lon="11.4901225"><ele>35.0</ele><time>2026-05-01T08:50:19.309Z</time></trkpt><trkpt lat="44.5153262" lon="11.490311"><ele>34.666666666666664</ele><time>2026-05-01T08:50:20.309Z</time></trkpt><trkpt lat="44.5153451" lon="11.4905112"><ele>34.333333333333336</ele><time>2026-05-01T08:50:21.309Z</time></trkpt><trkpt lat="44.5153326" lon="11.4907148"><ele>34.0</ele><time>2026-05-01T08:50:22.309Z</time></trkpt><trkpt lat="44.5153417" lon="11.4909423"><ele>34.0</ele><time>2026-05-01T08:50:23.309Z</time></trkpt><trkpt lat="44.5153723" lon="11.4911617"><ele>34.0</ele><time>2026-05-01T08:50:24.309Z</time></trkpt><trkpt lat="44.5154417" lon="11.4913666"><ele>34.0</ele><time>2026-05-01T08:50:25.309Z</time></trkpt><trkpt lat="44.5155007" lon="11.4915509"><ele>34.75</ele><time>2026-05-01T08:50:26.309Z</time></trkpt><trkpt lat="44.5155612" lon="11.4916947"><ele>35.5</ele><time>2026-05-01T08:50:27.309Z</time></trkpt><trkpt lat="44.5155967" lon="11.4918674"><ele>36.25</ele><time>2026-05-01T08:50:28.309Z</time></trkpt><trkpt lat="44.5155804" lon="11.4920342"><ele>37.0</ele><time>2026-05-01T08:50:29.309Z</time></trkpt><trkpt lat="44.5155431" lon="11.4922239"><ele>37.5</ele><time>2026-05-01T08:50:30.309Z</time></trkpt><trkpt lat="44.515471" lon="11.4923804"><ele>38.0</ele><time>2026-05-01T08:50:31.31Z</time></trkpt><trkpt lat="44.515384" lon="11.4925493"><ele>38.5</ele><time>2026-05-01T08:50:32.309Z</time></trkpt><trkpt lat="44.5152863" lon="11.4927138"><ele>39.0</ele><time>2026-05-01T08:50:33.309Z</time></trkpt><trkpt lat="44.5151904" lon="11.492886"><ele>37.333333333333336</ele><time>2026-05-01T08:50:34.31Z</time></trkpt><trkpt lat="44.5150944" lon="11.4930607"><ele>35.66666666666667</ele><time>2026-05-01T08:50:35.31Z</time></trkpt><trkpt lat="44.5149957" lon="11.493249"><ele>34.0</ele><time>2026-05-01T08:50:36.31Z</time></trkpt><trkpt lat="44.5148961" lon="11.4934386"><ele>34.0</ele><time>2026-05-01T08:50:37.31Z</time></trkpt><trkpt lat="44.5147974" lon="11.4936272"><ele>34.0</ele><time>2026-05-01T08:50:38.311Z</time></trkpt><trkpt lat="44.5147024" lon="11.493816"><ele>34.0</ele><time>2026-05-01T08:50:39.31Z</time></trkpt><trkpt lat="44.5146117" lon="11.4939963"><ele>33.75</ele><time>2026-05-01T08:50:40.31Z</time></trkpt><trkpt lat="44.5145252" lon="11.4941664"><ele>33.5</ele><time>2026-05-01T08:50:41.31Z</time></trkpt><trkpt lat="44.5144413" lon="11.4943297"><ele>33.25</ele><time>2026-05-01T08:50:42.31Z</time></trkpt><trkpt lat="44.5143628" lon="11.4944785"><ele>33.0</ele><time>2026-05-01T08:50:43.31Z</time></trkpt><trkpt lat="44.5142929" lon="11.4946081"><ele>33.0</ele><time>2026-05-01T08:50:44.31Z</time></trkpt><trkpt lat="44.5142359" lon="11.4947279"><ele>33.0</ele><time>2026-05-01T08:50:45.31Z</time></trkpt><trkpt lat="44.5141979" lon="11.4948428"><ele>33.0</ele><time>2026-05-01T08:50:46.31Z</time></trkpt><trkpt lat="44.5141848" lon="11.4949632"><ele>33.0</ele><time>2026-05-01T08:50:47.31Z</time></trkpt><trkpt lat="44.5141978" lon="11.4950864"><ele>33.0</ele><time>2026-05-01T08:50:48.31Z</time></trkpt><trkpt lat="44.5142359" lon="11.4952091"><ele>33.0</ele><time>2026-05-01T08:50:49.31Z</time></trkpt><trkpt lat="44.5142986" lon="11.4953388"><ele>33.0</ele><time>2026-05-01T08:50:50.31Z</time></trkpt><trkpt lat="44.5143807" lon="11.4954745"><ele>33.0</ele><time>2026-05-01T08:50:51.31Z</time></trkpt><trkpt lat="44.5144726" lon="11.4956212"><ele>33.0</ele><time>2026-05-01T08:50:52.31Z</time></trkpt><trkpt lat="44.5145698" lon="11.4957791"><ele>32.333333333333336</ele><time>2026-05-01T08:50:53.31Z</time></trkpt><trkpt lat="44.5146718" lon="11.4959429"><ele>31.666666666666668</ele><time>2026-05-01T08:50:54.31Z</time></trkpt><trkpt lat="44.5147756" lon="11.4961137"><ele>31.0</ele><time>2026-05-01T08:50:55.31Z</time></trkpt><trkpt lat="44.5148824" lon="11.4962918"><ele>31.0</ele><time>2026-05-01T08:50:56.31Z</time></trkpt><trkpt lat="44.5149924" lon="11.496474"><ele>31.0</ele><time>2026-05-01T08:50:57.31Z</time></trkpt><trkpt lat="44.5151011" lon="11.4966586"><ele>31.0</ele><time>2026-05-01T08:50:58.31Z</time></trkpt><trkpt lat="44.5152074" lon="11.4968442"><ele>31.0</ele><time>2026-05-01T08:50:59.31Z</time></trkpt><trkpt lat="44.5153109" lon="11.4970321"><ele>31.0</ele><time>2026-05-01T08:51:00.31Z</time></trkpt><trkpt lat="44.5154158" lon="11.4972201"><ele>31.0</ele><time>2026-05-01T08:51:01.31Z</time></trkpt><trkpt lat="44.5155218" lon="11.4974082"><ele>31.666666666666668</ele><time>2026-05-01T08:51:02.31Z</time></trkpt><trkpt lat="44.5156282" lon="11.4975984"><ele>32.333333333333336</ele><time>2026-05-01T08:51:03.31Z</time></trkpt><trkpt lat="44.5157366" lon="11.4977908"><ele>33.0</ele><time>2026-05-01T08:51:04.31Z</time></trkpt><trkpt lat="44.5158453" lon="11.497984"><ele>33.0</ele><time>2026-05-01T08:51:05.31Z</time></trkpt><trkpt lat="44.515951" lon="11.4981729"><ele>33.0</ele><time>2026-05-01T08:51:06.31Z</time></trkpt><trkpt lat="44.5160569" lon="11.4983578"><ele>33.0</ele><time>2026-05-01T08:51:07.31Z</time></trkpt><trkpt lat="44.5161585" lon="11.4985353"><ele>33.0</ele><time>2026-05-01T08:51:08.31Z</time></trkpt><trkpt lat="44.516255" lon="11.4987049"><ele>33.0</ele><time>2026-05-01T08:51:09.31Z</time></trkpt><trkpt lat="44.5163492" lon="11.4988686"><ele>33.0</ele><time>2026-05-01T08:51:10.31Z</time></trkpt><trkpt lat="44.5164407" lon="11.4990292"><ele>32.75</ele><time>2026-05-01T08:51:11.31Z</time></trkpt><trkpt lat="44.5165276" lon="11.499187"><ele>32.5</ele><time>2026-05-01T08:51:12.31Z</time></trkpt><trkpt lat="44.5166151" lon="11.4993409"><ele>32.25</ele><time>2026-05-01T08:51:13.31Z</time></trkpt><trkpt lat="44.5167004" lon="11.499479"><ele>32.0</ele><time>2026-05-01T08:51:14.31Z</time></trkpt><trkpt lat="44.5167766" lon="11.4995961"><ele>31.8</ele><time>2026-05-01T08:51:15.31Z</time></trkpt><trkpt lat="44.516845" lon="11.4996953"><ele>31.6</ele><time>2026-05-01T08:51:16.31Z</time></trkpt><trkpt lat="44.516905" lon="11.4997786"><ele>31.400000000000002</ele><time>2026-05-01T08:51:17.31Z</time></trkpt><trkpt lat="44.516956" lon="11.499851"><ele>31.200000000000003</ele><time>2026-05-01T08:51:18.31Z</time></trkpt><trkpt lat="44.5170288" lon="11.4999471"><ele>31.0</ele><time>2026-05-01T08:51:20.31Z</time></trkpt><trkpt lat="44.5171249" lon="11.5000718"><ele>31.0</ele><time>2026-05-01T08:51:22.31Z</time></trkpt><trkpt lat="44.5171845" lon="11.5001748"><ele>31.0</ele><time>2026-05-01T08:51:23.31Z</time></trkpt><trkpt lat="44.517248" lon="11.5003057"><ele>31.0</ele><time>2026-05-01T08:51:24.31Z</time></trkpt><trkpt lat="44.5173106" lon="11.5004463"><ele>31.0</ele><time>2026-05-01T08:51:25.31Z</time></trkpt><trkpt lat="44.5173828" lon="11.5005935"><ele>31.0</ele><time>2026-05-01T08:51:26.31Z</time></trkpt><trkpt lat="44.5174788" lon="11.5007458"><ele>31.0</ele><time>2026-05-01T08:51:27.31Z</time></trkpt><trkpt lat="44.5175868" lon="11.5009538"><ele>31.0</ele><time>2026-05-01T08:51:28.31Z</time></trkpt><trkpt lat="44.5177108" lon="11.5011959"><ele>31.0</ele><time>2026-05-01T08:51:29.31Z</time></trkpt><trkpt lat="44.5178293" lon="11.5014355"><ele>31.0</ele><time>2026-05-01T08:51:30.31Z</time></trkpt><trkpt lat="44.5179726" lon="11.5016906"><ele>31.0</ele><time>2026-05-01T08:51:31.31Z</time></trkpt><trkpt lat="44.5181247" lon="11.5019573"><ele>30.5</ele><time>2026-05-01T08:51:32.31Z</time></trkpt><trkpt lat="44.5182778" lon="11.5022282"><ele>30.0</ele><time>2026-05-01T08:51:33.311Z</time></trkpt><trkpt lat="44.5184337" lon="11.5025034"><ele>30.0</ele><time>2026-05-01T08:51:34.311Z</time></trkpt><trkpt lat="44.5185927" lon="11.5027879"><ele>30.0</ele><time>2026-05-01T08:51:35.311Z</time></trkpt><trkpt lat="44.5187565" lon="11.5030811"><ele>29.5</ele><time>2026-05-01T08:51:36.311Z</time></trkpt><trkpt lat="44.5189273" lon="11.5033879"><ele>29.0</ele><time>2026-05-01T08:51:37.311Z</time></trkpt><trkpt lat="44.5191001" lon="11.5036943"><ele>29.5</ele><time>2026-05-01T08:51:38.311Z</time></trkpt><trkpt lat="44.5192732" lon="11.5039957"><ele>30.0</ele><time>2026-05-01T08:51:39.311Z</time></trkpt><trkpt lat="44.5194473" lon="11.5042968"><ele>30.0</ele><time>2026-05-01T08:51:40.311Z</time></trkpt><trkpt lat="44.5196233" lon="11.5046014"><ele>30.0</ele><time>2026-05-01T08:51:41.311Z</time></trkpt><trkpt lat="44.5197995" lon="11.5049125"><ele>30.0</ele><time>2026-05-01T08:51:42.311Z</time></trkpt><trkpt lat="44.519976" lon="11.5052225"><ele>30.0</ele><time>2026-05-01T08:51:43.311Z</time></trkpt><trkpt lat="44.52015" lon="11.5055296"><ele>30.0</ele><time>2026-05-01T08:51:44.311Z</time></trkpt><trkpt lat="44.5203218" lon="11.5058302"><ele>30.0</ele><time>2026-05-01T08:51:45.311Z</time></trkpt><trkpt lat="44.5204928" lon="11.506119"><ele>29.5</ele><time>2026-05-01T08:51:46.311Z</time></trkpt><trkpt lat="44.5206628" lon="11.5063961"><ele>29.0</ele><time>2026-05-01T08:51:47.311Z</time></trkpt><trkpt lat="44.5208268" lon="11.5066493"><ele>29.0</ele><time>2026-05-01T08:51:48.311Z</time></trkpt><trkpt lat="44.5209847" lon="11.5068818"><ele>29.0</ele><time>2026-05-01T08:51:49.311Z</time></trkpt><trkpt lat="44.5211376" lon="11.5070968"><ele>29.0</ele><time>2026-05-01T08:51:50.311Z</time></trkpt><trkpt lat="44.5212869" lon="11.5073087"><ele>29.0</ele><time>2026-05-01T08:51:51.311Z</time></trkpt><trkpt lat="44.5214242" lon="11.5075347"><ele>29.0</ele><time>2026-05-01T08:51:52.311Z</time></trkpt><trkpt lat="44.5215485" lon="11.5077623"><ele>29.0</ele><time>2026-05-01T08:51:53.311Z</time></trkpt><trkpt lat="44.5216705" lon="11.5080292"><ele>29.0</ele><time>2026-05-01T08:51:54.311Z</time></trkpt><trkpt lat="44.5218129" lon="11.5082858"><ele>29.0</ele><time>2026-05-01T08:51:55.311Z</time></trkpt><trkpt lat="44.5219703" lon="11.5085461"><ele>28.0</ele><time>2026-05-01T08:51:56.311Z</time></trkpt><trkpt lat="44.5221313" lon="11.5088105"><ele>27.0</ele><time>2026-05-01T08:51:57.311Z</time></trkpt><trkpt lat="44.5222966" lon="11.5090794"><ele>27.0</ele><time>2026-05-01T08:51:58.311Z</time></trkpt><trkpt lat="44.5224635" lon="11.5093503"><ele>27.0</ele><time>2026-05-01T08:51:59.311Z</time></trkpt><trkpt lat="44.5226266" lon="11.5096219"><ele>27.5</ele><time>2026-05-01T08:52:00.311Z</time></trkpt><trkpt lat="44.522785" lon="11.509888"><ele>28.0</ele><time>2026-05-01T08:52:01.311Z</time></trkpt><trkpt lat="44.5229397" lon="11.5101448"><ele>28.0</ele><time>2026-05-01T08:52:02.311Z</time></trkpt><trkpt lat="44.5230921" lon="11.510395"><ele>28.0</ele><time>2026-05-01T08:52:03.312Z</time></trkpt><trkpt lat="44.5232402" lon="11.5106391"><ele>28.0</ele><time>2026-05-01T08:52:04.311Z</time></trkpt><trkpt lat="44.5233869" lon="11.5108801"><ele>28.0</ele><time>2026-05-01T08:52:05.311Z</time></trkpt><trkpt lat="44.5235399" lon="11.5111322"><ele>28.0</ele><time>2026-05-01T08:52:06.311Z</time></trkpt><trkpt lat="44.5237094" lon="11.5113946"><ele>28.0</ele><time>2026-05-01T08:52:07.311Z</time></trkpt><trkpt lat="44.5238897" lon="11.5116719"><ele>28.0</ele><time>2026-05-01T08:52:08.311Z</time></trkpt><trkpt lat="44.5240725" lon="11.5119671"><ele>28.0</ele><time>2026-05-01T08:52:09.311Z</time></trkpt><trkpt lat="44.5242571" lon="11.5122735"><ele>28.0</ele><time>2026-05-01T08:52:10.311Z</time></trkpt><trkpt lat="44.5244426" lon="11.5125847"><ele>28.0</ele><time>2026-05-01T08:52:11.311Z</time></trkpt><trkpt lat="44.5246239" lon="11.5128942"><ele>28.5</ele><time>2026-05-01T08:52:12.311Z</time></trkpt><trkpt lat="44.524806" lon="11.5132007"><ele>29.0</ele><time>2026-05-01T08:52:13.311Z</time></trkpt><trkpt lat="44.5249922" lon="11.5135007"><ele>29.0</ele><time>2026-05-01T08:52:14.311Z</time></trkpt><trkpt lat="44.5251805" lon="11.5138013"><ele>29.0</ele><time>2026-05-01T08:52:15.311Z</time></trkpt><trkpt lat="44.5253626" lon="11.5140992"><ele>29.0</ele><time>2026-05-01T08:52:16.311Z</time></trkpt><trkpt lat="44.5255331" lon="11.51439"><ele>29.0</ele><time>2026-05-01T08:52:17.311Z</time></trkpt><trkpt lat="44.5256919" lon="11.5146667"><ele>29.0</ele><time>2026-05-01T08:52:18.311Z</time></trkpt><trkpt lat="44.5258438" lon="11.5149295"><ele>29.0</ele><time>2026-05-01T08:52:19.311Z</time></trkpt><trkpt lat="44.5259885" lon="11.5151754"><ele>29.0</ele><time>2026-05-01T08:52:20.311Z</time></trkpt><trkpt lat="44.526126" lon="11.5154039"><ele>29.0</ele><time>2026-05-01T08:52:21.311Z</time></trkpt><trkpt lat="44.5262621" lon="11.5156185"><ele>29.0</ele><time>2026-05-01T08:52:22.311Z</time></trkpt><trkpt lat="44.5264073" lon="11.5158183"><ele>29.0</ele><time>2026-05-01T08:52:23.311Z</time></trkpt><trkpt lat="44.5265694" lon="11.5159937"><ele>29.0</ele><time>2026-05-01T08:52:24.311Z</time></trkpt><trkpt lat="44.5267555" lon="11.5161421"><ele>29.0</ele><time>2026-05-01T08:52:25.311Z</time></trkpt><trkpt lat="44.5269775" lon="11.51626"><ele>28.5</ele><time>2026-05-01T08:52:26.311Z</time></trkpt><trkpt lat="44.527197" lon="11.5163792"><ele>28.0</ele><time>2026-05-01T08:52:27.311Z</time></trkpt><trkpt lat="44.5274094" lon="11.516526"><ele>28.0</ele><time>2026-05-01T08:52:28.311Z</time></trkpt><trkpt lat="44.5275909" lon="11.5167241"><ele>28.0</ele><time>2026-05-01T08:52:29.312Z</time></trkpt><trkpt lat="44.5278059" lon="11.5169066"><ele>28.0</ele><time>2026-05-01T08:52:30.312Z</time></trkpt><trkpt lat="44.528019" lon="11.5170898"><ele>28.0</ele><time>2026-05-01T08:52:31.312Z</time></trkpt><trkpt lat="44.5282179" lon="11.5172678"><ele>28.0</ele><time>2026-05-01T08:52:32.312Z</time></trkpt><trkpt lat="44.5284041" lon="11.5174402"><ele>28.0</ele><time>2026-05-01T08:52:33.312Z</time></trkpt><trkpt lat="44.528567" lon="11.5175955"><ele>28.0</ele><time>2026-05-01T08:52:34.312Z</time></trkpt><trkpt lat="44.5287182" lon="11.517732"><ele>28.0</ele><time>2026-05-01T08:52:35.312Z</time></trkpt><trkpt lat="44.5288662" lon="11.5178509"><ele>28.0</ele><time>2026-05-01T08:52:36.312Z</time></trkpt><trkpt lat="44.5290193" lon="11.5179447"><ele>28.0</ele><time>2026-05-01T08:52:37.312Z</time></trkpt><trkpt lat="44.5291782" lon="11.5180172"><ele>28.0</ele><time>2026-05-01T08:52:38.312Z</time></trkpt><trkpt lat="44.5293351" lon="11.5180707"><ele>28.0</ele><time>2026-05-01T08:52:39.312Z</time></trkpt><trkpt lat="44.5294823" lon="11.5181272"><ele>28.0</ele><time>2026-05-01T08:52:40.312Z</time></trkpt><trkpt lat="44.529619" lon="11.5181882"><ele>27.5</ele><time>2026-05-01T08:52:41.312Z</time></trkpt><trkpt lat="44.5297452" lon="11.5182579"><ele>27.0</ele><time>2026-05-01T08:52:42.312Z</time></trkpt><trkpt lat="44.5298599" lon="11.5183404"><ele>26.5</ele><time>2026-05-01T08:52:43.312Z</time></trkpt><trkpt lat="44.5299652" lon="11.5184365"><ele>26.0</ele><time>2026-05-01T08:52:44.312Z</time></trkpt><trkpt lat="44.5300633" lon="11.5185467"><ele>26.0</ele><time>2026-05-01T08:52:45.312Z</time></trkpt><trkpt lat="44.5301544" lon="11.518664"><ele>26.0</ele><time>2026-05-01T08:52:46.312Z</time></trkpt><trkpt lat="44.5302389" lon="11.5187863"><ele>26.0</ele><time>2026-05-01T08:52:47.312Z</time></trkpt><trkpt lat="44.5303228" lon="11.5189145"><ele>26.0</ele><time>2026-05-01T08:52:48.312Z</time></trkpt><trkpt lat="44.530397" lon="11.5190552"><ele>25.75</ele><time>2026-05-01T08:52:49.312Z</time></trkpt><trkpt lat="44.530449" lon="11.5192201"><ele>25.5</ele><time>2026-05-01T08:52:50.312Z</time></trkpt><trkpt lat="44.5304659" lon="11.5194081"><ele>25.25</ele><time>2026-05-01T08:52:51.312Z</time></trkpt><trkpt lat="44.5304583" lon="11.5196053"><ele>25.0</ele><time>2026-05-01T08:52:52.312Z</time></trkpt><trkpt lat="44.5304309" lon="11.5198149"><ele>25.25</ele><time>2026-05-01T08:52:53.312Z</time></trkpt><trkpt lat="44.530384" lon="11.5200107"><ele>25.5</ele><time>2026-05-01T08:52:54.312Z</time></trkpt><trkpt lat="44.5303178" lon="11.5201982"><ele>25.75</ele><time>2026-05-01T08:52:55.312Z</time></trkpt><trkpt lat="44.5302452" lon="11.5203743"><ele>26.0</ele><time>2026-05-01T08:52:56.312Z</time></trkpt><trkpt lat="44.5301671" lon="11.5205478"><ele>26.0</ele><time>2026-05-01T08:52:57.312Z</time></trkpt><trkpt lat="44.5300935" lon="11.5207163"><ele>26.0</ele><time>2026-05-01T08:52:58.312Z</time></trkpt><trkpt lat="44.5300294" lon="11.5208864"><ele>26.0</ele><time>2026-05-01T08:52:59.312Z</time></trkpt><trkpt lat="44.5299776" lon="11.5210655"><ele>26.0</ele><time>2026-05-01T08:53:00.312Z</time></trkpt><trkpt lat="44.5299361" lon="11.5212508"><ele>26.5</ele><time>2026-05-01T08:53:01.312Z</time></trkpt><trkpt lat="44.5299168" lon="11.5214364"><ele>27.0</ele><time>2026-05-01T08:53:02.312Z</time></trkpt><trkpt lat="44.5299241" lon="11.5216201"><ele>27.5</ele><time>2026-05-01T08:53:03.312Z</time></trkpt><trkpt lat="44.5299627" lon="11.5217959"><ele>28.0</ele><time>2026-05-01T08:53:04.312Z</time></trkpt><trkpt lat="44.5300223" lon="11.5219669"><ele>27.75</ele><time>2026-05-01T08:53:05.312Z</time></trkpt><trkpt lat="44.5301018" lon="11.5221314"><ele>27.5</ele><time>2026-05-01T08:53:06.312Z</time></trkpt><trkpt lat="44.530195" lon="11.5222947"><ele>27.25</ele><time>2026-05-01T08:53:07.312Z</time></trkpt><trkpt lat="44.5303031" lon="11.5224533"><ele>27.0</ele><time>2026-05-01T08:53:08.312Z</time></trkpt><trkpt lat="44.5304134" lon="11.5226093"><ele>26.75</ele><time>2026-05-01T08:53:09.312Z</time></trkpt><trkpt lat="44.5305173" lon="11.5227644"><ele>26.5</ele><time>2026-05-01T08:53:10.312Z</time></trkpt><trkpt lat="44.5306046" lon="11.5229239"><ele>26.25</ele><time>2026-05-01T08:53:11.312Z</time></trkpt><trkpt lat="44.5306568" lon="11.5230966"><ele>26.0</ele><time>2026-05-01T08:53:12.312Z</time></trkpt><trkpt lat="44.5307695" lon="11.5232451"><ele>26.0</ele><time>2026-05-01T08:53:13.312Z</time></trkpt><trkpt lat="44.5307744" lon="11.5234474"><ele>26.0</ele><time>2026-05-01T08:53:14.312Z</time></trkpt><trkpt lat="44.5307588" lon="11.5236684"><ele>26.0</ele><time>2026-05-01T08:53:15.312Z</time></trkpt><trkpt lat="44.5307586" lon="11.5239061"><ele>26.0</ele><time>2026-05-01T08:53:16.312Z</time></trkpt><trkpt lat="44.5307981" lon="11.5241243"><ele>26.0</ele><time>2026-05-01T08:53:17.312Z</time></trkpt><trkpt lat="44.530846" lon="11.5243499"><ele>26.0</ele><time>2026-05-01T08:53:18.312Z</time></trkpt><trkpt lat="44.5308964" lon="11.5245765"><ele>26.0</ele><time>2026-05-01T08:53:19.312Z</time></trkpt><trkpt lat="44.5309452" lon="11.524802"><ele>26.0</ele><time>2026-05-01T08:53:20.312Z</time></trkpt><trkpt lat="44.530987" lon="11.525036"><ele>26.0</ele><time>2026-05-01T08:53:21.312Z</time></trkpt><trkpt lat="44.5310246" lon="11.5252769"><ele>25.666666666666664</ele><time>2026-05-01T08:53:22.312Z</time></trkpt><trkpt lat="44.5310622" lon="11.5255233"><ele>25.333333333333336</ele><time>2026-05-01T08:53:23.312Z</time></trkpt><trkpt lat="44.5311003" lon="11.5257713"><ele>25.0</ele><time>2026-05-01T08:53:24.312Z</time></trkpt><trkpt lat="44.5311363" lon="11.5260116"><ele>25.333333333333336</ele><time>2026-05-01T08:53:25.312Z</time></trkpt><trkpt lat="44.5311727" lon="11.5262399"><ele>25.666666666666664</ele><time>2026-05-01T08:53:26.312Z</time></trkpt><trkpt lat="44.5312208" lon="11.5264609"><ele>26.0</ele><time>2026-05-01T08:53:27.313Z</time></trkpt><trkpt lat="44.5312946" lon="11.5266679"><ele>26.0</ele><time>2026-05-01T08:53:28.313Z</time></trkpt><trkpt lat="44.5313926" lon="11.5268496"><ele>26.0</ele><time>2026-05-01T08:53:29.313Z</time></trkpt><trkpt lat="44.5315152" lon="11.5270322"><ele>26.0</ele><time>2026-05-01T08:53:30.313Z</time></trkpt><trkpt lat="44.5316416" lon="11.5272212"><ele>26.0</ele><time>2026-05-01T08:53:31.313Z</time></trkpt><trkpt lat="44.531748" lon="11.5274246"><ele>26.0</ele><time>2026-05-01T08:53:32.313Z</time></trkpt><trkpt lat="44.5318695" lon="11.5276092"><ele>26.0</ele><time>2026-05-01T08:53:33.313Z</time></trkpt><trkpt lat="44.5319853" lon="11.5277937"><ele>26.0</ele><time>2026-05-01T08:53:34.313Z</time></trkpt><trkpt lat="44.5320977" lon="11.5279786"><ele>26.0</ele><time>2026-05-01T08:53:35.313Z</time></trkpt><trkpt lat="44.5322094" lon="11.5281643"><ele>26.0</ele><time>2026-05-01T08:53:36.313Z</time></trkpt><trkpt lat="44.532324" lon="11.5283497"><ele>26.0</ele><time>2026-05-01T08:53:37.313Z</time></trkpt><trkpt lat="44.5324358" lon="11.528532"><ele>26.0</ele><time>2026-05-01T08:53:38.313Z</time></trkpt><trkpt lat="44.5325411" lon="11.5287046"><ele>26.0</ele><time>2026-05-01T08:53:39.313Z</time></trkpt><trkpt lat="44.5326377" lon="11.5288507"><ele>26.200000000000003</ele><time>2026-05-01T08:53:40.313Z</time></trkpt><trkpt lat="44.5327201" lon="11.5289783"><ele>26.400000000000002</ele><time>2026-05-01T08:53:41.313Z</time></trkpt><trkpt lat="44.5327829" lon="11.529092"><ele>26.6</ele><time>2026-05-01T08:53:42.313Z</time></trkpt><trkpt lat="44.5328155" lon="11.5291887"><ele>26.8</ele><time>2026-05-01T08:53:43.313Z</time></trkpt><trkpt lat="44.5328081" lon="11.5293369"><ele>27.0</ele><time>2026-05-01T08:53:44.313Z</time></trkpt><trkpt lat="44.5327518" lon="11.5294824"><ele>27.5</ele><time>2026-05-01T08:53:45.313Z</time></trkpt><trkpt lat="44.5326937" lon="11.5296093"><ele>28.0</ele><time>2026-05-01T08:53:46.313Z</time></trkpt><trkpt lat="44.5326093" lon="11.5297453"><ele>28.5</ele><time>2026-05-01T08:53:47.313Z</time></trkpt><trkpt lat="44.5325216" lon="11.5298926"><ele>29.0</ele><time>2026-05-01T08:53:48.313Z</time></trkpt><trkpt lat="44.5324304" lon="11.5300468"><ele>29.0</ele><time>2026-05-01T08:53:49.313Z</time></trkpt><trkpt lat="44.5323446" lon="11.530199"><ele>29.0</ele><time>2026-05-01T08:53:50.313Z</time></trkpt><trkpt lat="44.5322657" lon="11.5303414"><ele>29.0</ele><time>2026-05-01T08:53:51.313Z</time></trkpt><trkpt lat="44.5321989" lon="11.5304678"><ele>29.0</ele><time>2026-05-01T08:53:52.313Z</time></trkpt><trkpt lat="44.5321408" lon="11.5305781"><ele>28.999999999999996</ele><time>2026-05-01T08:53:53.313Z</time></trkpt><trkpt lat="44.5320972" lon="11.5306707"><ele>29.0</ele><time>2026-05-01T08:53:54.313Z</time></trkpt><trkpt lat="44.532043" lon="11.5307768"><ele>29.0</ele><time>2026-05-01T08:53:56.313Z</time></trkpt><trkpt lat="44.5320104" lon="11.5308713"><ele>29.0</ele><time>2026-05-01T08:54:00.313Z</time></trkpt><trkpt lat="44.5320587" lon="11.5310159"><ele>28.999999999999996</ele><time>2026-05-01T08:54:09.313Z</time></trkpt><trkpt lat="44.532131" lon="11.5310581"><ele>29.0</ele><time>2026-05-01T08:54:10.313Z</time></trkpt><trkpt lat="44.5322181" lon="11.531114"><ele>29.0</ele><time>2026-05-01T08:54:11.313Z</time></trkpt><trkpt lat="44.5323207" lon="11.5311764"><ele>29.0</ele><time>2026-05-01T08:54:12.313Z</time></trkpt><trkpt lat="44.5324333" lon="11.5312502"><ele>29.0</ele><time>2026-05-01T08:54:13.313Z</time></trkpt><trkpt lat="44.5325422" lon="11.5313259"><ele>29.0</ele><time>2026-05-01T08:54:14.313Z</time></trkpt><trkpt lat="44.5326525" lon="11.5313987"><ele>29.0</ele><time>2026-05-01T08:54:15.313Z</time></trkpt><trkpt lat="44.5327653" lon="11.5314698"><ele>29.0</ele><time>2026-05-01T08:54:16.313Z</time></trkpt><trkpt lat="44.532875" lon="11.531531"><ele>29.0</ele><time>2026-05-01T08:54:17.313Z</time></trkpt><trkpt lat="44.5329764" lon="11.5315898"><ele>29.0</ele><time>2026-05-01T08:54:18.313Z</time></trkpt><trkpt lat="44.5330725" lon="11.5316457"><ele>28.999999999999996</ele><time>2026-05-01T08:54:19.313Z</time></trkpt><trkpt lat="44.5331619" lon="11.5317021"><ele>29.0</ele><time>2026-05-01T08:54:20.313Z</time></trkpt><trkpt lat="44.5332322" lon="11.5317526"><ele>29.0</ele><time>2026-05-01T08:54:21.314Z</time></trkpt><trkpt lat="44.5332973" lon="11.5318047"><ele>29.0</ele><time>2026-05-01T08:54:22.313Z</time></trkpt><trkpt lat="44.5333572" lon="11.5318699"><ele>28.999999999999996</ele><time>2026-05-01T08:54:23.314Z</time></trkpt><trkpt lat="44.5334283" lon="11.5319627"><ele>29.0</ele><time>2026-05-01T08:54:24.313Z</time></trkpt><trkpt lat="44.5334856" lon="11.5320862"><ele>28.75</ele><time>2026-05-01T08:54:25.314Z</time></trkpt><trkpt lat="44.5335279" lon="11.5322176"><ele>28.5</ele><time>2026-05-01T08:54:26.314Z</time></trkpt><trkpt lat="44.5335442" lon="11.5323891"><ele>28.25</ele><time>2026-05-01T08:54:27.314Z</time></trkpt><trkpt lat="44.5335489" lon="11.5325957"><ele>28.0</ele><time>2026-05-01T08:54:28.314Z</time></trkpt><trkpt lat="44.5335576" lon="11.5328103"><ele>27.5</ele><time>2026-05-01T08:54:29.314Z</time></trkpt><trkpt lat="44.5335807" lon="11.5329997"><ele>27.0</ele><time>2026-05-01T08:54:30.314Z</time></trkpt><trkpt lat="44.5336081" lon="11.5331702"><ele>26.5</ele><time>2026-05-01T08:54:31.314Z</time></trkpt><trkpt lat="44.5336376" lon="11.5333406"><ele>26.0</ele><time>2026-05-01T08:54:32.314Z</time></trkpt><trkpt lat="44.5336673" lon="11.5335083"><ele>26.0</ele><time>2026-05-01T08:54:33.314Z</time></trkpt><trkpt lat="44.5337031" lon="11.5336797"><ele>26.0</ele><time>2026-05-01T08:54:34.314Z</time></trkpt><trkpt lat="44.5337432" lon="11.5338447"><ele>26.0</ele><time>2026-05-01T08:54:35.314Z</time></trkpt><trkpt lat="44.5337862" lon="11.5340079"><ele>26.0</ele><time>2026-05-01T08:54:36.314Z</time></trkpt><trkpt lat="44.5338322" lon="11.5341686"><ele>26.5</ele><time>2026-05-01T08:54:37.314Z</time></trkpt><trkpt lat="44.5338768" lon="11.534327"><ele>27.0</ele><time>2026-05-01T08:54:38.314Z</time></trkpt><trkpt lat="44.533923" lon="11.5344877"><ele>27.5</ele><time>2026-05-01T08:54:39.314Z</time></trkpt><trkpt lat="44.5339706" lon="11.534648"><ele>28.0</ele><time>2026-05-01T08:54:40.314Z</time></trkpt><trkpt lat="44.5340188" lon="11.5348044"><ele>28.0</ele><time>2026-05-01T08:54:41.314Z</time></trkpt><trkpt lat="44.5340738" lon="11.5349602"><ele>28.0</ele><time>2026-05-01T08:54:42.314Z</time></trkpt><trkpt lat="44.5341314" lon="11.5351088"><ele>28.0</ele><time>2026-05-01T08:54:43.314Z</time></trkpt><trkpt lat="44.5341911" lon="11.5352551"><ele>28.0</ele><time>2026-05-01T08:54:44.314Z</time></trkpt><trkpt lat="44.5342517" lon="11.5354018"><ele>27.25</ele><time>2026-05-01T08:54:45.314Z</time></trkpt><trkpt lat="44.5343133" lon="11.5355474"><ele>26.5</ele><time>2026-05-01T08:54:46.314Z</time></trkpt><trkpt lat="44.5343751" lon="11.5356952"><ele>25.75</ele><time>2026-05-01T08:54:47.315Z</time></trkpt><trkpt lat="44.5344436" lon="11.5358458"><ele>25.0</ele><time>2026-05-01T08:54:48.314Z</time></trkpt><trkpt lat="44.534515" lon="11.5359955"><ele>25.2</ele><time>2026-05-01T08:54:49.314Z</time></trkpt><trkpt lat="44.534586" lon="11.5361432"><ele>25.4</ele><time>2026-05-01T08:54:50.314Z</time></trkpt><trkpt lat="44.534653" lon="11.5362834"><ele>25.6</ele><time>2026-05-01T08:54:51.314Z</time></trkpt><trkpt lat="44.534712" lon="11.5364094"><ele>25.8</ele><time>2026-05-01T08:54:52.314Z</time></trkpt><trkpt lat="44.5347613" lon="11.5365224"><ele>26.0</ele><time>2026-05-01T08:54:53.314Z</time></trkpt><trkpt lat="44.5348029" lon="11.5366231"><ele>26.0</ele><time>2026-05-01T08:54:54.314Z</time></trkpt><trkpt lat="44.5348354" lon="11.5367213"><ele>26.0</ele><time>2026-05-01T08:54:55.314Z</time></trkpt><trkpt lat="44.5348526" lon="11.5368101"><ele>26.0</ele><time>2026-05-01T08:54:56.314Z</time></trkpt><trkpt lat="44.5348484" lon="11.5369808"><ele>26.0</ele><time>2026-05-01T08:54:58.314Z</time></trkpt><trkpt lat="44.5348226" lon="11.5371442"><ele>26.0</ele><time>2026-05-01T08:55:00.314Z</time></trkpt><trkpt lat="44.5348405" lon="11.5373285"><ele>25.833333333333332</ele><time>2026-05-01T08:55:02.314Z</time></trkpt><trkpt lat="44.5348786" lon="11.5374324"><ele>25.666666666666664</ele><time>2026-05-01T08:55:03.314Z</time></trkpt><trkpt lat="44.5349235" lon="11.5375321"><ele>25.5</ele><time>2026-05-01T08:55:04.314Z</time></trkpt><trkpt lat="44.5349713" lon="11.5376356"><ele>25.333333333333336</ele><time>2026-05-01T08:55:05.314Z</time></trkpt><trkpt lat="44.5350152" lon="11.5377463"><ele>25.166666666666668</ele><time>2026-05-01T08:55:06.314Z</time></trkpt><trkpt lat="44.5350566" lon="11.5378536"><ele>25.0</ele><time>2026-05-01T08:55:07.315Z</time></trkpt><trkpt lat="44.5350843" lon="11.537956"><ele>24.833333333333336</ele><time>2026-05-01T08:55:08.314Z</time></trkpt><trkpt lat="44.5350863" lon="11.5380586"><ele>24.666666666666668</ele><time>2026-05-01T08:55:09.314Z</time></trkpt><trkpt lat="44.5350631" lon="11.5381669"><ele>24.5</ele><time>2026-05-01T08:55:10.314Z</time></trkpt><trkpt lat="44.5350375" lon="11.538282"><ele>24.333333333333336</ele><time>2026-05-01T08:55:11.314Z</time></trkpt><trkpt lat="44.5350024" lon="11.5383875"><ele>24.166666666666668</ele><time>2026-05-01T08:55:12.314Z</time></trkpt><trkpt lat="44.5349397" lon="11.5384991"><ele>24.0</ele><time>2026-05-01T08:55:13.314Z</time></trkpt><trkpt lat="44.5348471" lon="11.5385868"><ele>24.0</ele><time>2026-05-01T08:55:14.315Z</time></trkpt><trkpt lat="44.5347461" lon="11.538676"><ele>24.0</ele><time>2026-05-01T08:55:15.314Z</time></trkpt><trkpt lat="44.5346588" lon="11.5387737"><ele>24.0</ele><time>2026-05-01T08:55:16.314Z</time></trkpt><trkpt lat="44.5345814" lon="11.5388703"><ele>24.0</ele><time>2026-05-01T08:55:17.314Z</time></trkpt><trkpt lat="44.5345033" lon="11.5389516"><ele>24.0</ele><time>2026-05-01T08:55:18.314Z</time></trkpt><trkpt lat="44.5344261" lon="11.5389893"><ele>23.799999999999997</ele><time>2026-05-01T08:55:19.314Z</time></trkpt><trkpt lat="44.5343563" lon="11.5389921"><ele>23.599999999999998</ele><time>2026-05-01T08:55:20.314Z</time></trkpt><trkpt lat="44.5342434" lon="11.5390832"><ele>23.4</ele><time>2026-05-01T08:55:22.314Z</time></trkpt><trkpt lat="44.5341894" lon="11.5392202"><ele>23.2</ele><time>2026-05-01T08:55:23.315Z</time></trkpt><trkpt lat="44.534124" lon="11.5393426"><ele>23.0</ele><time>2026-05-01T08:55:24.315Z</time></trkpt><trkpt lat="44.5340444" lon="11.5394565"><ele>23.0</ele><time>2026-05-01T08:55:25.315Z</time></trkpt><trkpt lat="44.5339701" lon="11.5395709"><ele>23.0</ele><time>2026-05-01T08:55:26.315Z</time></trkpt><trkpt lat="44.533911" lon="11.5396874"><ele>23.0</ele><time>2026-05-01T08:55:27.315Z</time></trkpt><trkpt lat="44.5338612" lon="11.5397996"><ele>23.0</ele><time>2026-05-01T08:55:28.315Z</time></trkpt><trkpt lat="44.5338109" lon="11.5399223"><ele>23.0</ele><time>2026-05-01T08:55:29.315Z</time></trkpt><trkpt lat="44.5337635" lon="11.5400367"><ele>22.799999999999997</ele><time>2026-05-01T08:55:30.315Z</time></trkpt><trkpt lat="44.5337153" lon="11.5401509"><ele>22.6</ele><time>2026-05-01T08:55:31.315Z</time></trkpt><trkpt lat="44.5336635" lon="11.540269"><ele>22.4</ele><time>2026-05-01T08:55:32.315Z</time></trkpt><trkpt lat="44.5336095" lon="11.5403859"><ele>22.200000000000003</ele><time>2026-05-01T08:55:33.315Z</time></trkpt><trkpt lat="44.5335561" lon="11.5404996"><ele>22.0</ele><time>2026-05-01T08:55:34.315Z</time></trkpt><trkpt lat="44.5335079" lon="11.5406085"><ele>21.6</ele><time>2026-05-01T08:55:35.315Z</time></trkpt><trkpt lat="44.5334667" lon="11.5407035"><ele>21.200000000000003</ele><time>2026-05-01T08:55:36.315Z</time></trkpt><trkpt lat="44.5334296" lon="11.5407842"><ele>20.8</ele><time>2026-05-01T08:55:37.315Z</time></trkpt><trkpt lat="44.5333618" lon="11.5409225"><ele>20.4</ele><time>2026-05-01T08:55:39.315Z</time></trkpt><trkpt lat="44.5333292" lon="11.5409981"><ele>20.0</ele><time>2026-05-01T08:55:40.315Z</time></trkpt><trkpt lat="44.5332643" lon="11.5411558"><ele>20.333333333333336</ele><time>2026-05-01T08:55:42.315Z</time></trkpt><trkpt lat="44.5332302" lon="11.5412348"><ele>20.666666666666668</ele><time>2026-05-01T08:55:43.315Z</time></trkpt><trkpt lat="44.5331923" lon="11.5413142"><ele>21.0</ele><time>2026-05-01T08:55:44.315Z</time></trkpt><trkpt lat="44.5331538" lon="11.5413914"><ele>21.333333333333332</ele><time>2026-05-01T08:55:45.315Z</time></trkpt><trkpt lat="44.5331206" lon="11.5414665"><ele>21.666666666666664</ele><time>2026-05-01T08:55:46.315Z</time></trkpt><trkpt lat="44.5330593" lon="11.5416063"><ele>22.0</ele><time>2026-05-01T08:55:48.316Z</time></trkpt><trkpt lat="44.5329974" lon="11.5417353"><ele>22.0</ele><time>2026-05-01T08:55:50.315Z</time></trkpt><trkpt lat="44.5329454" lon="11.5418565"><ele>22.0</ele><time>2026-05-01T08:55:52.315Z</time></trkpt><trkpt lat="44.5329097" lon="11.5419367"><ele>22.0</ele><time>2026-05-01T08:55:54.315Z</time></trkpt><trkpt lat="44.5328687" lon="11.5420138"><ele>22.0</ele><time>2026-05-01T08:55:59.315Z</time></trkpt><trkpt lat="44.5328437" lon="11.542108"><ele>22.0</ele><time>2026-05-01T08:56:02.315Z</time></trkpt><trkpt lat="44.532907" lon="11.5422482"><ele>22.0</ele><time>2026-05-01T08:56:05.315Z</time></trkpt><trkpt lat="44.5329793" lon="11.5423018"><ele>21.833333333333332</ele><time>2026-05-01T08:56:06.315Z</time></trkpt><trkpt lat="44.5330488" lon="11.5423521"><ele>21.666666666666664</ele><time>2026-05-01T08:56:07.315Z</time></trkpt><trkpt lat="44.5331235" lon="11.5424133"><ele>21.5</ele><time>2026-05-01T08:56:08.315Z</time></trkpt><trkpt lat="44.5331979" lon="11.5424853"><ele>21.333333333333332</ele><time>2026-05-01T08:56:09.315Z</time></trkpt><trkpt lat="44.5332797" lon="11.5425609"><ele>21.166666666666668</ele><time>2026-05-01T08:56:10.315Z</time></trkpt><trkpt lat="44.5333586" lon="11.5426359"><ele>21.0</ele><time>2026-05-01T08:56:11.315Z</time></trkpt><trkpt lat="44.5334328" lon="11.5427007"><ele>21.0</ele><time>2026-05-01T08:56:12.315Z</time></trkpt><trkpt lat="44.53351" lon="11.5427679"><ele>21.0</ele><time>2026-05-01T08:56:13.315Z</time></trkpt><trkpt lat="44.5335859" lon="11.5428342"><ele>21.0</ele><time>2026-05-01T08:56:14.315Z</time></trkpt><trkpt lat="44.5336637" lon="11.5429005"><ele>21.0</ele><time>2026-05-01T08:56:15.315Z</time></trkpt><trkpt lat="44.5337423" lon="11.5429726"><ele>21.0</ele><time>2026-05-01T08:56:16.315Z</time></trkpt><trkpt lat="44.5338207" lon="11.5430436"><ele>21.200000000000003</ele><time>2026-05-01T08:56:17.315Z</time></trkpt><trkpt lat="44.5338998" lon="11.5431105"><ele>21.400000000000002</ele><time>2026-05-01T08:56:18.315Z</time></trkpt><trkpt lat="44.5339782" lon="11.5431771"><ele>21.6</ele><time>2026-05-01T08:56:19.315Z</time></trkpt><trkpt lat="44.5340581" lon="11.5432425"><ele>21.8</ele><time>2026-05-01T08:56:20.316Z</time></trkpt><trkpt lat="44.5341361" lon="11.5433135"><ele>22.0</ele><time>2026-05-01T08:56:21.316Z</time></trkpt><trkpt lat="44.5342174" lon="11.543385"><ele>22.0</ele><time>2026-05-01T08:56:22.316Z</time></trkpt><trkpt lat="44.5342951" lon="11.5434604"><ele>22.0</ele><time>2026-05-01T08:56:23.316Z</time></trkpt><trkpt lat="44.5343704" lon="11.5435329"><ele>22.0</ele><time>2026-05-01T08:56:24.316Z</time></trkpt><trkpt lat="44.534447" lon="11.5436016"><ele>22.0</ele><time>2026-05-01T08:56:25.316Z</time></trkpt><trkpt lat="44.5345264" lon="11.5436692"><ele>22.0</ele><time>2026-05-01T08:56:26.316Z</time></trkpt><trkpt lat="44.5346058" lon="11.5437392"><ele>22.400000000000002</ele><time>2026-05-01T08:56:27.316Z</time></trkpt><trkpt lat="44.5346867" lon="11.5438096"><ele>22.8</ele><time>2026-05-01T08:56:28.316Z</time></trkpt><trkpt lat="44.5347657" lon="11.54388"><ele>23.2</ele><time>2026-05-01T08:56:29.316Z</time></trkpt><trkpt lat="44.53485" lon="11.5439442"><ele>23.6</ele><time>2026-05-01T08:56:30.316Z</time></trkpt><trkpt lat="44.534942" lon="11.5439887"><ele>24.0</ele><time>2026-05-01T08:56:31.316Z</time></trkpt><trkpt lat="44.5350336" lon="11.5440122"><ele>24.0</ele><time>2026-05-01T08:56:32.316Z</time></trkpt><trkpt lat="44.5351233" lon="11.5440252"><ele>24.0</ele><time>2026-05-01T08:56:33.316Z</time></trkpt><trkpt lat="44.5352035" lon="11.5440395"><ele>24.0</ele><time>2026-05-01T08:56:34.316Z</time></trkpt><trkpt lat="44.5352694" lon="11.5440685"><ele>24.0</ele><time>2026-05-01T08:56:35.316Z</time></trkpt><trkpt lat="44.5353649" lon="11.5441603"><ele>24.0</ele><time>2026-05-01T08:56:37.316Z</time></trkpt><trkpt lat="44.5354304" lon="11.5442985"><ele>24.2</ele><time>2026-05-01T08:56:39.316Z</time></trkpt><trkpt lat="44.5354543" lon="11.5444104"><ele>24.4</ele><time>2026-05-01T08:56:40.316Z</time></trkpt><trkpt lat="44.5354693" lon="11.544542"><ele>24.6</ele><time>2026-05-01T08:56:41.316Z</time></trkpt><trkpt lat="44.5354794" lon="11.5446791"><ele>24.8</ele><time>2026-05-01T08:56:42.316Z</time></trkpt><trkpt lat="44.53548" lon="11.5448177"><ele>25.0</ele><time>2026-05-01T08:56:43.316Z</time></trkpt><trkpt lat="44.5354513" lon="11.5449563"><ele>25.0</ele><time>2026-05-01T08:56:44.316Z</time></trkpt><trkpt lat="44.5354026" lon="11.5450935"><ele>25.0</ele><time>2026-05-01T08:56:45.316Z</time></trkpt><trkpt lat="44.5353406" lon="11.5452328"><ele>25.0</ele><time>2026-05-01T08:56:46.316Z</time></trkpt><trkpt lat="44.5352768" lon="11.5453622"><ele>25.0</ele><time>2026-05-01T08:56:47.316Z</time></trkpt><trkpt lat="44.5352178" lon="11.5454994"><ele>25.5</ele><time>2026-05-01T08:56:48.316Z</time></trkpt><trkpt lat="44.5351639" lon="11.5456558"><ele>26.0</ele><time>2026-05-01T08:56:49.316Z</time></trkpt><trkpt lat="44.5351057" lon="11.545822"><ele>26.5</ele><time>2026-05-01T08:56:50.316Z</time></trkpt><trkpt lat="44.5350449" lon="11.5459907"><ele>27.0</ele><time>2026-05-01T08:56:51.316Z</time></trkpt><trkpt lat="44.5349802" lon="11.5461623"><ele>26.0</ele><time>2026-05-01T08:56:52.316Z</time></trkpt><trkpt lat="44.5349095" lon="11.5463449"><ele>25.0</ele><time>2026-05-01T08:56:53.316Z</time></trkpt><trkpt lat="44.5348367" lon="11.5465375"><ele>24.0</ele><time>2026-05-01T08:56:54.316Z</time></trkpt><trkpt lat="44.5347551" lon="11.546741"><ele>24.0</ele><time>2026-05-01T08:56:55.316Z</time></trkpt><trkpt lat="44.5346679" lon="11.5469498"><ele>24.0</ele><time>2026-05-01T08:56:56.316Z</time></trkpt><trkpt lat="44.5345764" lon="11.5471654"><ele>24.0</ele><time>2026-05-01T08:56:57.316Z</time></trkpt><trkpt lat="44.5344818" lon="11.5473859"><ele>23.333333333333332</ele><time>2026-05-01T08:56:58.316Z</time></trkpt><trkpt lat="44.534386" lon="11.5476019"><ele>22.666666666666664</ele><time>2026-05-01T08:56:59.316Z</time></trkpt><trkpt lat="44.5342859" lon="11.5478197"><ele>22.0</ele><time>2026-05-01T08:57:00.316Z</time></trkpt><trkpt lat="44.5341795" lon="11.5480419"><ele>22.0</ele><time>2026-05-01T08:57:01.316Z</time></trkpt><trkpt lat="44.534068" lon="11.5482604"><ele>22.0</ele><time>2026-05-01T08:57:02.316Z</time></trkpt><trkpt lat="44.5339454" lon="11.5484851"><ele>22.0</ele><time>2026-05-01T08:57:03.316Z</time></trkpt><trkpt lat="44.533815" lon="11.5487108"><ele>21.666666666666664</ele><time>2026-05-01T08:57:04.316Z</time></trkpt><trkpt lat="44.5336811" lon="11.5489339"><ele>21.333333333333332</ele><time>2026-05-01T08:57:05.316Z</time></trkpt><trkpt lat="44.533553" lon="11.5491453"><ele>21.0</ele><time>2026-05-01T08:57:06.316Z</time></trkpt><trkpt lat="44.5334245" lon="11.5493501"><ele>20.666666666666668</ele><time>2026-05-01T08:57:07.316Z</time></trkpt><trkpt lat="44.5332999" lon="11.5495535"><ele>20.333333333333336</ele><time>2026-05-01T08:57:08.316Z</time></trkpt><trkpt lat="44.5331733" lon="11.5497574"><ele>20.0</ele><time>2026-05-01T08:57:09.316Z</time></trkpt><trkpt lat="44.5330499" lon="11.5499538"><ele>20.0</ele><time>2026-05-01T08:57:10.316Z</time></trkpt><trkpt lat="44.5328119" lon="11.550323"><ele>20.0</ele><time>2026-05-01T08:57:12.316Z</time></trkpt><trkpt lat="44.5326972" lon="11.5505333"><ele>20.0</ele><time>2026-05-01T08:57:13.316Z</time></trkpt><trkpt lat="44.5325827" lon="11.5507457"><ele>20.0</ele><time>2026-05-01T08:57:14.316Z</time></trkpt><trkpt lat="44.5324736" lon="11.5509541"><ele>20.0</ele><time>2026-05-01T08:57:15.316Z</time></trkpt><trkpt lat="44.5323708" lon="11.5511563"><ele>20.0</ele><time>2026-05-01T08:57:16.316Z</time></trkpt><trkpt lat="44.5322802" lon="11.5513531"><ele>20.0</ele><time>2026-05-01T08:57:17.316Z</time></trkpt><trkpt lat="44.5321913" lon="11.5515363"><ele>20.0</ele><time>2026-05-01T08:57:18.317Z</time></trkpt><trkpt lat="44.5321033" lon="11.5517117"><ele>20.0</ele><time>2026-05-01T08:57:19.317Z</time></trkpt><trkpt lat="44.5320164" lon="11.5518921"><ele>20.0</ele><time>2026-05-01T08:57:20.317Z</time></trkpt><trkpt lat="44.5319213" lon="11.5520769"><ele>20.0</ele><time>2026-05-01T08:57:21.317Z</time></trkpt><trkpt lat="44.5318304" lon="11.5522734"><ele>20.0</ele><time>2026-05-01T08:57:22.317Z</time></trkpt><trkpt lat="44.5317246" lon="11.5524687"><ele>20.0</ele><time>2026-05-01T08:57:23.317Z</time></trkpt><trkpt lat="44.5316209" lon="11.5526704"><ele>20.0</ele><time>2026-05-01T08:57:24.317Z</time></trkpt><trkpt lat="44.5315161" lon="11.5528864"><ele>19.666666666666668</ele><time>2026-05-01T08:57:25.317Z</time></trkpt><trkpt lat="44.5314115" lon="11.5531078"><ele>19.333333333333332</ele><time>2026-05-01T08:57:26.317Z</time></trkpt><trkpt lat="44.5313098" lon="11.5533417"><ele>19.0</ele><time>2026-05-01T08:57:27.317Z</time></trkpt><trkpt lat="44.5311952" lon="11.5535822"><ele>19.0</ele><time>2026-05-01T08:57:28.317Z</time></trkpt><trkpt lat="44.5310783" lon="11.5538214"><ele>19.0</ele><time>2026-05-01T08:57:29.317Z</time></trkpt><trkpt lat="44.5309549" lon="11.5540662"><ele>19.0</ele><time>2026-05-01T08:57:30.317Z</time></trkpt><trkpt lat="44.5308216" lon="11.5543123"><ele>19.0</ele><time>2026-05-01T08:57:31.317Z</time></trkpt><trkpt lat="44.530685" lon="11.5545611"><ele>19.0</ele><time>2026-05-01T08:57:32.317Z</time></trkpt><trkpt lat="44.5305455" lon="11.5548172"><ele>19.0</ele><time>2026-05-01T08:57:33.317Z</time></trkpt><trkpt lat="44.530406" lon="11.5550762"><ele>19.0</ele><time>2026-05-01T08:57:34.317Z</time></trkpt><trkpt lat="44.5302629" lon="11.5553335"><ele>18.5</ele><time>2026-05-01T08:57:35.317Z</time></trkpt><trkpt lat="44.5301205" lon="11.555592"><ele>18.0</ele><time>2026-05-01T08:57:36.317Z</time></trkpt><trkpt lat="44.5299814" lon="11.5558504"><ele>18.0</ele><time>2026-05-01T08:57:37.317Z</time></trkpt><trkpt lat="44.5298425" lon="11.5561066"><ele>18.0</ele><time>2026-05-01T08:57:38.317Z</time></trkpt><trkpt lat="44.5297047" lon="11.5563523"><ele>18.0</ele><time>2026-05-01T08:57:39.317Z</time></trkpt><trkpt lat="44.5295712" lon="11.5565929"><ele>18.0</ele><time>2026-05-01T08:57:40.317Z</time></trkpt><trkpt lat="44.529444" lon="11.5568233"><ele>18.0</ele><time>2026-05-01T08:57:41.317Z</time></trkpt><trkpt lat="44.5293229" lon="11.5570435"><ele>18.666666666666668</ele><time>2026-05-01T08:57:42.317Z</time></trkpt><trkpt lat="44.5292079" lon="11.5572497"><ele>19.333333333333336</ele><time>2026-05-01T08:57:43.317Z</time></trkpt><trkpt lat="44.5290971" lon="11.5574437"><ele>20.0</ele><time>2026-05-01T08:57:44.317Z</time></trkpt><trkpt lat="44.5290003" lon="11.557615"><ele>20.0</ele><time>2026-05-01T08:57:45.317Z</time></trkpt><trkpt lat="44.5289174" lon="11.5577679"><ele>20.0</ele><time>2026-05-01T08:57:46.317Z</time></trkpt><trkpt lat="44.5288427" lon="11.5579053"><ele>20.0</ele><time>2026-05-01T08:57:47.317Z</time></trkpt><trkpt lat="44.5287749" lon="11.558028"><ele>20.0</ele><time>2026-05-01T08:57:48.317Z</time></trkpt><trkpt lat="44.5287276" lon="11.5581509"><ele>19.833333333333336</ele><time>2026-05-01T08:57:49.317Z</time></trkpt><trkpt lat="44.5287379" lon="11.5582589"><ele>19.666666666666668</ele><time>2026-05-01T08:57:50.317Z</time></trkpt><trkpt lat="44.5287676" lon="11.5583613"><ele>19.5</ele><time>2026-05-01T08:57:51.317Z</time></trkpt><trkpt lat="44.5288095" lon="11.5584467"><ele>19.333333333333332</ele><time>2026-05-01T08:57:52.317Z</time></trkpt><trkpt lat="44.5288495" lon="11.558537"><ele>19.166666666666664</ele><time>2026-05-01T08:57:53.317Z</time></trkpt><trkpt lat="44.5288669" lon="11.5586505"><ele>19.0</ele><time>2026-05-01T08:57:54.317Z</time></trkpt><trkpt lat="44.528857" lon="11.5587655"><ele>18.8</ele><time>2026-05-01T08:57:55.317Z</time></trkpt><trkpt lat="44.5288328" lon="11.5588744"><ele>18.599999999999998</ele><time>2026-05-01T08:57:56.317Z</time></trkpt><trkpt lat="44.5287809" lon="11.5589728"><ele>18.4</ele><time>2026-05-01T08:57:57.317Z</time></trkpt><trkpt lat="44.5287088" lon="11.5590714"><ele>18.2</ele><time>2026-05-01T08:57:58.317Z</time></trkpt><trkpt lat="44.528603" lon="11.5591624"><ele>18.0</ele><time>2026-05-01T08:57:59.317Z</time></trkpt><trkpt lat="44.5284797" lon="11.5592635"><ele>18.0</ele><time>2026-05-01T08:58:00.318Z</time></trkpt><trkpt lat="44.5283512" lon="11.559385"><ele>18.0</ele><time>2026-05-01T08:58:01.317Z</time></trkpt><trkpt lat="44.5282188" lon="11.5595209"><ele>18.0</ele><time>2026-05-01T08:58:02.317Z</time></trkpt><trkpt lat="44.5280931" lon="11.5596673"><ele>18.0</ele><time>2026-05-01T08:58:03.317Z</time></trkpt><trkpt lat="44.5279628" lon="11.5598277"><ele>18.0</ele><time>2026-05-01T08:58:04.317Z</time></trkpt><trkpt lat="44.527823" lon="11.5600039"><ele>18.0</ele><time>2026-05-01T08:58:05.317Z</time></trkpt><trkpt lat="44.5276813" lon="11.5601989"><ele>17.666666666666668</ele><time>2026-05-01T08:58:06.317Z</time></trkpt><trkpt lat="44.5275407" lon="11.5604102"><ele>17.333333333333336</ele><time>2026-05-01T08:58:07.317Z</time></trkpt><trkpt lat="44.5274082" lon="11.5606288"><ele>17.0</ele><time>2026-05-01T08:58:08.317Z</time></trkpt><trkpt lat="44.5272784" lon="11.5608509"><ele>17.0</ele><time>2026-05-01T08:58:09.318Z</time></trkpt><trkpt lat="44.5271476" lon="11.5610739"><ele>17.0</ele><time>2026-05-01T08:58:10.317Z</time></trkpt><trkpt lat="44.527019" lon="11.5612929"><ele>17.0</ele><time>2026-05-01T08:58:11.318Z</time></trkpt><trkpt lat="44.5268932" lon="11.5615109"><ele>16.666666666666668</ele><time>2026-05-01T08:58:12.317Z</time></trkpt><trkpt lat="44.5267713" lon="11.5617222"><ele>16.333333333333332</ele><time>2026-05-01T08:58:13.318Z</time></trkpt><trkpt lat="44.5266534" lon="11.5619326"><ele>16.0</ele><time>2026-05-01T08:58:14.317Z</time></trkpt><trkpt lat="44.5265494" lon="11.5621202"><ele>16.0</ele><time>2026-05-01T08:58:15.318Z</time></trkpt><trkpt lat="44.5264625" lon="11.5622867"><ele>16.0</ele><time>2026-05-01T08:58:16.318Z</time></trkpt><trkpt lat="44.5263766" lon="11.5624494"><ele>16.0</ele><time>2026-05-01T08:58:17.318Z</time></trkpt><trkpt lat="44.5262853" lon="11.5626154"><ele>16.0</ele><time>2026-05-01T08:58:18.318Z</time></trkpt><trkpt lat="44.5261941" lon="11.5627842"><ele>15.75</ele><time>2026-05-01T08:58:19.318Z</time></trkpt><trkpt lat="44.5261032" lon="11.562951"><ele>15.5</ele><time>2026-05-01T08:58:20.318Z</time></trkpt><trkpt lat="44.5260148" lon="11.5631135"><ele>15.25</ele><time>2026-05-01T08:58:21.318Z</time></trkpt><trkpt lat="44.5259274" lon="11.5632802"><ele>15.0</ele><time>2026-05-01T08:58:22.318Z</time></trkpt><trkpt lat="44.525832" lon="11.5634548"><ele>15.0</ele><time>2026-05-01T08:58:23.318Z</time></trkpt><trkpt lat="44.525735" lon="11.5636333"><ele>15.0</ele><time>2026-05-01T08:58:24.318Z</time></trkpt><trkpt lat="44.5256387" lon="11.5638135"><ele>15.0</ele><time>2026-05-01T08:58:25.318Z</time></trkpt><trkpt lat="44.525541" lon="11.5639979"><ele>14.666666666666668</ele><time>2026-05-01T08:58:26.318Z</time></trkpt><trkpt lat="44.5254408" lon="11.5641839"><ele>14.333333333333334</ele><time>2026-05-01T08:58:27.318Z</time></trkpt><trkpt lat="44.525342" lon="11.5643722"><ele>14.0</ele><time>2026-05-01T08:58:28.318Z</time></trkpt><trkpt lat="44.5252427" lon="11.56456"><ele>15.666666666666668</ele><time>2026-05-01T08:58:29.318Z</time></trkpt><trkpt lat="44.5251418" lon="11.5647484"><ele>17.333333333333332</ele><time>2026-05-01T08:58:30.318Z</time></trkpt><trkpt lat="44.5250356" lon="11.564941"><ele>19.0</ele><time>2026-05-01T08:58:31.318Z</time></trkpt><trkpt lat="44.5249354" lon="11.5651293"><ele>19.0</ele><time>2026-05-01T08:58:32.318Z</time></trkpt><trkpt lat="44.5248358" lon="11.565318"><ele>19.0</ele><time>2026-05-01T08:58:33.318Z</time></trkpt><trkpt lat="44.5247355" lon="11.5655005"><ele>19.0</ele><time>2026-05-01T08:58:34.318Z</time></trkpt><trkpt lat="44.5246362" lon="11.5656883"><ele>19.0</ele><time>2026-05-01T08:58:35.318Z</time></trkpt><trkpt lat="44.5245297" lon="11.5658725"><ele>19.0</ele><time>2026-05-01T08:58:36.318Z</time></trkpt><trkpt lat="44.5244218" lon="11.5660559"><ele>19.0</ele><time>2026-05-01T08:58:37.318Z</time></trkpt><trkpt lat="44.5243139" lon="11.5662445"><ele>19.0</ele><time>2026-05-01T08:58:38.318Z</time></trkpt><trkpt lat="44.5242009" lon="11.5664356"><ele>19.0</ele><time>2026-05-01T08:58:39.318Z</time></trkpt><trkpt lat="44.5240847" lon="11.5666359"><ele>19.0</ele><time>2026-05-01T08:58:40.318Z</time></trkpt><trkpt lat="44.5239729" lon="11.5668371"><ele>19.0</ele><time>2026-05-01T08:58:41.318Z</time></trkpt><trkpt lat="44.5238655" lon="11.5670322"><ele>19.0</ele><time>2026-05-01T08:58:42.318Z</time></trkpt><trkpt lat="44.5237548" lon="11.5672286"><ele>19.0</ele><time>2026-05-01T08:58:43.318Z</time></trkpt><trkpt lat="44.5236412" lon="11.5674279"><ele>19.0</ele><time>2026-05-01T08:58:44.318Z</time></trkpt><trkpt lat="44.5235306" lon="11.5676248"><ele>19.0</ele><time>2026-05-01T08:58:45.318Z</time></trkpt><trkpt lat="44.5234171" lon="11.5678265"><ele>19.0</ele><time>2026-05-01T08:58:46.318Z</time></trkpt><trkpt lat="44.5233019" lon="11.5680353"><ele>19.0</ele><time>2026-05-01T08:58:47.318Z</time></trkpt><trkpt lat="44.5231852" lon="11.5682471"><ele>19.0</ele><time>2026-05-01T08:58:48.318Z</time></trkpt><trkpt lat="44.523068" lon="11.5684593"><ele>19.0</ele><time>2026-05-01T08:58:49.318Z</time></trkpt><trkpt lat="44.5229511" lon="11.5686722"><ele>18.666666666666664</ele><time>2026-05-01T08:58:50.318Z</time></trkpt><trkpt lat="44.5228403" lon="11.5688794"><ele>18.333333333333332</ele><time>2026-05-01T08:58:51.318Z</time></trkpt><trkpt lat="44.5227356" lon="11.5690763"><ele>18.0</ele><time>2026-05-01T08:58:52.318Z</time></trkpt><trkpt lat="44.5226375" lon="11.5692599"><ele>18.0</ele><time>2026-05-01T08:58:53.318Z</time></trkpt><trkpt lat="44.5225472" lon="11.569427"><ele>18.0</ele><time>2026-05-01T08:58:54.318Z</time></trkpt><trkpt lat="44.5224581" lon="11.5695893"><ele>18.0</ele><time>2026-05-01T08:58:55.318Z</time></trkpt><trkpt lat="44.5223638" lon="11.5697603"><ele>18.0</ele><time>2026-05-01T08:58:56.318Z</time></trkpt><trkpt lat="44.5222726" lon="11.5699324"><ele>18.0</ele><time>2026-05-01T08:58:57.318Z</time></trkpt><trkpt lat="44.5221843" lon="11.5701014"><ele>18.0</ele><time>2026-05-01T08:58:58.318Z</time></trkpt><trkpt lat="44.5220949" lon="11.5702709"><ele>17.666666666666668</ele><time>2026-05-01T08:58:59.318Z</time></trkpt><trkpt lat="44.5220036" lon="11.5704395"><ele>17.333333333333336</ele><time>2026-05-01T08:59:00.318Z</time></trkpt><trkpt lat="44.5219079" lon="11.5706118"><ele>17.0</ele><time>2026-05-01T08:59:01.318Z</time></trkpt><trkpt lat="44.5218163" lon="11.5707768"><ele>17.0</ele><time>2026-05-01T08:59:02.318Z</time></trkpt><trkpt lat="44.5217246" lon="11.5709449"><ele>17.0</ele><time>2026-05-01T08:59:03.318Z</time></trkpt><trkpt lat="44.5216335" lon="11.5711109"><ele>17.0</ele><time>2026-05-01T08:59:04.318Z</time></trkpt><trkpt lat="44.52154" lon="11.5712782"><ele>17.0</ele><time>2026-05-01T08:59:05.318Z</time></trkpt><trkpt lat="44.5214462" lon="11.5714453"><ele>17.0</ele><time>2026-05-01T08:59:06.318Z</time></trkpt><trkpt lat="44.521356" lon="11.571606"><ele>17.0</ele><time>2026-05-01T08:59:07.318Z</time></trkpt><trkpt lat="44.5212651" lon="11.5717692"><ele>17.0</ele><time>2026-05-01T08:59:08.318Z</time></trkpt><trkpt lat="44.5211717" lon="11.5719354"><ele>17.0</ele><time>2026-05-01T08:59:09.318Z</time></trkpt><trkpt lat="44.521075" lon="11.5721107"><ele>17.0</ele><time>2026-05-01T08:59:10.318Z</time></trkpt><trkpt lat="44.5209766" lon="11.5722846"><ele>17.0</ele><time>2026-05-01T08:59:11.319Z</time></trkpt><trkpt lat="44.5208898" lon="11.5724417"><ele>17.0</ele><time>2026-05-01T08:59:12.319Z</time></trkpt><trkpt lat="44.5208115" lon="11.5725851"><ele>17.0</ele><time>2026-05-01T08:59:13.319Z</time></trkpt><trkpt lat="44.5207356" lon="11.5727209"><ele>17.0</ele><time>2026-05-01T08:59:14.319Z</time></trkpt><trkpt lat="44.5206675" lon="11.5728484"><ele>17.0</ele><time>2026-05-01T08:59:15.319Z</time></trkpt><trkpt lat="44.5206017" lon="11.5729586"><ele>17.2</ele><time>2026-05-01T08:59:16.319Z</time></trkpt><trkpt lat="44.5205404" lon="11.5730678"><ele>17.4</ele><time>2026-05-01T08:59:17.32Z</time></trkpt><trkpt lat="44.5204849" lon="11.5731774"><ele>17.6</ele><time>2026-05-01T08:59:18.319Z</time></trkpt><trkpt lat="44.5204254" lon="11.5732914"><ele>17.8</ele><time>2026-05-01T08:59:19.319Z</time></trkpt><trkpt lat="44.5203613" lon="11.5734037"><ele>18.0</ele><time>2026-05-01T08:59:20.319Z</time></trkpt><trkpt lat="44.5202997" lon="11.5735141"><ele>18.0</ele><time>2026-05-01T08:59:21.319Z</time></trkpt><trkpt lat="44.520242" lon="11.5736174"><ele>18.0</ele><time>2026-05-01T08:59:22.319Z</time></trkpt><trkpt lat="44.5201996" lon="11.5736997"><ele>18.0</ele><time>2026-05-01T08:59:23.319Z</time></trkpt><trkpt lat="44.5201358" lon="11.5738047"><ele>18.0</ele><time>2026-05-01T08:59:25.319Z</time></trkpt><trkpt lat="44.5200876" lon="11.5738793"><ele>18.0</ele><time>2026-05-01T08:59:27.319Z</time></trkpt><trkpt lat="44.5200371" lon="11.573971"><ele>18.0</ele><time>2026-05-01T08:59:29.319Z</time></trkpt><trkpt lat="44.5199706" lon="11.5741018"><ele>18.0</ele><time>2026-05-01T08:59:31.319Z</time></trkpt><trkpt lat="44.5199305" lon="11.5741761"><ele>18.0</ele><time>2026-05-01T08:59:32.319Z</time></trkpt><trkpt lat="44.5198855" lon="11.5742571"><ele>18.0</ele><time>2026-05-01T08:59:33.319Z</time></trkpt><trkpt lat="44.5198341" lon="11.5743522"><ele>18.0</ele><time>2026-05-01T08:59:34.319Z</time></trkpt><trkpt lat="44.5197768" lon="11.5744595"><ele>18.0</ele><time>2026-05-01T08:59:35.319Z</time></trkpt><trkpt lat="44.5197155" lon="11.574575"><ele>18.0</ele><time>2026-05-01T08:59:36.319Z</time></trkpt><trkpt lat="44.5196555" lon="11.574688"><ele>18.0</ele><time>2026-05-01T08:59:37.319Z</time></trkpt><trkpt lat="44.5195939" lon="11.5747972"><ele>18.0</ele><time>2026-05-01T08:59:38.319Z</time></trkpt><trkpt lat="44.5195279" lon="11.5749145"><ele>18.0</ele><time>2026-05-01T08:59:39.319Z</time></trkpt><trkpt lat="44.519452" lon="11.5750465"><ele>18.0</ele><time>2026-05-01T08:59:40.319Z</time></trkpt><trkpt lat="44.5193691" lon="11.5751992"><ele>19.0</ele><time>2026-05-01T08:59:41.319Z</time></trkpt><trkpt lat="44.5192734" lon="11.5753777"><ele>20.0</ele><time>2026-05-01T08:59:42.319Z</time></trkpt><trkpt lat="44.5191722" lon="11.5755608"><ele>21.0</ele><time>2026-05-01T08:59:43.319Z</time></trkpt><trkpt lat="44.5190686" lon="11.5757466"><ele>21.0</ele><time>2026-05-01T08:59:44.319Z</time></trkpt><trkpt lat="44.5189673" lon="11.5759304"><ele>21.0</ele><time>2026-05-01T08:59:45.319Z</time></trkpt><trkpt lat="44.5188709" lon="11.5761111"><ele>21.0</ele><time>2026-05-01T08:59:46.319Z</time></trkpt><trkpt lat="44.5187753" lon="11.5762925"><ele>20.666666666666668</ele><time>2026-05-01T08:59:47.319Z</time></trkpt><trkpt lat="44.5186741" lon="11.5764797"><ele>20.333333333333336</ele><time>2026-05-01T08:59:48.319Z</time></trkpt><trkpt lat="44.5185717" lon="11.5766713"><ele>20.0</ele><time>2026-05-01T08:59:49.319Z</time></trkpt><trkpt lat="44.5184646" lon="11.5768689"><ele>19.666666666666668</ele><time>2026-05-01T08:59:50.319Z</time></trkpt><trkpt lat="44.5183574" lon="11.5770654"><ele>19.333333333333332</ele><time>2026-05-01T08:59:51.319Z</time></trkpt><trkpt lat="44.5182534" lon="11.5772581"><ele>19.0</ele><time>2026-05-01T08:59:52.319Z</time></trkpt><trkpt lat="44.518154" lon="11.5774431"><ele>19.0</ele><time>2026-05-01T08:59:53.319Z</time></trkpt><trkpt lat="44.5180573" lon="11.5776221"><ele>19.0</ele><time>2026-05-01T08:59:54.319Z</time></trkpt><trkpt lat="44.5179567" lon="11.5778022"><ele>19.0</ele><time>2026-05-01T08:59:55.319Z</time></trkpt><trkpt lat="44.5178557" lon="11.5779879"><ele>20.0</ele><time>2026-05-01T08:59:56.319Z</time></trkpt><trkpt lat="44.5177497" lon="11.5781854"><ele>21.0</ele><time>2026-05-01T08:59:57.319Z</time></trkpt><trkpt lat="44.5176376" lon="11.5783881"><ele>22.0</ele><time>2026-05-01T08:59:58.319Z</time></trkpt><trkpt lat="44.5175296" lon="11.5785895"><ele>22.0</ele><time>2026-05-01T08:59:59.319Z</time></trkpt><trkpt lat="44.5174196" lon="11.5787956"><ele>22.0</ele><time>2026-05-01T09:00:00.319Z</time></trkpt><trkpt lat="44.5173128" lon="11.5789982"><ele>22.0</ele><time>2026-05-01T09:00:01.319Z</time></trkpt><trkpt lat="44.5172107" lon="11.5791978"><ele>22.0</ele><time>2026-05-01T09:00:02.319Z</time></trkpt><trkpt lat="44.5171087" lon="11.5793912"><ele>22.0</ele><time>2026-05-01T09:00:03.319Z</time></trkpt><trkpt lat="44.5170065" lon="11.5795814"><ele>22.0</ele><time>2026-05-01T09:00:04.319Z</time></trkpt><trkpt lat="44.5169108" lon="11.5797523"><ele>21.400000000000002</ele><time>2026-05-01T09:00:05.319Z</time></trkpt><trkpt lat="44.516829" lon="11.5798968"><ele>20.8</ele><time>2026-05-01T09:00:06.319Z</time></trkpt><trkpt lat="44.5167639" lon="11.5800125"><ele>20.2</ele><time>2026-05-01T09:00:07.32Z</time></trkpt><trkpt lat="44.5167123" lon="11.5801066"><ele>19.6</ele><time>2026-05-01T09:00:08.32Z</time></trkpt><trkpt lat="44.5166709" lon="11.5801824"><ele>19.0</ele><time>2026-05-01T09:00:09.32Z</time></trkpt><trkpt lat="44.5166041" lon="11.5803127"><ele>18.833333333333332</ele><time>2026-05-01T09:00:11.32Z</time></trkpt><trkpt lat="44.516566" lon="11.5803868"><ele>18.666666666666664</ele><time>2026-05-01T09:00:12.32Z</time></trkpt><trkpt lat="44.516525" lon="11.5804708"><ele>18.5</ele><time>2026-05-01T09:00:13.32Z</time></trkpt><trkpt lat="44.516482" lon="11.5805585"><ele>18.333333333333332</ele><time>2026-05-01T09:00:14.32Z</time></trkpt><trkpt lat="44.5164351" lon="11.5806478"><ele>18.166666666666668</ele><time>2026-05-01T09:00:15.32Z</time></trkpt><trkpt lat="44.5163902" lon="11.5807315"><ele>18.0</ele><time>2026-05-01T09:00:16.32Z</time></trkpt><trkpt lat="44.5163262" lon="11.5808445"><ele>18.0</ele><time>2026-05-01T09:00:18.32Z</time></trkpt><trkpt lat="44.5162791" lon="11.5809317"><ele>18.0</ele><time>2026-05-01T09:00:21.32Z</time></trkpt><trkpt lat="44.5162194" lon="11.5810245"><ele>18.0</ele><time>2026-05-01T09:00:25.32Z</time></trkpt><trkpt lat="44.5161756" lon="11.5810921"><ele>18.0</ele><time>2026-05-01T09:00:27.321Z</time></trkpt><trkpt lat="44.5161142" lon="11.5811907"><ele>18.0</ele><time>2026-05-01T09:00:49.32Z</time></trkpt><trkpt lat="44.5160574" lon="11.5812893"><ele>18.0</ele><time>2026-05-01T09:00:51.32Z</time></trkpt><trkpt lat="44.5159882" lon="11.581401"><ele>18.2</ele><time>2026-05-01T09:00:53.32Z</time></trkpt><trkpt lat="44.5159142" lon="11.5815282"><ele>18.4</ele><time>2026-05-01T09:00:55.32Z</time></trkpt><trkpt lat="44.5158499" lon="11.5816439"><ele>18.599999999999998</ele><time>2026-05-01T09:00:57.32Z</time></trkpt><trkpt lat="44.5158105" lon="11.5817224"><ele>18.8</ele><time>2026-05-01T09:00:59.32Z</time></trkpt><trkpt lat="44.5157617" lon="11.5818142"><ele>19.0</ele><time>2026-05-01T09:01:02.32Z</time></trkpt><trkpt lat="44.5157119" lon="11.5819294"><ele>19.0</ele><time>2026-05-01T09:01:04.32Z</time></trkpt><trkpt lat="44.5156766" lon="11.5820117"><ele>19.0</ele><time>2026-05-01T09:01:05.321Z</time></trkpt><trkpt lat="44.5156161" lon="11.5821115"><ele>19.0</ele><time>2026-05-01T09:01:06.321Z</time></trkpt><trkpt lat="44.5155554" lon="11.5822095"><ele>19.0</ele><time>2026-05-01T09:01:07.321Z</time></trkpt><trkpt lat="44.5154905" lon="11.5823168"><ele>19.0</ele><time>2026-05-01T09:01:08.321Z</time></trkpt><trkpt lat="44.5154224" lon="11.582436"><ele>19.0</ele><time>2026-05-01T09:01:09.321Z</time></trkpt><trkpt lat="44.5153523" lon="11.5825599"><ele>19.0</ele><time>2026-05-01T09:01:10.321Z</time></trkpt><trkpt lat="44.5152823" lon="11.5826892"><ele>19.0</ele><time>2026-05-01T09:01:11.321Z</time></trkpt><trkpt lat="44.5152101" lon="11.5828219"><ele>19.0</ele><time>2026-05-01T09:01:12.321Z</time></trkpt><trkpt lat="44.5151349" lon="11.5829574"><ele>19.0</ele><time>2026-05-01T09:01:13.321Z</time></trkpt><trkpt lat="44.5150598" lon="11.5830925"><ele>19.0</ele><time>2026-05-01T09:01:14.321Z</time></trkpt><trkpt lat="44.5149844" lon="11.5832276"><ele>19.0</ele><time>2026-05-01T09:01:15.321Z</time></trkpt><trkpt lat="44.5149097" lon="11.5833625"><ele>19.0</ele><time>2026-05-01T09:01:16.321Z</time></trkpt><trkpt lat="44.5148358" lon="11.5834989"><ele>19.0</ele><time>2026-05-01T09:01:17.321Z</time></trkpt><trkpt lat="44.5147663" lon="11.5836233"><ele>19.0</ele><time>2026-05-01T09:01:18.321Z</time></trkpt><trkpt lat="44.5147003" lon="11.5837384"><ele>19.0</ele><time>2026-05-01T09:01:19.321Z</time></trkpt><trkpt lat="44.514644" lon="11.5838346"><ele>19.0</ele><time>2026-05-01T09:01:20.322Z</time></trkpt><trkpt lat="44.5145994" lon="11.5839109"><ele>19.0</ele><time>2026-05-01T09:01:21.321Z</time></trkpt><trkpt lat="44.5145429" lon="11.5840015"><ele>18.857142857142858</ele><time>2026-05-01T09:01:23.321Z</time></trkpt><trkpt lat="44.5145004" lon="11.5840698"><ele>18.714285714285715</ele><time>2026-05-01T09:01:26.321Z</time></trkpt><trkpt lat="44.5144539" lon="11.5841413"><ele>18.571428571428573</ele><time>2026-05-01T09:01:28.321Z</time></trkpt><trkpt lat="44.5144145" lon="11.5842144"><ele>18.42857142857143</ele><time>2026-05-01T09:01:30.321Z</time></trkpt><trkpt lat="44.5143663" lon="11.5843038"><ele>18.285714285714285</ele><time>2026-05-01T09:01:42.321Z</time></trkpt><trkpt lat="44.514328" lon="11.5843753"><ele>18.142857142857146</ele><time>2026-05-01T09:01:44.321Z</time></trkpt><trkpt lat="44.5142816" lon="11.5844667"><ele>18.0</ele><time>2026-05-01T09:01:46.321Z</time></trkpt><trkpt lat="44.5142304" lon="11.5845616"><ele>18.0</ele><time>2026-05-01T09:01:48.321Z</time></trkpt><trkpt lat="44.5141795" lon="11.58465"><ele>18.0</ele><time>2026-05-01T09:01:50.321Z</time></trkpt><trkpt lat="44.5141322" lon="11.5847346"><ele>18.0</ele><time>2026-05-01T09:01:52.321Z</time></trkpt><trkpt lat="44.5140804" lon="11.584819"><ele>18.0</ele><time>2026-05-01T09:02:03.322Z</time></trkpt><trkpt lat="44.5140348" lon="11.5848944"><ele>18.0</ele><time>2026-05-01T09:02:05.322Z</time></trkpt><trkpt lat="44.5139917" lon="11.5849711"><ele>18.0</ele><time>2026-05-01T09:02:08.322Z</time></trkpt><trkpt lat="44.513947" lon="11.5850558"><ele>18.0</ele><time>2026-05-01T09:02:13.322Z</time></trkpt><trkpt lat="44.5138986" lon="11.5851403"><ele>18.0</ele><time>2026-05-01T09:02:16.322Z</time></trkpt><trkpt lat="44.5138601" lon="11.5852219"><ele>18.0</ele><time>2026-05-01T09:02:19.322Z</time></trkpt><trkpt lat="44.5138185" lon="11.5852956"><ele>18.0</ele><time>2026-05-01T09:02:23.322Z</time></trkpt><trkpt lat="44.5137642" lon="11.5853926"><ele>18.0</ele><time>2026-05-01T09:02:27.322Z</time></trkpt><trkpt lat="44.5137153" lon="11.5854871"><ele>18.0</ele><time>2026-05-01T09:02:30.322Z</time></trkpt><trkpt lat="44.5136696" lon="11.5855678"><ele>18.0</ele><time>2026-05-01T09:02:41.322Z</time></trkpt><trkpt lat="44.5136221" lon="11.585642"><ele>18.0</ele><time>2026-05-01T09:02:44.322Z</time></trkpt><trkpt lat="44.5135777" lon="11.5857335"><ele>18.0</ele><time>2026-05-01T09:02:47.322Z</time></trkpt><trkpt lat="44.5135312" lon="11.5858239"><ele>18.0</ele><time>2026-05-01T09:02:50.322Z</time></trkpt><trkpt lat="44.5134701" lon="11.5859558"><ele>18.0</ele><time>2026-05-01T09:02:53.322Z</time></trkpt><trkpt lat="44.5134326" lon="11.5860402"><ele>18.0</ele><time>2026-05-01T09:02:54.322Z</time></trkpt><trkpt lat="44.5133849" lon="11.5861361"><ele>17.75</ele><time>2026-05-01T09:02:55.322Z</time></trkpt><trkpt lat="44.5133233" lon="11.5862472"><ele>17.5</ele><time>2026-05-01T09:02:56.322Z</time></trkpt><trkpt lat="44.5132539" lon="11.5863743"><ele>17.25</ele><time>2026-05-01T09:02:57.322Z</time></trkpt><trkpt lat="44.5131769" lon="11.5865121"><ele>17.0</ele><time>2026-05-01T09:02:58.323Z</time></trkpt><trkpt lat="44.513097" lon="11.586653"><ele>17.0</ele><time>2026-05-01T09:02:59.322Z</time></trkpt><trkpt lat="44.5130165" lon="11.5868002"><ele>17.0</ele><time>2026-05-01T09:03:00.323Z</time></trkpt><trkpt lat="44.5129339" lon="11.5869475"><ele>17.0</ele><time>2026-05-01T09:03:01.323Z</time></trkpt><trkpt lat="44.5128523" lon="11.5870948"><ele>17.0</ele><time>2026-05-01T09:03:02.323Z</time></trkpt><trkpt lat="44.5127683" lon="11.5872386"><ele>17.0</ele><time>2026-05-01T09:03:03.323Z</time></trkpt><trkpt lat="44.5126884" lon="11.5873788"><ele>17.0</ele><time>2026-05-01T09:03:04.323Z</time></trkpt><trkpt lat="44.5126118" lon="11.5875161"><ele>17.0</ele><time>2026-05-01T09:03:05.323Z</time></trkpt><trkpt lat="44.5125356" lon="11.5876495"><ele>17.0</ele><time>2026-05-01T09:03:06.323Z</time></trkpt><trkpt lat="44.5124613" lon="11.5877823"><ele>17.0</ele><time>2026-05-01T09:03:07.323Z</time></trkpt><trkpt lat="44.5123841" lon="11.5879184"><ele>17.0</ele><time>2026-05-01T09:03:08.323Z</time></trkpt><trkpt lat="44.5123061" lon="11.5880639"><ele>17.0</ele><time>2026-05-01T09:03:09.323Z</time></trkpt><trkpt lat="44.5122287" lon="11.5882093"><ele>17.0</ele><time>2026-05-01T09:03:10.323Z</time></trkpt><trkpt lat="44.5121499" lon="11.5883493"><ele>17.5</ele><time>2026-05-01T09:03:11.323Z</time></trkpt><trkpt lat="44.5120691" lon="11.5884897"><ele>18.0</ele><time>2026-05-01T09:03:12.323Z</time></trkpt><trkpt lat="44.5119885" lon="11.588634"><ele>18.5</ele><time>2026-05-01T09:03:13.323Z</time></trkpt><trkpt lat="44.5119089" lon="11.5887835"><ele>19.0</ele><time>2026-05-01T09:03:14.323Z</time></trkpt><trkpt lat="44.5118262" lon="11.5889349"><ele>19.0</ele><time>2026-05-01T09:03:15.324Z</time></trkpt><trkpt lat="44.5117419" lon="11.5890844"><ele>19.0</ele><time>2026-05-01T09:03:16.323Z</time></trkpt><trkpt lat="44.5116558" lon="11.5892357"><ele>19.0</ele><time>2026-05-01T09:03:17.323Z</time></trkpt><trkpt lat="44.5115695" lon="11.5893883"><ele>19.0</ele><time>2026-05-01T09:03:18.323Z</time></trkpt><trkpt lat="44.5114846" lon="11.5895401"><ele>19.0</ele><time>2026-05-01T09:03:19.323Z</time></trkpt><trkpt lat="44.511402" lon="11.5896918"><ele>19.0</ele><time>2026-05-01T09:03:20.323Z</time></trkpt><trkpt lat="44.5113183" lon="11.5898412"><ele>19.0</ele><time>2026-05-01T09:03:21.323Z</time></trkpt><trkpt lat="44.5112357" lon="11.5899932"><ele>19.0</ele><time>2026-05-01T09:03:22.323Z</time></trkpt><trkpt lat="44.5111515" lon="11.5901472"><ele>19.0</ele><time>2026-05-01T09:03:23.323Z</time></trkpt><trkpt lat="44.511067" lon="11.590303"><ele>19.0</ele><time>2026-05-01T09:03:24.323Z</time></trkpt><trkpt lat="44.5109824" lon="11.5904597"><ele>19.0</ele><time>2026-05-01T09:03:25.323Z</time></trkpt><trkpt lat="44.5108979" lon="11.5906156"><ele>19.0</ele><time>2026-05-01T09:03:26.323Z</time></trkpt><trkpt lat="44.5108143" lon="11.5907633"><ele>18.8</ele><time>2026-05-01T09:03:27.323Z</time></trkpt><trkpt lat="44.5107408" lon="11.5908928"><ele>18.599999999999998</ele><time>2026-05-01T09:03:28.323Z</time></trkpt><trkpt lat="44.5106752" lon="11.5910077"><ele>18.4</ele><time>2026-05-01T09:03:29.323Z</time></trkpt><trkpt lat="44.5106182" lon="11.591111"><ele>18.2</ele><time>2026-05-01T09:03:30.323Z</time></trkpt><trkpt lat="44.5105677" lon="11.5912019"><ele>18.0</ele><time>2026-05-01T09:03:31.323Z</time></trkpt><trkpt lat="44.5105006" lon="11.5913115"><ele>17.666666666666668</ele><time>2026-05-01T09:03:33.323Z</time></trkpt><trkpt lat="44.5104533" lon="11.5913918"><ele>17.333333333333332</ele><time>2026-05-01T09:03:35.323Z</time></trkpt><trkpt lat="44.5104068" lon="11.5914784"><ele>17.0</ele><time>2026-05-01T09:03:37.323Z</time></trkpt><trkpt lat="44.5103448" lon="11.5916132"><ele>16.666666666666664</ele><time>2026-05-01T09:03:39.323Z</time></trkpt><trkpt lat="44.5103026" lon="11.5917017"><ele>16.333333333333332</ele><time>2026-05-01T09:03:40.323Z</time></trkpt><trkpt lat="44.510252" lon="11.5918033"><ele>16.0</ele><time>2026-05-01T09:03:41.323Z</time></trkpt><trkpt lat="44.5101928" lon="11.5919192"><ele>16.25</ele><time>2026-05-01T09:03:42.323Z</time></trkpt><trkpt lat="44.5101322" lon="11.5920381"><ele>16.5</ele><time>2026-05-01T09:03:43.323Z</time></trkpt><trkpt lat="44.5100664" lon="11.5921636"><ele>16.75</ele><time>2026-05-01T09:03:44.323Z</time></trkpt><trkpt lat="44.5099973" lon="11.592297"><ele>17.0</ele><time>2026-05-01T09:03:45.323Z</time></trkpt><trkpt lat="44.5099247" lon="11.5924347"><ele>17.0</ele><time>2026-05-01T09:03:46.323Z</time></trkpt><trkpt lat="44.5098462" lon="11.5925739"><ele>17.0</ele><time>2026-05-01T09:03:47.323Z</time></trkpt><trkpt lat="44.5097696" lon="11.5927103"><ele>17.0</ele><time>2026-05-01T09:03:48.323Z</time></trkpt><trkpt lat="44.509699" lon="11.5928402"><ele>17.0</ele><time>2026-05-01T09:03:49.323Z</time></trkpt><trkpt lat="44.5096351" lon="11.5929567"><ele>17.0</ele><time>2026-05-01T09:03:50.323Z</time></trkpt><trkpt lat="44.5095778" lon="11.5930646"><ele>17.0</ele><time>2026-05-01T09:03:51.323Z</time></trkpt><trkpt lat="44.509523" lon="11.5931655"><ele>17.0</ele><time>2026-05-01T09:03:52.323Z</time></trkpt><trkpt lat="44.5094741" lon="11.5932492"><ele>17.0</ele><time>2026-05-01T09:03:53.323Z</time></trkpt><trkpt lat="44.5094064" lon="11.5933625"><ele>17.0</ele><time>2026-05-01T09:03:55.324Z</time></trkpt><trkpt lat="44.5093519" lon="11.5934657"><ele>17.0</ele><time>2026-05-01T09:03:58.324Z</time></trkpt><trkpt lat="44.5093044" lon="11.5935734"><ele>17.0</ele><time>2026-05-01T09:04:00.324Z</time></trkpt><trkpt lat="44.5092657" lon="11.5936534"><ele>17.0</ele><time>2026-05-01T09:04:01.324Z</time></trkpt><trkpt lat="44.5092164" lon="11.5937529"><ele>17.0</ele><time>2026-05-01T09:04:02.324Z</time></trkpt><trkpt lat="44.5091554" lon="11.5938705"><ele>17.0</ele><time>2026-05-01T09:04:03.324Z</time></trkpt><trkpt lat="44.509083" lon="11.5940029"><ele>17.0</ele><time>2026-05-01T09:04:04.324Z</time></trkpt><trkpt lat="44.5090013" lon="11.5941525"><ele>17.0</ele><time>2026-05-01T09:04:05.324Z</time></trkpt><trkpt lat="44.5089163" lon="11.5943066"><ele>17.0</ele><time>2026-05-01T09:04:06.324Z</time></trkpt><trkpt lat="44.5088331" lon="11.5944604"><ele>17.0</ele><time>2026-05-01T09:04:07.324Z</time></trkpt><trkpt lat="44.5087495" lon="11.594619"><ele>17.25</ele><time>2026-05-01T09:04:08.324Z</time></trkpt><trkpt lat="44.5086632" lon="11.5947802"><ele>17.5</ele><time>2026-05-01T09:04:09.324Z</time></trkpt><trkpt lat="44.5085756" lon="11.594947"><ele>17.75</ele><time>2026-05-01T09:04:10.324Z</time></trkpt><trkpt lat="44.5084852" lon="11.595116"><ele>18.0</ele><time>2026-05-01T09:04:11.324Z</time></trkpt><trkpt lat="44.508393" lon="11.5952851"><ele>18.5</ele><time>2026-05-01T09:04:12.324Z</time></trkpt><trkpt lat="44.5083042" lon="11.5954513"><ele>19.0</ele><time>2026-05-01T09:04:13.324Z</time></trkpt><trkpt lat="44.5082197" lon="11.5956086"><ele>19.5</ele><time>2026-05-01T09:04:14.324Z</time></trkpt><trkpt lat="44.5081395" lon="11.5957539"><ele>20.0</ele><time>2026-05-01T09:04:15.324Z</time></trkpt><trkpt lat="44.5080618" lon="11.5958961"><ele>20.0</ele><time>2026-05-01T09:04:16.324Z</time></trkpt><trkpt lat="44.5079832" lon="11.5960443"><ele>20.0</ele><time>2026-05-01T09:04:17.324Z</time></trkpt><trkpt lat="44.507902" lon="11.5962011"><ele>20.0</ele><time>2026-05-01T09:04:18.324Z</time></trkpt><trkpt lat="44.5078151" lon="11.5963693"><ele>20.0</ele><time>2026-05-01T09:04:19.325Z</time></trkpt><trkpt lat="44.5077229" lon="11.5965503"><ele>19.666666666666668</ele><time>2026-05-01T09:04:20.324Z</time></trkpt><trkpt lat="44.5076218" lon="11.5967429"><ele>19.333333333333332</ele><time>2026-05-01T09:04:21.324Z</time></trkpt><trkpt lat="44.5075126" lon="11.5969464"><ele>19.0</ele><time>2026-05-01T09:04:22.324Z</time></trkpt><trkpt lat="44.5074022" lon="11.597151"><ele>19.0</ele><time>2026-05-01T09:04:23.324Z</time></trkpt><trkpt lat="44.5072907" lon="11.5973589"><ele>19.0</ele><time>2026-05-01T09:04:24.324Z</time></trkpt><trkpt lat="44.5071755" lon="11.5975724"><ele>19.0</ele><time>2026-05-01T09:04:25.324Z</time></trkpt><trkpt lat="44.5070561" lon="11.5977936"><ele>19.0</ele><time>2026-05-01T09:04:26.324Z</time></trkpt><trkpt lat="44.5069362" lon="11.598019"><ele>19.0</ele><time>2026-05-01T09:04:27.324Z</time></trkpt><trkpt lat="44.5068187" lon="11.5982378"><ele>19.0</ele><time>2026-05-01T09:04:28.324Z</time></trkpt><trkpt lat="44.506705" lon="11.5984457"><ele>19.0</ele><time>2026-05-01T09:04:29.324Z</time></trkpt><trkpt lat="44.5065958" lon="11.5986441"><ele>19.0</ele><time>2026-05-01T09:04:30.324Z</time></trkpt><trkpt lat="44.5064863" lon="11.59884"><ele>19.0</ele><time>2026-05-01T09:04:31.324Z</time></trkpt><trkpt lat="44.5063777" lon="11.5990359"><ele>19.333333333333332</ele><time>2026-05-01T09:04:32.324Z</time></trkpt><trkpt lat="44.5062778" lon="11.5992194"><ele>19.666666666666668</ele><time>2026-05-01T09:04:33.324Z</time></trkpt><trkpt lat="44.5061798" lon="11.5994001"><ele>20.0</ele><time>2026-05-01T09:04:34.324Z</time></trkpt><trkpt lat="44.5060815" lon="11.599581"><ele>20.0</ele><time>2026-05-01T09:04:35.324Z</time></trkpt><trkpt lat="44.5059876" lon="11.5997473"><ele>20.0</ele><time>2026-05-01T09:04:36.324Z</time></trkpt><trkpt lat="44.5058963" lon="11.5999057"><ele>20.0</ele><time>2026-05-01T09:04:37.324Z</time></trkpt><trkpt lat="44.5058148" lon="11.6000496"><ele>20.0</ele><time>2026-05-01T09:04:38.324Z</time></trkpt><trkpt lat="44.5057476" lon="11.6001732"><ele>20.0</ele><time>2026-05-01T09:04:39.324Z</time></trkpt><trkpt lat="44.5056878" lon="11.6002826"><ele>20.0</ele><time>2026-05-01T09:04:40.324Z</time></trkpt><trkpt lat="44.5056346" lon="11.6003871"><ele>20.0</ele><time>2026-05-01T09:04:41.324Z</time></trkpt><trkpt lat="44.505583" lon="11.600476"><ele>20.0</ele><time>2026-05-01T09:04:42.324Z</time></trkpt><trkpt lat="44.5055363" lon="11.6005616"><ele>20.0</ele><time>2026-05-01T09:04:43.325Z</time></trkpt><trkpt lat="44.5054899" lon="11.6006464"><ele>20.0</ele><time>2026-05-01T09:04:44.324Z</time></trkpt><trkpt lat="44.5054462" lon="11.6007365"><ele>20.2</ele><time>2026-05-01T09:04:45.324Z</time></trkpt><trkpt lat="44.5053977" lon="11.6008307"><ele>20.4</ele><time>2026-05-01T09:04:46.324Z</time></trkpt><trkpt lat="44.5053452" lon="11.6009316"><ele>20.6</ele><time>2026-05-01T09:04:47.324Z</time></trkpt><trkpt lat="44.5052885" lon="11.601038"><ele>20.8</ele><time>2026-05-01T09:04:48.324Z</time></trkpt><trkpt lat="44.5052238" lon="11.6011535"><ele>21.0</ele><time>2026-05-01T09:04:49.325Z</time></trkpt><trkpt lat="44.5051549" lon="11.601277"><ele>20.5</ele><time>2026-05-01T09:04:50.324Z</time></trkpt><trkpt lat="44.5050812" lon="11.6014117"><ele>20.0</ele><time>2026-05-01T09:04:51.324Z</time></trkpt><trkpt lat="44.5050034" lon="11.6015553"><ele>19.5</ele><time>2026-05-01T09:04:52.324Z</time></trkpt><trkpt lat="44.5049196" lon="11.6017071"><ele>19.0</ele><time>2026-05-01T09:04:53.324Z</time></trkpt><trkpt lat="44.5048354" lon="11.601858"><ele>18.5</ele><time>2026-05-01T09:04:54.324Z</time></trkpt><trkpt lat="44.5047517" lon="11.6020073"><ele>18.0</ele><time>2026-05-01T09:04:55.324Z</time></trkpt><trkpt lat="44.5046714" lon="11.6021518"><ele>17.5</ele><time>2026-05-01T09:04:56.324Z</time></trkpt><trkpt lat="44.5045949" lon="11.6022903"><ele>17.0</ele><time>2026-05-01T09:04:57.324Z</time></trkpt><trkpt lat="44.5045214" lon="11.6024267"><ele>17.0</ele><time>2026-05-01T09:04:58.325Z</time></trkpt><trkpt lat="44.5044484" lon="11.6025609"><ele>17.0</ele><time>2026-05-01T09:04:59.325Z</time></trkpt><trkpt lat="44.5043754" lon="11.6026929"><ele>17.0</ele><time>2026-05-01T09:05:00.325Z</time></trkpt><trkpt lat="44.5042999" lon="11.6028288"><ele>17.0</ele><time>2026-05-01T09:05:01.325Z</time></trkpt><trkpt lat="44.5042224" lon="11.6029722"><ele>17.0</ele><time>2026-05-01T09:05:02.325Z</time></trkpt><trkpt lat="44.5041419" lon="11.603122"><ele>17.0</ele><time>2026-05-01T09:05:03.325Z</time></trkpt><trkpt lat="44.5040589" lon="11.6032776"><ele>17.0</ele><time>2026-05-01T09:05:04.325Z</time></trkpt><trkpt lat="44.5039753" lon="11.6034323"><ele>17.0</ele><time>2026-05-01T09:05:05.325Z</time></trkpt><trkpt lat="44.5038913" lon="11.6035863"><ele>17.0</ele><time>2026-05-01T09:05:06.325Z</time></trkpt><trkpt lat="44.5038072" lon="11.6037415"><ele>17.0</ele><time>2026-05-01T09:05:07.325Z</time></trkpt><trkpt lat="44.5037243" lon="11.6038991"><ele>17.0</ele><time>2026-05-01T09:05:08.325Z</time></trkpt><trkpt lat="44.5036392" lon="11.6040611"><ele>17.0</ele><time>2026-05-01T09:05:09.325Z</time></trkpt><trkpt lat="44.5035502" lon="11.604229"><ele>17.0</ele><time>2026-05-01T09:05:10.325Z</time></trkpt><trkpt lat="44.503457" lon="11.6044045"><ele>17.0</ele><time>2026-05-01T09:05:11.325Z</time></trkpt><trkpt lat="44.5033639" lon="11.6045813"><ele>17.0</ele><time>2026-05-01T09:05:12.325Z</time></trkpt><trkpt lat="44.5032716" lon="11.6047541"><ele>17.0</ele><time>2026-05-01T09:05:13.325Z</time></trkpt><trkpt lat="44.5031776" lon="11.6049231"><ele>17.0</ele><time>2026-05-01T09:05:14.325Z</time></trkpt><trkpt lat="44.5030908" lon="11.6050824"><ele>17.0</ele><time>2026-05-01T09:05:15.325Z</time></trkpt><trkpt lat="44.5030082" lon="11.6052374"><ele>17.0</ele><time>2026-05-01T09:05:16.325Z</time></trkpt><trkpt lat="44.5029251" lon="11.6053918"><ele>17.0</ele><time>2026-05-01T09:05:17.325Z</time></trkpt><trkpt lat="44.5028415" lon="11.6055464"><ele>17.0</ele><time>2026-05-01T09:05:18.325Z</time></trkpt><trkpt lat="44.5027564" lon="11.6057019"><ele>17.0</ele><time>2026-05-01T09:05:19.325Z</time></trkpt><trkpt lat="44.5026694" lon="11.6058573"><ele>17.0</ele><time>2026-05-01T09:05:20.325Z</time></trkpt><trkpt lat="44.5025849" lon="11.6060122"><ele>17.25</ele><time>2026-05-01T09:05:21.325Z</time></trkpt><trkpt lat="44.5025021" lon="11.6061661"><ele>17.5</ele><time>2026-05-01T09:05:22.325Z</time></trkpt><trkpt lat="44.502418" lon="11.6063213"><ele>17.75</ele><time>2026-05-01T09:05:23.325Z</time></trkpt><trkpt lat="44.5023313" lon="11.6064762"><ele>18.0</ele><time>2026-05-01T09:05:24.326Z</time></trkpt><trkpt lat="44.5022443" lon="11.6066325"><ele>18.0</ele><time>2026-05-01T09:05:25.325Z</time></trkpt><trkpt lat="44.5021577" lon="11.6067911"><ele>18.0</ele><time>2026-05-01T09:05:26.325Z</time></trkpt><trkpt lat="44.5020707" lon="11.6069503"><ele>18.0</ele><time>2026-05-01T09:05:27.325Z</time></trkpt><trkpt lat="44.5019825" lon="11.6071094"><ele>18.0</ele><time>2026-05-01T09:05:28.325Z</time></trkpt><trkpt lat="44.5018941" lon="11.6072736"><ele>17.75</ele><time>2026-05-01T09:05:29.325Z</time></trkpt><trkpt lat="44.5018064" lon="11.6074386"><ele>17.5</ele><time>2026-05-01T09:05:30.325Z</time></trkpt><trkpt lat="44.5017219" lon="11.6076036"><ele>17.25</ele><time>2026-05-01T09:05:31.325Z</time></trkpt><trkpt lat="44.5016425" lon="11.6077676"><ele>17.0</ele><time>2026-05-01T09:05:32.325Z</time></trkpt><trkpt lat="44.501564" lon="11.6079275"><ele>17.0</ele><time>2026-05-01T09:05:33.325Z</time></trkpt><trkpt lat="44.5014842" lon="11.6080802"><ele>17.0</ele><time>2026-05-01T09:05:34.325Z</time></trkpt><trkpt lat="44.5014057" lon="11.6082278"><ele>17.0</ele><time>2026-05-01T09:05:35.325Z</time></trkpt><trkpt lat="44.5013322" lon="11.608369"><ele>17.0</ele><time>2026-05-01T09:05:36.325Z</time></trkpt><trkpt lat="44.5012656" lon="11.6085032"><ele>16.8</ele><time>2026-05-01T09:05:37.325Z</time></trkpt><trkpt lat="44.5012084" lon="11.6086279"><ele>16.6</ele><time>2026-05-01T09:05:38.325Z</time></trkpt><trkpt lat="44.5011607" lon="11.6087449"><ele>16.400000000000002</ele><time>2026-05-01T09:05:39.325Z</time></trkpt><trkpt lat="44.5011176" lon="11.6088611"><ele>16.2</ele><time>2026-05-01T09:05:40.325Z</time></trkpt><trkpt lat="44.5010777" lon="11.6089653"><ele>16.0</ele><time>2026-05-01T09:05:41.325Z</time></trkpt><trkpt lat="44.5010349" lon="11.6090594"><ele>15.833333333333332</ele><time>2026-05-01T09:05:42.325Z</time></trkpt><trkpt lat="44.5009821" lon="11.6091489"><ele>15.666666666666666</ele><time>2026-05-01T09:05:43.325Z</time></trkpt><trkpt lat="44.5009169" lon="11.6092326"><ele>15.5</ele><time>2026-05-01T09:05:44.325Z</time></trkpt><trkpt lat="44.5008454" lon="11.6093065"><ele>15.333333333333332</ele><time>2026-05-01T09:05:45.325Z</time></trkpt><trkpt lat="44.5007655" lon="11.6093679"><ele>15.166666666666666</ele><time>2026-05-01T09:05:46.325Z</time></trkpt><trkpt lat="44.5006843" lon="11.6094032"><ele>15.0</ele><time>2026-05-01T09:05:47.325Z</time></trkpt><trkpt lat="44.5005913" lon="11.6094563"><ele>15.25</ele><time>2026-05-01T09:05:48.325Z</time></trkpt><trkpt lat="44.5004969" lon="11.6095242"><ele>15.5</ele><time>2026-05-01T09:05:49.325Z</time></trkpt><trkpt lat="44.5004105" lon="11.6096498"><ele>15.75</ele><time>2026-05-01T09:05:50.325Z</time></trkpt><trkpt lat="44.5003422" lon="11.609783"><ele>16.0</ele><time>2026-05-01T09:05:51.325Z</time></trkpt><trkpt lat="44.5002752" lon="11.6099331"><ele>16.25</ele><time>2026-05-01T09:05:52.325Z</time></trkpt><trkpt lat="44.5001972" lon="11.6100828"><ele>16.5</ele><time>2026-05-01T09:05:53.325Z</time></trkpt><trkpt lat="44.5000902" lon="11.6102113"><ele>16.75</ele><time>2026-05-01T09:05:54.325Z</time></trkpt><trkpt lat="44.4999586" lon="11.6103488"><ele>17.0</ele><time>2026-05-01T09:05:55.326Z</time></trkpt><trkpt lat="44.4998337" lon="11.6104864"><ele>17.333333333333336</ele><time>2026-05-01T09:05:56.326Z</time></trkpt><trkpt lat="44.4997043" lon="11.6106299"><ele>17.666666666666668</ele><time>2026-05-01T09:05:57.326Z</time></trkpt><trkpt lat="44.4995723" lon="11.6107848"><ele>18.0</ele><time>2026-05-01T09:05:58.326Z</time></trkpt><trkpt lat="44.4994399" lon="11.6109471"><ele>18.0</ele><time>2026-05-01T09:05:59.326Z</time></trkpt><trkpt lat="44.4993086" lon="11.6111152"><ele>18.0</ele><time>2026-05-01T09:06:00.326Z</time></trkpt><trkpt lat="44.4991864" lon="11.611285"><ele>18.0</ele><time>2026-05-01T09:06:01.326Z</time></trkpt><trkpt lat="44.4990746" lon="11.6114505"><ele>18.0</ele><time>2026-05-01T09:06:02.326Z</time></trkpt><trkpt lat="44.4989682" lon="11.611597"><ele>18.0</ele><time>2026-05-01T09:06:03.326Z</time></trkpt><trkpt lat="44.4988698" lon="11.6117293"><ele>18.0</ele><time>2026-05-01T09:06:04.326Z</time></trkpt><trkpt lat="44.4987816" lon="11.6118571"><ele>18.0</ele><time>2026-05-01T09:06:05.326Z</time></trkpt><trkpt lat="44.4986977" lon="11.6119807"><ele>17.8</ele><time>2026-05-01T09:06:06.326Z</time></trkpt><trkpt lat="44.4986166" lon="11.6121073"><ele>17.6</ele><time>2026-05-01T09:06:07.326Z</time></trkpt><trkpt lat="44.4985388" lon="11.6122025"><ele>17.4</ele><time>2026-05-01T09:06:08.326Z</time></trkpt><trkpt lat="44.4984481" lon="11.6122744"><ele>17.2</ele><time>2026-05-01T09:06:09.326Z</time></trkpt><trkpt lat="44.4983541" lon="11.612289"><ele>17.0</ele><time>2026-05-01T09:06:10.326Z</time></trkpt><trkpt lat="44.4982309" lon="11.6122107"><ele>17.0</ele><time>2026-05-01T09:06:11.327Z</time></trkpt><trkpt lat="44.4981321" lon="11.6121193"><ele>17.0</ele><time>2026-05-01T09:06:12.327Z</time></trkpt><trkpt lat="44.4980189" lon="11.6119825"><ele>17.0</ele><time>2026-05-01T09:06:13.326Z</time></trkpt><trkpt lat="44.4978951" lon="11.6118222"><ele>17.0</ele><time>2026-05-01T09:06:14.326Z</time></trkpt><trkpt lat="44.4977712" lon="11.6116438"><ele>17.333333333333336</ele><time>2026-05-01T09:06:15.326Z</time></trkpt><trkpt lat="44.497647" lon="11.6115024"><ele>17.666666666666668</ele><time>2026-05-01T09:06:16.326Z</time></trkpt><trkpt lat="44.4975218" lon="11.6113648"><ele>18.0</ele><time>2026-05-01T09:06:17.326Z</time></trkpt><trkpt lat="44.4973973" lon="11.6112286"><ele>18.25</ele><time>2026-05-01T09:06:18.326Z</time></trkpt><trkpt lat="44.4972755" lon="11.6110949"><ele>18.5</ele><time>2026-05-01T09:06:19.326Z</time></trkpt><trkpt lat="44.4971598" lon="11.6109654"><ele>18.75</ele><time>2026-05-01T09:06:20.326Z</time></trkpt><trkpt lat="44.4970499" lon="11.6108422"><ele>19.0</ele><time>2026-05-01T09:06:21.326Z</time></trkpt><trkpt lat="44.496943" lon="11.6107275"><ele>19.25</ele><time>2026-05-01T09:06:22.326Z</time></trkpt><trkpt lat="44.4968398" lon="11.6106088"><ele>19.5</ele><time>2026-05-01T09:06:23.326Z</time></trkpt><trkpt lat="44.4967406" lon="11.6104935"><ele>19.75</ele><time>2026-05-01T09:06:24.326Z</time></trkpt><trkpt lat="44.4966533" lon="11.6103852"><ele>20.0</ele><time>2026-05-01T09:06:25.326Z</time></trkpt><trkpt lat="44.4965805" lon="11.6102975"><ele>20.0</ele><time>2026-05-01T09:06:26.326Z</time></trkpt><trkpt lat="44.4965176" lon="11.6102247"><ele>20.0</ele><time>2026-05-01T09:06:27.326Z</time></trkpt><trkpt lat="44.4964602" lon="11.610187"><ele>20.0</ele><time>2026-05-01T09:06:28.326Z</time></trkpt><trkpt lat="44.4963388" lon="11.6103034"><ele>20.0</ele><time>2026-05-01T09:06:30.326Z</time></trkpt><trkpt lat="44.4962886" lon="11.6104049"><ele>20.0</ele><time>2026-05-01T09:06:31.327Z</time></trkpt><trkpt lat="44.4962552" lon="11.6105431"><ele>20.25</ele><time>2026-05-01T09:06:32.326Z</time></trkpt><trkpt lat="44.4962126" lon="11.6106763"><ele>20.5</ele><time>2026-05-01T09:06:33.326Z</time></trkpt><trkpt lat="44.4961593" lon="11.6108075"><ele>20.75</ele><time>2026-05-01T09:06:34.326Z</time></trkpt><trkpt lat="44.4960876" lon="11.6109452"><ele>21.0</ele><time>2026-05-01T09:06:35.326Z</time></trkpt><trkpt lat="44.4960216" lon="11.6111086"><ele>21.0</ele><time>2026-05-01T09:06:36.326Z</time></trkpt><trkpt lat="44.4959521" lon="11.6112625"><ele>21.0</ele><time>2026-05-01T09:06:37.326Z</time></trkpt><trkpt lat="44.4958876" lon="11.6114093"><ele>21.0</ele><time>2026-05-01T09:06:38.326Z</time></trkpt><trkpt lat="44.4958271" lon="11.611538"><ele>21.0</ele><time>2026-05-01T09:06:39.326Z</time></trkpt><trkpt lat="44.4957666" lon="11.6116432"><ele>21.0</ele><time>2026-05-01T09:06:40.326Z</time></trkpt><trkpt lat="44.4957096" lon="11.6117237"><ele>21.0</ele><time>2026-05-01T09:06:41.326Z</time></trkpt><trkpt lat="44.495644" lon="11.6117709"><ele>21.0</ele><time>2026-05-01T09:06:42.326Z</time></trkpt><trkpt lat="44.4955337" lon="11.6117392"><ele>21.0</ele><time>2026-05-01T09:06:43.326Z</time></trkpt><trkpt lat="44.495465" lon="11.6117183"><ele>21.0</ele><time>2026-05-01T09:06:44.326Z</time></trkpt><trkpt lat="44.4953769" lon="11.6116371"><ele>21.0</ele><time>2026-05-01T09:06:45.326Z</time></trkpt><trkpt lat="44.4952832" lon="11.6115515"><ele>21.0</ele><time>2026-05-01T09:06:46.326Z</time></trkpt><trkpt lat="44.4951647" lon="11.6114128"><ele>21.0</ele><time>2026-05-01T09:06:47.326Z</time></trkpt><trkpt lat="44.4950844" lon="11.6113732"><ele>21.0</ele><time>2026-05-01T09:06:48.326Z</time></trkpt><trkpt lat="44.4949858" lon="11.6113055"><ele>21.0</ele><time>2026-05-01T09:06:49.326Z</time></trkpt><trkpt lat="44.4949047" lon="11.6113234"><ele>21.0</ele><time>2026-05-01T09:06:50.326Z</time></trkpt><trkpt lat="44.4947505" lon="11.611595"><ele>21.0</ele><time>2026-05-01T09:06:52.326Z</time></trkpt><trkpt lat="44.4946722" lon="11.6117365"><ele>21.0</ele><time>2026-05-01T09:06:53.326Z</time></trkpt><trkpt lat="44.4945864" lon="11.6118902"><ele>21.0</ele><time>2026-05-01T09:06:54.327Z</time></trkpt><trkpt lat="44.4944977" lon="11.6120491"><ele>21.0</ele><time>2026-05-01T09:06:55.327Z</time></trkpt><trkpt lat="44.4944026" lon="11.6122132"><ele>20.333333333333332</ele><time>2026-05-01T09:06:56.327Z</time></trkpt><trkpt lat="44.4942996" lon="11.6123844"><ele>19.666666666666664</ele><time>2026-05-01T09:06:57.327Z</time></trkpt><trkpt lat="44.4941924" lon="11.6125617"><ele>19.0</ele><time>2026-05-01T09:06:58.327Z</time></trkpt><trkpt lat="44.4940823" lon="11.6127452"><ele>19.666666666666664</ele><time>2026-05-01T09:06:59.327Z</time></trkpt><trkpt lat="44.4939735" lon="11.6129272"><ele>20.333333333333332</ele><time>2026-05-01T09:07:00.327Z</time></trkpt><trkpt lat="44.4938623" lon="11.6131143"><ele>21.0</ele><time>2026-05-01T09:07:01.327Z</time></trkpt><trkpt lat="44.4937497" lon="11.6133014"><ele>21.0</ele><time>2026-05-01T09:07:02.327Z</time></trkpt><trkpt lat="44.4936331" lon="11.6134911"><ele>21.0</ele><time>2026-05-01T09:07:03.327Z</time></trkpt><trkpt lat="44.493513" lon="11.613689"><ele>21.0</ele><time>2026-05-01T09:07:04.327Z</time></trkpt><trkpt lat="44.4933901" lon="11.6138916"><ele>20.666666666666668</ele><time>2026-05-01T09:07:05.327Z</time></trkpt><trkpt lat="44.4932649" lon="11.6141015"><ele>20.333333333333336</ele><time>2026-05-01T09:07:06.327Z</time></trkpt><trkpt lat="44.4931383" lon="11.614314"><ele>20.0</ele><time>2026-05-01T09:07:07.327Z</time></trkpt><trkpt lat="44.4930099" lon="11.6145278"><ele>20.666666666666668</ele><time>2026-05-01T09:07:08.327Z</time></trkpt><trkpt lat="44.4928791" lon="11.6147419"><ele>21.333333333333332</ele><time>2026-05-01T09:07:09.327Z</time></trkpt><trkpt lat="44.49275" lon="11.6149508"><ele>22.0</ele><time>2026-05-01T09:07:10.327Z</time></trkpt><trkpt lat="44.4926284" lon="11.6151634"><ele>22.666666666666664</ele><time>2026-05-01T09:07:11.327Z</time></trkpt><trkpt lat="44.4925069" lon="11.6153706"><ele>23.333333333333332</ele><time>2026-05-01T09:07:12.327Z</time></trkpt><trkpt lat="44.4923943" lon="11.6155646"><ele>24.0</ele><time>2026-05-01T09:07:13.327Z</time></trkpt><trkpt lat="44.4922951" lon="11.6157366"><ele>24.0</ele><time>2026-05-01T09:07:14.327Z</time></trkpt><trkpt lat="44.4922111" lon="11.6158813"><ele>24.0</ele><time>2026-05-01T09:07:15.327Z</time></trkpt><trkpt lat="44.4921354" lon="11.6160251"><ele>24.0</ele><time>2026-05-01T09:07:16.327Z</time></trkpt><trkpt lat="44.4920489" lon="11.6161874"><ele>24.0</ele><time>2026-05-01T09:07:17.327Z</time></trkpt><trkpt lat="44.4919576" lon="11.6163732"><ele>23.0</ele><time>2026-05-01T09:07:18.327Z</time></trkpt><trkpt lat="44.4918689" lon="11.6165813"><ele>22.0</ele><time>2026-05-01T09:07:19.327Z</time></trkpt><trkpt lat="44.4917865" lon="11.616797"><ele>21.0</ele><time>2026-05-01T09:07:20.327Z</time></trkpt><trkpt lat="44.4917009" lon="11.6170119"><ele>21.0</ele><time>2026-05-01T09:07:21.327Z</time></trkpt><trkpt lat="44.4916062" lon="11.617227"><ele>21.0</ele><time>2026-05-01T09:07:22.327Z</time></trkpt><trkpt lat="44.4915078" lon="11.6174501"><ele>21.0</ele><time>2026-05-01T09:07:23.327Z</time></trkpt><trkpt lat="44.4914066" lon="11.6176774"><ele>21.0</ele><time>2026-05-01T09:07:24.327Z</time></trkpt><trkpt lat="44.4913084" lon="11.6179134"><ele>21.0</ele><time>2026-05-01T09:07:25.327Z</time></trkpt><trkpt lat="44.4912114" lon="11.618152"><ele>21.0</ele><time>2026-05-01T09:07:26.327Z</time></trkpt><trkpt lat="44.4911125" lon="11.6183885"><ele>21.333333333333332</ele><time>2026-05-01T09:07:27.327Z</time></trkpt><trkpt lat="44.4910147" lon="11.6186202"><ele>21.666666666666664</ele><time>2026-05-01T09:07:28.327Z</time></trkpt><trkpt lat="44.4909181" lon="11.6188496"><ele>22.0</ele><time>2026-05-01T09:07:29.327Z</time></trkpt><trkpt lat="44.4908218" lon="11.619076"><ele>22.0</ele><time>2026-05-01T09:07:30.327Z</time></trkpt><trkpt lat="44.4907232" lon="11.6193006"><ele>22.0</ele><time>2026-05-01T09:07:31.327Z</time></trkpt><trkpt lat="44.4906232" lon="11.6195172"><ele>22.0</ele><time>2026-05-01T09:07:32.327Z</time></trkpt><trkpt lat="44.4905018" lon="11.6197219"><ele>21.333333333333332</ele><time>2026-05-01T09:07:33.327Z</time></trkpt><trkpt lat="44.4903738" lon="11.6199217"><ele>20.666666666666668</ele><time>2026-05-01T09:07:34.327Z</time></trkpt><trkpt lat="44.4902258" lon="11.6201114"><ele>20.0</ele><time>2026-05-01T09:07:35.327Z</time></trkpt><trkpt lat="44.4900694" lon="11.6202901"><ele>20.0</ele><time>2026-05-01T09:07:36.327Z</time></trkpt><trkpt lat="44.4899078" lon="11.6204566"><ele>20.0</ele><time>2026-05-01T09:07:37.327Z</time></trkpt><trkpt lat="44.4897475" lon="11.6206301"><ele>20.0</ele><time>2026-05-01T09:07:38.327Z</time></trkpt><trkpt lat="44.4895889" lon="11.6208035"><ele>20.0</ele><time>2026-05-01T09:07:39.328Z</time></trkpt><trkpt lat="44.4894361" lon="11.6209769"><ele>20.0</ele><time>2026-05-01T09:07:40.327Z</time></trkpt><trkpt lat="44.489291" lon="11.6211634"><ele>20.0</ele><time>2026-05-01T09:07:41.328Z</time></trkpt><trkpt lat="44.4891654" lon="11.6213663"><ele>20.333333333333336</ele><time>2026-05-01T09:07:42.327Z</time></trkpt><trkpt lat="44.4890559" lon="11.6215784"><ele>20.666666666666668</ele><time>2026-05-01T09:07:43.327Z</time></trkpt><trkpt lat="44.4889552" lon="11.6218046"><ele>21.0</ele><time>2026-05-01T09:07:44.327Z</time></trkpt><trkpt lat="44.4888537" lon="11.6220366"><ele>22.0</ele><time>2026-05-01T09:07:45.327Z</time></trkpt><trkpt lat="44.4887477" lon="11.6222684"><ele>23.0</ele><time>2026-05-01T09:07:46.327Z</time></trkpt><trkpt lat="44.4886298" lon="11.622502"><ele>24.0</ele><time>2026-05-01T09:07:47.327Z</time></trkpt><trkpt lat="44.4885018" lon="11.6227317"><ele>23.0</ele><time>2026-05-01T09:07:48.328Z</time></trkpt><trkpt lat="44.4883666" lon="11.6229606"><ele>22.0</ele><time>2026-05-01T09:07:49.327Z</time></trkpt><trkpt lat="44.4882381" lon="11.6231964"><ele>21.0</ele><time>2026-05-01T09:07:50.327Z</time></trkpt><trkpt lat="44.4881123" lon="11.623434"><ele>21.0</ele><time>2026-05-01T09:07:51.328Z</time></trkpt><trkpt lat="44.4879896" lon="11.6236794"><ele>21.0</ele><time>2026-05-01T09:07:52.328Z</time></trkpt><trkpt lat="44.4878688" lon="11.623922"><ele>21.0</ele><time>2026-05-01T09:07:53.328Z</time></trkpt><trkpt lat="44.4877556" lon="11.6241811"><ele>21.0</ele><time>2026-05-01T09:07:54.328Z</time></trkpt><trkpt lat="44.4876452" lon="11.6244329"><ele>21.0</ele><time>2026-05-01T09:07:55.328Z</time></trkpt><trkpt lat="44.4875396" lon="11.6246826"><ele>21.0</ele><time>2026-05-01T09:07:56.328Z</time></trkpt><trkpt lat="44.4874361" lon="11.6249172"><ele>20.666666666666668</ele><time>2026-05-01T09:07:57.328Z</time></trkpt><trkpt lat="44.4873391" lon="11.625153"><ele>20.333333333333336</ele><time>2026-05-01T09:07:58.328Z</time></trkpt><trkpt lat="44.4872474" lon="11.6253804"><ele>20.0</ele><time>2026-05-01T09:07:59.328Z</time></trkpt><trkpt lat="44.4871596" lon="11.625603"><ele>20.666666666666668</ele><time>2026-05-01T09:08:00.328Z</time></trkpt><trkpt lat="44.4870717" lon="11.6258209"><ele>21.333333333333332</ele><time>2026-05-01T09:08:01.328Z</time></trkpt><trkpt lat="44.4869865" lon="11.6260379"><ele>22.0</ele><time>2026-05-01T09:08:02.328Z</time></trkpt><trkpt lat="44.4869007" lon="11.6262531"><ele>22.0</ele><time>2026-05-01T09:08:03.328Z</time></trkpt><trkpt lat="44.4868166" lon="11.626469"><ele>22.0</ele><time>2026-05-01T09:08:04.328Z</time></trkpt><trkpt lat="44.4867344" lon="11.6266765"><ele>22.0</ele><time>2026-05-01T09:08:05.328Z</time></trkpt><trkpt lat="44.4866482" lon="11.6268799"><ele>20.666666666666664</ele><time>2026-05-01T09:08:06.328Z</time></trkpt><trkpt lat="44.4865617" lon="11.6270749"><ele>19.333333333333332</ele><time>2026-05-01T09:08:07.328Z</time></trkpt><trkpt lat="44.4864742" lon="11.6272613"><ele>18.0</ele><time>2026-05-01T09:08:08.328Z</time></trkpt><trkpt lat="44.4864012" lon="11.6274112"><ele>18.0</ele><time>2026-05-01T09:08:09.328Z</time></trkpt><trkpt lat="44.4863381" lon="11.6275424"><ele>18.0</ele><time>2026-05-01T09:08:10.328Z</time></trkpt><trkpt lat="44.486281" lon="11.62766"><ele>18.0</ele><time>2026-05-01T09:08:11.328Z</time></trkpt><trkpt lat="44.4862347" lon="11.6277718"><ele>18.0</ele><time>2026-05-01T09:08:12.328Z</time></trkpt><trkpt lat="44.4861872" lon="11.6278943"><ele>18.0</ele><time>2026-05-01T09:08:13.328Z</time></trkpt><trkpt lat="44.4861354" lon="11.6280286"><ele>18.5</ele><time>2026-05-01T09:08:14.328Z</time></trkpt><trkpt lat="44.4860803" lon="11.6281772"><ele>19.0</ele><time>2026-05-01T09:08:15.328Z</time></trkpt><trkpt lat="44.4860225" lon="11.6283448"><ele>19.5</ele><time>2026-05-01T09:08:16.328Z</time></trkpt><trkpt lat="44.4859637" lon="11.6285205"><ele>20.0</ele><time>2026-05-01T09:08:17.328Z</time></trkpt><trkpt lat="44.4859028" lon="11.6287082"><ele>20.5</ele><time>2026-05-01T09:08:18.328Z</time></trkpt><trkpt lat="44.4858373" lon="11.6289081"><ele>21.0</ele><time>2026-05-01T09:08:19.328Z</time></trkpt><trkpt lat="44.4857746" lon="11.6290901"><ele>21.5</ele><time>2026-05-01T09:08:20.328Z</time></trkpt><trkpt lat="44.4857125" lon="11.6292774"><ele>22.0</ele><time>2026-05-01T09:08:21.328Z</time></trkpt><trkpt lat="44.4856506" lon="11.629467"><ele>22.333333333333332</ele><time>2026-05-01T09:08:22.328Z</time></trkpt><trkpt lat="44.4855897" lon="11.6296658"><ele>22.666666666666668</ele><time>2026-05-01T09:08:23.328Z</time></trkpt><trkpt lat="44.4855281" lon="11.6298644"><ele>23.0</ele><time>2026-05-01T09:08:24.328Z</time></trkpt><trkpt lat="44.4854693" lon="11.630062"><ele>22.5</ele><time>2026-05-01T09:08:25.328Z</time></trkpt><trkpt lat="44.4854112" lon="11.6302558"><ele>22.0</ele><time>2026-05-01T09:08:26.328Z</time></trkpt><trkpt lat="44.485356" lon="11.6304522"><ele>21.5</ele><time>2026-05-01T09:08:27.328Z</time></trkpt><trkpt lat="44.4852989" lon="11.6306442"><ele>21.0</ele><time>2026-05-01T09:08:28.328Z</time></trkpt><trkpt lat="44.4852419" lon="11.6308405"><ele>21.0</ele><time>2026-05-01T09:08:29.328Z</time></trkpt><trkpt lat="44.4851798" lon="11.631031"><ele>21.0</ele><time>2026-05-01T09:08:30.328Z</time></trkpt><trkpt lat="44.48512" lon="11.6312188"><ele>21.0</ele><time>2026-05-01T09:08:31.328Z</time></trkpt><trkpt lat="44.4850543" lon="11.6314003"><ele>21.0</ele><time>2026-05-01T09:08:32.328Z</time></trkpt><trkpt lat="44.4849827" lon="11.6315711"><ele>20.75</ele><time>2026-05-01T09:08:33.328Z</time></trkpt><trkpt lat="44.4849069" lon="11.6317317"><ele>20.5</ele><time>2026-05-01T09:08:34.328Z</time></trkpt><trkpt lat="44.4848284" lon="11.6318831"><ele>20.25</ele><time>2026-05-01T09:08:35.328Z</time></trkpt><trkpt lat="44.4847503" lon="11.632033"><ele>20.0</ele><time>2026-05-01T09:08:36.328Z</time></trkpt><trkpt lat="44.4846746" lon="11.6321755"><ele>20.0</ele><time>2026-05-01T09:08:37.329Z</time></trkpt><trkpt lat="44.4845973" lon="11.6323155"><ele>20.0</ele><time>2026-05-01T09:08:38.328Z</time></trkpt><trkpt lat="44.4845145" lon="11.6324503"><ele>20.0</ele><time>2026-05-01T09:08:39.328Z</time></trkpt><trkpt lat="44.4844299" lon="11.6325924"><ele>20.0</ele><time>2026-05-01T09:08:40.328Z</time></trkpt><trkpt lat="44.4843394" lon="11.6327367"><ele>20.75</ele><time>2026-05-01T09:08:41.328Z</time></trkpt><trkpt lat="44.4842509" lon="11.632886"><ele>21.5</ele><time>2026-05-01T09:08:42.328Z</time></trkpt><trkpt lat="44.4841605" lon="11.6330399"><ele>22.25</ele><time>2026-05-01T09:08:43.328Z</time></trkpt><trkpt lat="44.4840753" lon="11.6332011"><ele>23.0</ele><time>2026-05-01T09:08:44.328Z</time></trkpt><trkpt lat="44.4839974" lon="11.633361"><ele>23.0</ele><time>2026-05-01T09:08:45.328Z</time></trkpt><trkpt lat="44.4839231" lon="11.6335212"><ele>23.0</ele><time>2026-05-01T09:08:46.328Z</time></trkpt><trkpt lat="44.4838515" lon="11.6336713"><ele>23.0</ele><time>2026-05-01T09:08:47.329Z</time></trkpt><trkpt lat="44.4837847" lon="11.6338197"><ele>23.0</ele><time>2026-05-01T09:08:48.329Z</time></trkpt><trkpt lat="44.4837229" lon="11.6339621"><ele>22.599999999999998</ele><time>2026-05-01T09:08:49.329Z</time></trkpt><trkpt lat="44.4836659" lon="11.634096"><ele>22.2</ele><time>2026-05-01T09:08:50.329Z</time></trkpt><trkpt lat="44.483611" lon="11.6342195"><ele>21.8</ele><time>2026-05-01T09:08:51.329Z</time></trkpt><trkpt lat="44.4835605" lon="11.6343284"><ele>21.4</ele><time>2026-05-01T09:08:52.329Z</time></trkpt><trkpt lat="44.4835163" lon="11.6344173"><ele>21.0</ele><time>2026-05-01T09:08:53.329Z</time></trkpt><trkpt lat="44.483456" lon="11.6345411"><ele>21.0</ele><time>2026-05-01T09:08:55.329Z</time></trkpt><trkpt lat="44.4834106" lon="11.634628"><ele>21.0</ele><time>2026-05-01T09:08:57.33Z</time></trkpt><trkpt lat="44.483314" lon="11.6346806"><ele>21.0</ele><time>2026-05-01T09:08:59.329Z</time></trkpt><trkpt lat="44.4832287" lon="11.6346332"><ele>21.0</ele><time>2026-05-01T09:09:00.329Z</time></trkpt><trkpt lat="44.4831209" lon="11.6345295"><ele>21.0</ele><time>2026-05-01T09:09:01.329Z</time></trkpt><trkpt lat="44.4830032" lon="11.6344109"><ele>21.25</ele><time>2026-05-01T09:09:02.329Z</time></trkpt><trkpt lat="44.4828846" lon="11.6343104"><ele>21.5</ele><time>2026-05-01T09:09:03.329Z</time></trkpt><trkpt lat="44.4827641" lon="11.6342203"><ele>21.75</ele><time>2026-05-01T09:09:04.329Z</time></trkpt><trkpt lat="44.4826377" lon="11.6341223"><ele>22.0</ele><time>2026-05-01T09:09:05.329Z</time></trkpt><trkpt lat="44.4825168" lon="11.634024"><ele>22.0</ele><time>2026-05-01T09:09:06.329Z</time></trkpt><trkpt lat="44.4823958" lon="11.6339244"><ele>22.0</ele><time>2026-05-01T09:09:07.329Z</time></trkpt><trkpt lat="44.4822846" lon="11.6338332"><ele>22.0</ele><time>2026-05-01T09:09:08.329Z</time></trkpt><trkpt lat="44.4821799" lon="11.6337516"><ele>22.0</ele><time>2026-05-01T09:09:09.329Z</time></trkpt><trkpt lat="44.4820893" lon="11.6336766"><ele>22.333333333333332</ele><time>2026-05-01T09:09:10.329Z</time></trkpt><trkpt lat="44.4820126" lon="11.6336159"><ele>22.666666666666664</ele><time>2026-05-01T09:09:11.329Z</time></trkpt><trkpt lat="44.4819464" lon="11.6335664"><ele>23.0</ele><time>2026-05-01T09:09:12.329Z</time></trkpt><trkpt lat="44.4818835" lon="11.6335207"><ele>23.333333333333332</ele><time>2026-05-01T09:09:13.329Z</time></trkpt><trkpt lat="44.4818078" lon="11.6334629"><ele>23.666666666666668</ele><time>2026-05-01T09:09:14.329Z</time></trkpt><trkpt lat="44.4817307" lon="11.6334"><ele>24.0</ele><time>2026-05-01T09:09:15.329Z</time></trkpt><trkpt lat="44.4816498" lon="11.6333362"><ele>24.0</ele><time>2026-05-01T09:09:16.329Z</time></trkpt><trkpt lat="44.4815702" lon="11.6332689"><ele>24.0</ele><time>2026-05-01T09:09:17.329Z</time></trkpt><trkpt lat="44.481484" lon="11.6331985"><ele>24.0</ele><time>2026-05-01T09:09:18.329Z</time></trkpt><trkpt lat="44.4813917" lon="11.6331254"><ele>24.0</ele><time>2026-05-01T09:09:19.329Z</time></trkpt><trkpt lat="44.4812974" lon="11.6330483"><ele>24.0</ele><time>2026-05-01T09:09:20.33Z</time></trkpt><trkpt lat="44.4812023" lon="11.6329687"><ele>24.0</ele><time>2026-05-01T09:09:21.329Z</time></trkpt><trkpt lat="44.4811017" lon="11.6328887"><ele>24.0</ele><time>2026-05-01T09:09:22.329Z</time></trkpt><trkpt lat="44.4810027" lon="11.6328141"><ele>24.0</ele><time>2026-05-01T09:09:23.329Z</time></trkpt><trkpt lat="44.4809082" lon="11.6327403"><ele>24.0</ele><time>2026-05-01T09:09:24.329Z</time></trkpt><trkpt lat="44.4808193" lon="11.6326666"><ele>24.0</ele><time>2026-05-01T09:09:25.329Z</time></trkpt><trkpt lat="44.4807403" lon="11.6325992"><ele>23.6</ele><time>2026-05-01T09:09:26.329Z</time></trkpt><trkpt lat="44.4806746" lon="11.6325317"><ele>23.2</ele><time>2026-05-01T09:09:27.329Z</time></trkpt><trkpt lat="44.4806158" lon="11.6324448"><ele>22.8</ele><time>2026-05-01T09:09:28.33Z</time></trkpt><trkpt lat="44.4805687" lon="11.6323341"><ele>22.400000000000002</ele><time>2026-05-01T09:09:29.329Z</time></trkpt><trkpt lat="44.480536" lon="11.6321976"><ele>22.0</ele><time>2026-05-01T09:09:30.329Z</time></trkpt><trkpt lat="44.4805049" lon="11.6320513"><ele>22.200000000000003</ele><time>2026-05-01T09:09:31.329Z</time></trkpt><trkpt lat="44.4804732" lon="11.6319074"><ele>22.4</ele><time>2026-05-01T09:09:32.329Z</time></trkpt><trkpt lat="44.4804335" lon="11.6317602"><ele>22.6</ele><time>2026-05-01T09:09:33.329Z</time></trkpt><trkpt lat="44.4803903" lon="11.6316211"><ele>22.799999999999997</ele><time>2026-05-01T09:09:34.329Z</time></trkpt><trkpt lat="44.4803498" lon="11.6315033"><ele>23.0</ele><time>2026-05-01T09:09:35.329Z</time></trkpt><trkpt lat="44.4803109" lon="11.6314087"><ele>22.833333333333336</ele><time>2026-05-01T09:09:36.329Z</time></trkpt><trkpt lat="44.4802692" lon="11.6313202"><ele>22.666666666666668</ele><time>2026-05-01T09:09:37.33Z</time></trkpt><trkpt lat="44.4802283" lon="11.6312366"><ele>22.5</ele><time>2026-05-01T09:09:38.329Z</time></trkpt><trkpt lat="44.480201" lon="11.6311268"><ele>22.333333333333332</ele><time>2026-05-01T09:09:39.329Z</time></trkpt><trkpt lat="44.4801744" lon="11.6310043"><ele>22.166666666666664</ele><time>2026-05-01T09:09:40.329Z</time></trkpt><trkpt lat="44.4801432" lon="11.6308908"><ele>22.0</ele><time>2026-05-01T09:09:41.329Z</time></trkpt><trkpt lat="44.480101" lon="11.6307819"><ele>22.0</ele><time>2026-05-01T09:09:42.329Z</time></trkpt><trkpt lat="44.4800444" lon="11.630706"><ele>22.0</ele><time>2026-05-01T09:09:43.329Z</time></trkpt><trkpt lat="44.4799743" lon="11.6306513"><ele>22.0</ele><time>2026-05-01T09:09:44.33Z</time></trkpt><trkpt lat="44.4798981" lon="11.6306228"><ele>22.0</ele><time>2026-05-01T09:09:45.33Z</time></trkpt><trkpt lat="44.4798064" lon="11.630618"><ele>22.0</ele><time>2026-05-01T09:09:46.33Z</time></trkpt><trkpt lat="44.4797108" lon="11.6306377"><ele>22.0</ele><time>2026-05-01T09:09:47.33Z</time></trkpt><trkpt lat="44.4795952" lon="11.6307057"><ele>22.0</ele><time>2026-05-01T09:09:48.33Z</time></trkpt><trkpt lat="44.4794788" lon="11.6308143"><ele>22.0</ele><time>2026-05-01T09:09:49.33Z</time></trkpt><trkpt lat="44.4793553" lon="11.6309541"><ele>22.0</ele><time>2026-05-01T09:09:50.331Z</time></trkpt><trkpt lat="44.4792153" lon="11.6310588"><ele>22.0</ele><time>2026-05-01T09:09:51.33Z</time></trkpt><trkpt lat="44.4790664" lon="11.6311112"><ele>22.0</ele><time>2026-05-01T09:09:52.33Z</time></trkpt><trkpt lat="44.4789044" lon="11.6311229"><ele>22.0</ele><time>2026-05-01T09:09:53.33Z</time></trkpt><trkpt lat="44.4787403" lon="11.6310997"><ele>22.333333333333332</ele><time>2026-05-01T09:09:54.33Z</time></trkpt><trkpt lat="44.4785749" lon="11.6310346"><ele>22.666666666666668</ele><time>2026-05-01T09:09:55.33Z</time></trkpt><trkpt lat="44.4784154" lon="11.6309238"><ele>23.0</ele><time>2026-05-01T09:09:56.33Z</time></trkpt><trkpt lat="44.478255" lon="11.6307611"><ele>23.0</ele><time>2026-05-01T09:09:57.33Z</time></trkpt><trkpt lat="44.478083" lon="11.6306106"><ele>23.0</ele><time>2026-05-01T09:09:58.33Z</time></trkpt><trkpt lat="44.4779011" lon="11.6304755"><ele>23.0</ele><time>2026-05-01T09:09:59.33Z</time></trkpt><trkpt lat="44.4777179" lon="11.6303515"><ele>23.333333333333336</ele><time>2026-05-01T09:10:00.33Z</time></trkpt><trkpt lat="44.4775337" lon="11.6302239"><ele>23.666666666666668</ele><time>2026-05-01T09:10:01.33Z</time></trkpt><trkpt lat="44.47735" lon="11.6300901"><ele>24.0</ele><time>2026-05-01T09:10:02.33Z</time></trkpt><trkpt lat="44.477162" lon="11.6299522"><ele>24.333333333333336</ele><time>2026-05-01T09:10:03.33Z</time></trkpt><trkpt lat="44.4769751" lon="11.6298187"><ele>24.666666666666668</ele><time>2026-05-01T09:10:04.33Z</time></trkpt><trkpt lat="44.4767919" lon="11.6296909"><ele>25.0</ele><time>2026-05-01T09:10:05.33Z</time></trkpt><trkpt lat="44.4766135" lon="11.6295632"><ele>24.666666666666668</ele><time>2026-05-01T09:10:06.331Z</time></trkpt><trkpt lat="44.4764433" lon="11.6294495"><ele>24.333333333333336</ele><time>2026-05-01T09:10:07.33Z</time></trkpt><trkpt lat="44.4762959" lon="11.629341"><ele>24.0</ele><time>2026-05-01T09:10:08.33Z</time></trkpt><trkpt lat="44.4761666" lon="11.6292494"><ele>24.5</ele><time>2026-05-01T09:10:09.33Z</time></trkpt><trkpt lat="44.4760455" lon="11.6291652"><ele>25.0</ele><time>2026-05-01T09:10:10.33Z</time></trkpt><trkpt lat="44.4759382" lon="11.629092"><ele>25.5</ele><time>2026-05-01T09:10:11.33Z</time></trkpt><trkpt lat="44.4758493" lon="11.6290389"><ele>26.0</ele><time>2026-05-01T09:10:12.33Z</time></trkpt><trkpt lat="44.4757471" lon="11.62899"><ele>26.0</ele><time>2026-05-01T09:10:14.33Z</time></trkpt><trkpt lat="44.4756483" lon="11.6291393"><ele>26.0</ele><time>2026-05-01T09:10:16.33Z</time></trkpt><trkpt lat="44.475608" lon="11.6292758"><ele>26.0</ele><time>2026-05-01T09:10:17.33Z</time></trkpt><trkpt lat="44.4755715" lon="11.629418"><ele>26.0</ele><time>2026-05-01T09:10:18.33Z</time></trkpt><trkpt lat="44.475532" lon="11.6295653"><ele>26.0</ele><time>2026-05-01T09:10:19.33Z</time></trkpt><trkpt lat="44.475493" lon="11.6297081"><ele>26.0</ele><time>2026-05-01T09:10:20.33Z</time></trkpt><trkpt lat="44.4754546" lon="11.6298347"><ele>26.0</ele><time>2026-05-01T09:10:21.33Z</time></trkpt><trkpt lat="44.4754101" lon="11.6299406"><ele>26.0</ele><time>2026-05-01T09:10:22.33Z</time></trkpt><trkpt lat="44.4753894" lon="11.6300382"><ele>26.0</ele><time>2026-05-01T09:10:23.33Z</time></trkpt><trkpt lat="44.4754341" lon="11.6301728"><ele>26.0</ele><time>2026-05-01T09:10:25.33Z</time></trkpt><trkpt lat="44.4755059" lon="11.6302341"><ele>26.0</ele><time>2026-05-01T09:10:26.33Z</time></trkpt><trkpt lat="44.4755833" lon="11.6302935"><ele>26.0</ele><time>2026-05-01T09:10:27.33Z</time></trkpt><trkpt lat="44.4756632" lon="11.630355"><ele>26.0</ele><time>2026-05-01T09:10:28.33Z</time></trkpt><trkpt lat="44.4757412" lon="11.6304247"><ele>26.0</ele><time>2026-05-01T09:10:29.33Z</time></trkpt><trkpt lat="44.4758264" lon="11.630497"><ele>26.200000000000003</ele><time>2026-05-01T09:10:30.33Z</time></trkpt><trkpt lat="44.4759164" lon="11.6305599"><ele>26.400000000000002</ele><time>2026-05-01T09:10:31.33Z</time></trkpt><trkpt lat="44.4760034" lon="11.6306334"><ele>26.6</ele><time>2026-05-01T09:10:32.33Z</time></trkpt><trkpt lat="44.4760797" lon="11.6307125"><ele>26.8</ele><time>2026-05-01T09:10:33.33Z</time></trkpt><trkpt lat="44.4761635" lon="11.6307772"><ele>27.0</ele><time>2026-05-01T09:10:34.33Z</time></trkpt><trkpt lat="44.476244" lon="11.6308444"><ele>27.200000000000003</ele><time>2026-05-01T09:10:35.33Z</time></trkpt><trkpt lat="44.4763175" lon="11.6309054"><ele>27.400000000000002</ele><time>2026-05-01T09:10:36.33Z</time></trkpt><trkpt lat="44.4763816" lon="11.6309671"><ele>27.599999999999998</ele><time>2026-05-01T09:10:37.33Z</time></trkpt><trkpt lat="44.4764388" lon="11.6310207"><ele>27.799999999999997</ele><time>2026-05-01T09:10:38.33Z</time></trkpt><trkpt lat="44.4765331" lon="11.6310248"><ele>28.0</ele><time>2026-05-01T09:10:40.33Z</time></trkpt><trkpt lat="44.4766273" lon="11.6308997"><ele>28.0</ele><time>2026-05-01T09:10:42.331Z</time></trkpt><trkpt lat="44.4766573" lon="11.6307996"><ele>28.0</ele><time>2026-05-01T09:10:43.331Z</time></trkpt><trkpt lat="44.4766927" lon="11.6307087"><ele>28.0</ele><time>2026-05-01T09:10:44.331Z</time></trkpt><trkpt lat="44.4767497" lon="11.6305796"><ele>28.0</ele><time>2026-05-01T09:10:46.332Z</time></trkpt><trkpt lat="44.4767989" lon="11.6304997"><ele>28.0</ele><time>2026-05-01T09:10:48.331Z</time></trkpt></trkseg></trk></gpx>